<?xml version="1.0" encoding="UTF-8" standalone="no" ?>
<gpx xmlns="http://www.topografix.com/GPX/1/1" xmlns:xsi="http://www.w3.org/2001/XMLSchema-instance" xsi:schemaLocation="http://www.topografix.com/GPX/1/1 http://www.topografix.com/GPX/1/1/gpx.xsd" version="1.1" creator="VisuGPX - https://www.visugpx.com">
  <metadata>
    <name>Le Pic Prada depuis les granges de Lurgues (Commune d'Aulon) en boucle en passant par Saint-Lary</name>
    <desc><![CDATA[23 février 2012. 

Le Pic Prada depuis les granges de Lurgues (Commune d'Aulon) en boucle en passant par Saint-Lary. Petit coup de pouce des remontées mécaniques de Saint Lary (en cachant les couteaux dans le sac  pour avoir l'air de skieurs de piste !). Très beau temps et encore très bonne neige en hauteur. Dénivelé total à skis 1844 - 620 (remontées mécaniques) = 1224.]]></desc>
  </metadata>
  <trk>
    <name><![CDATA[Le Pic Prada depuis les granges de Lurgues (Commune d'Aulon) en boucle en passant par Saint-Lary_1]]></name>
    <trkseg>
      <trkpt lat="42.85173" lon="0.2785">
        <ele>1397</ele>
        <time>2012-02-23T07:33:16Z</time>
      </trkpt>
      <trkpt lat="42.85196" lon="0.27831">
        <ele>1393</ele>
        <time>2012-02-23T07:35:01Z</time>
      </trkpt>
      <trkpt lat="42.85201" lon="0.27831">
        <ele>1389</ele>
        <time>2012-02-23T07:35:05Z</time>
      </trkpt>
      <trkpt lat="42.85204" lon="0.27832">
        <ele>1385</ele>
        <time>2012-02-23T07:35:09Z</time>
      </trkpt>
      <trkpt lat="42.85205" lon="0.27832">
        <ele>1381</ele>
        <time>2012-02-23T07:35:18Z</time>
      </trkpt>
      <trkpt lat="42.85203" lon="0.27831">
        <ele>1381</ele>
        <time>2012-02-23T07:35:21Z</time>
      </trkpt>
      <trkpt lat="42.85202" lon="0.27832">
        <ele>1381</ele>
        <time>2012-02-23T07:35:27Z</time>
      </trkpt>
      <trkpt lat="42.85202" lon="0.27832">
        <ele>1383</ele>
        <time>2012-02-23T07:35:38Z</time>
      </trkpt>
      <trkpt lat="42.852" lon="0.27832">
        <ele>1383</ele>
        <time>2012-02-23T07:35:44Z</time>
      </trkpt>
      <trkpt lat="42.85193" lon="0.2783">
        <ele>1383</ele>
        <time>2012-02-23T07:35:47Z</time>
      </trkpt>
      <trkpt lat="42.85194" lon="0.27831">
        <ele>1386</ele>
        <time>2012-02-23T07:35:58Z</time>
      </trkpt>
      <trkpt lat="42.85192" lon="0.2783">
        <ele>1386</ele>
        <time>2012-02-23T07:36:05Z</time>
      </trkpt>
      <trkpt lat="42.85189" lon="0.27829">
        <ele>1386</ele>
        <time>2012-02-23T07:36:09Z</time>
      </trkpt>
      <trkpt lat="42.85184" lon="0.27828">
        <ele>1386</ele>
        <time>2012-02-23T07:36:14Z</time>
      </trkpt>
      <trkpt lat="42.85181" lon="0.27828">
        <ele>1386</ele>
        <time>2012-02-23T07:36:18Z</time>
      </trkpt>
      <trkpt lat="42.85177" lon="0.27826">
        <ele>1386</ele>
        <time>2012-02-23T07:36:22Z</time>
      </trkpt>
      <trkpt lat="42.85175" lon="0.27826">
        <ele>1386</ele>
        <time>2012-02-23T07:36:25Z</time>
      </trkpt>
      <trkpt lat="42.85171" lon="0.27822">
        <ele>1386</ele>
        <time>2012-02-23T07:36:30Z</time>
      </trkpt>
      <trkpt lat="42.85167" lon="0.27821">
        <ele>1386</ele>
        <time>2012-02-23T07:36:35Z</time>
      </trkpt>
      <trkpt lat="42.85164" lon="0.2782">
        <ele>1386</ele>
        <time>2012-02-23T07:36:40Z</time>
      </trkpt>
      <trkpt lat="42.85164" lon="0.27817">
        <ele>1386</ele>
        <time>2012-02-23T07:36:44Z</time>
      </trkpt>
      <trkpt lat="42.85165" lon="0.27816">
        <ele>1386</ele>
        <time>2012-02-23T07:36:57Z</time>
      </trkpt>
      <trkpt lat="42.85164" lon="0.27814">
        <ele>1386</ele>
        <time>2012-02-23T07:37:03Z</time>
      </trkpt>
      <trkpt lat="42.85164" lon="0.27812">
        <ele>1386</ele>
        <time>2012-02-23T07:37:07Z</time>
      </trkpt>
      <trkpt lat="42.85164" lon="0.2781">
        <ele>1386</ele>
        <time>2012-02-23T07:37:10Z</time>
      </trkpt>
      <trkpt lat="42.85165" lon="0.27808">
        <ele>1386</ele>
        <time>2012-02-23T07:37:14Z</time>
      </trkpt>
      <trkpt lat="42.85164" lon="0.27804">
        <ele>1386</ele>
        <time>2012-02-23T07:37:18Z</time>
      </trkpt>
      <trkpt lat="42.85164" lon="0.27801">
        <ele>1386</ele>
        <time>2012-02-23T07:37:22Z</time>
      </trkpt>
      <trkpt lat="42.85162" lon="0.27798">
        <ele>1386</ele>
        <time>2012-02-23T07:37:28Z</time>
      </trkpt>
      <trkpt lat="42.85161" lon="0.27795">
        <ele>1387</ele>
        <time>2012-02-23T07:37:33Z</time>
      </trkpt>
      <trkpt lat="42.85161" lon="0.27791">
        <ele>1388</ele>
        <time>2012-02-23T07:37:38Z</time>
      </trkpt>
      <trkpt lat="42.8516" lon="0.27787">
        <ele>1388</ele>
        <time>2012-02-23T07:37:44Z</time>
      </trkpt>
      <trkpt lat="42.8516" lon="0.27786">
        <ele>1389</ele>
        <time>2012-02-23T07:37:47Z</time>
      </trkpt>
      <trkpt lat="42.8516" lon="0.27784">
        <ele>1389</ele>
        <time>2012-02-23T07:37:50Z</time>
      </trkpt>
      <trkpt lat="42.85161" lon="0.27781">
        <ele>1389</ele>
        <time>2012-02-23T07:37:54Z</time>
      </trkpt>
      <trkpt lat="42.85161" lon="0.27777">
        <ele>1390</ele>
        <time>2012-02-23T07:37:59Z</time>
      </trkpt>
      <trkpt lat="42.85161" lon="0.27774">
        <ele>1391</ele>
        <time>2012-02-23T07:38:04Z</time>
      </trkpt>
      <trkpt lat="42.8516" lon="0.27772">
        <ele>1391</ele>
        <time>2012-02-23T07:38:07Z</time>
      </trkpt>
      <trkpt lat="42.85157" lon="0.2777">
        <ele>1391</ele>
        <time>2012-02-23T07:38:13Z</time>
      </trkpt>
      <trkpt lat="42.85154" lon="0.27766">
        <ele>1392</ele>
        <time>2012-02-23T07:38:19Z</time>
      </trkpt>
      <trkpt lat="42.85152" lon="0.27764">
        <ele>1393</ele>
        <time>2012-02-23T07:38:25Z</time>
      </trkpt>
      <trkpt lat="42.85149" lon="0.27761">
        <ele>1394</ele>
        <time>2012-02-23T07:38:29Z</time>
      </trkpt>
      <trkpt lat="42.85148" lon="0.27758">
        <ele>1394</ele>
        <time>2012-02-23T07:38:33Z</time>
      </trkpt>
      <trkpt lat="42.85146" lon="0.27756">
        <ele>1396</ele>
        <time>2012-02-23T07:38:36Z</time>
      </trkpt>
      <trkpt lat="42.85143" lon="0.27753">
        <ele>1398</ele>
        <time>2012-02-23T07:38:41Z</time>
      </trkpt>
      <trkpt lat="42.85141" lon="0.27749">
        <ele>1398</ele>
        <time>2012-02-23T07:38:46Z</time>
      </trkpt>
      <trkpt lat="42.85138" lon="0.27746">
        <ele>1398</ele>
        <time>2012-02-23T07:38:50Z</time>
      </trkpt>
      <trkpt lat="42.85136" lon="0.27744">
        <ele>1398</ele>
        <time>2012-02-23T07:38:53Z</time>
      </trkpt>
      <trkpt lat="42.85134" lon="0.27741">
        <ele>1398</ele>
        <time>2012-02-23T07:38:57Z</time>
      </trkpt>
      <trkpt lat="42.85132" lon="0.27736">
        <ele>1398</ele>
        <time>2012-02-23T07:39:01Z</time>
      </trkpt>
      <trkpt lat="42.8513" lon="0.27733">
        <ele>1398</ele>
        <time>2012-02-23T07:39:05Z</time>
      </trkpt>
      <trkpt lat="42.85128" lon="0.2773">
        <ele>1398</ele>
        <time>2012-02-23T07:39:09Z</time>
      </trkpt>
      <trkpt lat="42.85125" lon="0.27728">
        <ele>1398</ele>
        <time>2012-02-23T07:39:13Z</time>
      </trkpt>
      <trkpt lat="42.85122" lon="0.27725">
        <ele>1398</ele>
        <time>2012-02-23T07:39:17Z</time>
      </trkpt>
      <trkpt lat="42.85119" lon="0.27722">
        <ele>1398</ele>
        <time>2012-02-23T07:39:22Z</time>
      </trkpt>
      <trkpt lat="42.85116" lon="0.27719">
        <ele>1398</ele>
        <time>2012-02-23T07:39:26Z</time>
      </trkpt>
      <trkpt lat="42.85113" lon="0.27716">
        <ele>1398</ele>
        <time>2012-02-23T07:39:31Z</time>
      </trkpt>
      <trkpt lat="42.85113" lon="0.27713">
        <ele>1398</ele>
        <time>2012-02-23T07:39:35Z</time>
      </trkpt>
      <trkpt lat="42.85114" lon="0.27709">
        <ele>1398</ele>
        <time>2012-02-23T07:39:39Z</time>
      </trkpt>
      <trkpt lat="42.85115" lon="0.27705">
        <ele>1398</ele>
        <time>2012-02-23T07:39:43Z</time>
      </trkpt>
      <trkpt lat="42.85115" lon="0.277">
        <ele>1398</ele>
        <time>2012-02-23T07:39:47Z</time>
      </trkpt>
      <trkpt lat="42.85114" lon="0.27698">
        <ele>1398</ele>
        <time>2012-02-23T07:39:56Z</time>
      </trkpt>
      <trkpt lat="42.85113" lon="0.27698">
        <ele>1399</ele>
        <time>2012-02-23T07:40:19Z</time>
      </trkpt>
      <trkpt lat="42.85111" lon="0.27698">
        <ele>1400</ele>
        <time>2012-02-23T07:40:30Z</time>
      </trkpt>
      <trkpt lat="42.85109" lon="0.277">
        <ele>1403</ele>
        <time>2012-02-23T07:40:44Z</time>
      </trkpt>
      <trkpt lat="42.85107" lon="0.27701">
        <ele>1403</ele>
        <time>2012-02-23T07:40:50Z</time>
      </trkpt>
      <trkpt lat="42.85105" lon="0.27701">
        <ele>1403</ele>
        <time>2012-02-23T07:40:54Z</time>
      </trkpt>
      <trkpt lat="42.85102" lon="0.27701">
        <ele>1403</ele>
        <time>2012-02-23T07:40:57Z</time>
      </trkpt>
      <trkpt lat="42.85099" lon="0.277">
        <ele>1403</ele>
        <time>2012-02-23T07:41:00Z</time>
      </trkpt>
      <trkpt lat="42.85096" lon="0.277">
        <ele>1403</ele>
        <time>2012-02-23T07:41:04Z</time>
      </trkpt>
      <trkpt lat="42.85094" lon="0.27699">
        <ele>1403</ele>
        <time>2012-02-23T07:41:07Z</time>
      </trkpt>
      <trkpt lat="42.85096" lon="0.27699">
        <ele>1402</ele>
        <time>2012-02-23T07:41:26Z</time>
      </trkpt>
      <trkpt lat="42.85096" lon="0.27699">
        <ele>1401</ele>
        <time>2012-02-23T07:41:33Z</time>
      </trkpt>
      <trkpt lat="42.85095" lon="0.27698">
        <ele>1401</ele>
        <time>2012-02-23T07:41:50Z</time>
      </trkpt>
      <trkpt lat="42.85094" lon="0.27694">
        <ele>1401</ele>
        <time>2012-02-23T07:41:54Z</time>
      </trkpt>
      <trkpt lat="42.85093" lon="0.27689">
        <ele>1401</ele>
        <time>2012-02-23T07:41:58Z</time>
      </trkpt>
      <trkpt lat="42.85093" lon="0.27684">
        <ele>1401</ele>
        <time>2012-02-23T07:42:02Z</time>
      </trkpt>
      <trkpt lat="42.85093" lon="0.27678">
        <ele>1401</ele>
        <time>2012-02-23T07:42:06Z</time>
      </trkpt>
      <trkpt lat="42.85093" lon="0.27673">
        <ele>1401</ele>
        <time>2012-02-23T07:42:10Z</time>
      </trkpt>
      <trkpt lat="42.85094" lon="0.27669">
        <ele>1401</ele>
        <time>2012-02-23T07:42:13Z</time>
      </trkpt>
      <trkpt lat="42.85095" lon="0.27664">
        <ele>1401</ele>
        <time>2012-02-23T07:42:17Z</time>
      </trkpt>
      <trkpt lat="42.85096" lon="0.27659">
        <ele>1400</ele>
        <time>2012-02-23T07:42:21Z</time>
      </trkpt>
      <trkpt lat="42.85096" lon="0.27655">
        <ele>1400</ele>
        <time>2012-02-23T07:42:25Z</time>
      </trkpt>
      <trkpt lat="42.85097" lon="0.2765">
        <ele>1399</ele>
        <time>2012-02-23T07:42:29Z</time>
      </trkpt>
      <trkpt lat="42.85098" lon="0.27646">
        <ele>1399</ele>
        <time>2012-02-23T07:42:33Z</time>
      </trkpt>
      <trkpt lat="42.85098" lon="0.27642">
        <ele>1398</ele>
        <time>2012-02-23T07:42:37Z</time>
      </trkpt>
      <trkpt lat="42.85099" lon="0.27638">
        <ele>1398</ele>
        <time>2012-02-23T07:42:40Z</time>
      </trkpt>
      <trkpt lat="42.85099" lon="0.27634">
        <ele>1398</ele>
        <time>2012-02-23T07:42:44Z</time>
      </trkpt>
      <trkpt lat="42.851" lon="0.2763">
        <ele>1398</ele>
        <time>2012-02-23T07:42:48Z</time>
      </trkpt>
      <trkpt lat="42.851" lon="0.27625">
        <ele>1397</ele>
        <time>2012-02-23T07:42:52Z</time>
      </trkpt>
      <trkpt lat="42.851" lon="0.27621">
        <ele>1396</ele>
        <time>2012-02-23T07:42:56Z</time>
      </trkpt>
      <trkpt lat="42.85101" lon="0.27616">
        <ele>1396</ele>
        <time>2012-02-23T07:43:00Z</time>
      </trkpt>
      <trkpt lat="42.85101" lon="0.27611">
        <ele>1395</ele>
        <time>2012-02-23T07:43:03Z</time>
      </trkpt>
      <trkpt lat="42.85101" lon="0.27605">
        <ele>1394</ele>
        <time>2012-02-23T07:43:06Z</time>
      </trkpt>
      <trkpt lat="42.85101" lon="0.27601">
        <ele>1392</ele>
        <time>2012-02-23T07:43:09Z</time>
      </trkpt>
      <trkpt lat="42.85101" lon="0.27595">
        <ele>1392</ele>
        <time>2012-02-23T07:43:13Z</time>
      </trkpt>
      <trkpt lat="42.85102" lon="0.27591">
        <ele>1391</ele>
        <time>2012-02-23T07:43:16Z</time>
      </trkpt>
      <trkpt lat="42.85103" lon="0.27585">
        <ele>1390</ele>
        <time>2012-02-23T07:43:20Z</time>
      </trkpt>
      <trkpt lat="42.85104" lon="0.27581">
        <ele>1388</ele>
        <time>2012-02-23T07:43:23Z</time>
      </trkpt>
      <trkpt lat="42.85103" lon="0.27577">
        <ele>1387</ele>
        <time>2012-02-23T07:43:26Z</time>
      </trkpt>
      <trkpt lat="42.85103" lon="0.2757">
        <ele>1385</ele>
        <time>2012-02-23T07:43:29Z</time>
      </trkpt>
      <trkpt lat="42.85105" lon="0.27566">
        <ele>1385</ele>
        <time>2012-02-23T07:43:32Z</time>
      </trkpt>
      <trkpt lat="42.85105" lon="0.27562">
        <ele>1385</ele>
        <time>2012-02-23T07:43:35Z</time>
      </trkpt>
      <trkpt lat="42.85106" lon="0.27558">
        <ele>1384</ele>
        <time>2012-02-23T07:43:38Z</time>
      </trkpt>
      <trkpt lat="42.85107" lon="0.27553">
        <ele>1384</ele>
        <time>2012-02-23T07:43:42Z</time>
      </trkpt>
      <trkpt lat="42.85108" lon="0.27548">
        <ele>1384</ele>
        <time>2012-02-23T07:43:45Z</time>
      </trkpt>
      <trkpt lat="42.85109" lon="0.27547">
        <ele>1384</ele>
        <time>2012-02-23T07:43:48Z</time>
      </trkpt>
      <trkpt lat="42.85109" lon="0.27545">
        <ele>1384</ele>
        <time>2012-02-23T07:43:51Z</time>
      </trkpt>
      <trkpt lat="42.85111" lon="0.27545">
        <ele>1384</ele>
        <time>2012-02-23T07:43:59Z</time>
      </trkpt>
      <trkpt lat="42.85111" lon="0.27547">
        <ele>1384</ele>
        <time>2012-02-23T07:44:06Z</time>
      </trkpt>
      <trkpt lat="42.85112" lon="0.27545">
        <ele>1384</ele>
        <time>2012-02-23T07:44:11Z</time>
      </trkpt>
      <trkpt lat="42.85112" lon="0.2754">
        <ele>1384</ele>
        <time>2012-02-23T07:44:14Z</time>
      </trkpt>
      <trkpt lat="42.85112" lon="0.27537">
        <ele>1384</ele>
        <time>2012-02-23T07:44:17Z</time>
      </trkpt>
      <trkpt lat="42.85112" lon="0.27535">
        <ele>1384</ele>
        <time>2012-02-23T07:44:20Z</time>
      </trkpt>
      <trkpt lat="42.85112" lon="0.27533">
        <ele>1384</ele>
        <time>2012-02-23T07:44:23Z</time>
      </trkpt>
      <trkpt lat="42.85112" lon="0.2753">
        <ele>1384</ele>
        <time>2012-02-23T07:44:26Z</time>
      </trkpt>
      <trkpt lat="42.85112" lon="0.27526">
        <ele>1383</ele>
        <time>2012-02-23T07:44:30Z</time>
      </trkpt>
      <trkpt lat="42.85113" lon="0.27521">
        <ele>1382</ele>
        <time>2012-02-23T07:44:34Z</time>
      </trkpt>
      <trkpt lat="42.85114" lon="0.27516">
        <ele>1382</ele>
        <time>2012-02-23T07:44:38Z</time>
      </trkpt>
      <trkpt lat="42.85115" lon="0.27512">
        <ele>1381</ele>
        <time>2012-02-23T07:44:41Z</time>
      </trkpt>
      <trkpt lat="42.85115" lon="0.27507">
        <ele>1381</ele>
        <time>2012-02-23T07:44:44Z</time>
      </trkpt>
      <trkpt lat="42.85116" lon="0.27502">
        <ele>1381</ele>
        <time>2012-02-23T07:44:47Z</time>
      </trkpt>
      <trkpt lat="42.85118" lon="0.27498">
        <ele>1381</ele>
        <time>2012-02-23T07:44:51Z</time>
      </trkpt>
      <trkpt lat="42.85119" lon="0.27494">
        <ele>1381</ele>
        <time>2012-02-23T07:44:54Z</time>
      </trkpt>
      <trkpt lat="42.8512" lon="0.27489">
        <ele>1381</ele>
        <time>2012-02-23T07:44:58Z</time>
      </trkpt>
      <trkpt lat="42.85122" lon="0.27484">
        <ele>1381</ele>
        <time>2012-02-23T07:45:02Z</time>
      </trkpt>
      <trkpt lat="42.85124" lon="0.27479">
        <ele>1381</ele>
        <time>2012-02-23T07:45:06Z</time>
      </trkpt>
      <trkpt lat="42.85125" lon="0.27474">
        <ele>1381</ele>
        <time>2012-02-23T07:45:10Z</time>
      </trkpt>
      <trkpt lat="42.85127" lon="0.27469">
        <ele>1381</ele>
        <time>2012-02-23T07:45:14Z</time>
      </trkpt>
      <trkpt lat="42.85128" lon="0.27463">
        <ele>1381</ele>
        <time>2012-02-23T07:45:18Z</time>
      </trkpt>
      <trkpt lat="42.85129" lon="0.27459">
        <ele>1381</ele>
        <time>2012-02-23T07:45:22Z</time>
      </trkpt>
      <trkpt lat="42.8513" lon="0.27461">
        <ele>1381</ele>
        <time>2012-02-23T07:45:31Z</time>
      </trkpt>
      <trkpt lat="42.85129" lon="0.27462">
        <ele>1381</ele>
        <time>2012-02-23T07:45:37Z</time>
      </trkpt>
      <trkpt lat="42.85128" lon="0.27464">
        <ele>1381</ele>
        <time>2012-02-23T07:45:42Z</time>
      </trkpt>
      <trkpt lat="42.85127" lon="0.27463">
        <ele>1381</ele>
        <time>2012-02-23T07:45:47Z</time>
      </trkpt>
      <trkpt lat="42.85128" lon="0.27461">
        <ele>1379</ele>
        <time>2012-02-23T07:45:52Z</time>
      </trkpt>
      <trkpt lat="42.85128" lon="0.2746">
        <ele>1379</ele>
        <time>2012-02-23T07:45:56Z</time>
      </trkpt>
      <trkpt lat="42.85128" lon="0.27458">
        <ele>1379</ele>
        <time>2012-02-23T07:46:03Z</time>
      </trkpt>
      <trkpt lat="42.85129" lon="0.27457">
        <ele>1379</ele>
        <time>2012-02-23T07:46:20Z</time>
      </trkpt>
      <trkpt lat="42.8513" lon="0.27457">
        <ele>1379</ele>
        <time>2012-02-23T07:46:39Z</time>
      </trkpt>
      <trkpt lat="42.8513" lon="0.27455">
        <ele>1379</ele>
        <time>2012-02-23T07:47:15Z</time>
      </trkpt>
      <trkpt lat="42.85131" lon="0.27455">
        <ele>1379</ele>
        <time>2012-02-23T07:48:08Z</time>
      </trkpt>
      <trkpt lat="42.85132" lon="0.27455">
        <ele>1379</ele>
        <time>2012-02-23T07:48:28Z</time>
      </trkpt>
      <trkpt lat="42.85131" lon="0.27455">
        <ele>1379</ele>
        <time>2012-02-23T07:49:00Z</time>
      </trkpt>
      <trkpt lat="42.8513" lon="0.27454">
        <ele>1379</ele>
        <time>2012-02-23T07:49:12Z</time>
      </trkpt>
      <trkpt lat="42.85131" lon="0.2745">
        <ele>1379</ele>
        <time>2012-02-23T07:49:59Z</time>
      </trkpt>
      <trkpt lat="42.85133" lon="0.27446">
        <ele>1380</ele>
        <time>2012-02-23T07:50:03Z</time>
      </trkpt>
      <trkpt lat="42.85131" lon="0.27446">
        <ele>1381</ele>
        <time>2012-02-23T07:50:17Z</time>
      </trkpt>
      <trkpt lat="42.85132" lon="0.27448">
        <ele>1381</ele>
        <time>2012-02-23T07:50:40Z</time>
      </trkpt>
      <trkpt lat="42.85133" lon="0.27446">
        <ele>1382</ele>
        <time>2012-02-23T07:50:55Z</time>
      </trkpt>
      <trkpt lat="42.85135" lon="0.27442">
        <ele>1382</ele>
        <time>2012-02-23T07:50:59Z</time>
      </trkpt>
      <trkpt lat="42.85137" lon="0.27437">
        <ele>1382</ele>
        <time>2012-02-23T07:51:03Z</time>
      </trkpt>
      <trkpt lat="42.85139" lon="0.27431">
        <ele>1382</ele>
        <time>2012-02-23T07:51:07Z</time>
      </trkpt>
      <trkpt lat="42.85141" lon="0.27426">
        <ele>1382</ele>
        <time>2012-02-23T07:51:11Z</time>
      </trkpt>
      <trkpt lat="42.85143" lon="0.27421">
        <ele>1382</ele>
        <time>2012-02-23T07:51:15Z</time>
      </trkpt>
      <trkpt lat="42.85145" lon="0.27416">
        <ele>1382</ele>
        <time>2012-02-23T07:51:19Z</time>
      </trkpt>
      <trkpt lat="42.85147" lon="0.27411">
        <ele>1382</ele>
        <time>2012-02-23T07:51:23Z</time>
      </trkpt>
      <trkpt lat="42.85148" lon="0.27407">
        <ele>1382</ele>
        <time>2012-02-23T07:51:26Z</time>
      </trkpt>
      <trkpt lat="42.85148" lon="0.27402">
        <ele>1382</ele>
        <time>2012-02-23T07:51:29Z</time>
      </trkpt>
      <trkpt lat="42.85149" lon="0.27399">
        <ele>1382</ele>
        <time>2012-02-23T07:51:32Z</time>
      </trkpt>
      <trkpt lat="42.85149" lon="0.27393">
        <ele>1382</ele>
        <time>2012-02-23T07:51:35Z</time>
      </trkpt>
      <trkpt lat="42.85149" lon="0.27391">
        <ele>1380</ele>
        <time>2012-02-23T07:51:38Z</time>
      </trkpt>
      <trkpt lat="42.8515" lon="0.27388">
        <ele>1380</ele>
        <time>2012-02-23T07:51:42Z</time>
      </trkpt>
      <trkpt lat="42.85152" lon="0.27384">
        <ele>1380</ele>
        <time>2012-02-23T07:51:46Z</time>
      </trkpt>
      <trkpt lat="42.85154" lon="0.27379">
        <ele>1380</ele>
        <time>2012-02-23T07:51:50Z</time>
      </trkpt>
      <trkpt lat="42.85155" lon="0.27375">
        <ele>1380</ele>
        <time>2012-02-23T07:51:54Z</time>
      </trkpt>
      <trkpt lat="42.85157" lon="0.27371">
        <ele>1379</ele>
        <time>2012-02-23T07:51:58Z</time>
      </trkpt>
      <trkpt lat="42.85159" lon="0.27367">
        <ele>1379</ele>
        <time>2012-02-23T07:52:02Z</time>
      </trkpt>
      <trkpt lat="42.85161" lon="0.27362">
        <ele>1379</ele>
        <time>2012-02-23T07:52:06Z</time>
      </trkpt>
      <trkpt lat="42.85164" lon="0.27359">
        <ele>1379</ele>
        <time>2012-02-23T07:52:10Z</time>
      </trkpt>
      <trkpt lat="42.85166" lon="0.27355">
        <ele>1379</ele>
        <time>2012-02-23T07:52:14Z</time>
      </trkpt>
      <trkpt lat="42.85167" lon="0.27351">
        <ele>1379</ele>
        <time>2012-02-23T07:52:17Z</time>
      </trkpt>
      <trkpt lat="42.85168" lon="0.27347">
        <ele>1378</ele>
        <time>2012-02-23T07:52:21Z</time>
      </trkpt>
      <trkpt lat="42.85168" lon="0.27342">
        <ele>1378</ele>
        <time>2012-02-23T07:52:24Z</time>
      </trkpt>
      <trkpt lat="42.85168" lon="0.27338">
        <ele>1376</ele>
        <time>2012-02-23T07:52:28Z</time>
      </trkpt>
      <trkpt lat="42.85166" lon="0.27333">
        <ele>1376</ele>
        <time>2012-02-23T07:52:31Z</time>
      </trkpt>
      <trkpt lat="42.85165" lon="0.27329">
        <ele>1375</ele>
        <time>2012-02-23T07:52:34Z</time>
      </trkpt>
      <trkpt lat="42.85162" lon="0.27324">
        <ele>1373</ele>
        <time>2012-02-23T07:52:38Z</time>
      </trkpt>
      <trkpt lat="42.85159" lon="0.2732">
        <ele>1373</ele>
        <time>2012-02-23T07:52:42Z</time>
      </trkpt>
      <trkpt lat="42.85157" lon="0.27317">
        <ele>1371</ele>
        <time>2012-02-23T07:52:49Z</time>
      </trkpt>
      <trkpt lat="42.85157" lon="0.27316">
        <ele>1371</ele>
        <time>2012-02-23T07:52:58Z</time>
      </trkpt>
      <trkpt lat="42.85158" lon="0.27315">
        <ele>1371</ele>
        <time>2012-02-23T07:53:11Z</time>
      </trkpt>
      <trkpt lat="42.85159" lon="0.27313">
        <ele>1371</ele>
        <time>2012-02-23T07:53:14Z</time>
      </trkpt>
      <trkpt lat="42.85158" lon="0.27312">
        <ele>1371</ele>
        <time>2012-02-23T07:53:20Z</time>
      </trkpt>
      <trkpt lat="42.85157" lon="0.2731">
        <ele>1371</ele>
        <time>2012-02-23T07:53:23Z</time>
      </trkpt>
      <trkpt lat="42.85157" lon="0.27308">
        <ele>1371</ele>
        <time>2012-02-23T07:53:26Z</time>
      </trkpt>
      <trkpt lat="42.85156" lon="0.27306">
        <ele>1371</ele>
        <time>2012-02-23T07:53:29Z</time>
      </trkpt>
      <trkpt lat="42.85155" lon="0.27304">
        <ele>1371</ele>
        <time>2012-02-23T07:53:32Z</time>
      </trkpt>
      <trkpt lat="42.85154" lon="0.27302">
        <ele>1371</ele>
        <time>2012-02-23T07:53:35Z</time>
      </trkpt>
      <trkpt lat="42.85152" lon="0.27302">
        <ele>1370</ele>
        <time>2012-02-23T07:53:38Z</time>
      </trkpt>
      <trkpt lat="42.8515" lon="0.27302">
        <ele>1370</ele>
        <time>2012-02-23T07:53:46Z</time>
      </trkpt>
      <trkpt lat="42.85149" lon="0.27301">
        <ele>1370</ele>
        <time>2012-02-23T07:53:49Z</time>
      </trkpt>
      <trkpt lat="42.85149" lon="0.273">
        <ele>1370</ele>
        <time>2012-02-23T07:54:04Z</time>
      </trkpt>
      <trkpt lat="42.85149" lon="0.27299">
        <ele>1370</ele>
        <time>2012-02-23T07:55:53Z</time>
      </trkpt>
      <trkpt lat="42.85147" lon="0.27297">
        <ele>1370</ele>
        <time>2012-02-23T07:55:56Z</time>
      </trkpt>
      <trkpt lat="42.85144" lon="0.27295">
        <ele>1370</ele>
        <time>2012-02-23T07:56:00Z</time>
      </trkpt>
      <trkpt lat="42.85141" lon="0.27293">
        <ele>1370</ele>
        <time>2012-02-23T07:56:04Z</time>
      </trkpt>
      <trkpt lat="42.85137" lon="0.27291">
        <ele>1370</ele>
        <time>2012-02-23T07:56:08Z</time>
      </trkpt>
      <trkpt lat="42.85135" lon="0.27288">
        <ele>1370</ele>
        <time>2012-02-23T07:56:12Z</time>
      </trkpt>
      <trkpt lat="42.85133" lon="0.27284">
        <ele>1370</ele>
        <time>2012-02-23T07:56:16Z</time>
      </trkpt>
      <trkpt lat="42.85133" lon="0.2728">
        <ele>1370</ele>
        <time>2012-02-23T07:56:20Z</time>
      </trkpt>
      <trkpt lat="42.85134" lon="0.27276">
        <ele>1370</ele>
        <time>2012-02-23T07:56:24Z</time>
      </trkpt>
      <trkpt lat="42.85133" lon="0.27272">
        <ele>1371</ele>
        <time>2012-02-23T07:56:28Z</time>
      </trkpt>
      <trkpt lat="42.85133" lon="0.27268">
        <ele>1371</ele>
        <time>2012-02-23T07:56:31Z</time>
      </trkpt>
      <trkpt lat="42.85133" lon="0.27264">
        <ele>1371</ele>
        <time>2012-02-23T07:56:34Z</time>
      </trkpt>
      <trkpt lat="42.85133" lon="0.2726">
        <ele>1371</ele>
        <time>2012-02-23T07:56:37Z</time>
      </trkpt>
      <trkpt lat="42.85132" lon="0.27257">
        <ele>1371</ele>
        <time>2012-02-23T07:56:41Z</time>
      </trkpt>
      <trkpt lat="42.85131" lon="0.27253">
        <ele>1371</ele>
        <time>2012-02-23T07:56:45Z</time>
      </trkpt>
      <trkpt lat="42.85131" lon="0.27249">
        <ele>1371</ele>
        <time>2012-02-23T07:56:49Z</time>
      </trkpt>
      <trkpt lat="42.8513" lon="0.27246">
        <ele>1371</ele>
        <time>2012-02-23T07:56:53Z</time>
      </trkpt>
      <trkpt lat="42.85129" lon="0.27242">
        <ele>1371</ele>
        <time>2012-02-23T07:56:56Z</time>
      </trkpt>
      <trkpt lat="42.85127" lon="0.27236">
        <ele>1371</ele>
        <time>2012-02-23T07:56:59Z</time>
      </trkpt>
      <trkpt lat="42.85125" lon="0.27231">
        <ele>1371</ele>
        <time>2012-02-23T07:57:03Z</time>
      </trkpt>
      <trkpt lat="42.85122" lon="0.27227">
        <ele>1370</ele>
        <time>2012-02-23T07:57:07Z</time>
      </trkpt>
      <trkpt lat="42.8512" lon="0.27223">
        <ele>1370</ele>
        <time>2012-02-23T07:57:10Z</time>
      </trkpt>
      <trkpt lat="42.85118" lon="0.27218">
        <ele>1370</ele>
        <time>2012-02-23T07:57:14Z</time>
      </trkpt>
      <trkpt lat="42.85116" lon="0.27214">
        <ele>1370</ele>
        <time>2012-02-23T07:57:17Z</time>
      </trkpt>
      <trkpt lat="42.85114" lon="0.2721">
        <ele>1370</ele>
        <time>2012-02-23T07:57:21Z</time>
      </trkpt>
      <trkpt lat="42.85114" lon="0.27208">
        <ele>1370</ele>
        <time>2012-02-23T07:57:24Z</time>
      </trkpt>
      <trkpt lat="42.85112" lon="0.27205">
        <ele>1370</ele>
        <time>2012-02-23T07:57:29Z</time>
      </trkpt>
      <trkpt lat="42.85112" lon="0.27203">
        <ele>1370</ele>
        <time>2012-02-23T07:57:32Z</time>
      </trkpt>
      <trkpt lat="42.8511" lon="0.27201">
        <ele>1370</ele>
        <time>2012-02-23T07:57:35Z</time>
      </trkpt>
      <trkpt lat="42.85109" lon="0.27199">
        <ele>1370</ele>
        <time>2012-02-23T07:57:38Z</time>
      </trkpt>
      <trkpt lat="42.85107" lon="0.27198">
        <ele>1370</ele>
        <time>2012-02-23T07:57:41Z</time>
      </trkpt>
      <trkpt lat="42.85106" lon="0.27196">
        <ele>1370</ele>
        <time>2012-02-23T07:57:45Z</time>
      </trkpt>
      <trkpt lat="42.85106" lon="0.27194">
        <ele>1370</ele>
        <time>2012-02-23T07:57:49Z</time>
      </trkpt>
      <trkpt lat="42.85107" lon="0.27192">
        <ele>1370</ele>
        <time>2012-02-23T07:57:54Z</time>
      </trkpt>
      <trkpt lat="42.85105" lon="0.27191">
        <ele>1370</ele>
        <time>2012-02-23T07:57:57Z</time>
      </trkpt>
      <trkpt lat="42.85104" lon="0.27189">
        <ele>1370</ele>
        <time>2012-02-23T07:58:00Z</time>
      </trkpt>
      <trkpt lat="42.85103" lon="0.27187">
        <ele>1371</ele>
        <time>2012-02-23T07:58:04Z</time>
      </trkpt>
      <trkpt lat="42.85102" lon="0.27187">
        <ele>1372</ele>
        <time>2012-02-23T07:58:08Z</time>
      </trkpt>
      <trkpt lat="42.851" lon="0.27186">
        <ele>1372</ele>
        <time>2012-02-23T07:58:11Z</time>
      </trkpt>
      <trkpt lat="42.85099" lon="0.27185">
        <ele>1374</ele>
        <time>2012-02-23T07:58:14Z</time>
      </trkpt>
      <trkpt lat="42.85097" lon="0.27184">
        <ele>1374</ele>
        <time>2012-02-23T07:58:17Z</time>
      </trkpt>
      <trkpt lat="42.85096" lon="0.27183">
        <ele>1375</ele>
        <time>2012-02-23T07:58:20Z</time>
      </trkpt>
      <trkpt lat="42.85094" lon="0.27183">
        <ele>1376</ele>
        <time>2012-02-23T07:58:23Z</time>
      </trkpt>
      <trkpt lat="42.85091" lon="0.27182">
        <ele>1376</ele>
        <time>2012-02-23T07:58:26Z</time>
      </trkpt>
      <trkpt lat="42.8509" lon="0.27182">
        <ele>1378</ele>
        <time>2012-02-23T07:58:30Z</time>
      </trkpt>
      <trkpt lat="42.85088" lon="0.27181">
        <ele>1379</ele>
        <time>2012-02-23T07:58:34Z</time>
      </trkpt>
      <trkpt lat="42.85085" lon="0.27182">
        <ele>1379</ele>
        <time>2012-02-23T07:58:40Z</time>
      </trkpt>
      <trkpt lat="42.85084" lon="0.27184">
        <ele>1379</ele>
        <time>2012-02-23T07:58:44Z</time>
      </trkpt>
      <trkpt lat="42.85081" lon="0.27182">
        <ele>1380</ele>
        <time>2012-02-23T07:58:49Z</time>
      </trkpt>
      <trkpt lat="42.85078" lon="0.2718">
        <ele>1381</ele>
        <time>2012-02-23T07:58:54Z</time>
      </trkpt>
      <trkpt lat="42.85075" lon="0.2718">
        <ele>1381</ele>
        <time>2012-02-23T07:58:59Z</time>
      </trkpt>
      <trkpt lat="42.85074" lon="0.27181">
        <ele>1381</ele>
        <time>2012-02-23T07:59:02Z</time>
      </trkpt>
      <trkpt lat="42.85073" lon="0.27182">
        <ele>1382</ele>
        <time>2012-02-23T07:59:06Z</time>
      </trkpt>
      <trkpt lat="42.85071" lon="0.27181">
        <ele>1382</ele>
        <time>2012-02-23T07:59:09Z</time>
      </trkpt>
      <trkpt lat="42.8507" lon="0.2718">
        <ele>1382</ele>
        <time>2012-02-23T07:59:12Z</time>
      </trkpt>
      <trkpt lat="42.85069" lon="0.27181">
        <ele>1383</ele>
        <time>2012-02-23T07:59:17Z</time>
      </trkpt>
      <trkpt lat="42.85068" lon="0.27185">
        <ele>1384</ele>
        <time>2012-02-23T07:59:22Z</time>
      </trkpt>
      <trkpt lat="42.85067" lon="0.27186">
        <ele>1385</ele>
        <time>2012-02-23T07:59:25Z</time>
      </trkpt>
      <trkpt lat="42.85066" lon="0.27185">
        <ele>1386</ele>
        <time>2012-02-23T07:59:29Z</time>
      </trkpt>
      <trkpt lat="42.85066" lon="0.27183">
        <ele>1387</ele>
        <time>2012-02-23T07:59:32Z</time>
      </trkpt>
      <trkpt lat="42.85063" lon="0.27183">
        <ele>1387</ele>
        <time>2012-02-23T07:59:36Z</time>
      </trkpt>
      <trkpt lat="42.85061" lon="0.27186">
        <ele>1389</ele>
        <time>2012-02-23T07:59:40Z</time>
      </trkpt>
      <trkpt lat="42.8506" lon="0.27187">
        <ele>1390</ele>
        <time>2012-02-23T07:59:43Z</time>
      </trkpt>
      <trkpt lat="42.85059" lon="0.27189">
        <ele>1390</ele>
        <time>2012-02-23T07:59:47Z</time>
      </trkpt>
      <trkpt lat="42.85056" lon="0.27187">
        <ele>1390</ele>
        <time>2012-02-23T07:59:52Z</time>
      </trkpt>
      <trkpt lat="42.85054" lon="0.27185">
        <ele>1390</ele>
        <time>2012-02-23T07:59:58Z</time>
      </trkpt>
      <trkpt lat="42.85051" lon="0.27187">
        <ele>1391</ele>
        <time>2012-02-23T08:00:02Z</time>
      </trkpt>
      <trkpt lat="42.8505" lon="0.27188">
        <ele>1392</ele>
        <time>2012-02-23T08:00:05Z</time>
      </trkpt>
      <trkpt lat="42.85049" lon="0.27188">
        <ele>1392</ele>
        <time>2012-02-23T08:00:10Z</time>
      </trkpt>
      <trkpt lat="42.85049" lon="0.27186">
        <ele>1392</ele>
        <time>2012-02-23T08:00:15Z</time>
      </trkpt>
      <trkpt lat="42.85047" lon="0.27185">
        <ele>1392</ele>
        <time>2012-02-23T08:00:18Z</time>
      </trkpt>
      <trkpt lat="42.85046" lon="0.27185">
        <ele>1392</ele>
        <time>2012-02-23T08:00:21Z</time>
      </trkpt>
      <trkpt lat="42.85044" lon="0.27186">
        <ele>1392</ele>
        <time>2012-02-23T08:00:25Z</time>
      </trkpt>
      <trkpt lat="42.85042" lon="0.27186">
        <ele>1392</ele>
        <time>2012-02-23T08:00:29Z</time>
      </trkpt>
      <trkpt lat="42.85041" lon="0.27185">
        <ele>1392</ele>
        <time>2012-02-23T08:00:34Z</time>
      </trkpt>
      <trkpt lat="42.85039" lon="0.27185">
        <ele>1393</ele>
        <time>2012-02-23T08:00:37Z</time>
      </trkpt>
      <trkpt lat="42.85038" lon="0.27187">
        <ele>1393</ele>
        <time>2012-02-23T08:00:40Z</time>
      </trkpt>
      <trkpt lat="42.85037" lon="0.27189">
        <ele>1394</ele>
        <time>2012-02-23T08:00:43Z</time>
      </trkpt>
      <trkpt lat="42.85037" lon="0.27191">
        <ele>1394</ele>
        <time>2012-02-23T08:00:46Z</time>
      </trkpt>
      <trkpt lat="42.85035" lon="0.2719">
        <ele>1395</ele>
        <time>2012-02-23T08:00:49Z</time>
      </trkpt>
      <trkpt lat="42.85034" lon="0.27189">
        <ele>1396</ele>
        <time>2012-02-23T08:00:53Z</time>
      </trkpt>
      <trkpt lat="42.85033" lon="0.27188">
        <ele>1396</ele>
        <time>2012-02-23T08:00:56Z</time>
      </trkpt>
      <trkpt lat="42.85032" lon="0.27187">
        <ele>1397</ele>
        <time>2012-02-23T08:01:00Z</time>
      </trkpt>
      <trkpt lat="42.8503" lon="0.27188">
        <ele>1397</ele>
        <time>2012-02-23T08:01:03Z</time>
      </trkpt>
      <trkpt lat="42.8503" lon="0.27189">
        <ele>1398</ele>
        <time>2012-02-23T08:01:06Z</time>
      </trkpt>
      <trkpt lat="42.85028" lon="0.27191">
        <ele>1398</ele>
        <time>2012-02-23T08:01:09Z</time>
      </trkpt>
      <trkpt lat="42.85028" lon="0.27193">
        <ele>1398</ele>
        <time>2012-02-23T08:01:12Z</time>
      </trkpt>
      <trkpt lat="42.85026" lon="0.27194">
        <ele>1398</ele>
        <time>2012-02-23T08:01:16Z</time>
      </trkpt>
      <trkpt lat="42.85025" lon="0.27193">
        <ele>1399</ele>
        <time>2012-02-23T08:01:19Z</time>
      </trkpt>
      <trkpt lat="42.85024" lon="0.27193">
        <ele>1400</ele>
        <time>2012-02-23T08:01:23Z</time>
      </trkpt>
      <trkpt lat="42.85022" lon="0.27192">
        <ele>1401</ele>
        <time>2012-02-23T08:01:27Z</time>
      </trkpt>
      <trkpt lat="42.85021" lon="0.27193">
        <ele>1403</ele>
        <time>2012-02-23T08:01:30Z</time>
      </trkpt>
      <trkpt lat="42.85019" lon="0.27194">
        <ele>1405</ele>
        <time>2012-02-23T08:01:35Z</time>
      </trkpt>
      <trkpt lat="42.85017" lon="0.27197">
        <ele>1406</ele>
        <time>2012-02-23T08:01:40Z</time>
      </trkpt>
      <trkpt lat="42.85016" lon="0.27198">
        <ele>1406</ele>
        <time>2012-02-23T08:01:43Z</time>
      </trkpt>
      <trkpt lat="42.85015" lon="0.272">
        <ele>1407</ele>
        <time>2012-02-23T08:01:46Z</time>
      </trkpt>
      <trkpt lat="42.85013" lon="0.272">
        <ele>1407</ele>
        <time>2012-02-23T08:01:49Z</time>
      </trkpt>
      <trkpt lat="42.85012" lon="0.272">
        <ele>1407</ele>
        <time>2012-02-23T08:01:52Z</time>
      </trkpt>
      <trkpt lat="42.8501" lon="0.27199">
        <ele>1407</ele>
        <time>2012-02-23T08:01:57Z</time>
      </trkpt>
      <trkpt lat="42.85007" lon="0.27199">
        <ele>1408</ele>
        <time>2012-02-23T08:02:01Z</time>
      </trkpt>
      <trkpt lat="42.85005" lon="0.272">
        <ele>1409</ele>
        <time>2012-02-23T08:02:04Z</time>
      </trkpt>
      <trkpt lat="42.85004" lon="0.272">
        <ele>1410</ele>
        <time>2012-02-23T08:02:07Z</time>
      </trkpt>
      <trkpt lat="42.85003" lon="0.272">
        <ele>1410</ele>
        <time>2012-02-23T08:02:10Z</time>
      </trkpt>
      <trkpt lat="42.85001" lon="0.27199">
        <ele>1411</ele>
        <time>2012-02-23T08:02:14Z</time>
      </trkpt>
      <trkpt lat="42.84998" lon="0.27198">
        <ele>1411</ele>
        <time>2012-02-23T08:02:18Z</time>
      </trkpt>
      <trkpt lat="42.84997" lon="0.272">
        <ele>1412</ele>
        <time>2012-02-23T08:02:21Z</time>
      </trkpt>
      <trkpt lat="42.84996" lon="0.27201">
        <ele>1412</ele>
        <time>2012-02-23T08:02:24Z</time>
      </trkpt>
      <trkpt lat="42.84995" lon="0.27201">
        <ele>1413</ele>
        <time>2012-02-23T08:02:29Z</time>
      </trkpt>
      <trkpt lat="42.84994" lon="0.27201">
        <ele>1415</ele>
        <time>2012-02-23T08:02:34Z</time>
      </trkpt>
      <trkpt lat="42.84992" lon="0.27201">
        <ele>1416</ele>
        <time>2012-02-23T08:02:37Z</time>
      </trkpt>
      <trkpt lat="42.84991" lon="0.27201">
        <ele>1416</ele>
        <time>2012-02-23T08:02:41Z</time>
      </trkpt>
      <trkpt lat="42.8499" lon="0.27201">
        <ele>1416</ele>
        <time>2012-02-23T08:02:45Z</time>
      </trkpt>
      <trkpt lat="42.84988" lon="0.27202">
        <ele>1416</ele>
        <time>2012-02-23T08:02:49Z</time>
      </trkpt>
      <trkpt lat="42.84987" lon="0.27202">
        <ele>1416</ele>
        <time>2012-02-23T08:02:52Z</time>
      </trkpt>
      <trkpt lat="42.84986" lon="0.27201">
        <ele>1417</ele>
        <time>2012-02-23T08:02:55Z</time>
      </trkpt>
      <trkpt lat="42.84985" lon="0.27201">
        <ele>1417</ele>
        <time>2012-02-23T08:02:58Z</time>
      </trkpt>
      <trkpt lat="42.84983" lon="0.272">
        <ele>1418</ele>
        <time>2012-02-23T08:03:01Z</time>
      </trkpt>
      <trkpt lat="42.84982" lon="0.272">
        <ele>1418</ele>
        <time>2012-02-23T08:03:04Z</time>
      </trkpt>
      <trkpt lat="42.84979" lon="0.27199">
        <ele>1419</ele>
        <time>2012-02-23T08:03:09Z</time>
      </trkpt>
      <trkpt lat="42.84976" lon="0.27198">
        <ele>1419</ele>
        <time>2012-02-23T08:03:13Z</time>
      </trkpt>
      <trkpt lat="42.84974" lon="0.27198">
        <ele>1420</ele>
        <time>2012-02-23T08:03:17Z</time>
      </trkpt>
      <trkpt lat="42.84971" lon="0.27196">
        <ele>1420</ele>
        <time>2012-02-23T08:03:21Z</time>
      </trkpt>
      <trkpt lat="42.8497" lon="0.27196">
        <ele>1421</ele>
        <time>2012-02-23T08:03:32Z</time>
      </trkpt>
      <trkpt lat="42.84971" lon="0.27197">
        <ele>1421</ele>
        <time>2012-02-23T08:03:37Z</time>
      </trkpt>
      <trkpt lat="42.84969" lon="0.27197">
        <ele>1421</ele>
        <time>2012-02-23T08:03:40Z</time>
      </trkpt>
      <trkpt lat="42.84967" lon="0.272">
        <ele>1422</ele>
        <time>2012-02-23T08:03:45Z</time>
      </trkpt>
      <trkpt lat="42.84964" lon="0.27199">
        <ele>1424</ele>
        <time>2012-02-23T08:03:49Z</time>
      </trkpt>
      <trkpt lat="42.84962" lon="0.27198">
        <ele>1425</ele>
        <time>2012-02-23T08:03:53Z</time>
      </trkpt>
      <trkpt lat="42.84959" lon="0.27198">
        <ele>1425</ele>
        <time>2012-02-23T08:03:59Z</time>
      </trkpt>
      <trkpt lat="42.84957" lon="0.272">
        <ele>1427</ele>
        <time>2012-02-23T08:04:04Z</time>
      </trkpt>
      <trkpt lat="42.84954" lon="0.27199">
        <ele>1427</ele>
        <time>2012-02-23T08:04:08Z</time>
      </trkpt>
      <trkpt lat="42.84952" lon="0.27197">
        <ele>1428</ele>
        <time>2012-02-23T08:04:13Z</time>
      </trkpt>
      <trkpt lat="42.84951" lon="0.27199">
        <ele>1429</ele>
        <time>2012-02-23T08:04:16Z</time>
      </trkpt>
      <trkpt lat="42.84949" lon="0.27199">
        <ele>1431</ele>
        <time>2012-02-23T08:04:20Z</time>
      </trkpt>
      <trkpt lat="42.84946" lon="0.27198">
        <ele>1432</ele>
        <time>2012-02-23T08:04:23Z</time>
      </trkpt>
      <trkpt lat="42.84943" lon="0.27199">
        <ele>1434</ele>
        <time>2012-02-23T08:04:28Z</time>
      </trkpt>
      <trkpt lat="42.8494" lon="0.27202">
        <ele>1435</ele>
        <time>2012-02-23T08:04:32Z</time>
      </trkpt>
      <trkpt lat="42.84938" lon="0.27202">
        <ele>1436</ele>
        <time>2012-02-23T08:04:36Z</time>
      </trkpt>
      <trkpt lat="42.84937" lon="0.27202">
        <ele>1436</ele>
        <time>2012-02-23T08:04:40Z</time>
      </trkpt>
      <trkpt lat="42.84934" lon="0.27199">
        <ele>1436</ele>
        <time>2012-02-23T08:04:44Z</time>
      </trkpt>
      <trkpt lat="42.84932" lon="0.27198">
        <ele>1436</ele>
        <time>2012-02-23T08:04:49Z</time>
      </trkpt>
      <trkpt lat="42.84929" lon="0.27197">
        <ele>1436</ele>
        <time>2012-02-23T08:04:54Z</time>
      </trkpt>
      <trkpt lat="42.84926" lon="0.27195">
        <ele>1436</ele>
        <time>2012-02-23T08:04:58Z</time>
      </trkpt>
      <trkpt lat="42.84924" lon="0.27194">
        <ele>1436</ele>
        <time>2012-02-23T08:05:02Z</time>
      </trkpt>
      <trkpt lat="42.84922" lon="0.27194">
        <ele>1436</ele>
        <time>2012-02-23T08:05:05Z</time>
      </trkpt>
      <trkpt lat="42.8492" lon="0.27194">
        <ele>1436</ele>
        <time>2012-02-23T08:05:09Z</time>
      </trkpt>
      <trkpt lat="42.84919" lon="0.27195">
        <ele>1437</ele>
        <time>2012-02-23T08:05:12Z</time>
      </trkpt>
      <trkpt lat="42.84915" lon="0.27194">
        <ele>1439</ele>
        <time>2012-02-23T08:05:17Z</time>
      </trkpt>
      <trkpt lat="42.84913" lon="0.27192">
        <ele>1440</ele>
        <time>2012-02-23T08:05:22Z</time>
      </trkpt>
      <trkpt lat="42.84909" lon="0.27194">
        <ele>1440</ele>
        <time>2012-02-23T08:05:26Z</time>
      </trkpt>
      <trkpt lat="42.84907" lon="0.27193">
        <ele>1442</ele>
        <time>2012-02-23T08:05:30Z</time>
      </trkpt>
      <trkpt lat="42.84905" lon="0.27193">
        <ele>1442</ele>
        <time>2012-02-23T08:05:33Z</time>
      </trkpt>
      <trkpt lat="42.84903" lon="0.27198">
        <ele>1444</ele>
        <time>2012-02-23T08:05:37Z</time>
      </trkpt>
      <trkpt lat="42.84902" lon="0.27198">
        <ele>1446</ele>
        <time>2012-02-23T08:05:40Z</time>
      </trkpt>
      <trkpt lat="42.849" lon="0.27197">
        <ele>1446</ele>
        <time>2012-02-23T08:05:44Z</time>
      </trkpt>
      <trkpt lat="42.84899" lon="0.27197">
        <ele>1446</ele>
        <time>2012-02-23T08:05:47Z</time>
      </trkpt>
      <trkpt lat="42.84896" lon="0.27195">
        <ele>1446</ele>
        <time>2012-02-23T08:05:51Z</time>
      </trkpt>
      <trkpt lat="42.84893" lon="0.27194">
        <ele>1446</ele>
        <time>2012-02-23T08:05:55Z</time>
      </trkpt>
      <trkpt lat="42.84891" lon="0.27192">
        <ele>1446</ele>
        <time>2012-02-23T08:05:59Z</time>
      </trkpt>
      <trkpt lat="42.84888" lon="0.27191">
        <ele>1446</ele>
        <time>2012-02-23T08:06:04Z</time>
      </trkpt>
      <trkpt lat="42.84887" lon="0.27191">
        <ele>1446</ele>
        <time>2012-02-23T08:06:07Z</time>
      </trkpt>
      <trkpt lat="42.84885" lon="0.27193">
        <ele>1446</ele>
        <time>2012-02-23T08:06:11Z</time>
      </trkpt>
      <trkpt lat="42.84882" lon="0.27193">
        <ele>1446</ele>
        <time>2012-02-23T08:06:15Z</time>
      </trkpt>
      <trkpt lat="42.84881" lon="0.27193">
        <ele>1446</ele>
        <time>2012-02-23T08:06:18Z</time>
      </trkpt>
      <trkpt lat="42.8488" lon="0.27194">
        <ele>1446</ele>
        <time>2012-02-23T08:06:21Z</time>
      </trkpt>
      <trkpt lat="42.84878" lon="0.27194">
        <ele>1446</ele>
        <time>2012-02-23T08:06:24Z</time>
      </trkpt>
      <trkpt lat="42.84875" lon="0.27193">
        <ele>1446</ele>
        <time>2012-02-23T08:06:28Z</time>
      </trkpt>
      <trkpt lat="42.84874" lon="0.27193">
        <ele>1447</ele>
        <time>2012-02-23T08:06:31Z</time>
      </trkpt>
      <trkpt lat="42.84871" lon="0.27194">
        <ele>1447</ele>
        <time>2012-02-23T08:06:36Z</time>
      </trkpt>
      <trkpt lat="42.8487" lon="0.27195">
        <ele>1447</ele>
        <time>2012-02-23T08:06:40Z</time>
      </trkpt>
      <trkpt lat="42.84869" lon="0.27196">
        <ele>1447</ele>
        <time>2012-02-23T08:06:43Z</time>
      </trkpt>
      <trkpt lat="42.84868" lon="0.27196">
        <ele>1448</ele>
        <time>2012-02-23T08:06:46Z</time>
      </trkpt>
      <trkpt lat="42.84866" lon="0.27197">
        <ele>1448</ele>
        <time>2012-02-23T08:06:49Z</time>
      </trkpt>
      <trkpt lat="42.84864" lon="0.27197">
        <ele>1449</ele>
        <time>2012-02-23T08:06:52Z</time>
      </trkpt>
      <trkpt lat="42.84861" lon="0.27196">
        <ele>1450</ele>
        <time>2012-02-23T08:06:57Z</time>
      </trkpt>
      <trkpt lat="42.8486" lon="0.27196">
        <ele>1450</ele>
        <time>2012-02-23T08:07:00Z</time>
      </trkpt>
      <trkpt lat="42.84858" lon="0.27196">
        <ele>1450</ele>
        <time>2012-02-23T08:07:03Z</time>
      </trkpt>
      <trkpt lat="42.84856" lon="0.27195">
        <ele>1450</ele>
        <time>2012-02-23T08:07:08Z</time>
      </trkpt>
      <trkpt lat="42.84854" lon="0.27196">
        <ele>1450</ele>
        <time>2012-02-23T08:07:11Z</time>
      </trkpt>
      <trkpt lat="42.84853" lon="0.27198">
        <ele>1450</ele>
        <time>2012-02-23T08:07:14Z</time>
      </trkpt>
      <trkpt lat="42.8485" lon="0.27197">
        <ele>1452</ele>
        <time>2012-02-23T08:07:18Z</time>
      </trkpt>
      <trkpt lat="42.84848" lon="0.27198">
        <ele>1453</ele>
        <time>2012-02-23T08:07:24Z</time>
      </trkpt>
      <trkpt lat="42.84845" lon="0.27198">
        <ele>1456</ele>
        <time>2012-02-23T08:07:29Z</time>
      </trkpt>
      <trkpt lat="42.84842" lon="0.27196">
        <ele>1456</ele>
        <time>2012-02-23T08:07:33Z</time>
      </trkpt>
      <trkpt lat="42.84839" lon="0.27196">
        <ele>1456</ele>
        <time>2012-02-23T08:07:38Z</time>
      </trkpt>
      <trkpt lat="42.84835" lon="0.27196">
        <ele>1457</ele>
        <time>2012-02-23T08:07:41Z</time>
      </trkpt>
      <trkpt lat="42.84832" lon="0.27197">
        <ele>1458</ele>
        <time>2012-02-23T08:07:44Z</time>
      </trkpt>
      <trkpt lat="42.84829" lon="0.27196">
        <ele>1461</ele>
        <time>2012-02-23T08:07:51Z</time>
      </trkpt>
      <trkpt lat="42.84827" lon="0.27196">
        <ele>1463</ele>
        <time>2012-02-23T08:07:55Z</time>
      </trkpt>
      <trkpt lat="42.84826" lon="0.27196">
        <ele>1464</ele>
        <time>2012-02-23T08:07:58Z</time>
      </trkpt>
      <trkpt lat="42.84823" lon="0.27196">
        <ele>1466</ele>
        <time>2012-02-23T08:08:02Z</time>
      </trkpt>
      <trkpt lat="42.84821" lon="0.27194">
        <ele>1468</ele>
        <time>2012-02-23T08:08:10Z</time>
      </trkpt>
      <trkpt lat="42.84822" lon="0.27193">
        <ele>1468</ele>
        <time>2012-02-23T08:08:13Z</time>
      </trkpt>
      <trkpt lat="42.84821" lon="0.27191">
        <ele>1468</ele>
        <time>2012-02-23T08:08:18Z</time>
      </trkpt>
      <trkpt lat="42.84819" lon="0.27189">
        <ele>1468</ele>
        <time>2012-02-23T08:08:21Z</time>
      </trkpt>
      <trkpt lat="42.84818" lon="0.27188">
        <ele>1468</ele>
        <time>2012-02-23T08:08:25Z</time>
      </trkpt>
      <trkpt lat="42.84816" lon="0.27187">
        <ele>1468</ele>
        <time>2012-02-23T08:08:28Z</time>
      </trkpt>
      <trkpt lat="42.84814" lon="0.27185">
        <ele>1468</ele>
        <time>2012-02-23T08:08:32Z</time>
      </trkpt>
      <trkpt lat="42.84811" lon="0.27184">
        <ele>1470</ele>
        <time>2012-02-23T08:08:37Z</time>
      </trkpt>
      <trkpt lat="42.8481" lon="0.27182">
        <ele>1471</ele>
        <time>2012-02-23T08:08:40Z</time>
      </trkpt>
      <trkpt lat="42.84809" lon="0.27182">
        <ele>1471</ele>
        <time>2012-02-23T08:08:43Z</time>
      </trkpt>
      <trkpt lat="42.84808" lon="0.2718">
        <ele>1471</ele>
        <time>2012-02-23T08:08:46Z</time>
      </trkpt>
      <trkpt lat="42.84807" lon="0.27178">
        <ele>1471</ele>
        <time>2012-02-23T08:08:49Z</time>
      </trkpt>
      <trkpt lat="42.84806" lon="0.27177">
        <ele>1471</ele>
        <time>2012-02-23T08:08:52Z</time>
      </trkpt>
      <trkpt lat="42.84805" lon="0.27176">
        <ele>1471</ele>
        <time>2012-02-23T08:08:55Z</time>
      </trkpt>
      <trkpt lat="42.84802" lon="0.27175">
        <ele>1471</ele>
        <time>2012-02-23T08:09:00Z</time>
      </trkpt>
      <trkpt lat="42.84801" lon="0.27174">
        <ele>1471</ele>
        <time>2012-02-23T08:09:04Z</time>
      </trkpt>
      <trkpt lat="42.848" lon="0.27172">
        <ele>1471</ele>
        <time>2012-02-23T08:09:08Z</time>
      </trkpt>
      <trkpt lat="42.84798" lon="0.27171">
        <ele>1471</ele>
        <time>2012-02-23T08:09:11Z</time>
      </trkpt>
      <trkpt lat="42.84797" lon="0.27168">
        <ele>1471</ele>
        <time>2012-02-23T08:09:16Z</time>
      </trkpt>
      <trkpt lat="42.84796" lon="0.27164">
        <ele>1471</ele>
        <time>2012-02-23T08:09:20Z</time>
      </trkpt>
      <trkpt lat="42.84795" lon="0.27161">
        <ele>1471</ele>
        <time>2012-02-23T08:09:24Z</time>
      </trkpt>
      <trkpt lat="42.84794" lon="0.27157">
        <ele>1471</ele>
        <time>2012-02-23T08:09:28Z</time>
      </trkpt>
      <trkpt lat="42.84793" lon="0.27153">
        <ele>1472</ele>
        <time>2012-02-23T08:09:32Z</time>
      </trkpt>
      <trkpt lat="42.84793" lon="0.27149">
        <ele>1473</ele>
        <time>2012-02-23T08:09:36Z</time>
      </trkpt>
      <trkpt lat="42.84792" lon="0.27146">
        <ele>1473</ele>
        <time>2012-02-23T08:09:40Z</time>
      </trkpt>
      <trkpt lat="42.84791" lon="0.27142">
        <ele>1473</ele>
        <time>2012-02-23T08:09:44Z</time>
      </trkpt>
      <trkpt lat="42.84789" lon="0.27138">
        <ele>1474</ele>
        <time>2012-02-23T08:09:48Z</time>
      </trkpt>
      <trkpt lat="42.84787" lon="0.27134">
        <ele>1474</ele>
        <time>2012-02-23T08:09:52Z</time>
      </trkpt>
      <trkpt lat="42.84786" lon="0.27133">
        <ele>1475</ele>
        <time>2012-02-23T08:09:55Z</time>
      </trkpt>
      <trkpt lat="42.84784" lon="0.2713">
        <ele>1475</ele>
        <time>2012-02-23T08:09:59Z</time>
      </trkpt>
      <trkpt lat="42.84782" lon="0.27127">
        <ele>1475</ele>
        <time>2012-02-23T08:10:03Z</time>
      </trkpt>
      <trkpt lat="42.84781" lon="0.27125">
        <ele>1475</ele>
        <time>2012-02-23T08:10:06Z</time>
      </trkpt>
      <trkpt lat="42.8478" lon="0.27123">
        <ele>1475</ele>
        <time>2012-02-23T08:10:09Z</time>
      </trkpt>
      <trkpt lat="42.84779" lon="0.27122">
        <ele>1475</ele>
        <time>2012-02-23T08:10:12Z</time>
      </trkpt>
      <trkpt lat="42.84778" lon="0.27121">
        <ele>1476</ele>
        <time>2012-02-23T08:10:17Z</time>
      </trkpt>
      <trkpt lat="42.84777" lon="0.2712">
        <ele>1476</ele>
        <time>2012-02-23T08:10:20Z</time>
      </trkpt>
      <trkpt lat="42.84775" lon="0.27119">
        <ele>1476</ele>
        <time>2012-02-23T08:10:23Z</time>
      </trkpt>
      <trkpt lat="42.84774" lon="0.27118">
        <ele>1476</ele>
        <time>2012-02-23T08:10:26Z</time>
      </trkpt>
      <trkpt lat="42.84772" lon="0.27117">
        <ele>1476</ele>
        <time>2012-02-23T08:10:32Z</time>
      </trkpt>
      <trkpt lat="42.84769" lon="0.27117">
        <ele>1476</ele>
        <time>2012-02-23T08:10:44Z</time>
      </trkpt>
      <trkpt lat="42.84768" lon="0.27118">
        <ele>1476</ele>
        <time>2012-02-23T08:10:47Z</time>
      </trkpt>
      <trkpt lat="42.84764" lon="0.27119">
        <ele>1476</ele>
        <time>2012-02-23T08:10:51Z</time>
      </trkpt>
      <trkpt lat="42.84762" lon="0.27121">
        <ele>1477</ele>
        <time>2012-02-23T08:10:55Z</time>
      </trkpt>
      <trkpt lat="42.84761" lon="0.27123">
        <ele>1477</ele>
        <time>2012-02-23T08:10:58Z</time>
      </trkpt>
      <trkpt lat="42.84759" lon="0.27126">
        <ele>1478</ele>
        <time>2012-02-23T08:11:02Z</time>
      </trkpt>
      <trkpt lat="42.84758" lon="0.27128">
        <ele>1478</ele>
        <time>2012-02-23T08:11:05Z</time>
      </trkpt>
      <trkpt lat="42.84757" lon="0.27129">
        <ele>1478</ele>
        <time>2012-02-23T08:11:08Z</time>
      </trkpt>
      <trkpt lat="42.84755" lon="0.27131">
        <ele>1479</ele>
        <time>2012-02-23T08:11:11Z</time>
      </trkpt>
      <trkpt lat="42.84754" lon="0.27132">
        <ele>1479</ele>
        <time>2012-02-23T08:11:14Z</time>
      </trkpt>
      <trkpt lat="42.84753" lon="0.27133">
        <ele>1480</ele>
        <time>2012-02-23T08:11:17Z</time>
      </trkpt>
      <trkpt lat="42.84751" lon="0.27134">
        <ele>1481</ele>
        <time>2012-02-23T08:11:20Z</time>
      </trkpt>
      <trkpt lat="42.8475" lon="0.27132">
        <ele>1483</ele>
        <time>2012-02-23T08:11:24Z</time>
      </trkpt>
      <trkpt lat="42.84748" lon="0.27128">
        <ele>1488</ele>
        <time>2012-02-23T08:11:29Z</time>
      </trkpt>
      <trkpt lat="42.84747" lon="0.27127">
        <ele>1490</ele>
        <time>2012-02-23T08:11:35Z</time>
      </trkpt>
      <trkpt lat="42.84746" lon="0.27125">
        <ele>1490</ele>
        <time>2012-02-23T08:11:38Z</time>
      </trkpt>
      <trkpt lat="42.84745" lon="0.27122">
        <ele>1490</ele>
        <time>2012-02-23T08:11:43Z</time>
      </trkpt>
      <trkpt lat="42.84745" lon="0.27119">
        <ele>1490</ele>
        <time>2012-02-23T08:11:49Z</time>
      </trkpt>
      <trkpt lat="42.84745" lon="0.27117">
        <ele>1490</ele>
        <time>2012-02-23T08:11:52Z</time>
      </trkpt>
      <trkpt lat="42.84744" lon="0.27116">
        <ele>1490</ele>
        <time>2012-02-23T08:11:55Z</time>
      </trkpt>
      <trkpt lat="42.84742" lon="0.27115">
        <ele>1490</ele>
        <time>2012-02-23T08:11:58Z</time>
      </trkpt>
      <trkpt lat="42.8474" lon="0.27115">
        <ele>1490</ele>
        <time>2012-02-23T08:12:03Z</time>
      </trkpt>
      <trkpt lat="42.84738" lon="0.27116">
        <ele>1490</ele>
        <time>2012-02-23T08:12:06Z</time>
      </trkpt>
      <trkpt lat="42.84737" lon="0.27116">
        <ele>1490</ele>
        <time>2012-02-23T08:12:09Z</time>
      </trkpt>
      <trkpt lat="42.84735" lon="0.27116">
        <ele>1490</ele>
        <time>2012-02-23T08:12:12Z</time>
      </trkpt>
      <trkpt lat="42.84734" lon="0.27115">
        <ele>1490</ele>
        <time>2012-02-23T08:12:16Z</time>
      </trkpt>
      <trkpt lat="42.84733" lon="0.27114">
        <ele>1490</ele>
        <time>2012-02-23T08:12:19Z</time>
      </trkpt>
      <trkpt lat="42.84731" lon="0.2711">
        <ele>1490</ele>
        <time>2012-02-23T08:12:25Z</time>
      </trkpt>
      <trkpt lat="42.84729" lon="0.27109">
        <ele>1490</ele>
        <time>2012-02-23T08:12:29Z</time>
      </trkpt>
      <trkpt lat="42.84726" lon="0.27108">
        <ele>1491</ele>
        <time>2012-02-23T08:12:33Z</time>
      </trkpt>
      <trkpt lat="42.84723" lon="0.27107">
        <ele>1493</ele>
        <time>2012-02-23T08:12:38Z</time>
      </trkpt>
      <trkpt lat="42.84722" lon="0.27107">
        <ele>1493</ele>
        <time>2012-02-23T08:12:42Z</time>
      </trkpt>
      <trkpt lat="42.84721" lon="0.27106">
        <ele>1493</ele>
        <time>2012-02-23T08:12:45Z</time>
      </trkpt>
      <trkpt lat="42.8472" lon="0.27105">
        <ele>1493</ele>
        <time>2012-02-23T08:12:48Z</time>
      </trkpt>
      <trkpt lat="42.84718" lon="0.27104">
        <ele>1494</ele>
        <time>2012-02-23T08:12:58Z</time>
      </trkpt>
      <trkpt lat="42.84717" lon="0.27103">
        <ele>1495</ele>
        <time>2012-02-23T08:13:01Z</time>
      </trkpt>
      <trkpt lat="42.84716" lon="0.27102">
        <ele>1496</ele>
        <time>2012-02-23T08:13:04Z</time>
      </trkpt>
      <trkpt lat="42.84715" lon="0.27101">
        <ele>1496</ele>
        <time>2012-02-23T08:13:07Z</time>
      </trkpt>
      <trkpt lat="42.84713" lon="0.27101">
        <ele>1497</ele>
        <time>2012-02-23T08:13:10Z</time>
      </trkpt>
      <trkpt lat="42.84711" lon="0.271">
        <ele>1498</ele>
        <time>2012-02-23T08:13:14Z</time>
      </trkpt>
      <trkpt lat="42.84709" lon="0.27098">
        <ele>1499</ele>
        <time>2012-02-23T08:13:18Z</time>
      </trkpt>
      <trkpt lat="42.84708" lon="0.27098">
        <ele>1499</ele>
        <time>2012-02-23T08:13:21Z</time>
      </trkpt>
      <trkpt lat="42.84706" lon="0.27097">
        <ele>1499</ele>
        <time>2012-02-23T08:13:24Z</time>
      </trkpt>
      <trkpt lat="42.84705" lon="0.27096">
        <ele>1499</ele>
        <time>2012-02-23T08:13:27Z</time>
      </trkpt>
      <trkpt lat="42.84703" lon="0.27095">
        <ele>1499</ele>
        <time>2012-02-23T08:13:32Z</time>
      </trkpt>
      <trkpt lat="42.84702" lon="0.27094">
        <ele>1499</ele>
        <time>2012-02-23T08:13:35Z</time>
      </trkpt>
      <trkpt lat="42.847" lon="0.27093">
        <ele>1499</ele>
        <time>2012-02-23T08:13:38Z</time>
      </trkpt>
      <trkpt lat="42.84699" lon="0.27093">
        <ele>1499</ele>
        <time>2012-02-23T08:13:41Z</time>
      </trkpt>
      <trkpt lat="42.84698" lon="0.27092">
        <ele>1499</ele>
        <time>2012-02-23T08:13:45Z</time>
      </trkpt>
      <trkpt lat="42.84697" lon="0.27092">
        <ele>1499</ele>
        <time>2012-02-23T08:13:48Z</time>
      </trkpt>
      <trkpt lat="42.84695" lon="0.27091">
        <ele>1500</ele>
        <time>2012-02-23T08:13:51Z</time>
      </trkpt>
      <trkpt lat="42.84694" lon="0.2709">
        <ele>1500</ele>
        <time>2012-02-23T08:13:54Z</time>
      </trkpt>
      <trkpt lat="42.84693" lon="0.2709">
        <ele>1501</ele>
        <time>2012-02-23T08:13:57Z</time>
      </trkpt>
      <trkpt lat="42.84692" lon="0.27089">
        <ele>1501</ele>
        <time>2012-02-23T08:14:00Z</time>
      </trkpt>
      <trkpt lat="42.8469" lon="0.27089">
        <ele>1501</ele>
        <time>2012-02-23T08:14:03Z</time>
      </trkpt>
      <trkpt lat="42.84689" lon="0.27089">
        <ele>1501</ele>
        <time>2012-02-23T08:14:06Z</time>
      </trkpt>
      <trkpt lat="42.84688" lon="0.27088">
        <ele>1501</ele>
        <time>2012-02-23T08:14:09Z</time>
      </trkpt>
      <trkpt lat="42.84687" lon="0.27088">
        <ele>1501</ele>
        <time>2012-02-23T08:14:12Z</time>
      </trkpt>
      <trkpt lat="42.84686" lon="0.27088">
        <ele>1501</ele>
        <time>2012-02-23T08:14:15Z</time>
      </trkpt>
      <trkpt lat="42.84684" lon="0.27087">
        <ele>1501</ele>
        <time>2012-02-23T08:14:18Z</time>
      </trkpt>
      <trkpt lat="42.84683" lon="0.27085">
        <ele>1501</ele>
        <time>2012-02-23T08:14:21Z</time>
      </trkpt>
      <trkpt lat="42.8468" lon="0.27083">
        <ele>1501</ele>
        <time>2012-02-23T08:14:26Z</time>
      </trkpt>
      <trkpt lat="42.84679" lon="0.27081">
        <ele>1501</ele>
        <time>2012-02-23T08:14:29Z</time>
      </trkpt>
      <trkpt lat="42.84678" lon="0.27081">
        <ele>1502</ele>
        <time>2012-02-23T08:14:32Z</time>
      </trkpt>
      <trkpt lat="42.84676" lon="0.2708">
        <ele>1502</ele>
        <time>2012-02-23T08:14:36Z</time>
      </trkpt>
      <trkpt lat="42.84673" lon="0.27078">
        <ele>1505</ele>
        <time>2012-02-23T08:14:41Z</time>
      </trkpt>
      <trkpt lat="42.84672" lon="0.27078">
        <ele>1505</ele>
        <time>2012-02-23T08:14:44Z</time>
      </trkpt>
      <trkpt lat="42.84671" lon="0.27077">
        <ele>1505</ele>
        <time>2012-02-23T08:14:47Z</time>
      </trkpt>
      <trkpt lat="42.84669" lon="0.27076">
        <ele>1505</ele>
        <time>2012-02-23T08:14:51Z</time>
      </trkpt>
      <trkpt lat="42.84667" lon="0.27074">
        <ele>1506</ele>
        <time>2012-02-23T08:14:55Z</time>
      </trkpt>
      <trkpt lat="42.84665" lon="0.27072">
        <ele>1509</ele>
        <time>2012-02-23T08:14:59Z</time>
      </trkpt>
      <trkpt lat="42.84663" lon="0.27072">
        <ele>1510</ele>
        <time>2012-02-23T08:15:03Z</time>
      </trkpt>
      <trkpt lat="42.84662" lon="0.27071">
        <ele>1510</ele>
        <time>2012-02-23T08:15:06Z</time>
      </trkpt>
      <trkpt lat="42.84659" lon="0.27069">
        <ele>1511</ele>
        <time>2012-02-23T08:15:10Z</time>
      </trkpt>
      <trkpt lat="42.84656" lon="0.27066">
        <ele>1515</ele>
        <time>2012-02-23T08:15:14Z</time>
      </trkpt>
      <trkpt lat="42.84653" lon="0.27066">
        <ele>1518</ele>
        <time>2012-02-23T08:15:21Z</time>
      </trkpt>
      <trkpt lat="42.84652" lon="0.27066">
        <ele>1518</ele>
        <time>2012-02-23T08:15:24Z</time>
      </trkpt>
      <trkpt lat="42.8465" lon="0.27066">
        <ele>1518</ele>
        <time>2012-02-23T08:15:27Z</time>
      </trkpt>
      <trkpt lat="42.84648" lon="0.27064">
        <ele>1518</ele>
        <time>2012-02-23T08:15:31Z</time>
      </trkpt>
      <trkpt lat="42.84645" lon="0.27064">
        <ele>1520</ele>
        <time>2012-02-23T08:15:35Z</time>
      </trkpt>
      <trkpt lat="42.84643" lon="0.27062">
        <ele>1522</ele>
        <time>2012-02-23T08:15:39Z</time>
      </trkpt>
      <trkpt lat="42.8464" lon="0.27059">
        <ele>1525</ele>
        <time>2012-02-23T08:15:42Z</time>
      </trkpt>
      <trkpt lat="42.84636" lon="0.27056">
        <ele>1529</ele>
        <time>2012-02-23T08:15:46Z</time>
      </trkpt>
      <trkpt lat="42.84634" lon="0.27053">
        <ele>1532</ele>
        <time>2012-02-23T08:15:49Z</time>
      </trkpt>
      <trkpt lat="42.84631" lon="0.27052">
        <ele>1536</ele>
        <time>2012-02-23T08:15:53Z</time>
      </trkpt>
      <trkpt lat="42.84629" lon="0.27053">
        <ele>1543</ele>
        <time>2012-02-23T08:16:00Z</time>
      </trkpt>
      <trkpt lat="42.84628" lon="0.27054">
        <ele>1543</ele>
        <time>2012-02-23T08:16:04Z</time>
      </trkpt>
      <trkpt lat="42.84628" lon="0.27056">
        <ele>1542</ele>
        <time>2012-02-23T08:16:07Z</time>
      </trkpt>
      <trkpt lat="42.84626" lon="0.27056">
        <ele>1539</ele>
        <time>2012-02-23T08:16:10Z</time>
      </trkpt>
      <trkpt lat="42.84624" lon="0.27053">
        <ele>1539</ele>
        <time>2012-02-23T08:16:14Z</time>
      </trkpt>
      <trkpt lat="42.84621" lon="0.27052">
        <ele>1539</ele>
        <time>2012-02-23T08:16:20Z</time>
      </trkpt>
      <trkpt lat="42.8462" lon="0.27051">
        <ele>1539</ele>
        <time>2012-02-23T08:16:23Z</time>
      </trkpt>
      <trkpt lat="42.84618" lon="0.27051">
        <ele>1539</ele>
        <time>2012-02-23T08:16:29Z</time>
      </trkpt>
      <trkpt lat="42.84617" lon="0.2705">
        <ele>1537</ele>
        <time>2012-02-23T08:16:32Z</time>
      </trkpt>
      <trkpt lat="42.84616" lon="0.27049">
        <ele>1537</ele>
        <time>2012-02-23T08:16:35Z</time>
      </trkpt>
      <trkpt lat="42.84615" lon="0.27048">
        <ele>1537</ele>
        <time>2012-02-23T08:16:38Z</time>
      </trkpt>
      <trkpt lat="42.84613" lon="0.27046">
        <ele>1537</ele>
        <time>2012-02-23T08:16:43Z</time>
      </trkpt>
      <trkpt lat="42.84612" lon="0.27045">
        <ele>1536</ele>
        <time>2012-02-23T08:16:49Z</time>
      </trkpt>
      <trkpt lat="42.84613" lon="0.27047">
        <ele>1535</ele>
        <time>2012-02-23T08:16:54Z</time>
      </trkpt>
      <trkpt lat="42.84614" lon="0.27048">
        <ele>1529</ele>
        <time>2012-02-23T08:17:05Z</time>
      </trkpt>
      <trkpt lat="42.84612" lon="0.27048">
        <ele>1527</ele>
        <time>2012-02-23T08:17:19Z</time>
      </trkpt>
      <trkpt lat="42.8461" lon="0.27046">
        <ele>1527</ele>
        <time>2012-02-23T08:17:23Z</time>
      </trkpt>
      <trkpt lat="42.84608" lon="0.27044">
        <ele>1527</ele>
        <time>2012-02-23T08:17:27Z</time>
      </trkpt>
      <trkpt lat="42.84606" lon="0.27042">
        <ele>1527</ele>
        <time>2012-02-23T08:17:30Z</time>
      </trkpt>
      <trkpt lat="42.84604" lon="0.27038">
        <ele>1529</ele>
        <time>2012-02-23T08:17:35Z</time>
      </trkpt>
      <trkpt lat="42.84601" lon="0.27035">
        <ele>1532</ele>
        <time>2012-02-23T08:17:39Z</time>
      </trkpt>
      <trkpt lat="42.846" lon="0.27035">
        <ele>1535</ele>
        <time>2012-02-23T08:17:42Z</time>
      </trkpt>
      <trkpt lat="42.84597" lon="0.27031">
        <ele>1538</ele>
        <time>2012-02-23T08:17:46Z</time>
      </trkpt>
      <trkpt lat="42.84595" lon="0.27031">
        <ele>1540</ele>
        <time>2012-02-23T08:17:49Z</time>
      </trkpt>
      <trkpt lat="42.84594" lon="0.2703">
        <ele>1541</ele>
        <time>2012-02-23T08:17:54Z</time>
      </trkpt>
      <trkpt lat="42.84593" lon="0.27029">
        <ele>1541</ele>
        <time>2012-02-23T08:17:58Z</time>
      </trkpt>
      <trkpt lat="42.8459" lon="0.27027">
        <ele>1541</ele>
        <time>2012-02-23T08:18:02Z</time>
      </trkpt>
      <trkpt lat="42.84589" lon="0.27026">
        <ele>1541</ele>
        <time>2012-02-23T08:18:07Z</time>
      </trkpt>
      <trkpt lat="42.84587" lon="0.27024">
        <ele>1541</ele>
        <time>2012-02-23T08:18:10Z</time>
      </trkpt>
      <trkpt lat="42.84586" lon="0.27024">
        <ele>1541</ele>
        <time>2012-02-23T08:18:15Z</time>
      </trkpt>
      <trkpt lat="42.84583" lon="0.27021">
        <ele>1541</ele>
        <time>2012-02-23T08:18:20Z</time>
      </trkpt>
      <trkpt lat="42.84581" lon="0.27019">
        <ele>1543</ele>
        <time>2012-02-23T08:18:23Z</time>
      </trkpt>
      <trkpt lat="42.8458" lon="0.27017">
        <ele>1546</ele>
        <time>2012-02-23T08:18:26Z</time>
      </trkpt>
      <trkpt lat="42.84578" lon="0.27014">
        <ele>1549</ele>
        <time>2012-02-23T08:18:34Z</time>
      </trkpt>
      <trkpt lat="42.84576" lon="0.27012">
        <ele>1549</ele>
        <time>2012-02-23T08:18:38Z</time>
      </trkpt>
      <trkpt lat="42.84575" lon="0.27011">
        <ele>1549</ele>
        <time>2012-02-23T08:18:42Z</time>
      </trkpt>
      <trkpt lat="42.84573" lon="0.27009">
        <ele>1550</ele>
        <time>2012-02-23T08:18:45Z</time>
      </trkpt>
      <trkpt lat="42.84572" lon="0.27008">
        <ele>1552</ele>
        <time>2012-02-23T08:18:49Z</time>
      </trkpt>
      <trkpt lat="42.84571" lon="0.27008">
        <ele>1552</ele>
        <time>2012-02-23T08:18:56Z</time>
      </trkpt>
      <trkpt lat="42.84569" lon="0.27007">
        <ele>1552</ele>
        <time>2012-02-23T08:19:01Z</time>
      </trkpt>
      <trkpt lat="42.84568" lon="0.27005">
        <ele>1552</ele>
        <time>2012-02-23T08:19:05Z</time>
      </trkpt>
      <trkpt lat="42.84568" lon="0.27003">
        <ele>1552</ele>
        <time>2012-02-23T08:19:08Z</time>
      </trkpt>
      <trkpt lat="42.84566" lon="0.27002">
        <ele>1551</ele>
        <time>2012-02-23T08:19:11Z</time>
      </trkpt>
      <trkpt lat="42.84565" lon="0.27001">
        <ele>1551</ele>
        <time>2012-02-23T08:19:14Z</time>
      </trkpt>
      <trkpt lat="42.84564" lon="0.27001">
        <ele>1551</ele>
        <time>2012-02-23T08:19:18Z</time>
      </trkpt>
      <trkpt lat="42.84563" lon="0.27">
        <ele>1551</ele>
        <time>2012-02-23T08:19:22Z</time>
      </trkpt>
      <trkpt lat="42.84562" lon="0.26998">
        <ele>1551</ele>
        <time>2012-02-23T08:19:25Z</time>
      </trkpt>
      <trkpt lat="42.8456" lon="0.26994">
        <ele>1551</ele>
        <time>2012-02-23T08:19:31Z</time>
      </trkpt>
      <trkpt lat="42.8456" lon="0.26993">
        <ele>1551</ele>
        <time>2012-02-23T08:19:34Z</time>
      </trkpt>
      <trkpt lat="42.84559" lon="0.26991">
        <ele>1551</ele>
        <time>2012-02-23T08:19:37Z</time>
      </trkpt>
      <trkpt lat="42.84557" lon="0.26987">
        <ele>1551</ele>
        <time>2012-02-23T08:19:41Z</time>
      </trkpt>
      <trkpt lat="42.84556" lon="0.26986">
        <ele>1551</ele>
        <time>2012-02-23T08:19:44Z</time>
      </trkpt>
      <trkpt lat="42.84555" lon="0.26984">
        <ele>1551</ele>
        <time>2012-02-23T08:19:47Z</time>
      </trkpt>
      <trkpt lat="42.84552" lon="0.2698">
        <ele>1551</ele>
        <time>2012-02-23T08:19:52Z</time>
      </trkpt>
      <trkpt lat="42.84551" lon="0.26979">
        <ele>1551</ele>
        <time>2012-02-23T08:19:55Z</time>
      </trkpt>
      <trkpt lat="42.8455" lon="0.26978">
        <ele>1552</ele>
        <time>2012-02-23T08:19:58Z</time>
      </trkpt>
      <trkpt lat="42.84549" lon="0.26976">
        <ele>1553</ele>
        <time>2012-02-23T08:20:01Z</time>
      </trkpt>
      <trkpt lat="42.84547" lon="0.26975">
        <ele>1554</ele>
        <time>2012-02-23T08:20:04Z</time>
      </trkpt>
      <trkpt lat="42.84546" lon="0.26974">
        <ele>1554</ele>
        <time>2012-02-23T08:20:07Z</time>
      </trkpt>
      <trkpt lat="42.84545" lon="0.26973">
        <ele>1554</ele>
        <time>2012-02-23T08:20:12Z</time>
      </trkpt>
      <trkpt lat="42.84543" lon="0.2697">
        <ele>1556</ele>
        <time>2012-02-23T08:20:17Z</time>
      </trkpt>
      <trkpt lat="42.84543" lon="0.26968">
        <ele>1560</ele>
        <time>2012-02-23T08:20:25Z</time>
      </trkpt>
      <trkpt lat="42.84544" lon="0.26967">
        <ele>1561</ele>
        <time>2012-02-23T08:20:29Z</time>
      </trkpt>
      <trkpt lat="42.84545" lon="0.26965">
        <ele>1561</ele>
        <time>2012-02-23T08:20:32Z</time>
      </trkpt>
      <trkpt lat="42.84542" lon="0.26963">
        <ele>1561</ele>
        <time>2012-02-23T08:20:36Z</time>
      </trkpt>
      <trkpt lat="42.84544" lon="0.26962">
        <ele>1564</ele>
        <time>2012-02-23T08:20:42Z</time>
      </trkpt>
      <trkpt lat="42.84544" lon="0.2696">
        <ele>1567</ele>
        <time>2012-02-23T08:20:46Z</time>
      </trkpt>
      <trkpt lat="42.84542" lon="0.26959">
        <ele>1573</ele>
        <time>2012-02-23T08:20:57Z</time>
      </trkpt>
      <trkpt lat="42.84544" lon="0.26956">
        <ele>1577</ele>
        <time>2012-02-23T08:21:05Z</time>
      </trkpt>
      <trkpt lat="42.84542" lon="0.26956">
        <ele>1583</ele>
        <time>2012-02-23T08:21:22Z</time>
      </trkpt>
      <trkpt lat="42.84539" lon="0.26954">
        <ele>1584</ele>
        <time>2012-02-23T08:21:27Z</time>
      </trkpt>
      <trkpt lat="42.84542" lon="0.26955">
        <ele>1590</ele>
        <time>2012-02-23T08:21:37Z</time>
      </trkpt>
      <trkpt lat="42.84539" lon="0.26953">
        <ele>1590</ele>
        <time>2012-02-23T08:21:40Z</time>
      </trkpt>
      <trkpt lat="42.84537" lon="0.26951">
        <ele>1590</ele>
        <time>2012-02-23T08:21:44Z</time>
      </trkpt>
      <trkpt lat="42.84536" lon="0.2695">
        <ele>1590</ele>
        <time>2012-02-23T08:21:47Z</time>
      </trkpt>
      <trkpt lat="42.84536" lon="0.26948">
        <ele>1590</ele>
        <time>2012-02-23T08:21:52Z</time>
      </trkpt>
      <trkpt lat="42.84533" lon="0.26946">
        <ele>1590</ele>
        <time>2012-02-23T08:21:56Z</time>
      </trkpt>
      <trkpt lat="42.84529" lon="0.26945">
        <ele>1590</ele>
        <time>2012-02-23T08:22:00Z</time>
      </trkpt>
      <trkpt lat="42.84529" lon="0.26943">
        <ele>1590</ele>
        <time>2012-02-23T08:22:06Z</time>
      </trkpt>
      <trkpt lat="42.8453" lon="0.26943">
        <ele>1590</ele>
        <time>2012-02-23T08:22:13Z</time>
      </trkpt>
      <trkpt lat="42.84533" lon="0.2694">
        <ele>1590</ele>
        <time>2012-02-23T08:22:18Z</time>
      </trkpt>
      <trkpt lat="42.84534" lon="0.2694">
        <ele>1590</ele>
        <time>2012-02-23T08:22:22Z</time>
      </trkpt>
      <trkpt lat="42.84536" lon="0.26939">
        <ele>1594</ele>
        <time>2012-02-23T08:22:28Z</time>
      </trkpt>
      <trkpt lat="42.84535" lon="0.26936">
        <ele>1595</ele>
        <time>2012-02-23T08:22:33Z</time>
      </trkpt>
      <trkpt lat="42.84534" lon="0.26935">
        <ele>1595</ele>
        <time>2012-02-23T08:22:39Z</time>
      </trkpt>
      <trkpt lat="42.84533" lon="0.26934">
        <ele>1595</ele>
        <time>2012-02-23T08:22:44Z</time>
      </trkpt>
      <trkpt lat="42.84529" lon="0.26934">
        <ele>1594</ele>
        <time>2012-02-23T08:22:47Z</time>
      </trkpt>
      <trkpt lat="42.84529" lon="0.26934">
        <ele>1587</ele>
        <time>2012-02-23T08:23:02Z</time>
      </trkpt>
      <trkpt lat="42.84528" lon="0.26936">
        <ele>1587</ele>
        <time>2012-02-23T08:23:12Z</time>
      </trkpt>
      <trkpt lat="42.84523" lon="0.26937">
        <ele>1588</ele>
        <time>2012-02-23T08:23:15Z</time>
      </trkpt>
      <trkpt lat="42.84523" lon="0.26935">
        <ele>1588</ele>
        <time>2012-02-23T08:23:19Z</time>
      </trkpt>
      <trkpt lat="42.84524" lon="0.26933">
        <ele>1588</ele>
        <time>2012-02-23T08:23:23Z</time>
      </trkpt>
      <trkpt lat="42.84522" lon="0.2693">
        <ele>1588</ele>
        <time>2012-02-23T08:23:26Z</time>
      </trkpt>
      <trkpt lat="42.84522" lon="0.26929">
        <ele>1588</ele>
        <time>2012-02-23T08:23:29Z</time>
      </trkpt>
      <trkpt lat="42.84523" lon="0.26926">
        <ele>1588</ele>
        <time>2012-02-23T08:23:35Z</time>
      </trkpt>
      <trkpt lat="42.84522" lon="0.26923">
        <ele>1588</ele>
        <time>2012-02-23T08:23:41Z</time>
      </trkpt>
      <trkpt lat="42.84517" lon="0.26919">
        <ele>1588</ele>
        <time>2012-02-23T08:23:46Z</time>
      </trkpt>
      <trkpt lat="42.84512" lon="0.26916">
        <ele>1588</ele>
        <time>2012-02-23T08:23:51Z</time>
      </trkpt>
      <trkpt lat="42.8451" lon="0.26914">
        <ele>1588</ele>
        <time>2012-02-23T08:23:55Z</time>
      </trkpt>
      <trkpt lat="42.84507" lon="0.26912">
        <ele>1587</ele>
        <time>2012-02-23T08:23:59Z</time>
      </trkpt>
      <trkpt lat="42.84505" lon="0.26911">
        <ele>1587</ele>
        <time>2012-02-23T08:24:02Z</time>
      </trkpt>
      <trkpt lat="42.84504" lon="0.26909">
        <ele>1586</ele>
        <time>2012-02-23T08:24:05Z</time>
      </trkpt>
      <trkpt lat="42.84502" lon="0.26907">
        <ele>1586</ele>
        <time>2012-02-23T08:24:09Z</time>
      </trkpt>
      <trkpt lat="42.845" lon="0.26906">
        <ele>1586</ele>
        <time>2012-02-23T08:24:13Z</time>
      </trkpt>
      <trkpt lat="42.84497" lon="0.26903">
        <ele>1586</ele>
        <time>2012-02-23T08:24:19Z</time>
      </trkpt>
      <trkpt lat="42.84496" lon="0.26902">
        <ele>1585</ele>
        <time>2012-02-23T08:24:23Z</time>
      </trkpt>
      <trkpt lat="42.84493" lon="0.26899">
        <ele>1585</ele>
        <time>2012-02-23T08:24:27Z</time>
      </trkpt>
      <trkpt lat="42.84492" lon="0.26898">
        <ele>1585</ele>
        <time>2012-02-23T08:24:30Z</time>
      </trkpt>
      <trkpt lat="42.84491" lon="0.26897">
        <ele>1585</ele>
        <time>2012-02-23T08:24:33Z</time>
      </trkpt>
      <trkpt lat="42.84489" lon="0.26897">
        <ele>1585</ele>
        <time>2012-02-23T08:24:36Z</time>
      </trkpt>
      <trkpt lat="42.84488" lon="0.26896">
        <ele>1585</ele>
        <time>2012-02-23T08:24:44Z</time>
      </trkpt>
      <trkpt lat="42.84488" lon="0.26894">
        <ele>1585</ele>
        <time>2012-02-23T08:24:55Z</time>
      </trkpt>
      <trkpt lat="42.84486" lon="0.2689">
        <ele>1585</ele>
        <time>2012-02-23T08:25:01Z</time>
      </trkpt>
      <trkpt lat="42.84484" lon="0.26887">
        <ele>1586</ele>
        <time>2012-02-23T08:25:05Z</time>
      </trkpt>
      <trkpt lat="42.84483" lon="0.26885">
        <ele>1587</ele>
        <time>2012-02-23T08:25:09Z</time>
      </trkpt>
      <trkpt lat="42.84482" lon="0.26882">
        <ele>1587</ele>
        <time>2012-02-23T08:25:14Z</time>
      </trkpt>
      <trkpt lat="42.84481" lon="0.2688">
        <ele>1587</ele>
        <time>2012-02-23T08:25:17Z</time>
      </trkpt>
      <trkpt lat="42.8448" lon="0.26877">
        <ele>1589</ele>
        <time>2012-02-23T08:25:20Z</time>
      </trkpt>
      <trkpt lat="42.84479" lon="0.26876">
        <ele>1590</ele>
        <time>2012-02-23T08:25:23Z</time>
      </trkpt>
      <trkpt lat="42.84478" lon="0.26877">
        <ele>1592</ele>
        <time>2012-02-23T08:25:31Z</time>
      </trkpt>
      <trkpt lat="42.84477" lon="0.26877">
        <ele>1592</ele>
        <time>2012-02-23T08:25:46Z</time>
      </trkpt>
      <trkpt lat="42.84475" lon="0.26878">
        <ele>1593</ele>
        <time>2012-02-23T08:25:49Z</time>
      </trkpt>
      <trkpt lat="42.84475" lon="0.2688">
        <ele>1594</ele>
        <time>2012-02-23T08:25:53Z</time>
      </trkpt>
      <trkpt lat="42.84475" lon="0.26883">
        <ele>1595</ele>
        <time>2012-02-23T08:25:58Z</time>
      </trkpt>
      <trkpt lat="42.84472" lon="0.26887">
        <ele>1595</ele>
        <time>2012-02-23T08:26:03Z</time>
      </trkpt>
      <trkpt lat="42.84471" lon="0.26888">
        <ele>1595</ele>
        <time>2012-02-23T08:26:07Z</time>
      </trkpt>
      <trkpt lat="42.8447" lon="0.26887">
        <ele>1598</ele>
        <time>2012-02-23T08:26:10Z</time>
      </trkpt>
      <trkpt lat="42.84471" lon="0.26885">
        <ele>1601</ele>
        <time>2012-02-23T08:26:13Z</time>
      </trkpt>
      <trkpt lat="42.8447" lon="0.26882">
        <ele>1604</ele>
        <time>2012-02-23T08:26:16Z</time>
      </trkpt>
      <trkpt lat="42.84472" lon="0.2688">
        <ele>1604</ele>
        <time>2012-02-23T08:26:24Z</time>
      </trkpt>
      <trkpt lat="42.8447" lon="0.26878">
        <ele>1604</ele>
        <time>2012-02-23T08:26:31Z</time>
      </trkpt>
      <trkpt lat="42.84469" lon="0.26877">
        <ele>1604</ele>
        <time>2012-02-23T08:26:34Z</time>
      </trkpt>
      <trkpt lat="42.84467" lon="0.26877">
        <ele>1604</ele>
        <time>2012-02-23T08:26:39Z</time>
      </trkpt>
      <trkpt lat="42.84465" lon="0.26875">
        <ele>1604</ele>
        <time>2012-02-23T08:26:43Z</time>
      </trkpt>
      <trkpt lat="42.84462" lon="0.26875">
        <ele>1604</ele>
        <time>2012-02-23T08:26:47Z</time>
      </trkpt>
      <trkpt lat="42.84462" lon="0.26874">
        <ele>1604</ele>
        <time>2012-02-23T08:26:51Z</time>
      </trkpt>
      <trkpt lat="42.8446" lon="0.26872">
        <ele>1604</ele>
        <time>2012-02-23T08:26:54Z</time>
      </trkpt>
      <trkpt lat="42.8446" lon="0.26871">
        <ele>1604</ele>
        <time>2012-02-23T08:26:59Z</time>
      </trkpt>
      <trkpt lat="42.84461" lon="0.26871">
        <ele>1604</ele>
        <time>2012-02-23T08:27:02Z</time>
      </trkpt>
      <trkpt lat="42.84461" lon="0.2687">
        <ele>1605</ele>
        <time>2012-02-23T08:27:08Z</time>
      </trkpt>
      <trkpt lat="42.8446" lon="0.2687">
        <ele>1605</ele>
        <time>2012-02-23T08:27:12Z</time>
      </trkpt>
      <trkpt lat="42.84459" lon="0.26868">
        <ele>1605</ele>
        <time>2012-02-23T08:27:15Z</time>
      </trkpt>
      <trkpt lat="42.84459" lon="0.26867">
        <ele>1605</ele>
        <time>2012-02-23T08:27:22Z</time>
      </trkpt>
      <trkpt lat="42.84458" lon="0.26866">
        <ele>1607</ele>
        <time>2012-02-23T08:27:28Z</time>
      </trkpt>
      <trkpt lat="42.84457" lon="0.26863">
        <ele>1607</ele>
        <time>2012-02-23T08:27:36Z</time>
      </trkpt>
      <trkpt lat="42.84461" lon="0.26862">
        <ele>1607</ele>
        <time>2012-02-23T08:27:39Z</time>
      </trkpt>
      <trkpt lat="42.84464" lon="0.26861">
        <ele>1602</ele>
        <time>2012-02-23T08:27:44Z</time>
      </trkpt>
      <trkpt lat="42.84465" lon="0.26861">
        <ele>1600</ele>
        <time>2012-02-23T08:27:49Z</time>
      </trkpt>
      <trkpt lat="42.84464" lon="0.26863">
        <ele>1600</ele>
        <time>2012-02-23T08:27:55Z</time>
      </trkpt>
      <trkpt lat="42.84467" lon="0.26865">
        <ele>1600</ele>
        <time>2012-02-23T08:27:59Z</time>
      </trkpt>
      <trkpt lat="42.84466" lon="0.26864">
        <ele>1600</ele>
        <time>2012-02-23T08:28:02Z</time>
      </trkpt>
      <trkpt lat="42.84464" lon="0.26863">
        <ele>1603</ele>
        <time>2012-02-23T08:28:07Z</time>
      </trkpt>
      <trkpt lat="42.84461" lon="0.26861">
        <ele>1607</ele>
        <time>2012-02-23T08:28:11Z</time>
      </trkpt>
      <trkpt lat="42.8446" lon="0.2686">
        <ele>1610</ele>
        <time>2012-02-23T08:28:14Z</time>
      </trkpt>
      <trkpt lat="42.84459" lon="0.26856">
        <ele>1610</ele>
        <time>2012-02-23T08:28:19Z</time>
      </trkpt>
      <trkpt lat="42.84459" lon="0.26853">
        <ele>1607</ele>
        <time>2012-02-23T08:28:24Z</time>
      </trkpt>
      <trkpt lat="42.84457" lon="0.26849">
        <ele>1603</ele>
        <time>2012-02-23T08:28:28Z</time>
      </trkpt>
      <trkpt lat="42.84454" lon="0.26847">
        <ele>1603</ele>
        <time>2012-02-23T08:28:35Z</time>
      </trkpt>
      <trkpt lat="42.84451" lon="0.26847">
        <ele>1603</ele>
        <time>2012-02-23T08:28:39Z</time>
      </trkpt>
      <trkpt lat="42.8445" lon="0.26848">
        <ele>1603</ele>
        <time>2012-02-23T08:28:44Z</time>
      </trkpt>
      <trkpt lat="42.84449" lon="0.26847">
        <ele>1603</ele>
        <time>2012-02-23T08:28:50Z</time>
      </trkpt>
      <trkpt lat="42.84452" lon="0.26844">
        <ele>1603</ele>
        <time>2012-02-23T08:28:59Z</time>
      </trkpt>
      <trkpt lat="42.84452" lon="0.26842">
        <ele>1603</ele>
        <time>2012-02-23T08:29:02Z</time>
      </trkpt>
      <trkpt lat="42.84452" lon="0.2684">
        <ele>1604</ele>
        <time>2012-02-23T08:29:05Z</time>
      </trkpt>
      <trkpt lat="42.84451" lon="0.26839">
        <ele>1604</ele>
        <time>2012-02-23T08:29:09Z</time>
      </trkpt>
      <trkpt lat="42.84449" lon="0.2684">
        <ele>1604</ele>
        <time>2012-02-23T08:29:25Z</time>
      </trkpt>
      <trkpt lat="42.84449" lon="0.26842">
        <ele>1604</ele>
        <time>2012-02-23T08:29:36Z</time>
      </trkpt>
      <trkpt lat="42.84448" lon="0.26842">
        <ele>1604</ele>
        <time>2012-02-23T08:30:08Z</time>
      </trkpt>
      <trkpt lat="42.84449" lon="0.26842">
        <ele>1604</ele>
        <time>2012-02-23T08:30:26Z</time>
      </trkpt>
      <trkpt lat="42.84451" lon="0.26838">
        <ele>1604</ele>
        <time>2012-02-23T08:30:29Z</time>
      </trkpt>
      <trkpt lat="42.84451" lon="0.26841">
        <ele>1604</ele>
        <time>2012-02-23T08:30:40Z</time>
      </trkpt>
      <trkpt lat="42.84449" lon="0.2684">
        <ele>1604</ele>
        <time>2012-02-23T08:30:44Z</time>
      </trkpt>
      <trkpt lat="42.8446" lon="0.26834">
        <ele>1604</ele>
        <time>2012-02-23T08:31:04Z</time>
      </trkpt>
      <trkpt lat="42.84456" lon="0.26834">
        <ele>1604</ele>
        <time>2012-02-23T08:31:07Z</time>
      </trkpt>
      <trkpt lat="42.84455" lon="0.26836">
        <ele>1604</ele>
        <time>2012-02-23T08:31:10Z</time>
      </trkpt>
      <trkpt lat="42.84454" lon="0.26838">
        <ele>1604</ele>
        <time>2012-02-23T08:31:15Z</time>
      </trkpt>
      <trkpt lat="42.84451" lon="0.26839">
        <ele>1604</ele>
        <time>2012-02-23T08:31:20Z</time>
      </trkpt>
      <trkpt lat="42.8445" lon="0.2684">
        <ele>1604</ele>
        <time>2012-02-23T08:31:25Z</time>
      </trkpt>
      <trkpt lat="42.8445" lon="0.26841">
        <ele>1605</ele>
        <time>2012-02-23T08:32:00Z</time>
      </trkpt>
      <trkpt lat="42.84449" lon="0.26841">
        <ele>1605</ele>
        <time>2012-02-23T08:32:17Z</time>
      </trkpt>
      <trkpt lat="42.84448" lon="0.26839">
        <ele>1605</ele>
        <time>2012-02-23T08:32:23Z</time>
      </trkpt>
      <trkpt lat="42.84446" lon="0.26838">
        <ele>1605</ele>
        <time>2012-02-23T08:32:26Z</time>
      </trkpt>
      <trkpt lat="42.84445" lon="0.26838">
        <ele>1605</ele>
        <time>2012-02-23T08:32:29Z</time>
      </trkpt>
      <trkpt lat="42.84442" lon="0.26838">
        <ele>1605</ele>
        <time>2012-02-23T08:32:34Z</time>
      </trkpt>
      <trkpt lat="42.84441" lon="0.26836">
        <ele>1605</ele>
        <time>2012-02-23T08:32:38Z</time>
      </trkpt>
      <trkpt lat="42.84439" lon="0.26835">
        <ele>1605</ele>
        <time>2012-02-23T08:32:41Z</time>
      </trkpt>
      <trkpt lat="42.84438" lon="0.26834">
        <ele>1605</ele>
        <time>2012-02-23T08:32:45Z</time>
      </trkpt>
      <trkpt lat="42.84437" lon="0.26833">
        <ele>1606</ele>
        <time>2012-02-23T08:32:49Z</time>
      </trkpt>
      <trkpt lat="42.84435" lon="0.26831">
        <ele>1607</ele>
        <time>2012-02-23T08:32:52Z</time>
      </trkpt>
      <trkpt lat="42.84434" lon="0.26831">
        <ele>1608</ele>
        <time>2012-02-23T08:32:55Z</time>
      </trkpt>
      <trkpt lat="42.84431" lon="0.2683">
        <ele>1609</ele>
        <time>2012-02-23T08:32:59Z</time>
      </trkpt>
      <trkpt lat="42.84429" lon="0.26832">
        <ele>1610</ele>
        <time>2012-02-23T08:33:04Z</time>
      </trkpt>
      <trkpt lat="42.84426" lon="0.26832">
        <ele>1611</ele>
        <time>2012-02-23T08:33:08Z</time>
      </trkpt>
      <trkpt lat="42.84423" lon="0.26829">
        <ele>1615</ele>
        <time>2012-02-23T08:33:12Z</time>
      </trkpt>
      <trkpt lat="42.84421" lon="0.26824">
        <ele>1619</ele>
        <time>2012-02-23T08:33:16Z</time>
      </trkpt>
      <trkpt lat="42.8442" lon="0.26822">
        <ele>1622</ele>
        <time>2012-02-23T08:33:20Z</time>
      </trkpt>
      <trkpt lat="42.84419" lon="0.26822">
        <ele>1622</ele>
        <time>2012-02-23T08:33:27Z</time>
      </trkpt>
      <trkpt lat="42.84417" lon="0.2682">
        <ele>1622</ele>
        <time>2012-02-23T08:33:30Z</time>
      </trkpt>
      <trkpt lat="42.84417" lon="0.26818">
        <ele>1622</ele>
        <time>2012-02-23T08:33:35Z</time>
      </trkpt>
      <trkpt lat="42.84415" lon="0.26817">
        <ele>1622</ele>
        <time>2012-02-23T08:33:44Z</time>
      </trkpt>
      <trkpt lat="42.84414" lon="0.26816">
        <ele>1622</ele>
        <time>2012-02-23T08:33:48Z</time>
      </trkpt>
      <trkpt lat="42.84414" lon="0.26815">
        <ele>1622</ele>
        <time>2012-02-23T08:33:59Z</time>
      </trkpt>
      <trkpt lat="42.84413" lon="0.26813">
        <ele>1622</ele>
        <time>2012-02-23T08:34:03Z</time>
      </trkpt>
      <trkpt lat="42.84412" lon="0.26813">
        <ele>1622</ele>
        <time>2012-02-23T08:34:06Z</time>
      </trkpt>
      <trkpt lat="42.8441" lon="0.26813">
        <ele>1622</ele>
        <time>2012-02-23T08:34:09Z</time>
      </trkpt>
      <trkpt lat="42.8441" lon="0.26811">
        <ele>1622</ele>
        <time>2012-02-23T08:34:17Z</time>
      </trkpt>
      <trkpt lat="42.8441" lon="0.26808">
        <ele>1622</ele>
        <time>2012-02-23T08:34:31Z</time>
      </trkpt>
      <trkpt lat="42.84409" lon="0.26807">
        <ele>1622</ele>
        <time>2012-02-23T08:34:38Z</time>
      </trkpt>
      <trkpt lat="42.84407" lon="0.26804">
        <ele>1622</ele>
        <time>2012-02-23T08:34:44Z</time>
      </trkpt>
      <trkpt lat="42.84405" lon="0.26801">
        <ele>1622</ele>
        <time>2012-02-23T08:34:49Z</time>
      </trkpt>
      <trkpt lat="42.84404" lon="0.268">
        <ele>1623</ele>
        <time>2012-02-23T08:34:56Z</time>
      </trkpt>
      <trkpt lat="42.84404" lon="0.26798">
        <ele>1624</ele>
        <time>2012-02-23T08:35:00Z</time>
      </trkpt>
      <trkpt lat="42.84403" lon="0.26797">
        <ele>1624</ele>
        <time>2012-02-23T08:35:03Z</time>
      </trkpt>
      <trkpt lat="42.84402" lon="0.26793">
        <ele>1625</ele>
        <time>2012-02-23T08:35:08Z</time>
      </trkpt>
      <trkpt lat="42.84402" lon="0.26795">
        <ele>1625</ele>
        <time>2012-02-23T08:35:20Z</time>
      </trkpt>
      <trkpt lat="42.84402" lon="0.26796">
        <ele>1625</ele>
        <time>2012-02-23T08:35:23Z</time>
      </trkpt>
      <trkpt lat="42.84401" lon="0.26796">
        <ele>1625</ele>
        <time>2012-02-23T08:35:37Z</time>
      </trkpt>
      <trkpt lat="42.84399" lon="0.26794">
        <ele>1625</ele>
        <time>2012-02-23T08:35:40Z</time>
      </trkpt>
      <trkpt lat="42.84398" lon="0.26793">
        <ele>1625</ele>
        <time>2012-02-23T08:35:44Z</time>
      </trkpt>
      <trkpt lat="42.84396" lon="0.2679">
        <ele>1625</ele>
        <time>2012-02-23T08:35:48Z</time>
      </trkpt>
      <trkpt lat="42.84394" lon="0.26787">
        <ele>1626</ele>
        <time>2012-02-23T08:35:52Z</time>
      </trkpt>
      <trkpt lat="42.84393" lon="0.26785">
        <ele>1628</ele>
        <time>2012-02-23T08:35:55Z</time>
      </trkpt>
      <trkpt lat="42.84391" lon="0.26783">
        <ele>1629</ele>
        <time>2012-02-23T08:35:58Z</time>
      </trkpt>
      <trkpt lat="42.8439" lon="0.26781">
        <ele>1629</ele>
        <time>2012-02-23T08:36:01Z</time>
      </trkpt>
      <trkpt lat="42.84389" lon="0.2678">
        <ele>1629</ele>
        <time>2012-02-23T08:36:04Z</time>
      </trkpt>
      <trkpt lat="42.84388" lon="0.26777">
        <ele>1630</ele>
        <time>2012-02-23T08:36:09Z</time>
      </trkpt>
      <trkpt lat="42.84387" lon="0.26776">
        <ele>1630</ele>
        <time>2012-02-23T08:36:12Z</time>
      </trkpt>
      <trkpt lat="42.84385" lon="0.26774">
        <ele>1630</ele>
        <time>2012-02-23T08:36:16Z</time>
      </trkpt>
      <trkpt lat="42.84383" lon="0.26771">
        <ele>1631</ele>
        <time>2012-02-23T08:36:21Z</time>
      </trkpt>
      <trkpt lat="42.84382" lon="0.2677">
        <ele>1632</ele>
        <time>2012-02-23T08:36:24Z</time>
      </trkpt>
      <trkpt lat="42.84379" lon="0.26767">
        <ele>1633</ele>
        <time>2012-02-23T08:36:29Z</time>
      </trkpt>
      <trkpt lat="42.84378" lon="0.26766">
        <ele>1633</ele>
        <time>2012-02-23T08:36:32Z</time>
      </trkpt>
      <trkpt lat="42.84376" lon="0.26765">
        <ele>1633</ele>
        <time>2012-02-23T08:36:35Z</time>
      </trkpt>
      <trkpt lat="42.84375" lon="0.26765">
        <ele>1633</ele>
        <time>2012-02-23T08:36:38Z</time>
      </trkpt>
      <trkpt lat="42.84373" lon="0.26763">
        <ele>1633</ele>
        <time>2012-02-23T08:36:41Z</time>
      </trkpt>
      <trkpt lat="42.8437" lon="0.26762">
        <ele>1633</ele>
        <time>2012-02-23T08:36:46Z</time>
      </trkpt>
      <trkpt lat="42.84368" lon="0.2676">
        <ele>1633</ele>
        <time>2012-02-23T08:36:51Z</time>
      </trkpt>
      <trkpt lat="42.84365" lon="0.26758">
        <ele>1633</ele>
        <time>2012-02-23T08:37:17Z</time>
      </trkpt>
      <trkpt lat="42.84363" lon="0.26756">
        <ele>1633</ele>
        <time>2012-02-23T08:37:30Z</time>
      </trkpt>
      <trkpt lat="42.84361" lon="0.26755">
        <ele>1633</ele>
        <time>2012-02-23T08:37:33Z</time>
      </trkpt>
      <trkpt lat="42.8436" lon="0.26754">
        <ele>1633</ele>
        <time>2012-02-23T08:37:36Z</time>
      </trkpt>
      <trkpt lat="42.84359" lon="0.26752">
        <ele>1633</ele>
        <time>2012-02-23T08:37:39Z</time>
      </trkpt>
      <trkpt lat="42.84357" lon="0.2675">
        <ele>1633</ele>
        <time>2012-02-23T08:37:42Z</time>
      </trkpt>
      <trkpt lat="42.84356" lon="0.26748">
        <ele>1633</ele>
        <time>2012-02-23T08:37:45Z</time>
      </trkpt>
      <trkpt lat="42.84353" lon="0.26745">
        <ele>1633</ele>
        <time>2012-02-23T08:37:50Z</time>
      </trkpt>
      <trkpt lat="42.8435" lon="0.26741">
        <ele>1633</ele>
        <time>2012-02-23T08:37:54Z</time>
      </trkpt>
      <trkpt lat="42.84348" lon="0.26738">
        <ele>1634</ele>
        <time>2012-02-23T08:37:58Z</time>
      </trkpt>
      <trkpt lat="42.84346" lon="0.26735">
        <ele>1635</ele>
        <time>2012-02-23T08:38:02Z</time>
      </trkpt>
      <trkpt lat="42.84344" lon="0.26731">
        <ele>1636</ele>
        <time>2012-02-23T08:38:06Z</time>
      </trkpt>
      <trkpt lat="42.84343" lon="0.2673">
        <ele>1636</ele>
        <time>2012-02-23T08:38:09Z</time>
      </trkpt>
      <trkpt lat="42.84342" lon="0.26727">
        <ele>1636</ele>
        <time>2012-02-23T08:38:12Z</time>
      </trkpt>
      <trkpt lat="42.84341" lon="0.26726">
        <ele>1636</ele>
        <time>2012-02-23T08:38:15Z</time>
      </trkpt>
      <trkpt lat="42.84341" lon="0.26724">
        <ele>1636</ele>
        <time>2012-02-23T08:38:18Z</time>
      </trkpt>
      <trkpt lat="42.8434" lon="0.2672">
        <ele>1636</ele>
        <time>2012-02-23T08:38:22Z</time>
      </trkpt>
      <trkpt lat="42.84338" lon="0.26718">
        <ele>1637</ele>
        <time>2012-02-23T08:38:26Z</time>
      </trkpt>
      <trkpt lat="42.84337" lon="0.26714">
        <ele>1639</ele>
        <time>2012-02-23T08:38:30Z</time>
      </trkpt>
      <trkpt lat="42.84336" lon="0.26711">
        <ele>1639</ele>
        <time>2012-02-23T08:38:34Z</time>
      </trkpt>
      <trkpt lat="42.84335" lon="0.26708">
        <ele>1639</ele>
        <time>2012-02-23T08:38:38Z</time>
      </trkpt>
      <trkpt lat="42.84333" lon="0.26704">
        <ele>1640</ele>
        <time>2012-02-23T08:38:42Z</time>
      </trkpt>
      <trkpt lat="42.84332" lon="0.267">
        <ele>1640</ele>
        <time>2012-02-23T08:38:47Z</time>
      </trkpt>
      <trkpt lat="42.84331" lon="0.26697">
        <ele>1640</ele>
        <time>2012-02-23T08:38:51Z</time>
      </trkpt>
      <trkpt lat="42.8433" lon="0.26694">
        <ele>1640</ele>
        <time>2012-02-23T08:38:55Z</time>
      </trkpt>
      <trkpt lat="42.8433" lon="0.26692">
        <ele>1640</ele>
        <time>2012-02-23T08:38:58Z</time>
      </trkpt>
      <trkpt lat="42.8433" lon="0.2669">
        <ele>1640</ele>
        <time>2012-02-23T08:39:01Z</time>
      </trkpt>
      <trkpt lat="42.84329" lon="0.26688">
        <ele>1640</ele>
        <time>2012-02-23T08:39:04Z</time>
      </trkpt>
      <trkpt lat="42.84328" lon="0.26685">
        <ele>1640</ele>
        <time>2012-02-23T08:39:08Z</time>
      </trkpt>
      <trkpt lat="42.84327" lon="0.26682">
        <ele>1640</ele>
        <time>2012-02-23T08:39:12Z</time>
      </trkpt>
      <trkpt lat="42.84327" lon="0.26678">
        <ele>1641</ele>
        <time>2012-02-23T08:39:16Z</time>
      </trkpt>
      <trkpt lat="42.84326" lon="0.26675">
        <ele>1641</ele>
        <time>2012-02-23T08:39:20Z</time>
      </trkpt>
      <trkpt lat="42.84325" lon="0.26672">
        <ele>1641</ele>
        <time>2012-02-23T08:39:24Z</time>
      </trkpt>
      <trkpt lat="42.84324" lon="0.26669">
        <ele>1641</ele>
        <time>2012-02-23T08:39:28Z</time>
      </trkpt>
      <trkpt lat="42.84323" lon="0.26666">
        <ele>1642</ele>
        <time>2012-02-23T08:39:32Z</time>
      </trkpt>
      <trkpt lat="42.84322" lon="0.26664">
        <ele>1642</ele>
        <time>2012-02-23T08:39:35Z</time>
      </trkpt>
      <trkpt lat="42.84321" lon="0.2666">
        <ele>1643</ele>
        <time>2012-02-23T08:39:39Z</time>
      </trkpt>
      <trkpt lat="42.8432" lon="0.26657">
        <ele>1643</ele>
        <time>2012-02-23T08:39:43Z</time>
      </trkpt>
      <trkpt lat="42.84319" lon="0.26653">
        <ele>1643</ele>
        <time>2012-02-23T08:39:48Z</time>
      </trkpt>
      <trkpt lat="42.84318" lon="0.2665">
        <ele>1644</ele>
        <time>2012-02-23T08:39:52Z</time>
      </trkpt>
      <trkpt lat="42.84316" lon="0.26647">
        <ele>1645</ele>
        <time>2012-02-23T08:39:56Z</time>
      </trkpt>
      <trkpt lat="42.84315" lon="0.26644">
        <ele>1646</ele>
        <time>2012-02-23T08:40:00Z</time>
      </trkpt>
      <trkpt lat="42.84314" lon="0.26641">
        <ele>1646</ele>
        <time>2012-02-23T08:40:04Z</time>
      </trkpt>
      <trkpt lat="42.84312" lon="0.26638">
        <ele>1647</ele>
        <time>2012-02-23T08:40:08Z</time>
      </trkpt>
      <trkpt lat="42.84312" lon="0.26635">
        <ele>1647</ele>
        <time>2012-02-23T08:40:11Z</time>
      </trkpt>
      <trkpt lat="42.84311" lon="0.26632">
        <ele>1647</ele>
        <time>2012-02-23T08:40:15Z</time>
      </trkpt>
      <trkpt lat="42.8431" lon="0.26629">
        <ele>1647</ele>
        <time>2012-02-23T08:40:19Z</time>
      </trkpt>
      <trkpt lat="42.84309" lon="0.26626">
        <ele>1647</ele>
        <time>2012-02-23T08:40:23Z</time>
      </trkpt>
      <trkpt lat="42.84307" lon="0.26623">
        <ele>1647</ele>
        <time>2012-02-23T08:40:27Z</time>
      </trkpt>
      <trkpt lat="42.84306" lon="0.2662">
        <ele>1647</ele>
        <time>2012-02-23T08:40:31Z</time>
      </trkpt>
      <trkpt lat="42.84305" lon="0.26616">
        <ele>1647</ele>
        <time>2012-02-23T08:40:36Z</time>
      </trkpt>
      <trkpt lat="42.84303" lon="0.26612">
        <ele>1648</ele>
        <time>2012-02-23T08:40:40Z</time>
      </trkpt>
      <trkpt lat="42.84301" lon="0.26609">
        <ele>1649</ele>
        <time>2012-02-23T08:40:45Z</time>
      </trkpt>
      <trkpt lat="42.84299" lon="0.26607">
        <ele>1649</ele>
        <time>2012-02-23T08:40:48Z</time>
      </trkpt>
      <trkpt lat="42.84298" lon="0.26606">
        <ele>1649</ele>
        <time>2012-02-23T08:40:51Z</time>
      </trkpt>
      <trkpt lat="42.84296" lon="0.26603">
        <ele>1649</ele>
        <time>2012-02-23T08:40:56Z</time>
      </trkpt>
      <trkpt lat="42.84294" lon="0.26601">
        <ele>1649</ele>
        <time>2012-02-23T08:40:59Z</time>
      </trkpt>
      <trkpt lat="42.84293" lon="0.266">
        <ele>1649</ele>
        <time>2012-02-23T08:41:02Z</time>
      </trkpt>
      <trkpt lat="42.84291" lon="0.26598">
        <ele>1649</ele>
        <time>2012-02-23T08:41:05Z</time>
      </trkpt>
      <trkpt lat="42.8429" lon="0.26597">
        <ele>1649</ele>
        <time>2012-02-23T08:41:08Z</time>
      </trkpt>
      <trkpt lat="42.84287" lon="0.26594">
        <ele>1650</ele>
        <time>2012-02-23T08:41:13Z</time>
      </trkpt>
      <trkpt lat="42.84286" lon="0.26592">
        <ele>1650</ele>
        <time>2012-02-23T08:41:16Z</time>
      </trkpt>
      <trkpt lat="42.84285" lon="0.26591">
        <ele>1650</ele>
        <time>2012-02-23T08:41:19Z</time>
      </trkpt>
      <trkpt lat="42.84283" lon="0.26589">
        <ele>1650</ele>
        <time>2012-02-23T08:41:22Z</time>
      </trkpt>
      <trkpt lat="42.84281" lon="0.26586">
        <ele>1650</ele>
        <time>2012-02-23T08:41:27Z</time>
      </trkpt>
      <trkpt lat="42.8428" lon="0.26584">
        <ele>1650</ele>
        <time>2012-02-23T08:41:30Z</time>
      </trkpt>
      <trkpt lat="42.84277" lon="0.2658">
        <ele>1650</ele>
        <time>2012-02-23T08:41:35Z</time>
      </trkpt>
      <trkpt lat="42.84275" lon="0.26577">
        <ele>1650</ele>
        <time>2012-02-23T08:41:39Z</time>
      </trkpt>
      <trkpt lat="42.84274" lon="0.26575">
        <ele>1650</ele>
        <time>2012-02-23T08:41:42Z</time>
      </trkpt>
      <trkpt lat="42.84271" lon="0.26572">
        <ele>1652</ele>
        <time>2012-02-23T08:41:47Z</time>
      </trkpt>
      <trkpt lat="42.8427" lon="0.2657">
        <ele>1653</ele>
        <time>2012-02-23T08:41:50Z</time>
      </trkpt>
      <trkpt lat="42.84269" lon="0.26568">
        <ele>1653</ele>
        <time>2012-02-23T08:41:53Z</time>
      </trkpt>
      <trkpt lat="42.84266" lon="0.26565">
        <ele>1653</ele>
        <time>2012-02-23T08:41:57Z</time>
      </trkpt>
      <trkpt lat="42.84264" lon="0.26563">
        <ele>1654</ele>
        <time>2012-02-23T08:42:00Z</time>
      </trkpt>
      <trkpt lat="42.84263" lon="0.26561">
        <ele>1654</ele>
        <time>2012-02-23T08:42:03Z</time>
      </trkpt>
      <trkpt lat="42.84261" lon="0.26557">
        <ele>1654</ele>
        <time>2012-02-23T08:42:08Z</time>
      </trkpt>
      <trkpt lat="42.84259" lon="0.26554">
        <ele>1655</ele>
        <time>2012-02-23T08:42:13Z</time>
      </trkpt>
      <trkpt lat="42.84259" lon="0.26552">
        <ele>1655</ele>
        <time>2012-02-23T08:42:16Z</time>
      </trkpt>
      <trkpt lat="42.84257" lon="0.2655">
        <ele>1655</ele>
        <time>2012-02-23T08:42:19Z</time>
      </trkpt>
      <trkpt lat="42.84256" lon="0.26549">
        <ele>1655</ele>
        <time>2012-02-23T08:42:23Z</time>
      </trkpt>
      <trkpt lat="42.84255" lon="0.26547">
        <ele>1655</ele>
        <time>2012-02-23T08:42:29Z</time>
      </trkpt>
      <trkpt lat="42.84254" lon="0.26545">
        <ele>1655</ele>
        <time>2012-02-23T08:42:32Z</time>
      </trkpt>
      <trkpt lat="42.84253" lon="0.26543">
        <ele>1656</ele>
        <time>2012-02-23T08:42:35Z</time>
      </trkpt>
      <trkpt lat="42.84252" lon="0.2654">
        <ele>1657</ele>
        <time>2012-02-23T08:42:40Z</time>
      </trkpt>
      <trkpt lat="42.84251" lon="0.26538">
        <ele>1657</ele>
        <time>2012-02-23T08:42:43Z</time>
      </trkpt>
      <trkpt lat="42.84249" lon="0.26535">
        <ele>1658</ele>
        <time>2012-02-23T08:42:48Z</time>
      </trkpt>
      <trkpt lat="42.84248" lon="0.26531">
        <ele>1658</ele>
        <time>2012-02-23T08:42:53Z</time>
      </trkpt>
      <trkpt lat="42.84245" lon="0.26527">
        <ele>1660</ele>
        <time>2012-02-23T08:42:58Z</time>
      </trkpt>
      <trkpt lat="42.84244" lon="0.26524">
        <ele>1661</ele>
        <time>2012-02-23T08:43:02Z</time>
      </trkpt>
      <trkpt lat="42.84243" lon="0.26522">
        <ele>1661</ele>
        <time>2012-02-23T08:43:05Z</time>
      </trkpt>
      <trkpt lat="42.84242" lon="0.2652">
        <ele>1662</ele>
        <time>2012-02-23T08:43:08Z</time>
      </trkpt>
      <trkpt lat="42.8424" lon="0.26517">
        <ele>1662</ele>
        <time>2012-02-23T08:43:12Z</time>
      </trkpt>
      <trkpt lat="42.84239" lon="0.26513">
        <ele>1664</ele>
        <time>2012-02-23T08:43:16Z</time>
      </trkpt>
      <trkpt lat="42.84238" lon="0.2651">
        <ele>1665</ele>
        <time>2012-02-23T08:43:20Z</time>
      </trkpt>
      <trkpt lat="42.84236" lon="0.26507">
        <ele>1666</ele>
        <time>2012-02-23T08:43:24Z</time>
      </trkpt>
      <trkpt lat="42.84235" lon="0.26503">
        <ele>1667</ele>
        <time>2012-02-23T08:43:28Z</time>
      </trkpt>
      <trkpt lat="42.84234" lon="0.26499">
        <ele>1668</ele>
        <time>2012-02-23T08:43:33Z</time>
      </trkpt>
      <trkpt lat="42.84233" lon="0.26496">
        <ele>1668</ele>
        <time>2012-02-23T08:43:38Z</time>
      </trkpt>
      <trkpt lat="42.84231" lon="0.26492">
        <ele>1669</ele>
        <time>2012-02-23T08:43:43Z</time>
      </trkpt>
      <trkpt lat="42.84229" lon="0.26489">
        <ele>1669</ele>
        <time>2012-02-23T08:43:48Z</time>
      </trkpt>
      <trkpt lat="42.84228" lon="0.26487">
        <ele>1669</ele>
        <time>2012-02-23T08:43:51Z</time>
      </trkpt>
      <trkpt lat="42.84227" lon="0.26486">
        <ele>1669</ele>
        <time>2012-02-23T08:43:54Z</time>
      </trkpt>
      <trkpt lat="42.84226" lon="0.26485">
        <ele>1669</ele>
        <time>2012-02-23T08:43:57Z</time>
      </trkpt>
      <trkpt lat="42.84225" lon="0.26483">
        <ele>1669</ele>
        <time>2012-02-23T08:44:00Z</time>
      </trkpt>
      <trkpt lat="42.84224" lon="0.26481">
        <ele>1669</ele>
        <time>2012-02-23T08:44:03Z</time>
      </trkpt>
      <trkpt lat="42.84223" lon="0.2648">
        <ele>1670</ele>
        <time>2012-02-23T08:44:06Z</time>
      </trkpt>
      <trkpt lat="42.84222" lon="0.26477">
        <ele>1670</ele>
        <time>2012-02-23T08:44:09Z</time>
      </trkpt>
      <trkpt lat="42.84221" lon="0.26474">
        <ele>1671</ele>
        <time>2012-02-23T08:44:13Z</time>
      </trkpt>
      <trkpt lat="42.84221" lon="0.26472">
        <ele>1671</ele>
        <time>2012-02-23T08:44:16Z</time>
      </trkpt>
      <trkpt lat="42.8422" lon="0.26469">
        <ele>1672</ele>
        <time>2012-02-23T08:44:20Z</time>
      </trkpt>
      <trkpt lat="42.84219" lon="0.26465">
        <ele>1673</ele>
        <time>2012-02-23T08:44:24Z</time>
      </trkpt>
      <trkpt lat="42.84217" lon="0.26461">
        <ele>1674</ele>
        <time>2012-02-23T08:44:29Z</time>
      </trkpt>
      <trkpt lat="42.84216" lon="0.26459">
        <ele>1675</ele>
        <time>2012-02-23T08:44:32Z</time>
      </trkpt>
      <trkpt lat="42.84214" lon="0.26458">
        <ele>1675</ele>
        <time>2012-02-23T08:44:35Z</time>
      </trkpt>
      <trkpt lat="42.84213" lon="0.26456">
        <ele>1676</ele>
        <time>2012-02-23T08:44:38Z</time>
      </trkpt>
      <trkpt lat="42.84212" lon="0.26455">
        <ele>1676</ele>
        <time>2012-02-23T08:44:41Z</time>
      </trkpt>
      <trkpt lat="42.84211" lon="0.26453">
        <ele>1676</ele>
        <time>2012-02-23T08:44:44Z</time>
      </trkpt>
      <trkpt lat="42.8421" lon="0.26452">
        <ele>1676</ele>
        <time>2012-02-23T08:44:47Z</time>
      </trkpt>
      <trkpt lat="42.84209" lon="0.26451">
        <ele>1676</ele>
        <time>2012-02-23T08:44:50Z</time>
      </trkpt>
      <trkpt lat="42.84207" lon="0.26449">
        <ele>1676</ele>
        <time>2012-02-23T08:44:54Z</time>
      </trkpt>
      <trkpt lat="42.84206" lon="0.26447">
        <ele>1676</ele>
        <time>2012-02-23T08:44:57Z</time>
      </trkpt>
      <trkpt lat="42.84205" lon="0.26446">
        <ele>1677</ele>
        <time>2012-02-23T08:45:00Z</time>
      </trkpt>
      <trkpt lat="42.84204" lon="0.26444">
        <ele>1677</ele>
        <time>2012-02-23T08:45:03Z</time>
      </trkpt>
      <trkpt lat="42.84202" lon="0.26442">
        <ele>1678</ele>
        <time>2012-02-23T08:45:06Z</time>
      </trkpt>
      <trkpt lat="42.84201" lon="0.26441">
        <ele>1678</ele>
        <time>2012-02-23T08:45:10Z</time>
      </trkpt>
      <trkpt lat="42.842" lon="0.26439">
        <ele>1678</ele>
        <time>2012-02-23T08:45:14Z</time>
      </trkpt>
      <trkpt lat="42.84198" lon="0.26436">
        <ele>1679</ele>
        <time>2012-02-23T08:45:19Z</time>
      </trkpt>
      <trkpt lat="42.84196" lon="0.26434">
        <ele>1680</ele>
        <time>2012-02-23T08:45:22Z</time>
      </trkpt>
      <trkpt lat="42.84195" lon="0.26432">
        <ele>1680</ele>
        <time>2012-02-23T08:45:25Z</time>
      </trkpt>
      <trkpt lat="42.84194" lon="0.26429">
        <ele>1681</ele>
        <time>2012-02-23T08:45:40Z</time>
      </trkpt>
      <trkpt lat="42.84194" lon="0.26427">
        <ele>1681</ele>
        <time>2012-02-23T08:45:43Z</time>
      </trkpt>
      <trkpt lat="42.84193" lon="0.26426">
        <ele>1682</ele>
        <time>2012-02-23T08:45:46Z</time>
      </trkpt>
      <trkpt lat="42.84192" lon="0.26424">
        <ele>1682</ele>
        <time>2012-02-23T08:45:49Z</time>
      </trkpt>
      <trkpt lat="42.8419" lon="0.26421">
        <ele>1682</ele>
        <time>2012-02-23T08:45:54Z</time>
      </trkpt>
      <trkpt lat="42.8419" lon="0.26419">
        <ele>1682</ele>
        <time>2012-02-23T08:45:58Z</time>
      </trkpt>
      <trkpt lat="42.84188" lon="0.26416">
        <ele>1682</ele>
        <time>2012-02-23T08:46:03Z</time>
      </trkpt>
      <trkpt lat="42.84187" lon="0.26415">
        <ele>1682</ele>
        <time>2012-02-23T08:46:06Z</time>
      </trkpt>
      <trkpt lat="42.84186" lon="0.26413">
        <ele>1682</ele>
        <time>2012-02-23T08:46:09Z</time>
      </trkpt>
      <trkpt lat="42.84185" lon="0.26411">
        <ele>1682</ele>
        <time>2012-02-23T08:46:12Z</time>
      </trkpt>
      <trkpt lat="42.84185" lon="0.2641">
        <ele>1682</ele>
        <time>2012-02-23T08:46:15Z</time>
      </trkpt>
      <trkpt lat="42.84184" lon="0.26408">
        <ele>1682</ele>
        <time>2012-02-23T08:46:18Z</time>
      </trkpt>
      <trkpt lat="42.84182" lon="0.26405">
        <ele>1682</ele>
        <time>2012-02-23T08:46:23Z</time>
      </trkpt>
      <trkpt lat="42.84181" lon="0.26401">
        <ele>1683</ele>
        <time>2012-02-23T08:46:27Z</time>
      </trkpt>
      <trkpt lat="42.8418" lon="0.26398">
        <ele>1684</ele>
        <time>2012-02-23T08:46:32Z</time>
      </trkpt>
      <trkpt lat="42.84179" lon="0.26396">
        <ele>1684</ele>
        <time>2012-02-23T08:46:35Z</time>
      </trkpt>
      <trkpt lat="42.84179" lon="0.26393">
        <ele>1685</ele>
        <time>2012-02-23T08:46:39Z</time>
      </trkpt>
      <trkpt lat="42.84177" lon="0.2639">
        <ele>1685</ele>
        <time>2012-02-23T08:46:43Z</time>
      </trkpt>
      <trkpt lat="42.84177" lon="0.26388">
        <ele>1685</ele>
        <time>2012-02-23T08:46:46Z</time>
      </trkpt>
      <trkpt lat="42.84176" lon="0.26385">
        <ele>1686</ele>
        <time>2012-02-23T08:46:50Z</time>
      </trkpt>
      <trkpt lat="42.84175" lon="0.26382">
        <ele>1687</ele>
        <time>2012-02-23T08:46:54Z</time>
      </trkpt>
      <trkpt lat="42.84175" lon="0.2638">
        <ele>1687</ele>
        <time>2012-02-23T08:46:57Z</time>
      </trkpt>
      <trkpt lat="42.84174" lon="0.26378">
        <ele>1688</ele>
        <time>2012-02-23T08:47:00Z</time>
      </trkpt>
      <trkpt lat="42.84173" lon="0.26375">
        <ele>1688</ele>
        <time>2012-02-23T08:47:05Z</time>
      </trkpt>
      <trkpt lat="42.84172" lon="0.26373">
        <ele>1689</ele>
        <time>2012-02-23T08:47:08Z</time>
      </trkpt>
      <trkpt lat="42.84171" lon="0.26371">
        <ele>1690</ele>
        <time>2012-02-23T08:47:11Z</time>
      </trkpt>
      <trkpt lat="42.8417" lon="0.2637">
        <ele>1691</ele>
        <time>2012-02-23T08:47:14Z</time>
      </trkpt>
      <trkpt lat="42.8417" lon="0.26368">
        <ele>1691</ele>
        <time>2012-02-23T08:47:18Z</time>
      </trkpt>
      <trkpt lat="42.8417" lon="0.26367">
        <ele>1691</ele>
        <time>2012-02-23T08:47:21Z</time>
      </trkpt>
      <trkpt lat="42.84168" lon="0.26363">
        <ele>1691</ele>
        <time>2012-02-23T08:47:26Z</time>
      </trkpt>
      <trkpt lat="42.84167" lon="0.2636">
        <ele>1691</ele>
        <time>2012-02-23T08:47:30Z</time>
      </trkpt>
      <trkpt lat="42.84167" lon="0.26358">
        <ele>1692</ele>
        <time>2012-02-23T08:47:33Z</time>
      </trkpt>
      <trkpt lat="42.84166" lon="0.26356">
        <ele>1692</ele>
        <time>2012-02-23T08:47:36Z</time>
      </trkpt>
      <trkpt lat="42.84166" lon="0.26354">
        <ele>1693</ele>
        <time>2012-02-23T08:47:39Z</time>
      </trkpt>
      <trkpt lat="42.84165" lon="0.26351">
        <ele>1693</ele>
        <time>2012-02-23T08:47:43Z</time>
      </trkpt>
      <trkpt lat="42.84165" lon="0.26349">
        <ele>1693</ele>
        <time>2012-02-23T08:47:46Z</time>
      </trkpt>
      <trkpt lat="42.84164" lon="0.26348">
        <ele>1693</ele>
        <time>2012-02-23T08:47:49Z</time>
      </trkpt>
      <trkpt lat="42.84164" lon="0.26346">
        <ele>1693</ele>
        <time>2012-02-23T08:47:52Z</time>
      </trkpt>
      <trkpt lat="42.84163" lon="0.26342">
        <ele>1693</ele>
        <time>2012-02-23T08:47:56Z</time>
      </trkpt>
      <trkpt lat="42.84163" lon="0.26339">
        <ele>1694</ele>
        <time>2012-02-23T08:48:00Z</time>
      </trkpt>
      <trkpt lat="42.84163" lon="0.26337">
        <ele>1694</ele>
        <time>2012-02-23T08:48:03Z</time>
      </trkpt>
      <trkpt lat="42.84162" lon="0.26335">
        <ele>1695</ele>
        <time>2012-02-23T08:48:06Z</time>
      </trkpt>
      <trkpt lat="42.84161" lon="0.26332">
        <ele>1695</ele>
        <time>2012-02-23T08:48:11Z</time>
      </trkpt>
      <trkpt lat="42.84161" lon="0.2633">
        <ele>1695</ele>
        <time>2012-02-23T08:48:14Z</time>
      </trkpt>
      <trkpt lat="42.8416" lon="0.26327">
        <ele>1696</ele>
        <time>2012-02-23T08:48:18Z</time>
      </trkpt>
      <trkpt lat="42.8416" lon="0.26324">
        <ele>1698</ele>
        <time>2012-02-23T08:48:25Z</time>
      </trkpt>
      <trkpt lat="42.8416" lon="0.26322">
        <ele>1698</ele>
        <time>2012-02-23T08:48:28Z</time>
      </trkpt>
      <trkpt lat="42.84159" lon="0.2632">
        <ele>1698</ele>
        <time>2012-02-23T08:48:31Z</time>
      </trkpt>
      <trkpt lat="42.84159" lon="0.26318">
        <ele>1699</ele>
        <time>2012-02-23T08:48:34Z</time>
      </trkpt>
      <trkpt lat="42.84158" lon="0.26317">
        <ele>1699</ele>
        <time>2012-02-23T08:48:37Z</time>
      </trkpt>
      <trkpt lat="42.84158" lon="0.26315">
        <ele>1699</ele>
        <time>2012-02-23T08:48:53Z</time>
      </trkpt>
      <trkpt lat="42.84157" lon="0.26313">
        <ele>1699</ele>
        <time>2012-02-23T08:48:56Z</time>
      </trkpt>
      <trkpt lat="42.84157" lon="0.26312">
        <ele>1699</ele>
        <time>2012-02-23T08:50:58Z</time>
      </trkpt>
      <trkpt lat="42.84156" lon="0.26313">
        <ele>1699</ele>
        <time>2012-02-23T08:51:09Z</time>
      </trkpt>
      <trkpt lat="42.84156" lon="0.26315">
        <ele>1699</ele>
        <time>2012-02-23T08:51:13Z</time>
      </trkpt>
      <trkpt lat="42.84155" lon="0.26313">
        <ele>1699</ele>
        <time>2012-02-23T08:51:30Z</time>
      </trkpt>
      <trkpt lat="42.84156" lon="0.26314">
        <ele>1702</ele>
        <time>2012-02-23T08:52:07Z</time>
      </trkpt>
      <trkpt lat="42.84157" lon="0.26315">
        <ele>1701</ele>
        <time>2012-02-23T08:52:26Z</time>
      </trkpt>
      <trkpt lat="42.84156" lon="0.26313">
        <ele>1700</ele>
        <time>2012-02-23T08:52:55Z</time>
      </trkpt>
      <trkpt lat="42.84156" lon="0.2631">
        <ele>1700</ele>
        <time>2012-02-23T08:53:01Z</time>
      </trkpt>
      <trkpt lat="42.84155" lon="0.26305">
        <ele>1700</ele>
        <time>2012-02-23T08:53:05Z</time>
      </trkpt>
      <trkpt lat="42.84153" lon="0.26301">
        <ele>1700</ele>
        <time>2012-02-23T08:53:09Z</time>
      </trkpt>
      <trkpt lat="42.84153" lon="0.26298">
        <ele>1700</ele>
        <time>2012-02-23T08:53:13Z</time>
      </trkpt>
      <trkpt lat="42.84151" lon="0.26294">
        <ele>1700</ele>
        <time>2012-02-23T08:53:17Z</time>
      </trkpt>
      <trkpt lat="42.8415" lon="0.2629">
        <ele>1700</ele>
        <time>2012-02-23T08:53:21Z</time>
      </trkpt>
      <trkpt lat="42.84149" lon="0.26287">
        <ele>1700</ele>
        <time>2012-02-23T08:53:25Z</time>
      </trkpt>
      <trkpt lat="42.84147" lon="0.26283">
        <ele>1700</ele>
        <time>2012-02-23T08:53:30Z</time>
      </trkpt>
      <trkpt lat="42.84146" lon="0.26279">
        <ele>1700</ele>
        <time>2012-02-23T08:53:34Z</time>
      </trkpt>
      <trkpt lat="42.84145" lon="0.26276">
        <ele>1700</ele>
        <time>2012-02-23T08:53:38Z</time>
      </trkpt>
      <trkpt lat="42.84145" lon="0.26272">
        <ele>1700</ele>
        <time>2012-02-23T08:53:42Z</time>
      </trkpt>
      <trkpt lat="42.84145" lon="0.26267">
        <ele>1701</ele>
        <time>2012-02-23T08:53:46Z</time>
      </trkpt>
      <trkpt lat="42.84144" lon="0.26264">
        <ele>1702</ele>
        <time>2012-02-23T08:53:50Z</time>
      </trkpt>
      <trkpt lat="42.84145" lon="0.26261">
        <ele>1703</ele>
        <time>2012-02-23T08:53:54Z</time>
      </trkpt>
      <trkpt lat="42.84145" lon="0.26258">
        <ele>1703</ele>
        <time>2012-02-23T08:53:58Z</time>
      </trkpt>
      <trkpt lat="42.84145" lon="0.26254">
        <ele>1703</ele>
        <time>2012-02-23T08:54:02Z</time>
      </trkpt>
      <trkpt lat="42.84145" lon="0.26251">
        <ele>1703</ele>
        <time>2012-02-23T08:54:06Z</time>
      </trkpt>
      <trkpt lat="42.84145" lon="0.26247">
        <ele>1703</ele>
        <time>2012-02-23T08:54:10Z</time>
      </trkpt>
      <trkpt lat="42.84145" lon="0.26244">
        <ele>1704</ele>
        <time>2012-02-23T08:54:14Z</time>
      </trkpt>
      <trkpt lat="42.84144" lon="0.2624">
        <ele>1704</ele>
        <time>2012-02-23T08:54:18Z</time>
      </trkpt>
      <trkpt lat="42.84143" lon="0.26237">
        <ele>1705</ele>
        <time>2012-02-23T08:54:22Z</time>
      </trkpt>
      <trkpt lat="42.84142" lon="0.26235">
        <ele>1705</ele>
        <time>2012-02-23T08:54:25Z</time>
      </trkpt>
      <trkpt lat="42.84142" lon="0.26234">
        <ele>1705</ele>
        <time>2012-02-23T08:54:29Z</time>
      </trkpt>
      <trkpt lat="42.84141" lon="0.26232">
        <ele>1705</ele>
        <time>2012-02-23T08:54:32Z</time>
      </trkpt>
      <trkpt lat="42.84141" lon="0.26231">
        <ele>1705</ele>
        <time>2012-02-23T08:54:37Z</time>
      </trkpt>
      <trkpt lat="42.84142" lon="0.26229">
        <ele>1705</ele>
        <time>2012-02-23T08:54:47Z</time>
      </trkpt>
      <trkpt lat="42.84143" lon="0.26228">
        <ele>1705</ele>
        <time>2012-02-23T08:54:57Z</time>
      </trkpt>
      <trkpt lat="42.84144" lon="0.26226">
        <ele>1705</ele>
        <time>2012-02-23T08:55:02Z</time>
      </trkpt>
      <trkpt lat="42.84145" lon="0.26225">
        <ele>1705</ele>
        <time>2012-02-23T08:55:05Z</time>
      </trkpt>
      <trkpt lat="42.84145" lon="0.26223">
        <ele>1705</ele>
        <time>2012-02-23T08:55:08Z</time>
      </trkpt>
      <trkpt lat="42.84147" lon="0.26219">
        <ele>1705</ele>
        <time>2012-02-23T08:55:13Z</time>
      </trkpt>
      <trkpt lat="42.84148" lon="0.26218">
        <ele>1705</ele>
        <time>2012-02-23T08:55:16Z</time>
      </trkpt>
      <trkpt lat="42.8415" lon="0.26217">
        <ele>1706</ele>
        <time>2012-02-23T08:55:19Z</time>
      </trkpt>
      <trkpt lat="42.84151" lon="0.26215">
        <ele>1706</ele>
        <time>2012-02-23T08:55:22Z</time>
      </trkpt>
      <trkpt lat="42.84152" lon="0.26214">
        <ele>1706</ele>
        <time>2012-02-23T08:55:25Z</time>
      </trkpt>
      <trkpt lat="42.84153" lon="0.26212">
        <ele>1706</ele>
        <time>2012-02-23T08:55:28Z</time>
      </trkpt>
      <trkpt lat="42.84153" lon="0.2621">
        <ele>1707</ele>
        <time>2012-02-23T08:55:31Z</time>
      </trkpt>
      <trkpt lat="42.84154" lon="0.26207">
        <ele>1707</ele>
        <time>2012-02-23T08:55:35Z</time>
      </trkpt>
      <trkpt lat="42.84155" lon="0.26203">
        <ele>1708</ele>
        <time>2012-02-23T08:55:40Z</time>
      </trkpt>
      <trkpt lat="42.84156" lon="0.26201">
        <ele>1709</ele>
        <time>2012-02-23T08:55:43Z</time>
      </trkpt>
      <trkpt lat="42.84156" lon="0.26199">
        <ele>1709</ele>
        <time>2012-02-23T08:55:46Z</time>
      </trkpt>
      <trkpt lat="42.84156" lon="0.26198">
        <ele>1709</ele>
        <time>2012-02-23T08:55:49Z</time>
      </trkpt>
      <trkpt lat="42.84157" lon="0.26196">
        <ele>1710</ele>
        <time>2012-02-23T08:55:52Z</time>
      </trkpt>
      <trkpt lat="42.84157" lon="0.26193">
        <ele>1710</ele>
        <time>2012-02-23T08:55:56Z</time>
      </trkpt>
      <trkpt lat="42.84158" lon="0.2619">
        <ele>1711</ele>
        <time>2012-02-23T08:56:00Z</time>
      </trkpt>
      <trkpt lat="42.84158" lon="0.26186">
        <ele>1711</ele>
        <time>2012-02-23T08:56:05Z</time>
      </trkpt>
      <trkpt lat="42.84158" lon="0.26183">
        <ele>1711</ele>
        <time>2012-02-23T08:56:09Z</time>
      </trkpt>
      <trkpt lat="42.84159" lon="0.26179">
        <ele>1712</ele>
        <time>2012-02-23T08:56:13Z</time>
      </trkpt>
      <trkpt lat="42.84159" lon="0.26176">
        <ele>1713</ele>
        <time>2012-02-23T08:56:17Z</time>
      </trkpt>
      <trkpt lat="42.8416" lon="0.26174">
        <ele>1713</ele>
        <time>2012-02-23T08:56:20Z</time>
      </trkpt>
      <trkpt lat="42.8416" lon="0.26171">
        <ele>1713</ele>
        <time>2012-02-23T08:56:24Z</time>
      </trkpt>
      <trkpt lat="42.8416" lon="0.26167">
        <ele>1714</ele>
        <time>2012-02-23T08:56:28Z</time>
      </trkpt>
      <trkpt lat="42.84159" lon="0.26163">
        <ele>1715</ele>
        <time>2012-02-23T08:56:33Z</time>
      </trkpt>
      <trkpt lat="42.84157" lon="0.26162">
        <ele>1715</ele>
        <time>2012-02-23T08:56:36Z</time>
      </trkpt>
      <trkpt lat="42.84156" lon="0.26161">
        <ele>1715</ele>
        <time>2012-02-23T08:56:39Z</time>
      </trkpt>
      <trkpt lat="42.84154" lon="0.2616">
        <ele>1715</ele>
        <time>2012-02-23T08:56:42Z</time>
      </trkpt>
      <trkpt lat="42.84153" lon="0.26159">
        <ele>1715</ele>
        <time>2012-02-23T08:56:45Z</time>
      </trkpt>
      <trkpt lat="42.84151" lon="0.26158">
        <ele>1715</ele>
        <time>2012-02-23T08:56:48Z</time>
      </trkpt>
      <trkpt lat="42.84148" lon="0.26157">
        <ele>1715</ele>
        <time>2012-02-23T08:56:53Z</time>
      </trkpt>
      <trkpt lat="42.84147" lon="0.26156">
        <ele>1716</ele>
        <time>2012-02-23T08:56:56Z</time>
      </trkpt>
      <trkpt lat="42.84145" lon="0.26155">
        <ele>1716</ele>
        <time>2012-02-23T08:56:59Z</time>
      </trkpt>
      <trkpt lat="42.84144" lon="0.26154">
        <ele>1717</ele>
        <time>2012-02-23T08:57:02Z</time>
      </trkpt>
      <trkpt lat="42.84142" lon="0.26153">
        <ele>1717</ele>
        <time>2012-02-23T08:57:05Z</time>
      </trkpt>
      <trkpt lat="42.84141" lon="0.26152">
        <ele>1718</ele>
        <time>2012-02-23T08:57:08Z</time>
      </trkpt>
      <trkpt lat="42.8414" lon="0.26151">
        <ele>1718</ele>
        <time>2012-02-23T08:57:11Z</time>
      </trkpt>
      <trkpt lat="42.84139" lon="0.26148">
        <ele>1718</ele>
        <time>2012-02-23T08:57:15Z</time>
      </trkpt>
      <trkpt lat="42.8414" lon="0.26145">
        <ele>1719</ele>
        <time>2012-02-23T08:57:19Z</time>
      </trkpt>
      <trkpt lat="42.8414" lon="0.26141">
        <ele>1720</ele>
        <time>2012-02-23T08:57:24Z</time>
      </trkpt>
      <trkpt lat="42.84141" lon="0.26139">
        <ele>1720</ele>
        <time>2012-02-23T08:57:27Z</time>
      </trkpt>
      <trkpt lat="42.84142" lon="0.26136">
        <ele>1721</ele>
        <time>2012-02-23T08:57:32Z</time>
      </trkpt>
      <trkpt lat="42.84142" lon="0.26132">
        <ele>1721</ele>
        <time>2012-02-23T08:57:37Z</time>
      </trkpt>
      <trkpt lat="42.84143" lon="0.26129">
        <ele>1721</ele>
        <time>2012-02-23T08:57:41Z</time>
      </trkpt>
      <trkpt lat="42.84143" lon="0.26126">
        <ele>1722</ele>
        <time>2012-02-23T08:57:45Z</time>
      </trkpt>
      <trkpt lat="42.84143" lon="0.26123">
        <ele>1723</ele>
        <time>2012-02-23T08:57:49Z</time>
      </trkpt>
      <trkpt lat="42.84144" lon="0.26119">
        <ele>1723</ele>
        <time>2012-02-23T08:57:53Z</time>
      </trkpt>
      <trkpt lat="42.84145" lon="0.26117">
        <ele>1724</ele>
        <time>2012-02-23T08:57:56Z</time>
      </trkpt>
      <trkpt lat="42.84146" lon="0.26114">
        <ele>1724</ele>
        <time>2012-02-23T08:58:01Z</time>
      </trkpt>
      <trkpt lat="42.84147" lon="0.26112">
        <ele>1725</ele>
        <time>2012-02-23T08:58:04Z</time>
      </trkpt>
      <trkpt lat="42.84148" lon="0.26109">
        <ele>1725</ele>
        <time>2012-02-23T08:58:08Z</time>
      </trkpt>
      <trkpt lat="42.84149" lon="0.26107">
        <ele>1726</ele>
        <time>2012-02-23T08:58:11Z</time>
      </trkpt>
      <trkpt lat="42.8415" lon="0.26105">
        <ele>1726</ele>
        <time>2012-02-23T08:58:14Z</time>
      </trkpt>
      <trkpt lat="42.84151" lon="0.26104">
        <ele>1727</ele>
        <time>2012-02-23T08:58:17Z</time>
      </trkpt>
      <trkpt lat="42.84152" lon="0.26102">
        <ele>1727</ele>
        <time>2012-02-23T08:58:20Z</time>
      </trkpt>
      <trkpt lat="42.84153" lon="0.261">
        <ele>1727</ele>
        <time>2012-02-23T08:58:23Z</time>
      </trkpt>
      <trkpt lat="42.84155" lon="0.26098">
        <ele>1727</ele>
        <time>2012-02-23T08:58:26Z</time>
      </trkpt>
      <trkpt lat="42.84156" lon="0.26096">
        <ele>1728</ele>
        <time>2012-02-23T08:58:29Z</time>
      </trkpt>
      <trkpt lat="42.84157" lon="0.26094">
        <ele>1728</ele>
        <time>2012-02-23T08:58:32Z</time>
      </trkpt>
      <trkpt lat="42.84158" lon="0.26093">
        <ele>1729</ele>
        <time>2012-02-23T08:58:35Z</time>
      </trkpt>
      <trkpt lat="42.84161" lon="0.2609">
        <ele>1729</ele>
        <time>2012-02-23T08:58:40Z</time>
      </trkpt>
      <trkpt lat="42.84162" lon="0.26087">
        <ele>1730</ele>
        <time>2012-02-23T08:58:43Z</time>
      </trkpt>
      <trkpt lat="42.84163" lon="0.26085">
        <ele>1730</ele>
        <time>2012-02-23T08:58:46Z</time>
      </trkpt>
      <trkpt lat="42.84164" lon="0.26083">
        <ele>1731</ele>
        <time>2012-02-23T08:58:49Z</time>
      </trkpt>
      <trkpt lat="42.84165" lon="0.26082">
        <ele>1731</ele>
        <time>2012-02-23T08:58:52Z</time>
      </trkpt>
      <trkpt lat="42.84166" lon="0.2608">
        <ele>1731</ele>
        <time>2012-02-23T08:58:56Z</time>
      </trkpt>
      <trkpt lat="42.84166" lon="0.26078">
        <ele>1732</ele>
        <time>2012-02-23T08:58:59Z</time>
      </trkpt>
      <trkpt lat="42.84167" lon="0.26077">
        <ele>1732</ele>
        <time>2012-02-23T08:59:02Z</time>
      </trkpt>
      <trkpt lat="42.84168" lon="0.26075">
        <ele>1733</ele>
        <time>2012-02-23T08:59:05Z</time>
      </trkpt>
      <trkpt lat="42.84169" lon="0.26074">
        <ele>1733</ele>
        <time>2012-02-23T08:59:08Z</time>
      </trkpt>
      <trkpt lat="42.84169" lon="0.26072">
        <ele>1733</ele>
        <time>2012-02-23T08:59:11Z</time>
      </trkpt>
      <trkpt lat="42.8417" lon="0.2607">
        <ele>1733</ele>
        <time>2012-02-23T08:59:15Z</time>
      </trkpt>
      <trkpt lat="42.84171" lon="0.26069">
        <ele>1733</ele>
        <time>2012-02-23T08:59:19Z</time>
      </trkpt>
      <trkpt lat="42.84172" lon="0.26068">
        <ele>1734</ele>
        <time>2012-02-23T08:59:22Z</time>
      </trkpt>
      <trkpt lat="42.84173" lon="0.26066">
        <ele>1734</ele>
        <time>2012-02-23T08:59:25Z</time>
      </trkpt>
      <trkpt lat="42.84174" lon="0.26065">
        <ele>1734</ele>
        <time>2012-02-23T08:59:28Z</time>
      </trkpt>
      <trkpt lat="42.84175" lon="0.26063">
        <ele>1734</ele>
        <time>2012-02-23T08:59:32Z</time>
      </trkpt>
      <trkpt lat="42.84176" lon="0.26061">
        <ele>1735</ele>
        <time>2012-02-23T08:59:35Z</time>
      </trkpt>
      <trkpt lat="42.84177" lon="0.26059">
        <ele>1735</ele>
        <time>2012-02-23T08:59:38Z</time>
      </trkpt>
      <trkpt lat="42.84179" lon="0.26056">
        <ele>1735</ele>
        <time>2012-02-23T08:59:43Z</time>
      </trkpt>
      <trkpt lat="42.84179" lon="0.26054">
        <ele>1736</ele>
        <time>2012-02-23T08:59:46Z</time>
      </trkpt>
      <trkpt lat="42.8418" lon="0.26052">
        <ele>1736</ele>
        <time>2012-02-23T08:59:49Z</time>
      </trkpt>
      <trkpt lat="42.84181" lon="0.2605">
        <ele>1737</ele>
        <time>2012-02-23T08:59:52Z</time>
      </trkpt>
      <trkpt lat="42.84182" lon="0.26049">
        <ele>1737</ele>
        <time>2012-02-23T08:59:55Z</time>
      </trkpt>
      <trkpt lat="42.84183" lon="0.26047">
        <ele>1737</ele>
        <time>2012-02-23T08:59:58Z</time>
      </trkpt>
      <trkpt lat="42.84184" lon="0.26045">
        <ele>1738</ele>
        <time>2012-02-23T09:00:01Z</time>
      </trkpt>
      <trkpt lat="42.84185" lon="0.26043">
        <ele>1738</ele>
        <time>2012-02-23T09:00:04Z</time>
      </trkpt>
      <trkpt lat="42.84185" lon="0.26041">
        <ele>1738</ele>
        <time>2012-02-23T09:00:07Z</time>
      </trkpt>
      <trkpt lat="42.84186" lon="0.26039">
        <ele>1739</ele>
        <time>2012-02-23T09:00:10Z</time>
      </trkpt>
      <trkpt lat="42.84186" lon="0.26037">
        <ele>1739</ele>
        <time>2012-02-23T09:00:13Z</time>
      </trkpt>
      <trkpt lat="42.84187" lon="0.26035">
        <ele>1740</ele>
        <time>2012-02-23T09:00:16Z</time>
      </trkpt>
      <trkpt lat="42.84187" lon="0.26034">
        <ele>1740</ele>
        <time>2012-02-23T09:00:19Z</time>
      </trkpt>
      <trkpt lat="42.84187" lon="0.2603">
        <ele>1741</ele>
        <time>2012-02-23T09:00:23Z</time>
      </trkpt>
      <trkpt lat="42.84188" lon="0.26027">
        <ele>1742</ele>
        <time>2012-02-23T09:00:27Z</time>
      </trkpt>
      <trkpt lat="42.84188" lon="0.26025">
        <ele>1742</ele>
        <time>2012-02-23T09:00:30Z</time>
      </trkpt>
      <trkpt lat="42.84189" lon="0.26022">
        <ele>1743</ele>
        <time>2012-02-23T09:00:34Z</time>
      </trkpt>
      <trkpt lat="42.8419" lon="0.2602">
        <ele>1744</ele>
        <time>2012-02-23T09:00:37Z</time>
      </trkpt>
      <trkpt lat="42.8419" lon="0.26017">
        <ele>1744</ele>
        <time>2012-02-23T09:00:41Z</time>
      </trkpt>
      <trkpt lat="42.84191" lon="0.26015">
        <ele>1745</ele>
        <time>2012-02-23T09:00:44Z</time>
      </trkpt>
      <trkpt lat="42.84191" lon="0.26014">
        <ele>1745</ele>
        <time>2012-02-23T09:00:47Z</time>
      </trkpt>
      <trkpt lat="42.84192" lon="0.26013">
        <ele>1745</ele>
        <time>2012-02-23T09:00:50Z</time>
      </trkpt>
      <trkpt lat="42.84192" lon="0.26011">
        <ele>1746</ele>
        <time>2012-02-23T09:00:53Z</time>
      </trkpt>
      <trkpt lat="42.84192" lon="0.26009">
        <ele>1746</ele>
        <time>2012-02-23T09:01:13Z</time>
      </trkpt>
      <trkpt lat="42.84193" lon="0.26006">
        <ele>1746</ele>
        <time>2012-02-23T09:01:18Z</time>
      </trkpt>
      <trkpt lat="42.84193" lon="0.26004">
        <ele>1746</ele>
        <time>2012-02-23T09:01:21Z</time>
      </trkpt>
      <trkpt lat="42.84194" lon="0.26002">
        <ele>1746</ele>
        <time>2012-02-23T09:01:24Z</time>
      </trkpt>
      <trkpt lat="42.84195" lon="0.25998">
        <ele>1747</ele>
        <time>2012-02-23T09:01:29Z</time>
      </trkpt>
      <trkpt lat="42.84195" lon="0.25995">
        <ele>1747</ele>
        <time>2012-02-23T09:01:33Z</time>
      </trkpt>
      <trkpt lat="42.84196" lon="0.25992">
        <ele>1749</ele>
        <time>2012-02-23T09:01:38Z</time>
      </trkpt>
      <trkpt lat="42.84197" lon="0.25989">
        <ele>1749</ele>
        <time>2012-02-23T09:01:42Z</time>
      </trkpt>
      <trkpt lat="42.84198" lon="0.25986">
        <ele>1750</ele>
        <time>2012-02-23T09:01:47Z</time>
      </trkpt>
      <trkpt lat="42.84198" lon="0.25983">
        <ele>1751</ele>
        <time>2012-02-23T09:01:50Z</time>
      </trkpt>
      <trkpt lat="42.84199" lon="0.2598">
        <ele>1751</ele>
        <time>2012-02-23T09:02:10Z</time>
      </trkpt>
      <trkpt lat="42.84198" lon="0.25982">
        <ele>1751</ele>
        <time>2012-02-23T09:02:42Z</time>
      </trkpt>
      <trkpt lat="42.84197" lon="0.25981">
        <ele>1751</ele>
        <time>2012-02-23T09:02:50Z</time>
      </trkpt>
      <trkpt lat="42.84196" lon="0.25981">
        <ele>1751</ele>
        <time>2012-02-23T09:03:02Z</time>
      </trkpt>
      <trkpt lat="42.84197" lon="0.25981">
        <ele>1751</ele>
        <time>2012-02-23T09:03:13Z</time>
      </trkpt>
      <trkpt lat="42.84197" lon="0.25979">
        <ele>1751</ele>
        <time>2012-02-23T09:03:16Z</time>
      </trkpt>
      <trkpt lat="42.84198" lon="0.25975">
        <ele>1751</ele>
        <time>2012-02-23T09:03:20Z</time>
      </trkpt>
      <trkpt lat="42.842" lon="0.25972">
        <ele>1751</ele>
        <time>2012-02-23T09:03:24Z</time>
      </trkpt>
      <trkpt lat="42.84201" lon="0.25969">
        <ele>1751</ele>
        <time>2012-02-23T09:03:28Z</time>
      </trkpt>
      <trkpt lat="42.84202" lon="0.25966">
        <ele>1751</ele>
        <time>2012-02-23T09:03:32Z</time>
      </trkpt>
      <trkpt lat="42.84204" lon="0.25962">
        <ele>1751</ele>
        <time>2012-02-23T09:03:37Z</time>
      </trkpt>
      <trkpt lat="42.84206" lon="0.25961">
        <ele>1751</ele>
        <time>2012-02-23T09:03:40Z</time>
      </trkpt>
      <trkpt lat="42.84207" lon="0.2596">
        <ele>1752</ele>
        <time>2012-02-23T09:03:43Z</time>
      </trkpt>
      <trkpt lat="42.84208" lon="0.25958">
        <ele>1752</ele>
        <time>2012-02-23T09:03:46Z</time>
      </trkpt>
      <trkpt lat="42.84211" lon="0.25956">
        <ele>1753</ele>
        <time>2012-02-23T09:03:51Z</time>
      </trkpt>
      <trkpt lat="42.84213" lon="0.25954">
        <ele>1754</ele>
        <time>2012-02-23T09:03:55Z</time>
      </trkpt>
      <trkpt lat="42.84215" lon="0.25953">
        <ele>1755</ele>
        <time>2012-02-23T09:03:58Z</time>
      </trkpt>
      <trkpt lat="42.84217" lon="0.25951">
        <ele>1755</ele>
        <time>2012-02-23T09:04:02Z</time>
      </trkpt>
      <trkpt lat="42.84219" lon="0.25949">
        <ele>1757</ele>
        <time>2012-02-23T09:04:07Z</time>
      </trkpt>
      <trkpt lat="42.84221" lon="0.25947">
        <ele>1757</ele>
        <time>2012-02-23T09:04:10Z</time>
      </trkpt>
      <trkpt lat="42.84222" lon="0.25945">
        <ele>1757</ele>
        <time>2012-02-23T09:04:13Z</time>
      </trkpt>
      <trkpt lat="42.84223" lon="0.25942">
        <ele>1758</ele>
        <time>2012-02-23T09:04:17Z</time>
      </trkpt>
      <trkpt lat="42.84224" lon="0.2594">
        <ele>1758</ele>
        <time>2012-02-23T09:04:20Z</time>
      </trkpt>
      <trkpt lat="42.84224" lon="0.25938">
        <ele>1759</ele>
        <time>2012-02-23T09:04:23Z</time>
      </trkpt>
      <trkpt lat="42.84225" lon="0.25935">
        <ele>1759</ele>
        <time>2012-02-23T09:04:28Z</time>
      </trkpt>
      <trkpt lat="42.84225" lon="0.25933">
        <ele>1759</ele>
        <time>2012-02-23T09:04:31Z</time>
      </trkpt>
      <trkpt lat="42.84225" lon="0.2593">
        <ele>1759</ele>
        <time>2012-02-23T09:04:35Z</time>
      </trkpt>
      <trkpt lat="42.84225" lon="0.25926">
        <ele>1761</ele>
        <time>2012-02-23T09:04:39Z</time>
      </trkpt>
      <trkpt lat="42.84225" lon="0.25923">
        <ele>1762</ele>
        <time>2012-02-23T09:04:43Z</time>
      </trkpt>
      <trkpt lat="42.84225" lon="0.25919">
        <ele>1763</ele>
        <time>2012-02-23T09:04:47Z</time>
      </trkpt>
      <trkpt lat="42.84224" lon="0.25916">
        <ele>1764</ele>
        <time>2012-02-23T09:04:52Z</time>
      </trkpt>
      <trkpt lat="42.84222" lon="0.25917">
        <ele>1765</ele>
        <time>2012-02-23T09:04:56Z</time>
      </trkpt>
      <trkpt lat="42.84219" lon="0.25918">
        <ele>1765</ele>
        <time>2012-02-23T09:05:00Z</time>
      </trkpt>
      <trkpt lat="42.84217" lon="0.2592">
        <ele>1765</ele>
        <time>2012-02-23T09:05:05Z</time>
      </trkpt>
      <trkpt lat="42.84216" lon="0.25921">
        <ele>1766</ele>
        <time>2012-02-23T09:05:14Z</time>
      </trkpt>
      <trkpt lat="42.84216" lon="0.25923">
        <ele>1766</ele>
        <time>2012-02-23T09:05:22Z</time>
      </trkpt>
      <trkpt lat="42.84213" lon="0.25923">
        <ele>1766</ele>
        <time>2012-02-23T09:05:27Z</time>
      </trkpt>
      <trkpt lat="42.84211" lon="0.25924">
        <ele>1766</ele>
        <time>2012-02-23T09:05:31Z</time>
      </trkpt>
      <trkpt lat="42.84209" lon="0.25924">
        <ele>1766</ele>
        <time>2012-02-23T09:05:34Z</time>
      </trkpt>
      <trkpt lat="42.84206" lon="0.25924">
        <ele>1766</ele>
        <time>2012-02-23T09:05:38Z</time>
      </trkpt>
      <trkpt lat="42.84204" lon="0.25924">
        <ele>1767</ele>
        <time>2012-02-23T09:05:42Z</time>
      </trkpt>
      <trkpt lat="42.84201" lon="0.25924">
        <ele>1767</ele>
        <time>2012-02-23T09:05:46Z</time>
      </trkpt>
      <trkpt lat="42.84199" lon="0.25924">
        <ele>1768</ele>
        <time>2012-02-23T09:05:50Z</time>
      </trkpt>
      <trkpt lat="42.84197" lon="0.25924">
        <ele>1768</ele>
        <time>2012-02-23T09:05:53Z</time>
      </trkpt>
      <trkpt lat="42.84196" lon="0.25923">
        <ele>1770</ele>
        <time>2012-02-23T09:06:02Z</time>
      </trkpt>
      <trkpt lat="42.84196" lon="0.25921">
        <ele>1770</ele>
        <time>2012-02-23T09:06:05Z</time>
      </trkpt>
      <trkpt lat="42.84197" lon="0.2592">
        <ele>1770</ele>
        <time>2012-02-23T09:06:08Z</time>
      </trkpt>
      <trkpt lat="42.84197" lon="0.25918">
        <ele>1770</ele>
        <time>2012-02-23T09:06:12Z</time>
      </trkpt>
      <trkpt lat="42.84198" lon="0.25914">
        <ele>1770</ele>
        <time>2012-02-23T09:06:16Z</time>
      </trkpt>
      <trkpt lat="42.84199" lon="0.25911">
        <ele>1771</ele>
        <time>2012-02-23T09:06:21Z</time>
      </trkpt>
      <trkpt lat="42.842" lon="0.25909">
        <ele>1771</ele>
        <time>2012-02-23T09:06:24Z</time>
      </trkpt>
      <trkpt lat="42.84201" lon="0.25906">
        <ele>1772</ele>
        <time>2012-02-23T09:06:29Z</time>
      </trkpt>
      <trkpt lat="42.84202" lon="0.25904">
        <ele>1772</ele>
        <time>2012-02-23T09:06:32Z</time>
      </trkpt>
      <trkpt lat="42.84203" lon="0.25902">
        <ele>1772</ele>
        <time>2012-02-23T09:06:35Z</time>
      </trkpt>
      <trkpt lat="42.84203" lon="0.259">
        <ele>1773</ele>
        <time>2012-02-23T09:06:38Z</time>
      </trkpt>
      <trkpt lat="42.84204" lon="0.25897">
        <ele>1773</ele>
        <time>2012-02-23T09:06:42Z</time>
      </trkpt>
      <trkpt lat="42.84206" lon="0.25894">
        <ele>1774</ele>
        <time>2012-02-23T09:06:46Z</time>
      </trkpt>
      <trkpt lat="42.84207" lon="0.2589">
        <ele>1775</ele>
        <time>2012-02-23T09:06:50Z</time>
      </trkpt>
      <trkpt lat="42.84208" lon="0.25888">
        <ele>1776</ele>
        <time>2012-02-23T09:06:53Z</time>
      </trkpt>
      <trkpt lat="42.84209" lon="0.25887">
        <ele>1777</ele>
        <time>2012-02-23T09:06:56Z</time>
      </trkpt>
      <trkpt lat="42.84209" lon="0.25883">
        <ele>1777</ele>
        <time>2012-02-23T09:07:00Z</time>
      </trkpt>
      <trkpt lat="42.8421" lon="0.25881">
        <ele>1778</ele>
        <time>2012-02-23T09:07:03Z</time>
      </trkpt>
      <trkpt lat="42.84211" lon="0.25879">
        <ele>1779</ele>
        <time>2012-02-23T09:07:06Z</time>
      </trkpt>
      <trkpt lat="42.84211" lon="0.25878">
        <ele>1780</ele>
        <time>2012-02-23T09:07:09Z</time>
      </trkpt>
      <trkpt lat="42.84212" lon="0.25876">
        <ele>1780</ele>
        <time>2012-02-23T09:07:12Z</time>
      </trkpt>
      <trkpt lat="42.84213" lon="0.25874">
        <ele>1781</ele>
        <time>2012-02-23T09:07:15Z</time>
      </trkpt>
      <trkpt lat="42.84214" lon="0.25873">
        <ele>1781</ele>
        <time>2012-02-23T09:07:18Z</time>
      </trkpt>
      <trkpt lat="42.84214" lon="0.25871">
        <ele>1782</ele>
        <time>2012-02-23T09:07:22Z</time>
      </trkpt>
      <trkpt lat="42.84216" lon="0.25869">
        <ele>1782</ele>
        <time>2012-02-23T09:07:27Z</time>
      </trkpt>
      <trkpt lat="42.84216" lon="0.25868">
        <ele>1782</ele>
        <time>2012-02-23T09:07:30Z</time>
      </trkpt>
      <trkpt lat="42.84217" lon="0.25866">
        <ele>1782</ele>
        <time>2012-02-23T09:07:33Z</time>
      </trkpt>
      <trkpt lat="42.84217" lon="0.25864">
        <ele>1782</ele>
        <time>2012-02-23T09:07:36Z</time>
      </trkpt>
      <trkpt lat="42.84217" lon="0.25863">
        <ele>1783</ele>
        <time>2012-02-23T09:07:39Z</time>
      </trkpt>
      <trkpt lat="42.84218" lon="0.25861">
        <ele>1783</ele>
        <time>2012-02-23T09:07:42Z</time>
      </trkpt>
      <trkpt lat="42.84218" lon="0.25859">
        <ele>1784</ele>
        <time>2012-02-23T09:07:45Z</time>
      </trkpt>
      <trkpt lat="42.84219" lon="0.25857">
        <ele>1784</ele>
        <time>2012-02-23T09:07:48Z</time>
      </trkpt>
      <trkpt lat="42.84219" lon="0.25854">
        <ele>1785</ele>
        <time>2012-02-23T09:07:52Z</time>
      </trkpt>
      <trkpt lat="42.8422" lon="0.25851">
        <ele>1786</ele>
        <time>2012-02-23T09:07:57Z</time>
      </trkpt>
      <trkpt lat="42.8422" lon="0.25849">
        <ele>1787</ele>
        <time>2012-02-23T09:08:02Z</time>
      </trkpt>
      <trkpt lat="42.8422" lon="0.25848">
        <ele>1787</ele>
        <time>2012-02-23T09:08:05Z</time>
      </trkpt>
      <trkpt lat="42.84221" lon="0.25849">
        <ele>1788</ele>
        <time>2012-02-23T09:08:33Z</time>
      </trkpt>
      <trkpt lat="42.84221" lon="0.25848">
        <ele>1788</ele>
        <time>2012-02-23T09:08:39Z</time>
      </trkpt>
      <trkpt lat="42.8422" lon="0.25844">
        <ele>1788</ele>
        <time>2012-02-23T09:08:43Z</time>
      </trkpt>
      <trkpt lat="42.8422" lon="0.25841">
        <ele>1788</ele>
        <time>2012-02-23T09:08:47Z</time>
      </trkpt>
      <trkpt lat="42.84219" lon="0.25838">
        <ele>1788</ele>
        <time>2012-02-23T09:08:51Z</time>
      </trkpt>
      <trkpt lat="42.84219" lon="0.25835">
        <ele>1789</ele>
        <time>2012-02-23T09:08:55Z</time>
      </trkpt>
      <trkpt lat="42.84219" lon="0.25833">
        <ele>1789</ele>
        <time>2012-02-23T09:08:58Z</time>
      </trkpt>
      <trkpt lat="42.84219" lon="0.2583">
        <ele>1790</ele>
        <time>2012-02-23T09:09:02Z</time>
      </trkpt>
      <trkpt lat="42.84219" lon="0.25826">
        <ele>1791</ele>
        <time>2012-02-23T09:09:07Z</time>
      </trkpt>
      <trkpt lat="42.84219" lon="0.25823">
        <ele>1792</ele>
        <time>2012-02-23T09:09:12Z</time>
      </trkpt>
      <trkpt lat="42.84219" lon="0.2582">
        <ele>1793</ele>
        <time>2012-02-23T09:09:16Z</time>
      </trkpt>
      <trkpt lat="42.84219" lon="0.25817">
        <ele>1794</ele>
        <time>2012-02-23T09:09:20Z</time>
      </trkpt>
      <trkpt lat="42.84219" lon="0.25814">
        <ele>1794</ele>
        <time>2012-02-23T09:09:24Z</time>
      </trkpt>
      <trkpt lat="42.8422" lon="0.25811">
        <ele>1795</ele>
        <time>2012-02-23T09:09:28Z</time>
      </trkpt>
      <trkpt lat="42.84219" lon="0.25808">
        <ele>1796</ele>
        <time>2012-02-23T09:09:32Z</time>
      </trkpt>
      <trkpt lat="42.84219" lon="0.25805">
        <ele>1797</ele>
        <time>2012-02-23T09:09:36Z</time>
      </trkpt>
      <trkpt lat="42.84219" lon="0.25801">
        <ele>1797</ele>
        <time>2012-02-23T09:09:41Z</time>
      </trkpt>
      <trkpt lat="42.84219" lon="0.258">
        <ele>1798</ele>
        <time>2012-02-23T09:09:44Z</time>
      </trkpt>
      <trkpt lat="42.84219" lon="0.25798">
        <ele>1798</ele>
        <time>2012-02-23T09:09:47Z</time>
      </trkpt>
      <trkpt lat="42.84219" lon="0.25796">
        <ele>1799</ele>
        <time>2012-02-23T09:09:50Z</time>
      </trkpt>
      <trkpt lat="42.84219" lon="0.25794">
        <ele>1799</ele>
        <time>2012-02-23T09:09:53Z</time>
      </trkpt>
      <trkpt lat="42.84219" lon="0.2579">
        <ele>1800</ele>
        <time>2012-02-23T09:09:58Z</time>
      </trkpt>
      <trkpt lat="42.84219" lon="0.25788">
        <ele>1800</ele>
        <time>2012-02-23T09:10:01Z</time>
      </trkpt>
      <trkpt lat="42.84219" lon="0.25786">
        <ele>1801</ele>
        <time>2012-02-23T09:10:04Z</time>
      </trkpt>
      <trkpt lat="42.84219" lon="0.25785">
        <ele>1801</ele>
        <time>2012-02-23T09:10:07Z</time>
      </trkpt>
      <trkpt lat="42.84219" lon="0.25783">
        <ele>1801</ele>
        <time>2012-02-23T09:10:10Z</time>
      </trkpt>
      <trkpt lat="42.84219" lon="0.25781">
        <ele>1801</ele>
        <time>2012-02-23T09:10:13Z</time>
      </trkpt>
      <trkpt lat="42.84219" lon="0.25779">
        <ele>1802</ele>
        <time>2012-02-23T09:10:16Z</time>
      </trkpt>
      <trkpt lat="42.84219" lon="0.25777">
        <ele>1802</ele>
        <time>2012-02-23T09:10:19Z</time>
      </trkpt>
      <trkpt lat="42.84219" lon="0.25774">
        <ele>1803</ele>
        <time>2012-02-23T09:10:23Z</time>
      </trkpt>
      <trkpt lat="42.84218" lon="0.2577">
        <ele>1804</ele>
        <time>2012-02-23T09:10:28Z</time>
      </trkpt>
      <trkpt lat="42.84218" lon="0.25769">
        <ele>1805</ele>
        <time>2012-02-23T09:10:31Z</time>
      </trkpt>
      <trkpt lat="42.84218" lon="0.25767">
        <ele>1805</ele>
        <time>2012-02-23T09:10:34Z</time>
      </trkpt>
      <trkpt lat="42.84218" lon="0.25765">
        <ele>1805</ele>
        <time>2012-02-23T09:10:37Z</time>
      </trkpt>
      <trkpt lat="42.84218" lon="0.25764">
        <ele>1805</ele>
        <time>2012-02-23T09:10:40Z</time>
      </trkpt>
      <trkpt lat="42.84218" lon="0.25762">
        <ele>1805</ele>
        <time>2012-02-23T09:10:43Z</time>
      </trkpt>
      <trkpt lat="42.84218" lon="0.2576">
        <ele>1805</ele>
        <time>2012-02-23T09:10:46Z</time>
      </trkpt>
      <trkpt lat="42.84218" lon="0.25758">
        <ele>1806</ele>
        <time>2012-02-23T09:10:49Z</time>
      </trkpt>
      <trkpt lat="42.84218" lon="0.25756">
        <ele>1806</ele>
        <time>2012-02-23T09:10:52Z</time>
      </trkpt>
      <trkpt lat="42.84218" lon="0.25755">
        <ele>1807</ele>
        <time>2012-02-23T09:10:56Z</time>
      </trkpt>
      <trkpt lat="42.84218" lon="0.25753">
        <ele>1807</ele>
        <time>2012-02-23T09:10:59Z</time>
      </trkpt>
      <trkpt lat="42.84218" lon="0.25751">
        <ele>1807</ele>
        <time>2012-02-23T09:11:02Z</time>
      </trkpt>
      <trkpt lat="42.84219" lon="0.2575">
        <ele>1808</ele>
        <time>2012-02-23T09:11:05Z</time>
      </trkpt>
      <trkpt lat="42.84219" lon="0.25747">
        <ele>1808</ele>
        <time>2012-02-23T09:11:09Z</time>
      </trkpt>
      <trkpt lat="42.8422" lon="0.25745">
        <ele>1809</ele>
        <time>2012-02-23T09:11:12Z</time>
      </trkpt>
      <trkpt lat="42.84221" lon="0.25743">
        <ele>1810</ele>
        <time>2012-02-23T09:11:16Z</time>
      </trkpt>
      <trkpt lat="42.84221" lon="0.25742">
        <ele>1811</ele>
        <time>2012-02-23T09:11:19Z</time>
      </trkpt>
      <trkpt lat="42.84222" lon="0.2574">
        <ele>1811</ele>
        <time>2012-02-23T09:11:23Z</time>
      </trkpt>
      <trkpt lat="42.84223" lon="0.25739">
        <ele>1811</ele>
        <time>2012-02-23T09:11:28Z</time>
      </trkpt>
      <trkpt lat="42.84224" lon="0.25737">
        <ele>1811</ele>
        <time>2012-02-23T09:11:32Z</time>
      </trkpt>
      <trkpt lat="42.84226" lon="0.25734">
        <ele>1811</ele>
        <time>2012-02-23T09:11:37Z</time>
      </trkpt>
      <trkpt lat="42.84226" lon="0.25732">
        <ele>1812</ele>
        <time>2012-02-23T09:11:40Z</time>
      </trkpt>
      <trkpt lat="42.84227" lon="0.2573">
        <ele>1813</ele>
        <time>2012-02-23T09:11:43Z</time>
      </trkpt>
      <trkpt lat="42.84227" lon="0.25728">
        <ele>1813</ele>
        <time>2012-02-23T09:11:46Z</time>
      </trkpt>
      <trkpt lat="42.84228" lon="0.25727">
        <ele>1813</ele>
        <time>2012-02-23T09:11:49Z</time>
      </trkpt>
      <trkpt lat="42.84228" lon="0.25725">
        <ele>1813</ele>
        <time>2012-02-23T09:11:52Z</time>
      </trkpt>
      <trkpt lat="42.84229" lon="0.25723">
        <ele>1814</ele>
        <time>2012-02-23T09:11:55Z</time>
      </trkpt>
      <trkpt lat="42.84229" lon="0.25721">
        <ele>1814</ele>
        <time>2012-02-23T09:11:58Z</time>
      </trkpt>
      <trkpt lat="42.84229" lon="0.25719">
        <ele>1815</ele>
        <time>2012-02-23T09:12:01Z</time>
      </trkpt>
      <trkpt lat="42.8423" lon="0.25717">
        <ele>1815</ele>
        <time>2012-02-23T09:12:04Z</time>
      </trkpt>
      <trkpt lat="42.8423" lon="0.25716">
        <ele>1815</ele>
        <time>2012-02-23T09:12:07Z</time>
      </trkpt>
      <trkpt lat="42.8423" lon="0.25714">
        <ele>1815</ele>
        <time>2012-02-23T09:12:10Z</time>
      </trkpt>
      <trkpt lat="42.8423" lon="0.25712">
        <ele>1816</ele>
        <time>2012-02-23T09:12:13Z</time>
      </trkpt>
      <trkpt lat="42.8423" lon="0.2571">
        <ele>1816</ele>
        <time>2012-02-23T09:12:16Z</time>
      </trkpt>
      <trkpt lat="42.8423" lon="0.25709">
        <ele>1816</ele>
        <time>2012-02-23T09:12:19Z</time>
      </trkpt>
      <trkpt lat="42.8423" lon="0.25707">
        <ele>1817</ele>
        <time>2012-02-23T09:12:22Z</time>
      </trkpt>
      <trkpt lat="42.8423" lon="0.25705">
        <ele>1817</ele>
        <time>2012-02-23T09:12:25Z</time>
      </trkpt>
      <trkpt lat="42.8423" lon="0.25703">
        <ele>1817</ele>
        <time>2012-02-23T09:12:28Z</time>
      </trkpt>
      <trkpt lat="42.8423" lon="0.257">
        <ele>1818</ele>
        <time>2012-02-23T09:12:33Z</time>
      </trkpt>
      <trkpt lat="42.8423" lon="0.25699">
        <ele>1818</ele>
        <time>2012-02-23T09:12:36Z</time>
      </trkpt>
      <trkpt lat="42.8423" lon="0.25697">
        <ele>1818</ele>
        <time>2012-02-23T09:12:39Z</time>
      </trkpt>
      <trkpt lat="42.8423" lon="0.25695">
        <ele>1819</ele>
        <time>2012-02-23T09:12:42Z</time>
      </trkpt>
      <trkpt lat="42.8423" lon="0.25692">
        <ele>1819</ele>
        <time>2012-02-23T09:12:47Z</time>
      </trkpt>
      <trkpt lat="42.8423" lon="0.2569">
        <ele>1819</ele>
        <time>2012-02-23T09:12:50Z</time>
      </trkpt>
      <trkpt lat="42.8423" lon="0.25689">
        <ele>1820</ele>
        <time>2012-02-23T09:12:53Z</time>
      </trkpt>
      <trkpt lat="42.8423" lon="0.25686">
        <ele>1821</ele>
        <time>2012-02-23T09:12:58Z</time>
      </trkpt>
      <trkpt lat="42.8423" lon="0.25684">
        <ele>1821</ele>
        <time>2012-02-23T09:13:01Z</time>
      </trkpt>
      <trkpt lat="42.84229" lon="0.25681">
        <ele>1822</ele>
        <time>2012-02-23T09:13:05Z</time>
      </trkpt>
      <trkpt lat="42.84229" lon="0.25679">
        <ele>1822</ele>
        <time>2012-02-23T09:13:08Z</time>
      </trkpt>
      <trkpt lat="42.84229" lon="0.25677">
        <ele>1823</ele>
        <time>2012-02-23T09:13:11Z</time>
      </trkpt>
      <trkpt lat="42.84228" lon="0.25676">
        <ele>1824</ele>
        <time>2012-02-23T09:13:18Z</time>
      </trkpt>
      <trkpt lat="42.84227" lon="0.25677">
        <ele>1824</ele>
        <time>2012-02-23T09:13:22Z</time>
      </trkpt>
      <trkpt lat="42.84225" lon="0.25678">
        <ele>1824</ele>
        <time>2012-02-23T09:13:25Z</time>
      </trkpt>
      <trkpt lat="42.84224" lon="0.2568">
        <ele>1824</ele>
        <time>2012-02-23T09:13:28Z</time>
      </trkpt>
      <trkpt lat="42.84222" lon="0.25682">
        <ele>1825</ele>
        <time>2012-02-23T09:13:33Z</time>
      </trkpt>
      <trkpt lat="42.8422" lon="0.25684">
        <ele>1825</ele>
        <time>2012-02-23T09:13:36Z</time>
      </trkpt>
      <trkpt lat="42.84219" lon="0.25685">
        <ele>1825</ele>
        <time>2012-02-23T09:13:46Z</time>
      </trkpt>
      <trkpt lat="42.84218" lon="0.25686">
        <ele>1825</ele>
        <time>2012-02-23T09:14:04Z</time>
      </trkpt>
      <trkpt lat="42.84217" lon="0.25687">
        <ele>1825</ele>
        <time>2012-02-23T09:14:07Z</time>
      </trkpt>
      <trkpt lat="42.84215" lon="0.25689">
        <ele>1825</ele>
        <time>2012-02-23T09:14:10Z</time>
      </trkpt>
      <trkpt lat="42.84214" lon="0.2569">
        <ele>1825</ele>
        <time>2012-02-23T09:14:13Z</time>
      </trkpt>
      <trkpt lat="42.84212" lon="0.25692">
        <ele>1825</ele>
        <time>2012-02-23T09:14:16Z</time>
      </trkpt>
      <trkpt lat="42.84211" lon="0.25693">
        <ele>1825</ele>
        <time>2012-02-23T09:14:19Z</time>
      </trkpt>
      <trkpt lat="42.84209" lon="0.25694">
        <ele>1826</ele>
        <time>2012-02-23T09:14:22Z</time>
      </trkpt>
      <trkpt lat="42.84208" lon="0.25695">
        <ele>1826</ele>
        <time>2012-02-23T09:14:25Z</time>
      </trkpt>
      <trkpt lat="42.84206" lon="0.25696">
        <ele>1826</ele>
        <time>2012-02-23T09:14:28Z</time>
      </trkpt>
      <trkpt lat="42.84204" lon="0.25697">
        <ele>1827</ele>
        <time>2012-02-23T09:14:33Z</time>
      </trkpt>
      <trkpt lat="42.84201" lon="0.25698">
        <ele>1828</ele>
        <time>2012-02-23T09:14:38Z</time>
      </trkpt>
      <trkpt lat="42.84199" lon="0.25699">
        <ele>1828</ele>
        <time>2012-02-23T09:14:41Z</time>
      </trkpt>
      <trkpt lat="42.84199" lon="0.25697">
        <ele>1829</ele>
        <time>2012-02-23T09:14:53Z</time>
      </trkpt>
      <trkpt lat="42.84199" lon="0.25695">
        <ele>1829</ele>
        <time>2012-02-23T09:14:56Z</time>
      </trkpt>
      <trkpt lat="42.842" lon="0.25693">
        <ele>1829</ele>
        <time>2012-02-23T09:14:59Z</time>
      </trkpt>
      <trkpt lat="42.842" lon="0.2569">
        <ele>1830</ele>
        <time>2012-02-23T09:15:02Z</time>
      </trkpt>
      <trkpt lat="42.842" lon="0.25687">
        <ele>1831</ele>
        <time>2012-02-23T09:15:06Z</time>
      </trkpt>
      <trkpt lat="42.842" lon="0.25685">
        <ele>1831</ele>
        <time>2012-02-23T09:15:09Z</time>
      </trkpt>
      <trkpt lat="42.842" lon="0.25683">
        <ele>1831</ele>
        <time>2012-02-23T09:15:12Z</time>
      </trkpt>
      <trkpt lat="42.84201" lon="0.2568">
        <ele>1832</ele>
        <time>2012-02-23T09:15:16Z</time>
      </trkpt>
      <trkpt lat="42.84201" lon="0.25679">
        <ele>1832</ele>
        <time>2012-02-23T09:15:19Z</time>
      </trkpt>
      <trkpt lat="42.842" lon="0.25677">
        <ele>1832</ele>
        <time>2012-02-23T09:15:22Z</time>
      </trkpt>
      <trkpt lat="42.842" lon="0.25675">
        <ele>1832</ele>
        <time>2012-02-23T09:15:25Z</time>
      </trkpt>
      <trkpt lat="42.842" lon="0.25672">
        <ele>1833</ele>
        <time>2012-02-23T09:15:28Z</time>
      </trkpt>
      <trkpt lat="42.842" lon="0.2567">
        <ele>1833</ele>
        <time>2012-02-23T09:15:44Z</time>
      </trkpt>
      <trkpt lat="42.842" lon="0.25667">
        <ele>1834</ele>
        <time>2012-02-23T09:15:49Z</time>
      </trkpt>
      <trkpt lat="42.842" lon="0.25665">
        <ele>1834</ele>
        <time>2012-02-23T09:15:52Z</time>
      </trkpt>
      <trkpt lat="42.842" lon="0.25662">
        <ele>1834</ele>
        <time>2012-02-23T09:15:55Z</time>
      </trkpt>
      <trkpt lat="42.84199" lon="0.25658">
        <ele>1835</ele>
        <time>2012-02-23T09:15:59Z</time>
      </trkpt>
      <trkpt lat="42.84199" lon="0.25654">
        <ele>1837</ele>
        <time>2012-02-23T09:16:03Z</time>
      </trkpt>
      <trkpt lat="42.84198" lon="0.25651">
        <ele>1838</ele>
        <time>2012-02-23T09:16:07Z</time>
      </trkpt>
      <trkpt lat="42.84198" lon="0.25647">
        <ele>1840</ele>
        <time>2012-02-23T09:16:12Z</time>
      </trkpt>
      <trkpt lat="42.84197" lon="0.25644">
        <ele>1841</ele>
        <time>2012-02-23T09:16:17Z</time>
      </trkpt>
      <trkpt lat="42.84195" lon="0.25644">
        <ele>1841</ele>
        <time>2012-02-23T09:16:20Z</time>
      </trkpt>
      <trkpt lat="42.84194" lon="0.25645">
        <ele>1843</ele>
        <time>2012-02-23T09:16:32Z</time>
      </trkpt>
      <trkpt lat="42.84192" lon="0.25646">
        <ele>1843</ele>
        <time>2012-02-23T09:16:36Z</time>
      </trkpt>
      <trkpt lat="42.84189" lon="0.25646">
        <ele>1843</ele>
        <time>2012-02-23T09:16:41Z</time>
      </trkpt>
      <trkpt lat="42.84187" lon="0.25646">
        <ele>1843</ele>
        <time>2012-02-23T09:16:44Z</time>
      </trkpt>
      <trkpt lat="42.84185" lon="0.25646">
        <ele>1843</ele>
        <time>2012-02-23T09:16:49Z</time>
      </trkpt>
      <trkpt lat="42.84183" lon="0.25645">
        <ele>1843</ele>
        <time>2012-02-23T09:16:52Z</time>
      </trkpt>
      <trkpt lat="42.84181" lon="0.25642">
        <ele>1843</ele>
        <time>2012-02-23T09:16:57Z</time>
      </trkpt>
      <trkpt lat="42.84181" lon="0.25639">
        <ele>1844</ele>
        <time>2012-02-23T09:17:01Z</time>
      </trkpt>
      <trkpt lat="42.84181" lon="0.25636">
        <ele>1844</ele>
        <time>2012-02-23T09:17:05Z</time>
      </trkpt>
      <trkpt lat="42.84182" lon="0.25633">
        <ele>1845</ele>
        <time>2012-02-23T09:17:09Z</time>
      </trkpt>
      <trkpt lat="42.84182" lon="0.25629">
        <ele>1846</ele>
        <time>2012-02-23T09:17:16Z</time>
      </trkpt>
      <trkpt lat="42.84183" lon="0.25626">
        <ele>1846</ele>
        <time>2012-02-23T09:17:20Z</time>
      </trkpt>
      <trkpt lat="42.84184" lon="0.25623">
        <ele>1846</ele>
        <time>2012-02-23T09:17:24Z</time>
      </trkpt>
      <trkpt lat="42.84185" lon="0.25619">
        <ele>1847</ele>
        <time>2012-02-23T09:17:28Z</time>
      </trkpt>
      <trkpt lat="42.84185" lon="0.25616">
        <ele>1848</ele>
        <time>2012-02-23T09:17:32Z</time>
      </trkpt>
      <trkpt lat="42.84185" lon="0.25612">
        <ele>1849</ele>
        <time>2012-02-23T09:17:37Z</time>
      </trkpt>
      <trkpt lat="42.84185" lon="0.25609">
        <ele>1850</ele>
        <time>2012-02-23T09:17:41Z</time>
      </trkpt>
      <trkpt lat="42.84185" lon="0.25605">
        <ele>1851</ele>
        <time>2012-02-23T09:17:45Z</time>
      </trkpt>
      <trkpt lat="42.84183" lon="0.25601">
        <ele>1853</ele>
        <time>2012-02-23T09:17:50Z</time>
      </trkpt>
      <trkpt lat="42.8418" lon="0.25597">
        <ele>1855</ele>
        <time>2012-02-23T09:17:57Z</time>
      </trkpt>
      <trkpt lat="42.84177" lon="0.25596">
        <ele>1855</ele>
        <time>2012-02-23T09:18:03Z</time>
      </trkpt>
      <trkpt lat="42.84175" lon="0.25594">
        <ele>1856</ele>
        <time>2012-02-23T09:18:09Z</time>
      </trkpt>
      <trkpt lat="42.84172" lon="0.25595">
        <ele>1858</ele>
        <time>2012-02-23T09:18:58Z</time>
      </trkpt>
      <trkpt lat="42.84174" lon="0.25594">
        <ele>1858</ele>
        <time>2012-02-23T09:19:50Z</time>
      </trkpt>
      <trkpt lat="42.84172" lon="0.25594">
        <ele>1858</ele>
        <time>2012-02-23T09:20:11Z</time>
      </trkpt>
      <trkpt lat="42.84171" lon="0.25594">
        <ele>1858</ele>
        <time>2012-02-23T09:20:17Z</time>
      </trkpt>
      <trkpt lat="42.84171" lon="0.25596">
        <ele>1856</ele>
        <time>2012-02-23T09:20:39Z</time>
      </trkpt>
      <trkpt lat="42.8417" lon="0.25595">
        <ele>1853</ele>
        <time>2012-02-23T09:21:31Z</time>
      </trkpt>
      <trkpt lat="42.84171" lon="0.25596">
        <ele>1853</ele>
        <time>2012-02-23T09:22:26Z</time>
      </trkpt>
      <trkpt lat="42.84172" lon="0.25596">
        <ele>1853</ele>
        <time>2012-02-23T09:23:13Z</time>
      </trkpt>
      <trkpt lat="42.84171" lon="0.25594">
        <ele>1853</ele>
        <time>2012-02-23T09:23:59Z</time>
      </trkpt>
      <trkpt lat="42.84171" lon="0.25596">
        <ele>1854</ele>
        <time>2012-02-23T09:24:26Z</time>
      </trkpt>
      <trkpt lat="42.84172" lon="0.25594">
        <ele>1854</ele>
        <time>2012-02-23T09:25:03Z</time>
      </trkpt>
      <trkpt lat="42.8417" lon="0.25591">
        <ele>1855</ele>
        <time>2012-02-23T09:25:10Z</time>
      </trkpt>
      <trkpt lat="42.84171" lon="0.25589">
        <ele>1855</ele>
        <time>2012-02-23T09:25:15Z</time>
      </trkpt>
      <trkpt lat="42.84172" lon="0.25587">
        <ele>1855</ele>
        <time>2012-02-23T09:25:18Z</time>
      </trkpt>
      <trkpt lat="42.84172" lon="0.25585">
        <ele>1855</ele>
        <time>2012-02-23T09:25:21Z</time>
      </trkpt>
      <trkpt lat="42.84173" lon="0.25582">
        <ele>1855</ele>
        <time>2012-02-23T09:25:25Z</time>
      </trkpt>
      <trkpt lat="42.84174" lon="0.25579">
        <ele>1855</ele>
        <time>2012-02-23T09:25:29Z</time>
      </trkpt>
      <trkpt lat="42.84175" lon="0.25576">
        <ele>1856</ele>
        <time>2012-02-23T09:25:34Z</time>
      </trkpt>
      <trkpt lat="42.84176" lon="0.25574">
        <ele>1856</ele>
        <time>2012-02-23T09:25:37Z</time>
      </trkpt>
      <trkpt lat="42.84177" lon="0.25571">
        <ele>1857</ele>
        <time>2012-02-23T09:25:41Z</time>
      </trkpt>
      <trkpt lat="42.84177" lon="0.25567">
        <ele>1858</ele>
        <time>2012-02-23T09:25:46Z</time>
      </trkpt>
      <trkpt lat="42.84178" lon="0.25564">
        <ele>1858</ele>
        <time>2012-02-23T09:25:50Z</time>
      </trkpt>
      <trkpt lat="42.84179" lon="0.25562">
        <ele>1859</ele>
        <time>2012-02-23T09:25:53Z</time>
      </trkpt>
      <trkpt lat="42.84179" lon="0.25559">
        <ele>1860</ele>
        <time>2012-02-23T09:25:57Z</time>
      </trkpt>
      <trkpt lat="42.8418" lon="0.25556">
        <ele>1861</ele>
        <time>2012-02-23T09:26:01Z</time>
      </trkpt>
      <trkpt lat="42.8418" lon="0.25554">
        <ele>1862</ele>
        <time>2012-02-23T09:26:04Z</time>
      </trkpt>
      <trkpt lat="42.84181" lon="0.25552">
        <ele>1862</ele>
        <time>2012-02-23T09:26:07Z</time>
      </trkpt>
      <trkpt lat="42.84181" lon="0.25549">
        <ele>1862</ele>
        <time>2012-02-23T09:26:12Z</time>
      </trkpt>
      <trkpt lat="42.84181" lon="0.25545">
        <ele>1863</ele>
        <time>2012-02-23T09:26:17Z</time>
      </trkpt>
      <trkpt lat="42.84182" lon="0.25544">
        <ele>1863</ele>
        <time>2012-02-23T09:26:20Z</time>
      </trkpt>
      <trkpt lat="42.84182" lon="0.25542">
        <ele>1863</ele>
        <time>2012-02-23T09:26:23Z</time>
      </trkpt>
      <trkpt lat="42.84182" lon="0.25539">
        <ele>1863</ele>
        <time>2012-02-23T09:26:27Z</time>
      </trkpt>
      <trkpt lat="42.84182" lon="0.25535">
        <ele>1864</ele>
        <time>2012-02-23T09:26:32Z</time>
      </trkpt>
      <trkpt lat="42.84182" lon="0.25532">
        <ele>1865</ele>
        <time>2012-02-23T09:26:36Z</time>
      </trkpt>
      <trkpt lat="42.84182" lon="0.25527">
        <ele>1867</ele>
        <time>2012-02-23T09:26:40Z</time>
      </trkpt>
      <trkpt lat="42.84182" lon="0.25524">
        <ele>1869</ele>
        <time>2012-02-23T09:26:44Z</time>
      </trkpt>
      <trkpt lat="42.84182" lon="0.25522">
        <ele>1870</ele>
        <time>2012-02-23T09:26:47Z</time>
      </trkpt>
      <trkpt lat="42.84182" lon="0.2552">
        <ele>1870</ele>
        <time>2012-02-23T09:26:50Z</time>
      </trkpt>
      <trkpt lat="42.84182" lon="0.25517">
        <ele>1870</ele>
        <time>2012-02-23T09:26:55Z</time>
      </trkpt>
      <trkpt lat="42.84182" lon="0.25515">
        <ele>1870</ele>
        <time>2012-02-23T09:26:58Z</time>
      </trkpt>
      <trkpt lat="42.84182" lon="0.25513">
        <ele>1870</ele>
        <time>2012-02-23T09:27:01Z</time>
      </trkpt>
      <trkpt lat="42.84182" lon="0.25511">
        <ele>1870</ele>
        <time>2012-02-23T09:27:04Z</time>
      </trkpt>
      <trkpt lat="42.84182" lon="0.25509">
        <ele>1870</ele>
        <time>2012-02-23T09:27:07Z</time>
      </trkpt>
      <trkpt lat="42.84182" lon="0.25506">
        <ele>1870</ele>
        <time>2012-02-23T09:27:11Z</time>
      </trkpt>
      <trkpt lat="42.84182" lon="0.25505">
        <ele>1870</ele>
        <time>2012-02-23T09:27:14Z</time>
      </trkpt>
      <trkpt lat="42.84181" lon="0.25501">
        <ele>1870</ele>
        <time>2012-02-23T09:27:18Z</time>
      </trkpt>
      <trkpt lat="42.84181" lon="0.25498">
        <ele>1872</ele>
        <time>2012-02-23T09:27:22Z</time>
      </trkpt>
      <trkpt lat="42.84181" lon="0.25497">
        <ele>1872</ele>
        <time>2012-02-23T09:27:25Z</time>
      </trkpt>
      <trkpt lat="42.84182" lon="0.25495">
        <ele>1873</ele>
        <time>2012-02-23T09:27:28Z</time>
      </trkpt>
      <trkpt lat="42.84182" lon="0.25493">
        <ele>1873</ele>
        <time>2012-02-23T09:27:31Z</time>
      </trkpt>
      <trkpt lat="42.84182" lon="0.2549">
        <ele>1873</ele>
        <time>2012-02-23T09:27:35Z</time>
      </trkpt>
      <trkpt lat="42.84181" lon="0.25487">
        <ele>1873</ele>
        <time>2012-02-23T09:27:40Z</time>
      </trkpt>
      <trkpt lat="42.84181" lon="0.25485">
        <ele>1873</ele>
        <time>2012-02-23T09:27:43Z</time>
      </trkpt>
      <trkpt lat="42.84181" lon="0.25483">
        <ele>1873</ele>
        <time>2012-02-23T09:27:46Z</time>
      </trkpt>
      <trkpt lat="42.84181" lon="0.25481">
        <ele>1874</ele>
        <time>2012-02-23T09:27:49Z</time>
      </trkpt>
      <trkpt lat="42.84181" lon="0.25479">
        <ele>1874</ele>
        <time>2012-02-23T09:27:52Z</time>
      </trkpt>
      <trkpt lat="42.84181" lon="0.25478">
        <ele>1874</ele>
        <time>2012-02-23T09:27:55Z</time>
      </trkpt>
      <trkpt lat="42.8418" lon="0.25475">
        <ele>1874</ele>
        <time>2012-02-23T09:27:59Z</time>
      </trkpt>
      <trkpt lat="42.8418" lon="0.25473">
        <ele>1874</ele>
        <time>2012-02-23T09:28:02Z</time>
      </trkpt>
      <trkpt lat="42.8418" lon="0.25471">
        <ele>1874</ele>
        <time>2012-02-23T09:28:05Z</time>
      </trkpt>
      <trkpt lat="42.8418" lon="0.25468">
        <ele>1875</ele>
        <time>2012-02-23T09:28:09Z</time>
      </trkpt>
      <trkpt lat="42.84179" lon="0.25466">
        <ele>1875</ele>
        <time>2012-02-23T09:28:12Z</time>
      </trkpt>
      <trkpt lat="42.84179" lon="0.25464">
        <ele>1875</ele>
        <time>2012-02-23T09:28:15Z</time>
      </trkpt>
      <trkpt lat="42.84179" lon="0.25462">
        <ele>1875</ele>
        <time>2012-02-23T09:28:18Z</time>
      </trkpt>
      <trkpt lat="42.8418" lon="0.25461">
        <ele>1875</ele>
        <time>2012-02-23T09:28:21Z</time>
      </trkpt>
      <trkpt lat="42.84179" lon="0.25459">
        <ele>1876</ele>
        <time>2012-02-23T09:28:24Z</time>
      </trkpt>
      <trkpt lat="42.84179" lon="0.25457">
        <ele>1876</ele>
        <time>2012-02-23T09:28:28Z</time>
      </trkpt>
      <trkpt lat="42.84178" lon="0.25455">
        <ele>1876</ele>
        <time>2012-02-23T09:28:32Z</time>
      </trkpt>
      <trkpt lat="42.84178" lon="0.25454">
        <ele>1876</ele>
        <time>2012-02-23T09:28:35Z</time>
      </trkpt>
      <trkpt lat="42.84177" lon="0.25453">
        <ele>1876</ele>
        <time>2012-02-23T09:28:38Z</time>
      </trkpt>
      <trkpt lat="42.84177" lon="0.25451">
        <ele>1876</ele>
        <time>2012-02-23T09:28:43Z</time>
      </trkpt>
      <trkpt lat="42.84176" lon="0.25448">
        <ele>1876</ele>
        <time>2012-02-23T09:28:47Z</time>
      </trkpt>
      <trkpt lat="42.84176" lon="0.25446">
        <ele>1876</ele>
        <time>2012-02-23T09:28:50Z</time>
      </trkpt>
      <trkpt lat="42.84175" lon="0.25443">
        <ele>1877</ele>
        <time>2012-02-23T09:28:54Z</time>
      </trkpt>
      <trkpt lat="42.84175" lon="0.2544">
        <ele>1877</ele>
        <time>2012-02-23T09:28:58Z</time>
      </trkpt>
      <trkpt lat="42.84174" lon="0.25436">
        <ele>1877</ele>
        <time>2012-02-23T09:29:02Z</time>
      </trkpt>
      <trkpt lat="42.84174" lon="0.25433">
        <ele>1879</ele>
        <time>2012-02-23T09:29:07Z</time>
      </trkpt>
      <trkpt lat="42.84173" lon="0.2543">
        <ele>1879</ele>
        <time>2012-02-23T09:29:11Z</time>
      </trkpt>
      <trkpt lat="42.84172" lon="0.25428">
        <ele>1880</ele>
        <time>2012-02-23T09:29:14Z</time>
      </trkpt>
      <trkpt lat="42.84172" lon="0.25426">
        <ele>1880</ele>
        <time>2012-02-23T09:29:17Z</time>
      </trkpt>
      <trkpt lat="42.84171" lon="0.25423">
        <ele>1881</ele>
        <time>2012-02-23T09:29:22Z</time>
      </trkpt>
      <trkpt lat="42.8417" lon="0.25421">
        <ele>1882</ele>
        <time>2012-02-23T09:29:25Z</time>
      </trkpt>
      <trkpt lat="42.84169" lon="0.25417">
        <ele>1883</ele>
        <time>2012-02-23T09:29:29Z</time>
      </trkpt>
      <trkpt lat="42.84169" lon="0.25414">
        <ele>1885</ele>
        <time>2012-02-23T09:29:33Z</time>
      </trkpt>
      <trkpt lat="42.84168" lon="0.25412">
        <ele>1886</ele>
        <time>2012-02-23T09:29:36Z</time>
      </trkpt>
      <trkpt lat="42.84167" lon="0.2541">
        <ele>1886</ele>
        <time>2012-02-23T09:29:39Z</time>
      </trkpt>
      <trkpt lat="42.84166" lon="0.25409">
        <ele>1887</ele>
        <time>2012-02-23T09:29:42Z</time>
      </trkpt>
      <trkpt lat="42.84166" lon="0.25407">
        <ele>1887</ele>
        <time>2012-02-23T09:29:45Z</time>
      </trkpt>
      <trkpt lat="42.84165" lon="0.25405">
        <ele>1887</ele>
        <time>2012-02-23T09:29:48Z</time>
      </trkpt>
      <trkpt lat="42.84165" lon="0.25403">
        <ele>1887</ele>
        <time>2012-02-23T09:29:52Z</time>
      </trkpt>
      <trkpt lat="42.84164" lon="0.25402">
        <ele>1887</ele>
        <time>2012-02-23T09:30:02Z</time>
      </trkpt>
      <trkpt lat="42.84164" lon="0.254">
        <ele>1887</ele>
        <time>2012-02-23T09:30:05Z</time>
      </trkpt>
      <trkpt lat="42.84163" lon="0.25397">
        <ele>1888</ele>
        <time>2012-02-23T09:30:11Z</time>
      </trkpt>
      <trkpt lat="42.84163" lon="0.25395">
        <ele>1888</ele>
        <time>2012-02-23T09:30:14Z</time>
      </trkpt>
      <trkpt lat="42.84162" lon="0.25392">
        <ele>1888</ele>
        <time>2012-02-23T09:30:19Z</time>
      </trkpt>
      <trkpt lat="42.84161" lon="0.25391">
        <ele>1889</ele>
        <time>2012-02-23T09:30:22Z</time>
      </trkpt>
      <trkpt lat="42.84161" lon="0.25389">
        <ele>1889</ele>
        <time>2012-02-23T09:30:25Z</time>
      </trkpt>
      <trkpt lat="42.8416" lon="0.25388">
        <ele>1889</ele>
        <time>2012-02-23T09:30:29Z</time>
      </trkpt>
      <trkpt lat="42.84159" lon="0.25386">
        <ele>1889</ele>
        <time>2012-02-23T09:30:32Z</time>
      </trkpt>
      <trkpt lat="42.84159" lon="0.25385">
        <ele>1889</ele>
        <time>2012-02-23T09:30:35Z</time>
      </trkpt>
      <trkpt lat="42.84158" lon="0.25383">
        <ele>1889</ele>
        <time>2012-02-23T09:30:38Z</time>
      </trkpt>
      <trkpt lat="42.84158" lon="0.25381">
        <ele>1889</ele>
        <time>2012-02-23T09:30:41Z</time>
      </trkpt>
      <trkpt lat="42.84157" lon="0.25379">
        <ele>1890</ele>
        <time>2012-02-23T09:30:45Z</time>
      </trkpt>
      <trkpt lat="42.84157" lon="0.25377">
        <ele>1890</ele>
        <time>2012-02-23T09:30:48Z</time>
      </trkpt>
      <trkpt lat="42.84156" lon="0.25376">
        <ele>1891</ele>
        <time>2012-02-23T09:30:51Z</time>
      </trkpt>
      <trkpt lat="42.84156" lon="0.25373">
        <ele>1891</ele>
        <time>2012-02-23T09:30:55Z</time>
      </trkpt>
      <trkpt lat="42.84156" lon="0.25369">
        <ele>1892</ele>
        <time>2012-02-23T09:31:01Z</time>
      </trkpt>
      <trkpt lat="42.84155" lon="0.25368">
        <ele>1892</ele>
        <time>2012-02-23T09:31:04Z</time>
      </trkpt>
      <trkpt lat="42.84154" lon="0.25365">
        <ele>1893</ele>
        <time>2012-02-23T09:31:08Z</time>
      </trkpt>
      <trkpt lat="42.84154" lon="0.25364">
        <ele>1894</ele>
        <time>2012-02-23T09:31:12Z</time>
      </trkpt>
      <trkpt lat="42.84153" lon="0.25362">
        <ele>1894</ele>
        <time>2012-02-23T09:31:15Z</time>
      </trkpt>
      <trkpt lat="42.84153" lon="0.2536">
        <ele>1895</ele>
        <time>2012-02-23T09:31:18Z</time>
      </trkpt>
      <trkpt lat="42.84151" lon="0.25358">
        <ele>1896</ele>
        <time>2012-02-23T09:31:22Z</time>
      </trkpt>
      <trkpt lat="42.8415" lon="0.25357">
        <ele>1896</ele>
        <time>2012-02-23T09:31:25Z</time>
      </trkpt>
      <trkpt lat="42.84149" lon="0.25356">
        <ele>1896</ele>
        <time>2012-02-23T09:31:28Z</time>
      </trkpt>
      <trkpt lat="42.84147" lon="0.25354">
        <ele>1897</ele>
        <time>2012-02-23T09:31:32Z</time>
      </trkpt>
      <trkpt lat="42.84146" lon="0.25352">
        <ele>1898</ele>
        <time>2012-02-23T09:31:35Z</time>
      </trkpt>
      <trkpt lat="42.84143" lon="0.2535">
        <ele>1898</ele>
        <time>2012-02-23T09:31:40Z</time>
      </trkpt>
      <trkpt lat="42.84141" lon="0.25347">
        <ele>1900</ele>
        <time>2012-02-23T09:31:44Z</time>
      </trkpt>
      <trkpt lat="42.8414" lon="0.25346">
        <ele>1901</ele>
        <time>2012-02-23T09:31:47Z</time>
      </trkpt>
      <trkpt lat="42.84138" lon="0.25344">
        <ele>1902</ele>
        <time>2012-02-23T09:31:51Z</time>
      </trkpt>
      <trkpt lat="42.84137" lon="0.25343">
        <ele>1903</ele>
        <time>2012-02-23T09:31:54Z</time>
      </trkpt>
      <trkpt lat="42.84134" lon="0.25342">
        <ele>1905</ele>
        <time>2012-02-23T09:31:59Z</time>
      </trkpt>
      <trkpt lat="42.84133" lon="0.25343">
        <ele>1906</ele>
        <time>2012-02-23T09:32:02Z</time>
      </trkpt>
      <trkpt lat="42.8413" lon="0.25342">
        <ele>1906</ele>
        <time>2012-02-23T09:32:07Z</time>
      </trkpt>
      <trkpt lat="42.84129" lon="0.25342">
        <ele>1906</ele>
        <time>2012-02-23T09:32:10Z</time>
      </trkpt>
      <trkpt lat="42.84127" lon="0.25342">
        <ele>1906</ele>
        <time>2012-02-23T09:32:13Z</time>
      </trkpt>
      <trkpt lat="42.84125" lon="0.25341">
        <ele>1906</ele>
        <time>2012-02-23T09:32:17Z</time>
      </trkpt>
      <trkpt lat="42.84122" lon="0.25341">
        <ele>1907</ele>
        <time>2012-02-23T09:32:21Z</time>
      </trkpt>
      <trkpt lat="42.8412" lon="0.25339">
        <ele>1907</ele>
        <time>2012-02-23T09:32:26Z</time>
      </trkpt>
      <trkpt lat="42.8412" lon="0.25338">
        <ele>1907</ele>
        <time>2012-02-23T09:32:30Z</time>
      </trkpt>
      <trkpt lat="42.84121" lon="0.25336">
        <ele>1907</ele>
        <time>2012-02-23T09:32:34Z</time>
      </trkpt>
      <trkpt lat="42.84121" lon="0.25334">
        <ele>1907</ele>
        <time>2012-02-23T09:32:38Z</time>
      </trkpt>
      <trkpt lat="42.84122" lon="0.25333">
        <ele>1907</ele>
        <time>2012-02-23T09:32:41Z</time>
      </trkpt>
      <trkpt lat="42.84121" lon="0.25329">
        <ele>1907</ele>
        <time>2012-02-23T09:32:46Z</time>
      </trkpt>
      <trkpt lat="42.84119" lon="0.25326">
        <ele>1907</ele>
        <time>2012-02-23T09:32:50Z</time>
      </trkpt>
      <trkpt lat="42.84117" lon="0.25323">
        <ele>1910</ele>
        <time>2012-02-23T09:32:54Z</time>
      </trkpt>
      <trkpt lat="42.84115" lon="0.25319">
        <ele>1912</ele>
        <time>2012-02-23T09:32:59Z</time>
      </trkpt>
      <trkpt lat="42.84114" lon="0.25317">
        <ele>1913</ele>
        <time>2012-02-23T09:33:02Z</time>
      </trkpt>
      <trkpt lat="42.84113" lon="0.25314">
        <ele>1913</ele>
        <time>2012-02-23T09:33:07Z</time>
      </trkpt>
      <trkpt lat="42.84112" lon="0.25313">
        <ele>1913</ele>
        <time>2012-02-23T09:33:10Z</time>
      </trkpt>
      <trkpt lat="42.84111" lon="0.2531">
        <ele>1913</ele>
        <time>2012-02-23T09:33:15Z</time>
      </trkpt>
      <trkpt lat="42.8411" lon="0.25308">
        <ele>1913</ele>
        <time>2012-02-23T09:33:18Z</time>
      </trkpt>
      <trkpt lat="42.84109" lon="0.25304">
        <ele>1913</ele>
        <time>2012-02-23T09:33:23Z</time>
      </trkpt>
      <trkpt lat="42.84108" lon="0.25302">
        <ele>1913</ele>
        <time>2012-02-23T09:33:26Z</time>
      </trkpt>
      <trkpt lat="42.84108" lon="0.253">
        <ele>1913</ele>
        <time>2012-02-23T09:33:29Z</time>
      </trkpt>
      <trkpt lat="42.84107" lon="0.25296">
        <ele>1913</ele>
        <time>2012-02-23T09:33:33Z</time>
      </trkpt>
      <trkpt lat="42.84107" lon="0.25293">
        <ele>1913</ele>
        <time>2012-02-23T09:33:37Z</time>
      </trkpt>
      <trkpt lat="42.84106" lon="0.25291">
        <ele>1913</ele>
        <time>2012-02-23T09:33:40Z</time>
      </trkpt>
      <trkpt lat="42.84105" lon="0.25287">
        <ele>1913</ele>
        <time>2012-02-23T09:33:45Z</time>
      </trkpt>
      <trkpt lat="42.84103" lon="0.25283">
        <ele>1913</ele>
        <time>2012-02-23T09:33:51Z</time>
      </trkpt>
      <trkpt lat="42.84102" lon="0.25282">
        <ele>1913</ele>
        <time>2012-02-23T09:33:54Z</time>
      </trkpt>
      <trkpt lat="42.84101" lon="0.2528">
        <ele>1913</ele>
        <time>2012-02-23T09:33:57Z</time>
      </trkpt>
      <trkpt lat="42.84098" lon="0.2528">
        <ele>1913</ele>
        <time>2012-02-23T09:34:02Z</time>
      </trkpt>
      <trkpt lat="42.84096" lon="0.25279">
        <ele>1915</ele>
        <time>2012-02-23T09:34:06Z</time>
      </trkpt>
      <trkpt lat="42.84095" lon="0.25279">
        <ele>1916</ele>
        <time>2012-02-23T09:34:09Z</time>
      </trkpt>
      <trkpt lat="42.84092" lon="0.25278">
        <ele>1917</ele>
        <time>2012-02-23T09:34:20Z</time>
      </trkpt>
      <trkpt lat="42.84091" lon="0.25276">
        <ele>1917</ele>
        <time>2012-02-23T09:34:23Z</time>
      </trkpt>
      <trkpt lat="42.8409" lon="0.25275">
        <ele>1917</ele>
        <time>2012-02-23T09:34:26Z</time>
      </trkpt>
      <trkpt lat="42.84088" lon="0.25274">
        <ele>1918</ele>
        <time>2012-02-23T09:34:29Z</time>
      </trkpt>
      <trkpt lat="42.84087" lon="0.25273">
        <ele>1918</ele>
        <time>2012-02-23T09:34:32Z</time>
      </trkpt>
      <trkpt lat="42.84086" lon="0.25272">
        <ele>1918</ele>
        <time>2012-02-23T09:34:35Z</time>
      </trkpt>
      <trkpt lat="42.84084" lon="0.25271">
        <ele>1919</ele>
        <time>2012-02-23T09:34:38Z</time>
      </trkpt>
      <trkpt lat="42.84083" lon="0.25269">
        <ele>1919</ele>
        <time>2012-02-23T09:34:41Z</time>
      </trkpt>
      <trkpt lat="42.84082" lon="0.25268">
        <ele>1919</ele>
        <time>2012-02-23T09:34:44Z</time>
      </trkpt>
      <trkpt lat="42.84081" lon="0.25266">
        <ele>1920</ele>
        <time>2012-02-23T09:34:48Z</time>
      </trkpt>
      <trkpt lat="42.84078" lon="0.25263">
        <ele>1922</ele>
        <time>2012-02-23T09:34:52Z</time>
      </trkpt>
      <trkpt lat="42.84077" lon="0.25261">
        <ele>1924</ele>
        <time>2012-02-23T09:34:55Z</time>
      </trkpt>
      <trkpt lat="42.84076" lon="0.25258">
        <ele>1925</ele>
        <time>2012-02-23T09:34:59Z</time>
      </trkpt>
      <trkpt lat="42.84074" lon="0.25255">
        <ele>1925</ele>
        <time>2012-02-23T09:35:03Z</time>
      </trkpt>
      <trkpt lat="42.84074" lon="0.25253">
        <ele>1925</ele>
        <time>2012-02-23T09:35:06Z</time>
      </trkpt>
      <trkpt lat="42.84072" lon="0.25252">
        <ele>1925</ele>
        <time>2012-02-23T09:35:09Z</time>
      </trkpt>
      <trkpt lat="42.84071" lon="0.25252">
        <ele>1925</ele>
        <time>2012-02-23T09:35:12Z</time>
      </trkpt>
      <trkpt lat="42.84068" lon="0.25251">
        <ele>1926</ele>
        <time>2012-02-23T09:35:16Z</time>
      </trkpt>
      <trkpt lat="42.84066" lon="0.25251">
        <ele>1926</ele>
        <time>2012-02-23T09:35:20Z</time>
      </trkpt>
      <trkpt lat="42.84065" lon="0.25252">
        <ele>1926</ele>
        <time>2012-02-23T09:35:23Z</time>
      </trkpt>
      <trkpt lat="42.84062" lon="0.25253">
        <ele>1926</ele>
        <time>2012-02-23T09:35:27Z</time>
      </trkpt>
      <trkpt lat="42.8406" lon="0.25254">
        <ele>1928</ele>
        <time>2012-02-23T09:35:32Z</time>
      </trkpt>
      <trkpt lat="42.84058" lon="0.25255">
        <ele>1929</ele>
        <time>2012-02-23T09:35:35Z</time>
      </trkpt>
      <trkpt lat="42.84057" lon="0.25256">
        <ele>1930</ele>
        <time>2012-02-23T09:35:38Z</time>
      </trkpt>
      <trkpt lat="42.84056" lon="0.25257">
        <ele>1930</ele>
        <time>2012-02-23T09:35:41Z</time>
      </trkpt>
      <trkpt lat="42.84055" lon="0.25258">
        <ele>1931</ele>
        <time>2012-02-23T09:35:44Z</time>
      </trkpt>
      <trkpt lat="42.84054" lon="0.2526">
        <ele>1931</ele>
        <time>2012-02-23T09:35:47Z</time>
      </trkpt>
      <trkpt lat="42.84053" lon="0.25261">
        <ele>1931</ele>
        <time>2012-02-23T09:35:51Z</time>
      </trkpt>
      <trkpt lat="42.84052" lon="0.25263">
        <ele>1931</ele>
        <time>2012-02-23T09:35:54Z</time>
      </trkpt>
      <trkpt lat="42.8405" lon="0.25264">
        <ele>1931</ele>
        <time>2012-02-23T09:35:57Z</time>
      </trkpt>
      <trkpt lat="42.8405" lon="0.25266">
        <ele>1931</ele>
        <time>2012-02-23T09:36:00Z</time>
      </trkpt>
      <trkpt lat="42.84048" lon="0.25267">
        <ele>1931</ele>
        <time>2012-02-23T09:36:04Z</time>
      </trkpt>
      <trkpt lat="42.84047" lon="0.25268">
        <ele>1931</ele>
        <time>2012-02-23T09:36:08Z</time>
      </trkpt>
      <trkpt lat="42.84046" lon="0.25268">
        <ele>1931</ele>
        <time>2012-02-23T09:36:11Z</time>
      </trkpt>
      <trkpt lat="42.84043" lon="0.25267">
        <ele>1932</ele>
        <time>2012-02-23T09:36:16Z</time>
      </trkpt>
      <trkpt lat="42.8404" lon="0.25267">
        <ele>1933</ele>
        <time>2012-02-23T09:36:20Z</time>
      </trkpt>
      <trkpt lat="42.84037" lon="0.25269">
        <ele>1934</ele>
        <time>2012-02-23T09:36:25Z</time>
      </trkpt>
      <trkpt lat="42.84036" lon="0.25269">
        <ele>1934</ele>
        <time>2012-02-23T09:36:28Z</time>
      </trkpt>
      <trkpt lat="42.84035" lon="0.25271">
        <ele>1934</ele>
        <time>2012-02-23T09:36:31Z</time>
      </trkpt>
      <trkpt lat="42.84034" lon="0.25271">
        <ele>1934</ele>
        <time>2012-02-23T09:36:34Z</time>
      </trkpt>
      <trkpt lat="42.84032" lon="0.25272">
        <ele>1934</ele>
        <time>2012-02-23T09:36:37Z</time>
      </trkpt>
      <trkpt lat="42.8403" lon="0.25271">
        <ele>1934</ele>
        <time>2012-02-23T09:36:43Z</time>
      </trkpt>
      <trkpt lat="42.84029" lon="0.25269">
        <ele>1934</ele>
        <time>2012-02-23T09:36:47Z</time>
      </trkpt>
      <trkpt lat="42.84028" lon="0.25268">
        <ele>1934</ele>
        <time>2012-02-23T09:36:50Z</time>
      </trkpt>
      <trkpt lat="42.84027" lon="0.25267">
        <ele>1934</ele>
        <time>2012-02-23T09:36:53Z</time>
      </trkpt>
      <trkpt lat="42.84026" lon="0.25265">
        <ele>1934</ele>
        <time>2012-02-23T09:36:57Z</time>
      </trkpt>
      <trkpt lat="42.84027" lon="0.25265">
        <ele>1934</ele>
        <time>2012-02-23T09:37:05Z</time>
      </trkpt>
      <trkpt lat="42.84026" lon="0.25264">
        <ele>1934</ele>
        <time>2012-02-23T09:37:12Z</time>
      </trkpt>
      <trkpt lat="42.84025" lon="0.25263">
        <ele>1934</ele>
        <time>2012-02-23T09:37:15Z</time>
      </trkpt>
      <trkpt lat="42.84024" lon="0.25262">
        <ele>1934</ele>
        <time>2012-02-23T09:37:18Z</time>
      </trkpt>
      <trkpt lat="42.84021" lon="0.2526">
        <ele>1934</ele>
        <time>2012-02-23T09:37:22Z</time>
      </trkpt>
      <trkpt lat="42.84019" lon="0.25259">
        <ele>1934</ele>
        <time>2012-02-23T09:37:25Z</time>
      </trkpt>
      <trkpt lat="42.84018" lon="0.25258">
        <ele>1936</ele>
        <time>2012-02-23T09:37:29Z</time>
      </trkpt>
      <trkpt lat="42.84015" lon="0.25257">
        <ele>1936</ele>
        <time>2012-02-23T09:37:35Z</time>
      </trkpt>
      <trkpt lat="42.84013" lon="0.25256">
        <ele>1938</ele>
        <time>2012-02-23T09:37:40Z</time>
      </trkpt>
      <trkpt lat="42.84011" lon="0.25256">
        <ele>1939</ele>
        <time>2012-02-23T09:37:43Z</time>
      </trkpt>
      <trkpt lat="42.84008" lon="0.25255">
        <ele>1941</ele>
        <time>2012-02-23T09:37:47Z</time>
      </trkpt>
      <trkpt lat="42.84005" lon="0.25254">
        <ele>1945</ele>
        <time>2012-02-23T09:37:51Z</time>
      </trkpt>
      <trkpt lat="42.84002" lon="0.25253">
        <ele>1949</ele>
        <time>2012-02-23T09:37:56Z</time>
      </trkpt>
      <trkpt lat="42.84001" lon="0.25253">
        <ele>1950</ele>
        <time>2012-02-23T09:37:59Z</time>
      </trkpt>
      <trkpt lat="42.84" lon="0.25252">
        <ele>1950</ele>
        <time>2012-02-23T09:38:03Z</time>
      </trkpt>
      <trkpt lat="42.83998" lon="0.25251">
        <ele>1950</ele>
        <time>2012-02-23T09:38:07Z</time>
      </trkpt>
      <trkpt lat="42.83997" lon="0.25251">
        <ele>1950</ele>
        <time>2012-02-23T09:38:10Z</time>
      </trkpt>
      <trkpt lat="42.83996" lon="0.25251">
        <ele>1950</ele>
        <time>2012-02-23T09:38:13Z</time>
      </trkpt>
      <trkpt lat="42.83994" lon="0.2525">
        <ele>1950</ele>
        <time>2012-02-23T09:38:17Z</time>
      </trkpt>
      <trkpt lat="42.83993" lon="0.2525">
        <ele>1950</ele>
        <time>2012-02-23T09:38:20Z</time>
      </trkpt>
      <trkpt lat="42.83991" lon="0.25249">
        <ele>1950</ele>
        <time>2012-02-23T09:38:23Z</time>
      </trkpt>
      <trkpt lat="42.83989" lon="0.25249">
        <ele>1950</ele>
        <time>2012-02-23T09:38:27Z</time>
      </trkpt>
      <trkpt lat="42.83987" lon="0.25249">
        <ele>1950</ele>
        <time>2012-02-23T09:38:30Z</time>
      </trkpt>
      <trkpt lat="42.83987" lon="0.25246">
        <ele>1951</ele>
        <time>2012-02-23T09:38:36Z</time>
      </trkpt>
      <trkpt lat="42.83988" lon="0.25243">
        <ele>1951</ele>
        <time>2012-02-23T09:38:40Z</time>
      </trkpt>
      <trkpt lat="42.83989" lon="0.25241">
        <ele>1951</ele>
        <time>2012-02-23T09:38:43Z</time>
      </trkpt>
      <trkpt lat="42.8399" lon="0.25239">
        <ele>1951</ele>
        <time>2012-02-23T09:38:46Z</time>
      </trkpt>
      <trkpt lat="42.83989" lon="0.25237">
        <ele>1951</ele>
        <time>2012-02-23T09:38:54Z</time>
      </trkpt>
      <trkpt lat="42.8399" lon="0.25237">
        <ele>1949</ele>
        <time>2012-02-23T09:39:02Z</time>
      </trkpt>
      <trkpt lat="42.83991" lon="0.25235">
        <ele>1949</ele>
        <time>2012-02-23T09:39:06Z</time>
      </trkpt>
      <trkpt lat="42.83989" lon="0.25235">
        <ele>1949</ele>
        <time>2012-02-23T09:39:10Z</time>
      </trkpt>
      <trkpt lat="42.83987" lon="0.25235">
        <ele>1949</ele>
        <time>2012-02-23T09:39:15Z</time>
      </trkpt>
      <trkpt lat="42.83986" lon="0.25234">
        <ele>1949</ele>
        <time>2012-02-23T09:39:18Z</time>
      </trkpt>
      <trkpt lat="42.83984" lon="0.25234">
        <ele>1950</ele>
        <time>2012-02-23T09:39:21Z</time>
      </trkpt>
      <trkpt lat="42.83983" lon="0.25234">
        <ele>1951</ele>
        <time>2012-02-23T09:39:24Z</time>
      </trkpt>
      <trkpt lat="42.83981" lon="0.25234">
        <ele>1951</ele>
        <time>2012-02-23T09:39:28Z</time>
      </trkpt>
      <trkpt lat="42.8398" lon="0.25234">
        <ele>1951</ele>
        <time>2012-02-23T09:39:31Z</time>
      </trkpt>
      <trkpt lat="42.83979" lon="0.25234">
        <ele>1952</ele>
        <time>2012-02-23T09:39:36Z</time>
      </trkpt>
      <trkpt lat="42.8398" lon="0.25232">
        <ele>1954</ele>
        <time>2012-02-23T09:39:43Z</time>
      </trkpt>
      <trkpt lat="42.83981" lon="0.25231">
        <ele>1954</ele>
        <time>2012-02-23T09:39:46Z</time>
      </trkpt>
      <trkpt lat="42.83982" lon="0.25229">
        <ele>1954</ele>
        <time>2012-02-23T09:39:49Z</time>
      </trkpt>
      <trkpt lat="42.83983" lon="0.25227">
        <ele>1954</ele>
        <time>2012-02-23T09:39:53Z</time>
      </trkpt>
      <trkpt lat="42.83982" lon="0.25227">
        <ele>1956</ele>
        <time>2012-02-23T09:40:08Z</time>
      </trkpt>
      <trkpt lat="42.83981" lon="0.25228">
        <ele>1956</ele>
        <time>2012-02-23T09:40:11Z</time>
      </trkpt>
      <trkpt lat="42.83979" lon="0.25228">
        <ele>1956</ele>
        <time>2012-02-23T09:40:14Z</time>
      </trkpt>
      <trkpt lat="42.83977" lon="0.25227">
        <ele>1956</ele>
        <time>2012-02-23T09:40:18Z</time>
      </trkpt>
      <trkpt lat="42.83973" lon="0.25227">
        <ele>1959</ele>
        <time>2012-02-23T09:40:22Z</time>
      </trkpt>
      <trkpt lat="42.83971" lon="0.25227">
        <ele>1964</ele>
        <time>2012-02-23T09:40:30Z</time>
      </trkpt>
      <trkpt lat="42.83969" lon="0.25227">
        <ele>1964</ele>
        <time>2012-02-23T09:40:34Z</time>
      </trkpt>
      <trkpt lat="42.83968" lon="0.25227">
        <ele>1964</ele>
        <time>2012-02-23T09:40:37Z</time>
      </trkpt>
      <trkpt lat="42.83965" lon="0.25226">
        <ele>1964</ele>
        <time>2012-02-23T09:40:41Z</time>
      </trkpt>
      <trkpt lat="42.83966" lon="0.25226">
        <ele>1964</ele>
        <time>2012-02-23T09:40:48Z</time>
      </trkpt>
      <trkpt lat="42.83968" lon="0.25225">
        <ele>1964</ele>
        <time>2012-02-23T09:40:51Z</time>
      </trkpt>
      <trkpt lat="42.83969" lon="0.25224">
        <ele>1964</ele>
        <time>2012-02-23T09:40:54Z</time>
      </trkpt>
      <trkpt lat="42.8397" lon="0.25223">
        <ele>1964</ele>
        <time>2012-02-23T09:40:58Z</time>
      </trkpt>
      <trkpt lat="42.83972" lon="0.25222">
        <ele>1963</ele>
        <time>2012-02-23T09:41:07Z</time>
      </trkpt>
      <trkpt lat="42.83973" lon="0.25221">
        <ele>1962</ele>
        <time>2012-02-23T09:41:13Z</time>
      </trkpt>
      <trkpt lat="42.83971" lon="0.25221">
        <ele>1961</ele>
        <time>2012-02-23T09:41:28Z</time>
      </trkpt>
      <trkpt lat="42.8397" lon="0.2522">
        <ele>1961</ele>
        <time>2012-02-23T09:41:32Z</time>
      </trkpt>
      <trkpt lat="42.83969" lon="0.2522">
        <ele>1961</ele>
        <time>2012-02-23T09:41:35Z</time>
      </trkpt>
      <trkpt lat="42.83966" lon="0.25219">
        <ele>1961</ele>
        <time>2012-02-23T09:41:40Z</time>
      </trkpt>
      <trkpt lat="42.83964" lon="0.25218">
        <ele>1961</ele>
        <time>2012-02-23T09:41:44Z</time>
      </trkpt>
      <trkpt lat="42.83963" lon="0.25218">
        <ele>1962</ele>
        <time>2012-02-23T09:41:59Z</time>
      </trkpt>
      <trkpt lat="42.83961" lon="0.25217">
        <ele>1962</ele>
        <time>2012-02-23T09:42:02Z</time>
      </trkpt>
      <trkpt lat="42.83959" lon="0.25217">
        <ele>1962</ele>
        <time>2012-02-23T09:42:06Z</time>
      </trkpt>
      <trkpt lat="42.83956" lon="0.25216">
        <ele>1963</ele>
        <time>2012-02-23T09:42:10Z</time>
      </trkpt>
      <trkpt lat="42.83953" lon="0.25216">
        <ele>1965</ele>
        <time>2012-02-23T09:42:14Z</time>
      </trkpt>
      <trkpt lat="42.83951" lon="0.25216">
        <ele>1966</ele>
        <time>2012-02-23T09:42:19Z</time>
      </trkpt>
      <trkpt lat="42.83949" lon="0.25216">
        <ele>1967</ele>
        <time>2012-02-23T09:42:22Z</time>
      </trkpt>
      <trkpt lat="42.83947" lon="0.25216">
        <ele>1968</ele>
        <time>2012-02-23T09:42:27Z</time>
      </trkpt>
      <trkpt lat="42.83944" lon="0.25216">
        <ele>1969</ele>
        <time>2012-02-23T09:42:31Z</time>
      </trkpt>
      <trkpt lat="42.83943" lon="0.25218">
        <ele>1970</ele>
        <time>2012-02-23T09:42:35Z</time>
      </trkpt>
      <trkpt lat="42.83943" lon="0.25216">
        <ele>1971</ele>
        <time>2012-02-23T09:42:50Z</time>
      </trkpt>
      <trkpt lat="42.83943" lon="0.25215">
        <ele>1971</ele>
        <time>2012-02-23T09:42:53Z</time>
      </trkpt>
      <trkpt lat="42.83944" lon="0.25212">
        <ele>1971</ele>
        <time>2012-02-23T09:42:57Z</time>
      </trkpt>
      <trkpt lat="42.83945" lon="0.2521">
        <ele>1971</ele>
        <time>2012-02-23T09:43:00Z</time>
      </trkpt>
      <trkpt lat="42.83946" lon="0.25207">
        <ele>1972</ele>
        <time>2012-02-23T09:43:05Z</time>
      </trkpt>
      <trkpt lat="42.83947" lon="0.25205">
        <ele>1973</ele>
        <time>2012-02-23T09:43:09Z</time>
      </trkpt>
      <trkpt lat="42.83946" lon="0.25204">
        <ele>1977</ele>
        <time>2012-02-23T09:43:23Z</time>
      </trkpt>
      <trkpt lat="42.83947" lon="0.25203">
        <ele>1978</ele>
        <time>2012-02-23T09:43:30Z</time>
      </trkpt>
      <trkpt lat="42.83946" lon="0.25202">
        <ele>1978</ele>
        <time>2012-02-23T09:43:40Z</time>
      </trkpt>
      <trkpt lat="42.83945" lon="0.25201">
        <ele>1978</ele>
        <time>2012-02-23T09:43:43Z</time>
      </trkpt>
      <trkpt lat="42.83944" lon="0.25202">
        <ele>1978</ele>
        <time>2012-02-23T09:43:47Z</time>
      </trkpt>
      <trkpt lat="42.83942" lon="0.25202">
        <ele>1978</ele>
        <time>2012-02-23T09:43:50Z</time>
      </trkpt>
      <trkpt lat="42.83941" lon="0.25202">
        <ele>1978</ele>
        <time>2012-02-23T09:43:53Z</time>
      </trkpt>
      <trkpt lat="42.83938" lon="0.25202">
        <ele>1978</ele>
        <time>2012-02-23T09:43:58Z</time>
      </trkpt>
      <trkpt lat="42.83935" lon="0.25202">
        <ele>1978</ele>
        <time>2012-02-23T09:44:02Z</time>
      </trkpt>
      <trkpt lat="42.83934" lon="0.25203">
        <ele>1979</ele>
        <time>2012-02-23T09:44:05Z</time>
      </trkpt>
      <trkpt lat="42.83935" lon="0.25201">
        <ele>1981</ele>
        <time>2012-02-23T09:44:10Z</time>
      </trkpt>
      <trkpt lat="42.83936" lon="0.252">
        <ele>1982</ele>
        <time>2012-02-23T09:44:18Z</time>
      </trkpt>
      <trkpt lat="42.83936" lon="0.25198">
        <ele>1982</ele>
        <time>2012-02-23T09:44:22Z</time>
      </trkpt>
      <trkpt lat="42.83938" lon="0.25196">
        <ele>1982</ele>
        <time>2012-02-23T09:44:25Z</time>
      </trkpt>
      <trkpt lat="42.83939" lon="0.25192">
        <ele>1982</ele>
        <time>2012-02-23T09:44:29Z</time>
      </trkpt>
      <trkpt lat="42.83939" lon="0.25191">
        <ele>1982</ele>
        <time>2012-02-23T09:44:33Z</time>
      </trkpt>
      <trkpt lat="42.83938" lon="0.2519">
        <ele>1982</ele>
        <time>2012-02-23T09:44:45Z</time>
      </trkpt>
      <trkpt lat="42.83936" lon="0.2519">
        <ele>1982</ele>
        <time>2012-02-23T09:44:48Z</time>
      </trkpt>
      <trkpt lat="42.83935" lon="0.25191">
        <ele>1983</ele>
        <time>2012-02-23T09:44:51Z</time>
      </trkpt>
      <trkpt lat="42.83933" lon="0.25192">
        <ele>1984</ele>
        <time>2012-02-23T09:44:54Z</time>
      </trkpt>
      <trkpt lat="42.83931" lon="0.25193">
        <ele>1984</ele>
        <time>2012-02-23T09:45:00Z</time>
      </trkpt>
      <trkpt lat="42.83928" lon="0.25195">
        <ele>1984</ele>
        <time>2012-02-23T09:45:06Z</time>
      </trkpt>
      <trkpt lat="42.83927" lon="0.25194">
        <ele>1986</ele>
        <time>2012-02-23T09:45:12Z</time>
      </trkpt>
      <trkpt lat="42.83928" lon="0.25193">
        <ele>1986</ele>
        <time>2012-02-23T09:45:19Z</time>
      </trkpt>
      <trkpt lat="42.83929" lon="0.25192">
        <ele>1986</ele>
        <time>2012-02-23T09:45:23Z</time>
      </trkpt>
      <trkpt lat="42.83931" lon="0.25191">
        <ele>1986</ele>
        <time>2012-02-23T09:45:28Z</time>
      </trkpt>
      <trkpt lat="42.83932" lon="0.2519">
        <ele>1986</ele>
        <time>2012-02-23T09:45:31Z</time>
      </trkpt>
      <trkpt lat="42.83934" lon="0.25188">
        <ele>1986</ele>
        <time>2012-02-23T09:45:34Z</time>
      </trkpt>
      <trkpt lat="42.83934" lon="0.25186">
        <ele>1986</ele>
        <time>2012-02-23T09:45:39Z</time>
      </trkpt>
      <trkpt lat="42.83933" lon="0.25185">
        <ele>1986</ele>
        <time>2012-02-23T09:45:42Z</time>
      </trkpt>
      <trkpt lat="42.83932" lon="0.25184">
        <ele>1986</ele>
        <time>2012-02-23T09:45:46Z</time>
      </trkpt>
      <trkpt lat="42.83933" lon="0.25182">
        <ele>1986</ele>
        <time>2012-02-23T09:45:53Z</time>
      </trkpt>
      <trkpt lat="42.83931" lon="0.25183">
        <ele>1986</ele>
        <time>2012-02-23T09:46:08Z</time>
      </trkpt>
      <trkpt lat="42.8393" lon="0.25182">
        <ele>1986</ele>
        <time>2012-02-23T09:46:15Z</time>
      </trkpt>
      <trkpt lat="42.83929" lon="0.25182">
        <ele>1987</ele>
        <time>2012-02-23T09:46:24Z</time>
      </trkpt>
      <trkpt lat="42.83928" lon="0.25181">
        <ele>1987</ele>
        <time>2012-02-23T09:46:38Z</time>
      </trkpt>
      <trkpt lat="42.83926" lon="0.25181">
        <ele>1987</ele>
        <time>2012-02-23T09:46:41Z</time>
      </trkpt>
      <trkpt lat="42.83925" lon="0.2518">
        <ele>1988</ele>
        <time>2012-02-23T09:46:44Z</time>
      </trkpt>
      <trkpt lat="42.83923" lon="0.2518">
        <ele>1989</ele>
        <time>2012-02-23T09:46:48Z</time>
      </trkpt>
      <trkpt lat="42.83921" lon="0.25179">
        <ele>1989</ele>
        <time>2012-02-23T09:46:51Z</time>
      </trkpt>
      <trkpt lat="42.83919" lon="0.25178">
        <ele>1990</ele>
        <time>2012-02-23T09:46:54Z</time>
      </trkpt>
      <trkpt lat="42.83919" lon="0.25177">
        <ele>1991</ele>
        <time>2012-02-23T09:47:10Z</time>
      </trkpt>
      <trkpt lat="42.83919" lon="0.25176">
        <ele>1991</ele>
        <time>2012-02-23T09:47:46Z</time>
      </trkpt>
      <trkpt lat="42.83921" lon="0.25174">
        <ele>1991</ele>
        <time>2012-02-23T09:47:49Z</time>
      </trkpt>
      <trkpt lat="42.83924" lon="0.25173">
        <ele>1991</ele>
        <time>2012-02-23T09:47:54Z</time>
      </trkpt>
      <trkpt lat="42.83927" lon="0.25172">
        <ele>1991</ele>
        <time>2012-02-23T09:47:59Z</time>
      </trkpt>
      <trkpt lat="42.83929" lon="0.2517">
        <ele>1991</ele>
        <time>2012-02-23T09:48:04Z</time>
      </trkpt>
      <trkpt lat="42.8393" lon="0.2517">
        <ele>1991</ele>
        <time>2012-02-23T09:48:08Z</time>
      </trkpt>
      <trkpt lat="42.83931" lon="0.2517">
        <ele>1991</ele>
        <time>2012-02-23T09:48:12Z</time>
      </trkpt>
      <trkpt lat="42.83933" lon="0.25169">
        <ele>1991</ele>
        <time>2012-02-23T09:48:15Z</time>
      </trkpt>
      <trkpt lat="42.83934" lon="0.25168">
        <ele>1991</ele>
        <time>2012-02-23T09:48:18Z</time>
      </trkpt>
      <trkpt lat="42.83935" lon="0.25168">
        <ele>1991</ele>
        <time>2012-02-23T09:48:24Z</time>
      </trkpt>
      <trkpt lat="42.83936" lon="0.25168">
        <ele>1991</ele>
        <time>2012-02-23T09:48:27Z</time>
      </trkpt>
      <trkpt lat="42.83937" lon="0.25168">
        <ele>1991</ele>
        <time>2012-02-23T09:48:30Z</time>
      </trkpt>
      <trkpt lat="42.83938" lon="0.25167">
        <ele>1991</ele>
        <time>2012-02-23T09:48:35Z</time>
      </trkpt>
      <trkpt lat="42.83937" lon="0.25165">
        <ele>1991</ele>
        <time>2012-02-23T09:48:47Z</time>
      </trkpt>
      <trkpt lat="42.83936" lon="0.25164">
        <ele>1991</ele>
        <time>2012-02-23T09:48:51Z</time>
      </trkpt>
      <trkpt lat="42.83934" lon="0.25163">
        <ele>1991</ele>
        <time>2012-02-23T09:48:55Z</time>
      </trkpt>
      <trkpt lat="42.83933" lon="0.25162">
        <ele>1992</ele>
        <time>2012-02-23T09:48:58Z</time>
      </trkpt>
      <trkpt lat="42.83931" lon="0.2516">
        <ele>1992</ele>
        <time>2012-02-23T09:49:05Z</time>
      </trkpt>
      <trkpt lat="42.8393" lon="0.25158">
        <ele>1993</ele>
        <time>2012-02-23T09:49:09Z</time>
      </trkpt>
      <trkpt lat="42.83929" lon="0.25157">
        <ele>1994</ele>
        <time>2012-02-23T09:49:13Z</time>
      </trkpt>
      <trkpt lat="42.83928" lon="0.25155">
        <ele>1995</ele>
        <time>2012-02-23T09:49:17Z</time>
      </trkpt>
      <trkpt lat="42.83927" lon="0.25154">
        <ele>1995</ele>
        <time>2012-02-23T09:49:21Z</time>
      </trkpt>
      <trkpt lat="42.83926" lon="0.25152">
        <ele>1996</ele>
        <time>2012-02-23T09:49:24Z</time>
      </trkpt>
      <trkpt lat="42.83925" lon="0.25153">
        <ele>1997</ele>
        <time>2012-02-23T09:49:33Z</time>
      </trkpt>
      <trkpt lat="42.83923" lon="0.25153">
        <ele>1997</ele>
        <time>2012-02-23T09:49:45Z</time>
      </trkpt>
      <trkpt lat="42.83923" lon="0.25152">
        <ele>1997</ele>
        <time>2012-02-23T09:49:49Z</time>
      </trkpt>
      <trkpt lat="42.83922" lon="0.2515">
        <ele>1997</ele>
        <time>2012-02-23T09:49:52Z</time>
      </trkpt>
      <trkpt lat="42.83922" lon="0.25149">
        <ele>1998</ele>
        <time>2012-02-23T09:49:55Z</time>
      </trkpt>
      <trkpt lat="42.83921" lon="0.25147">
        <ele>1998</ele>
        <time>2012-02-23T09:49:58Z</time>
      </trkpt>
      <trkpt lat="42.8392" lon="0.25145">
        <ele>1999</ele>
        <time>2012-02-23T09:50:01Z</time>
      </trkpt>
      <trkpt lat="42.8392" lon="0.25142">
        <ele>2000</ele>
        <time>2012-02-23T09:50:05Z</time>
      </trkpt>
      <trkpt lat="42.8392" lon="0.2514">
        <ele>2001</ele>
        <time>2012-02-23T09:50:24Z</time>
      </trkpt>
      <trkpt lat="42.83923" lon="0.25139">
        <ele>2001</ele>
        <time>2012-02-23T09:50:28Z</time>
      </trkpt>
      <trkpt lat="42.83925" lon="0.2514">
        <ele>2002</ele>
        <time>2012-02-23T09:50:32Z</time>
      </trkpt>
      <trkpt lat="42.83927" lon="0.25141">
        <ele>2003</ele>
        <time>2012-02-23T09:50:35Z</time>
      </trkpt>
      <trkpt lat="42.83928" lon="0.25141">
        <ele>2005</ele>
        <time>2012-02-23T09:50:38Z</time>
      </trkpt>
      <trkpt lat="42.83931" lon="0.25141">
        <ele>2006</ele>
        <time>2012-02-23T09:50:42Z</time>
      </trkpt>
      <trkpt lat="42.83931" lon="0.25142">
        <ele>2008</ele>
        <time>2012-02-23T09:51:00Z</time>
      </trkpt>
      <trkpt lat="42.83932" lon="0.25142">
        <ele>2009</ele>
        <time>2012-02-23T09:51:06Z</time>
      </trkpt>
      <trkpt lat="42.83934" lon="0.25144">
        <ele>2009</ele>
        <time>2012-02-23T09:51:09Z</time>
      </trkpt>
      <trkpt lat="42.83935" lon="0.25144">
        <ele>2009</ele>
        <time>2012-02-23T09:51:12Z</time>
      </trkpt>
      <trkpt lat="42.83936" lon="0.25144">
        <ele>2010</ele>
        <time>2012-02-23T09:51:16Z</time>
      </trkpt>
      <trkpt lat="42.83937" lon="0.25145">
        <ele>2010</ele>
        <time>2012-02-23T09:51:19Z</time>
      </trkpt>
      <trkpt lat="42.83939" lon="0.25145">
        <ele>2010</ele>
        <time>2012-02-23T09:51:22Z</time>
      </trkpt>
      <trkpt lat="42.8394" lon="0.25145">
        <ele>2010</ele>
        <time>2012-02-23T09:51:25Z</time>
      </trkpt>
      <trkpt lat="42.83939" lon="0.25143">
        <ele>2010</ele>
        <time>2012-02-23T09:51:37Z</time>
      </trkpt>
      <trkpt lat="42.83938" lon="0.25142">
        <ele>2010</ele>
        <time>2012-02-23T09:51:41Z</time>
      </trkpt>
      <trkpt lat="42.83936" lon="0.25141">
        <ele>2010</ele>
        <time>2012-02-23T09:51:48Z</time>
      </trkpt>
      <trkpt lat="42.83936" lon="0.25139">
        <ele>2012</ele>
        <time>2012-02-23T09:51:58Z</time>
      </trkpt>
      <trkpt lat="42.83935" lon="0.25138">
        <ele>2012</ele>
        <time>2012-02-23T09:52:03Z</time>
      </trkpt>
      <trkpt lat="42.83934" lon="0.25136">
        <ele>2012</ele>
        <time>2012-02-23T09:52:06Z</time>
      </trkpt>
      <trkpt lat="42.83933" lon="0.25135">
        <ele>2013</ele>
        <time>2012-02-23T09:52:10Z</time>
      </trkpt>
      <trkpt lat="42.83934" lon="0.25135">
        <ele>2014</ele>
        <time>2012-02-23T09:52:22Z</time>
      </trkpt>
      <trkpt lat="42.83936" lon="0.25136">
        <ele>2014</ele>
        <time>2012-02-23T09:52:25Z</time>
      </trkpt>
      <trkpt lat="42.83938" lon="0.25139">
        <ele>2016</ele>
        <time>2012-02-23T09:52:29Z</time>
      </trkpt>
      <trkpt lat="42.83941" lon="0.25139">
        <ele>2017</ele>
        <time>2012-02-23T09:52:38Z</time>
      </trkpt>
      <trkpt lat="42.83942" lon="0.2514">
        <ele>2017</ele>
        <time>2012-02-23T09:52:43Z</time>
      </trkpt>
      <trkpt lat="42.83942" lon="0.25138">
        <ele>2018</ele>
        <time>2012-02-23T09:52:46Z</time>
      </trkpt>
      <trkpt lat="42.83943" lon="0.25136">
        <ele>2018</ele>
        <time>2012-02-23T09:52:49Z</time>
      </trkpt>
      <trkpt lat="42.83942" lon="0.25134">
        <ele>2018</ele>
        <time>2012-02-23T09:52:56Z</time>
      </trkpt>
      <trkpt lat="42.83944" lon="0.25134">
        <ele>2018</ele>
        <time>2012-02-23T09:53:02Z</time>
      </trkpt>
      <trkpt lat="42.83946" lon="0.25135">
        <ele>2018</ele>
        <time>2012-02-23T09:53:07Z</time>
      </trkpt>
      <trkpt lat="42.83945" lon="0.25135">
        <ele>2018</ele>
        <time>2012-02-23T09:53:20Z</time>
      </trkpt>
      <trkpt lat="42.83947" lon="0.25135">
        <ele>2018</ele>
        <time>2012-02-23T09:53:31Z</time>
      </trkpt>
      <trkpt lat="42.83948" lon="0.25135">
        <ele>2018</ele>
        <time>2012-02-23T09:53:35Z</time>
      </trkpt>
      <trkpt lat="42.83949" lon="0.25133">
        <ele>2018</ele>
        <time>2012-02-23T09:53:38Z</time>
      </trkpt>
      <trkpt lat="42.8395" lon="0.25134">
        <ele>2018</ele>
        <time>2012-02-23T09:53:43Z</time>
      </trkpt>
      <trkpt lat="42.83952" lon="0.25136">
        <ele>2019</ele>
        <time>2012-02-23T09:53:48Z</time>
      </trkpt>
      <trkpt lat="42.8395" lon="0.25137">
        <ele>2020</ele>
        <time>2012-02-23T09:53:52Z</time>
      </trkpt>
      <trkpt lat="42.83951" lon="0.25139">
        <ele>2021</ele>
        <time>2012-02-23T09:53:55Z</time>
      </trkpt>
      <trkpt lat="42.83952" lon="0.25133">
        <ele>2023</ele>
        <time>2012-02-23T09:53:59Z</time>
      </trkpt>
      <trkpt lat="42.83951" lon="0.25137">
        <ele>2023</ele>
        <time>2012-02-23T09:54:02Z</time>
      </trkpt>
      <trkpt lat="42.83952" lon="0.25134">
        <ele>2023</ele>
        <time>2012-02-23T09:54:07Z</time>
      </trkpt>
      <trkpt lat="42.8395" lon="0.25138">
        <ele>2023</ele>
        <time>2012-02-23T09:54:11Z</time>
      </trkpt>
      <trkpt lat="42.8395" lon="0.25136">
        <ele>2023</ele>
        <time>2012-02-23T09:54:14Z</time>
      </trkpt>
      <trkpt lat="42.83949" lon="0.25133">
        <ele>2022</ele>
        <time>2012-02-23T09:54:17Z</time>
      </trkpt>
      <trkpt lat="42.83949" lon="0.2513">
        <ele>2021</ele>
        <time>2012-02-23T09:54:22Z</time>
      </trkpt>
      <trkpt lat="42.83948" lon="0.25128">
        <ele>2020</ele>
        <time>2012-02-23T09:54:26Z</time>
      </trkpt>
      <trkpt lat="42.83947" lon="0.2513">
        <ele>2020</ele>
        <time>2012-02-23T09:54:33Z</time>
      </trkpt>
      <trkpt lat="42.83947" lon="0.25134">
        <ele>2019</ele>
        <time>2012-02-23T09:54:44Z</time>
      </trkpt>
      <trkpt lat="42.83947" lon="0.25144">
        <ele>2020</ele>
        <time>2012-02-23T09:54:48Z</time>
      </trkpt>
      <trkpt lat="42.83947" lon="0.25145">
        <ele>2024</ele>
        <time>2012-02-23T09:54:58Z</time>
      </trkpt>
      <trkpt lat="42.83949" lon="0.25142">
        <ele>2024</ele>
        <time>2012-02-23T09:55:01Z</time>
      </trkpt>
      <trkpt lat="42.8395" lon="0.25137">
        <ele>2024</ele>
        <time>2012-02-23T09:55:05Z</time>
      </trkpt>
      <trkpt lat="42.8395" lon="0.25132">
        <ele>2022</ele>
        <time>2012-02-23T09:55:17Z</time>
      </trkpt>
      <trkpt lat="42.8395" lon="0.25131">
        <ele>2019</ele>
        <time>2012-02-23T09:55:20Z</time>
      </trkpt>
      <trkpt lat="42.83951" lon="0.25129">
        <ele>2017</ele>
        <time>2012-02-23T09:55:27Z</time>
      </trkpt>
      <trkpt lat="42.83951" lon="0.25127">
        <ele>2014</ele>
        <time>2012-02-23T09:55:31Z</time>
      </trkpt>
      <trkpt lat="42.83951" lon="0.25128">
        <ele>2014</ele>
        <time>2012-02-23T09:55:36Z</time>
      </trkpt>
      <trkpt lat="42.8395" lon="0.25129">
        <ele>2014</ele>
        <time>2012-02-23T09:55:39Z</time>
      </trkpt>
      <trkpt lat="42.83949" lon="0.25133">
        <ele>2014</ele>
        <time>2012-02-23T09:55:42Z</time>
      </trkpt>
      <trkpt lat="42.83948" lon="0.25135">
        <ele>2015</ele>
        <time>2012-02-23T09:55:46Z</time>
      </trkpt>
      <trkpt lat="42.8395" lon="0.25139">
        <ele>2018</ele>
        <time>2012-02-23T09:55:50Z</time>
      </trkpt>
      <trkpt lat="42.83949" lon="0.25137">
        <ele>2020</ele>
        <time>2012-02-23T09:55:56Z</time>
      </trkpt>
      <trkpt lat="42.8395" lon="0.25135">
        <ele>2020</ele>
        <time>2012-02-23T09:56:02Z</time>
      </trkpt>
      <trkpt lat="42.8395" lon="0.25134">
        <ele>2020</ele>
        <time>2012-02-23T09:56:05Z</time>
      </trkpt>
      <trkpt lat="42.8395" lon="0.25132">
        <ele>2020</ele>
        <time>2012-02-23T09:56:08Z</time>
      </trkpt>
      <trkpt lat="42.83952" lon="0.25129">
        <ele>2020</ele>
        <time>2012-02-23T09:56:11Z</time>
      </trkpt>
      <trkpt lat="42.83952" lon="0.25126">
        <ele>2020</ele>
        <time>2012-02-23T09:56:16Z</time>
      </trkpt>
      <trkpt lat="42.83951" lon="0.25128">
        <ele>2020</ele>
        <time>2012-02-23T09:56:22Z</time>
      </trkpt>
      <trkpt lat="42.8395" lon="0.25133">
        <ele>2020</ele>
        <time>2012-02-23T09:56:26Z</time>
      </trkpt>
      <trkpt lat="42.83951" lon="0.25138">
        <ele>2020</ele>
        <time>2012-02-23T09:56:33Z</time>
      </trkpt>
      <trkpt lat="42.8395" lon="0.25136">
        <ele>2021</ele>
        <time>2012-02-23T09:56:37Z</time>
      </trkpt>
      <trkpt lat="42.8395" lon="0.25126">
        <ele>2021</ele>
        <time>2012-02-23T09:56:40Z</time>
      </trkpt>
      <trkpt lat="42.8395" lon="0.25134">
        <ele>2020</ele>
        <time>2012-02-23T09:56:43Z</time>
      </trkpt>
      <trkpt lat="42.83948" lon="0.25137">
        <ele>2020</ele>
        <time>2012-02-23T09:56:46Z</time>
      </trkpt>
      <trkpt lat="42.83945" lon="0.25135">
        <ele>2022</ele>
        <time>2012-02-23T09:56:50Z</time>
      </trkpt>
      <trkpt lat="42.83944" lon="0.25133">
        <ele>2024</ele>
        <time>2012-02-23T09:56:56Z</time>
      </trkpt>
      <trkpt lat="42.83945" lon="0.25134">
        <ele>2025</ele>
        <time>2012-02-23T09:56:59Z</time>
      </trkpt>
      <trkpt lat="42.83948" lon="0.25133">
        <ele>2025</ele>
        <time>2012-02-23T09:57:02Z</time>
      </trkpt>
      <trkpt lat="42.8395" lon="0.25133">
        <ele>2025</ele>
        <time>2012-02-23T09:57:07Z</time>
      </trkpt>
      <trkpt lat="42.83948" lon="0.25141">
        <ele>2024</ele>
        <time>2012-02-23T09:57:11Z</time>
      </trkpt>
      <trkpt lat="42.83947" lon="0.25151">
        <ele>2024</ele>
        <time>2012-02-23T09:57:14Z</time>
      </trkpt>
      <trkpt lat="42.83948" lon="0.25148">
        <ele>2024</ele>
        <time>2012-02-23T09:57:17Z</time>
      </trkpt>
      <trkpt lat="42.8395" lon="0.25142">
        <ele>2022</ele>
        <time>2012-02-23T09:57:22Z</time>
      </trkpt>
      <trkpt lat="42.83949" lon="0.25137">
        <ele>2022</ele>
        <time>2012-02-23T09:57:25Z</time>
      </trkpt>
      <trkpt lat="42.83948" lon="0.25134">
        <ele>2021</ele>
        <time>2012-02-23T09:57:30Z</time>
      </trkpt>
      <trkpt lat="42.83947" lon="0.25131">
        <ele>2021</ele>
        <time>2012-02-23T09:57:34Z</time>
      </trkpt>
      <trkpt lat="42.83947" lon="0.25133">
        <ele>2021</ele>
        <time>2012-02-23T09:57:45Z</time>
      </trkpt>
      <trkpt lat="42.83947" lon="0.25135">
        <ele>2021</ele>
        <time>2012-02-23T09:57:48Z</time>
      </trkpt>
      <trkpt lat="42.83947" lon="0.25136">
        <ele>2021</ele>
        <time>2012-02-23T09:57:51Z</time>
      </trkpt>
      <trkpt lat="42.83948" lon="0.25133">
        <ele>2021</ele>
        <time>2012-02-23T09:57:55Z</time>
      </trkpt>
      <trkpt lat="42.83947" lon="0.25131">
        <ele>2021</ele>
        <time>2012-02-23T09:57:58Z</time>
      </trkpt>
      <trkpt lat="42.83948" lon="0.25132">
        <ele>2021</ele>
        <time>2012-02-23T09:58:13Z</time>
      </trkpt>
      <trkpt lat="42.83948" lon="0.25135">
        <ele>2021</ele>
        <time>2012-02-23T09:58:17Z</time>
      </trkpt>
      <trkpt lat="42.83947" lon="0.25137">
        <ele>2021</ele>
        <time>2012-02-23T09:58:30Z</time>
      </trkpt>
      <trkpt lat="42.83947" lon="0.25138">
        <ele>2021</ele>
        <time>2012-02-23T09:58:35Z</time>
      </trkpt>
      <trkpt lat="42.83947" lon="0.2514">
        <ele>2021</ele>
        <time>2012-02-23T09:58:39Z</time>
      </trkpt>
      <trkpt lat="42.83948" lon="0.25138">
        <ele>2021</ele>
        <time>2012-02-23T09:58:42Z</time>
      </trkpt>
      <trkpt lat="42.83949" lon="0.25141">
        <ele>2021</ele>
        <time>2012-02-23T09:58:46Z</time>
      </trkpt>
      <trkpt lat="42.83949" lon="0.25142">
        <ele>2021</ele>
        <time>2012-02-23T09:58:54Z</time>
      </trkpt>
      <trkpt lat="42.8395" lon="0.25139">
        <ele>2021</ele>
        <time>2012-02-23T09:58:57Z</time>
      </trkpt>
      <trkpt lat="42.83949" lon="0.25139">
        <ele>2021</ele>
        <time>2012-02-23T09:59:01Z</time>
      </trkpt>
      <trkpt lat="42.83947" lon="0.25143">
        <ele>2021</ele>
        <time>2012-02-23T09:59:05Z</time>
      </trkpt>
      <trkpt lat="42.83945" lon="0.25143">
        <ele>2021</ele>
        <time>2012-02-23T09:59:09Z</time>
      </trkpt>
      <trkpt lat="42.83945" lon="0.25141">
        <ele>2021</ele>
        <time>2012-02-23T09:59:21Z</time>
      </trkpt>
      <trkpt lat="42.83946" lon="0.25139">
        <ele>2021</ele>
        <time>2012-02-23T09:59:33Z</time>
      </trkpt>
      <trkpt lat="42.83948" lon="0.25135">
        <ele>2020</ele>
        <time>2012-02-23T09:59:37Z</time>
      </trkpt>
      <trkpt lat="42.83948" lon="0.25133">
        <ele>2020</ele>
        <time>2012-02-23T09:59:40Z</time>
      </trkpt>
      <trkpt lat="42.83947" lon="0.25134">
        <ele>2020</ele>
        <time>2012-02-23T09:59:53Z</time>
      </trkpt>
      <trkpt lat="42.83946" lon="0.25134">
        <ele>2020</ele>
        <time>2012-02-23T09:59:58Z</time>
      </trkpt>
      <trkpt lat="42.83945" lon="0.25135">
        <ele>2020</ele>
        <time>2012-02-23T10:00:35Z</time>
      </trkpt>
      <trkpt lat="42.83944" lon="0.25137">
        <ele>2020</ele>
        <time>2012-02-23T10:00:41Z</time>
      </trkpt>
      <trkpt lat="42.83943" lon="0.25137">
        <ele>2020</ele>
        <time>2012-02-23T10:00:49Z</time>
      </trkpt>
      <trkpt lat="42.83941" lon="0.2514">
        <ele>2020</ele>
        <time>2012-02-23T10:00:54Z</time>
      </trkpt>
      <trkpt lat="42.83943" lon="0.25141">
        <ele>2020</ele>
        <time>2012-02-23T10:01:06Z</time>
      </trkpt>
      <trkpt lat="42.83941" lon="0.25144">
        <ele>2019</ele>
        <time>2012-02-23T10:01:14Z</time>
      </trkpt>
      <trkpt lat="42.83941" lon="0.25145">
        <ele>2019</ele>
        <time>2012-02-23T10:01:18Z</time>
      </trkpt>
      <trkpt lat="42.83939" lon="0.2515">
        <ele>2019</ele>
        <time>2012-02-23T10:01:22Z</time>
      </trkpt>
      <trkpt lat="42.83939" lon="0.25147">
        <ele>2019</ele>
        <time>2012-02-23T10:01:25Z</time>
      </trkpt>
      <trkpt lat="42.83939" lon="0.25146">
        <ele>2019</ele>
        <time>2012-02-23T10:01:34Z</time>
      </trkpt>
      <trkpt lat="42.83941" lon="0.25135">
        <ele>2019</ele>
        <time>2012-02-23T10:01:39Z</time>
      </trkpt>
      <trkpt lat="42.83942" lon="0.2513">
        <ele>2019</ele>
        <time>2012-02-23T10:01:43Z</time>
      </trkpt>
      <trkpt lat="42.83944" lon="0.25125">
        <ele>2019</ele>
        <time>2012-02-23T10:01:53Z</time>
      </trkpt>
      <trkpt lat="42.83947" lon="0.25118">
        <ele>2019</ele>
        <time>2012-02-23T10:01:57Z</time>
      </trkpt>
      <trkpt lat="42.83947" lon="0.25119">
        <ele>2015</ele>
        <time>2012-02-23T10:02:03Z</time>
      </trkpt>
      <trkpt lat="42.83944" lon="0.25128">
        <ele>2012</ele>
        <time>2012-02-23T10:02:06Z</time>
      </trkpt>
      <trkpt lat="42.83941" lon="0.25134">
        <ele>2008</ele>
        <time>2012-02-23T10:02:10Z</time>
      </trkpt>
      <trkpt lat="42.83939" lon="0.25131">
        <ele>2006</ele>
        <time>2012-02-23T10:02:16Z</time>
      </trkpt>
      <trkpt lat="42.83938" lon="0.25126">
        <ele>2006</ele>
        <time>2012-02-23T10:02:19Z</time>
      </trkpt>
      <trkpt lat="42.8394" lon="0.25121">
        <ele>2010</ele>
        <time>2012-02-23T10:02:23Z</time>
      </trkpt>
      <trkpt lat="42.83942" lon="0.25124">
        <ele>2012</ele>
        <time>2012-02-23T10:02:27Z</time>
      </trkpt>
      <trkpt lat="42.83939" lon="0.2513">
        <ele>2012</ele>
        <time>2012-02-23T10:02:31Z</time>
      </trkpt>
      <trkpt lat="42.83939" lon="0.25128">
        <ele>2012</ele>
        <time>2012-02-23T10:02:35Z</time>
      </trkpt>
      <trkpt lat="42.83941" lon="0.25125">
        <ele>2014</ele>
        <time>2012-02-23T10:02:39Z</time>
      </trkpt>
      <trkpt lat="42.83942" lon="0.25125">
        <ele>2019</ele>
        <time>2012-02-23T10:02:44Z</time>
      </trkpt>
      <trkpt lat="42.83943" lon="0.25125">
        <ele>2019</ele>
        <time>2012-02-23T10:02:49Z</time>
      </trkpt>
      <trkpt lat="42.83944" lon="0.25127">
        <ele>2019</ele>
        <time>2012-02-23T10:02:53Z</time>
      </trkpt>
      <trkpt lat="42.83944" lon="0.2513">
        <ele>2016</ele>
        <time>2012-02-23T10:02:59Z</time>
      </trkpt>
      <trkpt lat="42.83942" lon="0.25138">
        <ele>2012</ele>
        <time>2012-02-23T10:03:03Z</time>
      </trkpt>
      <trkpt lat="42.83942" lon="0.25137">
        <ele>2012</ele>
        <time>2012-02-23T10:03:11Z</time>
      </trkpt>
      <trkpt lat="42.83938" lon="0.25135">
        <ele>2012</ele>
        <time>2012-02-23T10:03:14Z</time>
      </trkpt>
      <trkpt lat="42.83932" lon="0.25131">
        <ele>2012</ele>
        <time>2012-02-23T10:03:18Z</time>
      </trkpt>
      <trkpt lat="42.83928" lon="0.25127">
        <ele>2012</ele>
        <time>2012-02-23T10:03:22Z</time>
      </trkpt>
      <trkpt lat="42.83924" lon="0.25124">
        <ele>2012</ele>
        <time>2012-02-23T10:03:25Z</time>
      </trkpt>
      <trkpt lat="42.83921" lon="0.25122">
        <ele>2012</ele>
        <time>2012-02-23T10:03:28Z</time>
      </trkpt>
      <trkpt lat="42.8392" lon="0.2512">
        <ele>2012</ele>
        <time>2012-02-23T10:03:31Z</time>
      </trkpt>
      <trkpt lat="42.83919" lon="0.25116">
        <ele>2012</ele>
        <time>2012-02-23T10:03:35Z</time>
      </trkpt>
      <trkpt lat="42.83917" lon="0.25112">
        <ele>2012</ele>
        <time>2012-02-23T10:03:38Z</time>
      </trkpt>
      <trkpt lat="42.83915" lon="0.25105">
        <ele>2012</ele>
        <time>2012-02-23T10:03:42Z</time>
      </trkpt>
      <trkpt lat="42.83914" lon="0.251">
        <ele>2012</ele>
        <time>2012-02-23T10:03:45Z</time>
      </trkpt>
      <trkpt lat="42.83913" lon="0.25091">
        <ele>2012</ele>
        <time>2012-02-23T10:03:48Z</time>
      </trkpt>
      <trkpt lat="42.83911" lon="0.25079">
        <ele>2012</ele>
        <time>2012-02-23T10:03:51Z</time>
      </trkpt>
      <trkpt lat="42.83908" lon="0.25069">
        <ele>2012</ele>
        <time>2012-02-23T10:03:54Z</time>
      </trkpt>
      <trkpt lat="42.83906" lon="0.25058">
        <ele>2012</ele>
        <time>2012-02-23T10:03:57Z</time>
      </trkpt>
      <trkpt lat="42.83903" lon="0.25047">
        <ele>2012</ele>
        <time>2012-02-23T10:04:00Z</time>
      </trkpt>
      <trkpt lat="42.83895" lon="0.25038">
        <ele>2012</ele>
        <time>2012-02-23T10:04:03Z</time>
      </trkpt>
      <trkpt lat="42.83881" lon="0.25032">
        <ele>2010</ele>
        <time>2012-02-23T10:04:06Z</time>
      </trkpt>
      <trkpt lat="42.83871" lon="0.25032">
        <ele>2009</ele>
        <time>2012-02-23T10:04:09Z</time>
      </trkpt>
      <trkpt lat="42.83865" lon="0.25031">
        <ele>2008</ele>
        <time>2012-02-23T10:04:14Z</time>
      </trkpt>
      <trkpt lat="42.83862" lon="0.25032">
        <ele>2008</ele>
        <time>2012-02-23T10:04:17Z</time>
      </trkpt>
      <trkpt lat="42.83858" lon="0.25033">
        <ele>2008</ele>
        <time>2012-02-23T10:04:21Z</time>
      </trkpt>
      <trkpt lat="42.83855" lon="0.25034">
        <ele>2008</ele>
        <time>2012-02-23T10:04:25Z</time>
      </trkpt>
      <trkpt lat="42.83854" lon="0.25039">
        <ele>2008</ele>
        <time>2012-02-23T10:04:29Z</time>
      </trkpt>
      <trkpt lat="42.83853" lon="0.25045">
        <ele>2008</ele>
        <time>2012-02-23T10:04:33Z</time>
      </trkpt>
      <trkpt lat="42.83852" lon="0.2505">
        <ele>2008</ele>
        <time>2012-02-23T10:04:36Z</time>
      </trkpt>
      <trkpt lat="42.8385" lon="0.25057">
        <ele>2008</ele>
        <time>2012-02-23T10:04:40Z</time>
      </trkpt>
      <trkpt lat="42.83849" lon="0.25063">
        <ele>2008</ele>
        <time>2012-02-23T10:04:43Z</time>
      </trkpt>
      <trkpt lat="42.83848" lon="0.25069">
        <ele>2008</ele>
        <time>2012-02-23T10:04:46Z</time>
      </trkpt>
      <trkpt lat="42.83847" lon="0.25078">
        <ele>2008</ele>
        <time>2012-02-23T10:04:51Z</time>
      </trkpt>
      <trkpt lat="42.83847" lon="0.25084">
        <ele>2008</ele>
        <time>2012-02-23T10:04:55Z</time>
      </trkpt>
      <trkpt lat="42.83847" lon="0.25089">
        <ele>2008</ele>
        <time>2012-02-23T10:04:58Z</time>
      </trkpt>
      <trkpt lat="42.83848" lon="0.25095">
        <ele>2008</ele>
        <time>2012-02-23T10:05:01Z</time>
      </trkpt>
      <trkpt lat="42.83851" lon="0.25098">
        <ele>2008</ele>
        <time>2012-02-23T10:05:05Z</time>
      </trkpt>
      <trkpt lat="42.83852" lon="0.251">
        <ele>2008</ele>
        <time>2012-02-23T10:05:08Z</time>
      </trkpt>
      <trkpt lat="42.83855" lon="0.25099">
        <ele>2008</ele>
        <time>2012-02-23T10:05:13Z</time>
      </trkpt>
      <trkpt lat="42.83856" lon="0.25094">
        <ele>2008</ele>
        <time>2012-02-23T10:05:17Z</time>
      </trkpt>
      <trkpt lat="42.83857" lon="0.25091">
        <ele>2008</ele>
        <time>2012-02-23T10:05:24Z</time>
      </trkpt>
      <trkpt lat="42.83857" lon="0.25084">
        <ele>2007</ele>
        <time>2012-02-23T10:05:28Z</time>
      </trkpt>
      <trkpt lat="42.83858" lon="0.25079">
        <ele>2006</ele>
        <time>2012-02-23T10:05:38Z</time>
      </trkpt>
      <trkpt lat="42.8386" lon="0.2507">
        <ele>2006</ele>
        <time>2012-02-23T10:05:41Z</time>
      </trkpt>
      <trkpt lat="42.83862" lon="0.25059">
        <ele>2006</ele>
        <time>2012-02-23T10:05:45Z</time>
      </trkpt>
      <trkpt lat="42.83863" lon="0.25051">
        <ele>2006</ele>
        <time>2012-02-23T10:05:48Z</time>
      </trkpt>
      <trkpt lat="42.83863" lon="0.25043">
        <ele>2006</ele>
        <time>2012-02-23T10:05:51Z</time>
      </trkpt>
      <trkpt lat="42.83865" lon="0.25035">
        <ele>2006</ele>
        <time>2012-02-23T10:05:54Z</time>
      </trkpt>
      <trkpt lat="42.83866" lon="0.25028">
        <ele>2006</ele>
        <time>2012-02-23T10:05:57Z</time>
      </trkpt>
      <trkpt lat="42.83867" lon="0.2502">
        <ele>2006</ele>
        <time>2012-02-23T10:06:00Z</time>
      </trkpt>
      <trkpt lat="42.83868" lon="0.25012">
        <ele>2008</ele>
        <time>2012-02-23T10:06:03Z</time>
      </trkpt>
      <trkpt lat="42.83868" lon="0.25003">
        <ele>2010</ele>
        <time>2012-02-23T10:06:06Z</time>
      </trkpt>
      <trkpt lat="42.83869" lon="0.24994">
        <ele>2012</ele>
        <time>2012-02-23T10:06:09Z</time>
      </trkpt>
      <trkpt lat="42.8387" lon="0.24986">
        <ele>2014</ele>
        <time>2012-02-23T10:06:12Z</time>
      </trkpt>
      <trkpt lat="42.83871" lon="0.24978">
        <ele>2016</ele>
        <time>2012-02-23T10:06:15Z</time>
      </trkpt>
      <trkpt lat="42.83872" lon="0.2497">
        <ele>2018</ele>
        <time>2012-02-23T10:06:18Z</time>
      </trkpt>
      <trkpt lat="42.83873" lon="0.24961">
        <ele>2020</ele>
        <time>2012-02-23T10:06:21Z</time>
      </trkpt>
      <trkpt lat="42.83875" lon="0.24951">
        <ele>2022</ele>
        <time>2012-02-23T10:06:25Z</time>
      </trkpt>
      <trkpt lat="42.83876" lon="0.2494">
        <ele>2025</ele>
        <time>2012-02-23T10:06:29Z</time>
      </trkpt>
      <trkpt lat="42.83877" lon="0.24928">
        <ele>2028</ele>
        <time>2012-02-23T10:06:33Z</time>
      </trkpt>
      <trkpt lat="42.83878" lon="0.24919">
        <ele>2031</ele>
        <time>2012-02-23T10:06:36Z</time>
      </trkpt>
      <trkpt lat="42.8388" lon="0.24911">
        <ele>2033</ele>
        <time>2012-02-23T10:06:39Z</time>
      </trkpt>
      <trkpt lat="42.83881" lon="0.24902">
        <ele>2036</ele>
        <time>2012-02-23T10:06:42Z</time>
      </trkpt>
      <trkpt lat="42.83883" lon="0.24891">
        <ele>2040</ele>
        <time>2012-02-23T10:06:46Z</time>
      </trkpt>
      <trkpt lat="42.83884" lon="0.24883">
        <ele>2043</ele>
        <time>2012-02-23T10:06:49Z</time>
      </trkpt>
      <trkpt lat="42.83884" lon="0.24873">
        <ele>2047</ele>
        <time>2012-02-23T10:06:53Z</time>
      </trkpt>
      <trkpt lat="42.83885" lon="0.24866">
        <ele>2050</ele>
        <time>2012-02-23T10:06:56Z</time>
      </trkpt>
      <trkpt lat="42.83886" lon="0.24859">
        <ele>2053</ele>
        <time>2012-02-23T10:06:59Z</time>
      </trkpt>
      <trkpt lat="42.83887" lon="0.24851">
        <ele>2056</ele>
        <time>2012-02-23T10:07:02Z</time>
      </trkpt>
      <trkpt lat="42.83888" lon="0.24844">
        <ele>2058</ele>
        <time>2012-02-23T10:07:05Z</time>
      </trkpt>
      <trkpt lat="42.83889" lon="0.24837">
        <ele>2061</ele>
        <time>2012-02-23T10:07:08Z</time>
      </trkpt>
      <trkpt lat="42.83891" lon="0.24829">
        <ele>2064</ele>
        <time>2012-02-23T10:07:12Z</time>
      </trkpt>
      <trkpt lat="42.83891" lon="0.24822">
        <ele>2067</ele>
        <time>2012-02-23T10:07:15Z</time>
      </trkpt>
      <trkpt lat="42.83892" lon="0.24815">
        <ele>2070</ele>
        <time>2012-02-23T10:07:18Z</time>
      </trkpt>
      <trkpt lat="42.83892" lon="0.24809">
        <ele>2073</ele>
        <time>2012-02-23T10:07:21Z</time>
      </trkpt>
      <trkpt lat="42.83893" lon="0.24802">
        <ele>2076</ele>
        <time>2012-02-23T10:07:24Z</time>
      </trkpt>
      <trkpt lat="42.83894" lon="0.24792">
        <ele>2080</ele>
        <time>2012-02-23T10:07:28Z</time>
      </trkpt>
      <trkpt lat="42.83894" lon="0.24784">
        <ele>2082</ele>
        <time>2012-02-23T10:07:31Z</time>
      </trkpt>
      <trkpt lat="42.83895" lon="0.24776">
        <ele>2084</ele>
        <time>2012-02-23T10:07:34Z</time>
      </trkpt>
      <trkpt lat="42.83896" lon="0.24766">
        <ele>2087</ele>
        <time>2012-02-23T10:07:38Z</time>
      </trkpt>
      <trkpt lat="42.83897" lon="0.24758">
        <ele>2089</ele>
        <time>2012-02-23T10:07:41Z</time>
      </trkpt>
      <trkpt lat="42.83898" lon="0.2475">
        <ele>2092</ele>
        <time>2012-02-23T10:07:44Z</time>
      </trkpt>
      <trkpt lat="42.839" lon="0.24743">
        <ele>2095</ele>
        <time>2012-02-23T10:07:47Z</time>
      </trkpt>
      <trkpt lat="42.839" lon="0.24736">
        <ele>2097</ele>
        <time>2012-02-23T10:07:50Z</time>
      </trkpt>
      <trkpt lat="42.83902" lon="0.24725">
        <ele>2100</ele>
        <time>2012-02-23T10:07:54Z</time>
      </trkpt>
      <trkpt lat="42.83903" lon="0.24715">
        <ele>2102</ele>
        <time>2012-02-23T10:07:58Z</time>
      </trkpt>
      <trkpt lat="42.83905" lon="0.24707">
        <ele>2103</ele>
        <time>2012-02-23T10:08:01Z</time>
      </trkpt>
      <trkpt lat="42.83906" lon="0.24697">
        <ele>2105</ele>
        <time>2012-02-23T10:08:05Z</time>
      </trkpt>
      <trkpt lat="42.83908" lon="0.24686">
        <ele>2107</ele>
        <time>2012-02-23T10:08:09Z</time>
      </trkpt>
      <trkpt lat="42.83909" lon="0.24678">
        <ele>2109</ele>
        <time>2012-02-23T10:08:12Z</time>
      </trkpt>
      <trkpt lat="42.8391" lon="0.2467">
        <ele>2111</ele>
        <time>2012-02-23T10:08:15Z</time>
      </trkpt>
      <trkpt lat="42.83911" lon="0.24663">
        <ele>2113</ele>
        <time>2012-02-23T10:08:18Z</time>
      </trkpt>
      <trkpt lat="42.83912" lon="0.24652">
        <ele>2115</ele>
        <time>2012-02-23T10:08:22Z</time>
      </trkpt>
      <trkpt lat="42.83913" lon="0.24641">
        <ele>2118</ele>
        <time>2012-02-23T10:08:26Z</time>
      </trkpt>
      <trkpt lat="42.83914" lon="0.24633">
        <ele>2120</ele>
        <time>2012-02-23T10:08:29Z</time>
      </trkpt>
      <trkpt lat="42.83915" lon="0.24626">
        <ele>2122</ele>
        <time>2012-02-23T10:08:32Z</time>
      </trkpt>
      <trkpt lat="42.83917" lon="0.24615">
        <ele>2125</ele>
        <time>2012-02-23T10:08:36Z</time>
      </trkpt>
      <trkpt lat="42.83918" lon="0.24608">
        <ele>2127</ele>
        <time>2012-02-23T10:08:39Z</time>
      </trkpt>
      <trkpt lat="42.83919" lon="0.246">
        <ele>2130</ele>
        <time>2012-02-23T10:08:42Z</time>
      </trkpt>
      <trkpt lat="42.8392" lon="0.24592">
        <ele>2132</ele>
        <time>2012-02-23T10:08:45Z</time>
      </trkpt>
      <trkpt lat="42.83921" lon="0.24585">
        <ele>2135</ele>
        <time>2012-02-23T10:08:48Z</time>
      </trkpt>
      <trkpt lat="42.83922" lon="0.24574">
        <ele>2138</ele>
        <time>2012-02-23T10:08:52Z</time>
      </trkpt>
      <trkpt lat="42.83923" lon="0.24566">
        <ele>2140</ele>
        <time>2012-02-23T10:08:55Z</time>
      </trkpt>
      <trkpt lat="42.83924" lon="0.24558">
        <ele>2142</ele>
        <time>2012-02-23T10:08:58Z</time>
      </trkpt>
      <trkpt lat="42.83925" lon="0.24551">
        <ele>2144</ele>
        <time>2012-02-23T10:09:01Z</time>
      </trkpt>
      <trkpt lat="42.83927" lon="0.2454">
        <ele>2147</ele>
        <time>2012-02-23T10:09:05Z</time>
      </trkpt>
      <trkpt lat="42.83928" lon="0.24532">
        <ele>2149</ele>
        <time>2012-02-23T10:09:08Z</time>
      </trkpt>
      <trkpt lat="42.83929" lon="0.24522">
        <ele>2151</ele>
        <time>2012-02-23T10:09:12Z</time>
      </trkpt>
      <trkpt lat="42.8393" lon="0.24514">
        <ele>2154</ele>
        <time>2012-02-23T10:09:15Z</time>
      </trkpt>
      <trkpt lat="42.83931" lon="0.24506">
        <ele>2156</ele>
        <time>2012-02-23T10:09:18Z</time>
      </trkpt>
      <trkpt lat="42.83933" lon="0.24496">
        <ele>2157</ele>
        <time>2012-02-23T10:09:22Z</time>
      </trkpt>
      <trkpt lat="42.83934" lon="0.24487">
        <ele>2158</ele>
        <time>2012-02-23T10:09:25Z</time>
      </trkpt>
      <trkpt lat="42.83935" lon="0.24479">
        <ele>2160</ele>
        <time>2012-02-23T10:09:28Z</time>
      </trkpt>
      <trkpt lat="42.83936" lon="0.24468">
        <ele>2161</ele>
        <time>2012-02-23T10:09:32Z</time>
      </trkpt>
      <trkpt lat="42.83937" lon="0.2446">
        <ele>2162</ele>
        <time>2012-02-23T10:09:35Z</time>
      </trkpt>
      <trkpt lat="42.83938" lon="0.24452">
        <ele>2163</ele>
        <time>2012-02-23T10:09:38Z</time>
      </trkpt>
      <trkpt lat="42.8394" lon="0.24442">
        <ele>2165</ele>
        <time>2012-02-23T10:09:42Z</time>
      </trkpt>
      <trkpt lat="42.83941" lon="0.24434">
        <ele>2166</ele>
        <time>2012-02-23T10:09:45Z</time>
      </trkpt>
      <trkpt lat="42.83942" lon="0.24426">
        <ele>2167</ele>
        <time>2012-02-23T10:09:48Z</time>
      </trkpt>
      <trkpt lat="42.83943" lon="0.24415">
        <ele>2169</ele>
        <time>2012-02-23T10:09:52Z</time>
      </trkpt>
      <trkpt lat="42.83944" lon="0.24407">
        <ele>2170</ele>
        <time>2012-02-23T10:09:55Z</time>
      </trkpt>
      <trkpt lat="42.83945" lon="0.24399">
        <ele>2172</ele>
        <time>2012-02-23T10:09:58Z</time>
      </trkpt>
      <trkpt lat="42.83947" lon="0.24388">
        <ele>2174</ele>
        <time>2012-02-23T10:10:02Z</time>
      </trkpt>
      <trkpt lat="42.83948" lon="0.24381">
        <ele>2175</ele>
        <time>2012-02-23T10:10:05Z</time>
      </trkpt>
      <trkpt lat="42.83949" lon="0.24373">
        <ele>2177</ele>
        <time>2012-02-23T10:10:08Z</time>
      </trkpt>
      <trkpt lat="42.8395" lon="0.24362">
        <ele>2179</ele>
        <time>2012-02-23T10:10:12Z</time>
      </trkpt>
      <trkpt lat="42.83952" lon="0.24354">
        <ele>2181</ele>
        <time>2012-02-23T10:10:15Z</time>
      </trkpt>
      <trkpt lat="42.83952" lon="0.24346">
        <ele>2183</ele>
        <time>2012-02-23T10:10:18Z</time>
      </trkpt>
      <trkpt lat="42.83954" lon="0.24336">
        <ele>2185</ele>
        <time>2012-02-23T10:10:22Z</time>
      </trkpt>
      <trkpt lat="42.83955" lon="0.24328">
        <ele>2187</ele>
        <time>2012-02-23T10:10:25Z</time>
      </trkpt>
      <trkpt lat="42.83955" lon="0.24319">
        <ele>2189</ele>
        <time>2012-02-23T10:10:28Z</time>
      </trkpt>
      <trkpt lat="42.83956" lon="0.24308">
        <ele>2192</ele>
        <time>2012-02-23T10:10:32Z</time>
      </trkpt>
      <trkpt lat="42.83957" lon="0.243">
        <ele>2194</ele>
        <time>2012-02-23T10:10:35Z</time>
      </trkpt>
      <trkpt lat="42.83958" lon="0.24292">
        <ele>2195</ele>
        <time>2012-02-23T10:10:38Z</time>
      </trkpt>
      <trkpt lat="42.8396" lon="0.24283">
        <ele>2197</ele>
        <time>2012-02-23T10:10:42Z</time>
      </trkpt>
      <trkpt lat="42.8396" lon="0.24275">
        <ele>2198</ele>
        <time>2012-02-23T10:10:45Z</time>
      </trkpt>
      <trkpt lat="42.83961" lon="0.24267">
        <ele>2200</ele>
        <time>2012-02-23T10:10:48Z</time>
      </trkpt>
      <trkpt lat="42.83963" lon="0.24256">
        <ele>2202</ele>
        <time>2012-02-23T10:10:52Z</time>
      </trkpt>
      <trkpt lat="42.83964" lon="0.24248">
        <ele>2203</ele>
        <time>2012-02-23T10:10:55Z</time>
      </trkpt>
      <trkpt lat="42.83965" lon="0.2424">
        <ele>2205</ele>
        <time>2012-02-23T10:10:58Z</time>
      </trkpt>
      <trkpt lat="42.83966" lon="0.24229">
        <ele>2207</ele>
        <time>2012-02-23T10:11:02Z</time>
      </trkpt>
      <trkpt lat="42.83967" lon="0.24221">
        <ele>2207</ele>
        <time>2012-02-23T10:11:05Z</time>
      </trkpt>
      <trkpt lat="42.83968" lon="0.24213">
        <ele>2208</ele>
        <time>2012-02-23T10:11:08Z</time>
      </trkpt>
      <trkpt lat="42.83969" lon="0.24205">
        <ele>2210</ele>
        <time>2012-02-23T10:11:11Z</time>
      </trkpt>
      <trkpt lat="42.8397" lon="0.24197">
        <ele>2211</ele>
        <time>2012-02-23T10:11:14Z</time>
      </trkpt>
      <trkpt lat="42.83971" lon="0.24189">
        <ele>2212</ele>
        <time>2012-02-23T10:11:17Z</time>
      </trkpt>
      <trkpt lat="42.83971" lon="0.2418">
        <ele>2213</ele>
        <time>2012-02-23T10:11:20Z</time>
      </trkpt>
      <trkpt lat="42.83973" lon="0.24172">
        <ele>2214</ele>
        <time>2012-02-23T10:11:23Z</time>
      </trkpt>
      <trkpt lat="42.83974" lon="0.24161">
        <ele>2215</ele>
        <time>2012-02-23T10:11:27Z</time>
      </trkpt>
      <trkpt lat="42.83975" lon="0.24153">
        <ele>2216</ele>
        <time>2012-02-23T10:11:30Z</time>
      </trkpt>
      <trkpt lat="42.83976" lon="0.24145">
        <ele>2217</ele>
        <time>2012-02-23T10:11:33Z</time>
      </trkpt>
      <trkpt lat="42.83977" lon="0.24137">
        <ele>2218</ele>
        <time>2012-02-23T10:11:36Z</time>
      </trkpt>
      <trkpt lat="42.83978" lon="0.24129">
        <ele>2219</ele>
        <time>2012-02-23T10:11:39Z</time>
      </trkpt>
      <trkpt lat="42.83979" lon="0.24121">
        <ele>2220</ele>
        <time>2012-02-23T10:11:42Z</time>
      </trkpt>
      <trkpt lat="42.8398" lon="0.24113">
        <ele>2222</ele>
        <time>2012-02-23T10:11:45Z</time>
      </trkpt>
      <trkpt lat="42.83981" lon="0.24104">
        <ele>2223</ele>
        <time>2012-02-23T10:11:48Z</time>
      </trkpt>
      <trkpt lat="42.83982" lon="0.24094">
        <ele>2225</ele>
        <time>2012-02-23T10:11:52Z</time>
      </trkpt>
      <trkpt lat="42.83983" lon="0.24086">
        <ele>2227</ele>
        <time>2012-02-23T10:11:55Z</time>
      </trkpt>
      <trkpt lat="42.83984" lon="0.24078">
        <ele>2228</ele>
        <time>2012-02-23T10:11:58Z</time>
      </trkpt>
      <trkpt lat="42.83986" lon="0.24068">
        <ele>2231</ele>
        <time>2012-02-23T10:12:02Z</time>
      </trkpt>
      <trkpt lat="42.83987" lon="0.2406">
        <ele>2232</ele>
        <time>2012-02-23T10:12:05Z</time>
      </trkpt>
      <trkpt lat="42.83988" lon="0.24053">
        <ele>2234</ele>
        <time>2012-02-23T10:12:08Z</time>
      </trkpt>
      <trkpt lat="42.83989" lon="0.24045">
        <ele>2236</ele>
        <time>2012-02-23T10:12:11Z</time>
      </trkpt>
      <trkpt lat="42.8399" lon="0.24036">
        <ele>2238</ele>
        <time>2012-02-23T10:12:14Z</time>
      </trkpt>
      <trkpt lat="42.83991" lon="0.24028">
        <ele>2241</ele>
        <time>2012-02-23T10:12:17Z</time>
      </trkpt>
      <trkpt lat="42.83992" lon="0.24021">
        <ele>2243</ele>
        <time>2012-02-23T10:12:20Z</time>
      </trkpt>
      <trkpt lat="42.83993" lon="0.24013">
        <ele>2246</ele>
        <time>2012-02-23T10:12:23Z</time>
      </trkpt>
      <trkpt lat="42.83994" lon="0.24005">
        <ele>2248</ele>
        <time>2012-02-23T10:12:26Z</time>
      </trkpt>
      <trkpt lat="42.83995" lon="0.23997">
        <ele>2251</ele>
        <time>2012-02-23T10:12:29Z</time>
      </trkpt>
      <trkpt lat="42.83996" lon="0.23989">
        <ele>2253</ele>
        <time>2012-02-23T10:12:32Z</time>
      </trkpt>
      <trkpt lat="42.83997" lon="0.23982">
        <ele>2255</ele>
        <time>2012-02-23T10:12:35Z</time>
      </trkpt>
      <trkpt lat="42.83998" lon="0.23974">
        <ele>2258</ele>
        <time>2012-02-23T10:12:38Z</time>
      </trkpt>
      <trkpt lat="42.83999" lon="0.23964">
        <ele>2261</ele>
        <time>2012-02-23T10:12:42Z</time>
      </trkpt>
      <trkpt lat="42.84" lon="0.23956">
        <ele>2264</ele>
        <time>2012-02-23T10:12:45Z</time>
      </trkpt>
      <trkpt lat="42.84001" lon="0.23949">
        <ele>2267</ele>
        <time>2012-02-23T10:12:48Z</time>
      </trkpt>
      <trkpt lat="42.84002" lon="0.23942">
        <ele>2269</ele>
        <time>2012-02-23T10:12:51Z</time>
      </trkpt>
      <trkpt lat="42.84003" lon="0.23934">
        <ele>2272</ele>
        <time>2012-02-23T10:12:54Z</time>
      </trkpt>
      <trkpt lat="42.84004" lon="0.23926">
        <ele>2275</ele>
        <time>2012-02-23T10:12:57Z</time>
      </trkpt>
      <trkpt lat="42.84005" lon="0.23919">
        <ele>2277</ele>
        <time>2012-02-23T10:13:00Z</time>
      </trkpt>
      <trkpt lat="42.84006" lon="0.2391">
        <ele>2278</ele>
        <time>2012-02-23T10:13:03Z</time>
      </trkpt>
      <trkpt lat="42.84008" lon="0.239">
        <ele>2279</ele>
        <time>2012-02-23T10:13:07Z</time>
      </trkpt>
      <trkpt lat="42.84009" lon="0.23892">
        <ele>2280</ele>
        <time>2012-02-23T10:13:10Z</time>
      </trkpt>
      <trkpt lat="42.8401" lon="0.23884">
        <ele>2281</ele>
        <time>2012-02-23T10:13:13Z</time>
      </trkpt>
      <trkpt lat="42.84012" lon="0.23873">
        <ele>2283</ele>
        <time>2012-02-23T10:13:17Z</time>
      </trkpt>
      <trkpt lat="42.84013" lon="0.23865">
        <ele>2284</ele>
        <time>2012-02-23T10:13:20Z</time>
      </trkpt>
      <trkpt lat="42.84014" lon="0.23857">
        <ele>2286</ele>
        <time>2012-02-23T10:13:23Z</time>
      </trkpt>
      <trkpt lat="42.84015" lon="0.23847">
        <ele>2288</ele>
        <time>2012-02-23T10:13:27Z</time>
      </trkpt>
      <trkpt lat="42.84016" lon="0.23839">
        <ele>2290</ele>
        <time>2012-02-23T10:13:30Z</time>
      </trkpt>
      <trkpt lat="42.84017" lon="0.23831">
        <ele>2292</ele>
        <time>2012-02-23T10:13:33Z</time>
      </trkpt>
      <trkpt lat="42.84017" lon="0.23822">
        <ele>2294</ele>
        <time>2012-02-23T10:13:36Z</time>
      </trkpt>
      <trkpt lat="42.84018" lon="0.23815">
        <ele>2296</ele>
        <time>2012-02-23T10:13:39Z</time>
      </trkpt>
      <trkpt lat="42.84019" lon="0.23807">
        <ele>2297</ele>
        <time>2012-02-23T10:13:42Z</time>
      </trkpt>
      <trkpt lat="42.8402" lon="0.23799">
        <ele>2299</ele>
        <time>2012-02-23T10:13:45Z</time>
      </trkpt>
      <trkpt lat="42.84021" lon="0.2379">
        <ele>2301</ele>
        <time>2012-02-23T10:13:48Z</time>
      </trkpt>
      <trkpt lat="42.84022" lon="0.23783">
        <ele>2302</ele>
        <time>2012-02-23T10:13:51Z</time>
      </trkpt>
      <trkpt lat="42.84023" lon="0.23775">
        <ele>2303</ele>
        <time>2012-02-23T10:13:54Z</time>
      </trkpt>
      <trkpt lat="42.84024" lon="0.23766">
        <ele>2304</ele>
        <time>2012-02-23T10:13:57Z</time>
      </trkpt>
      <trkpt lat="42.84025" lon="0.23758">
        <ele>2306</ele>
        <time>2012-02-23T10:14:00Z</time>
      </trkpt>
      <trkpt lat="42.84026" lon="0.23751">
        <ele>2307</ele>
        <time>2012-02-23T10:14:03Z</time>
      </trkpt>
      <trkpt lat="42.84027" lon="0.23742">
        <ele>2308</ele>
        <time>2012-02-23T10:14:06Z</time>
      </trkpt>
      <trkpt lat="42.84028" lon="0.23734">
        <ele>2310</ele>
        <time>2012-02-23T10:14:09Z</time>
      </trkpt>
      <trkpt lat="42.84029" lon="0.23727">
        <ele>2311</ele>
        <time>2012-02-23T10:14:12Z</time>
      </trkpt>
      <trkpt lat="42.8403" lon="0.23719">
        <ele>2313</ele>
        <time>2012-02-23T10:14:15Z</time>
      </trkpt>
      <trkpt lat="42.84031" lon="0.2371">
        <ele>2314</ele>
        <time>2012-02-23T10:14:18Z</time>
      </trkpt>
      <trkpt lat="42.84032" lon="0.23703">
        <ele>2316</ele>
        <time>2012-02-23T10:14:21Z</time>
      </trkpt>
      <trkpt lat="42.84034" lon="0.23695">
        <ele>2318</ele>
        <time>2012-02-23T10:14:24Z</time>
      </trkpt>
      <trkpt lat="42.84034" lon="0.23687">
        <ele>2319</ele>
        <time>2012-02-23T10:14:27Z</time>
      </trkpt>
      <trkpt lat="42.84035" lon="0.23679">
        <ele>2321</ele>
        <time>2012-02-23T10:14:30Z</time>
      </trkpt>
      <trkpt lat="42.84036" lon="0.23671">
        <ele>2323</ele>
        <time>2012-02-23T10:14:33Z</time>
      </trkpt>
      <trkpt lat="42.84037" lon="0.23662">
        <ele>2326</ele>
        <time>2012-02-23T10:14:36Z</time>
      </trkpt>
      <trkpt lat="42.84037" lon="0.23654">
        <ele>2328</ele>
        <time>2012-02-23T10:14:39Z</time>
      </trkpt>
      <trkpt lat="42.84038" lon="0.23646">
        <ele>2330</ele>
        <time>2012-02-23T10:14:42Z</time>
      </trkpt>
      <trkpt lat="42.84039" lon="0.23638">
        <ele>2332</ele>
        <time>2012-02-23T10:14:45Z</time>
      </trkpt>
      <trkpt lat="42.8404" lon="0.2363">
        <ele>2334</ele>
        <time>2012-02-23T10:14:48Z</time>
      </trkpt>
      <trkpt lat="42.84041" lon="0.23622">
        <ele>2337</ele>
        <time>2012-02-23T10:14:51Z</time>
      </trkpt>
      <trkpt lat="42.84042" lon="0.23614">
        <ele>2338</ele>
        <time>2012-02-23T10:14:54Z</time>
      </trkpt>
      <trkpt lat="42.84043" lon="0.23606">
        <ele>2339</ele>
        <time>2012-02-23T10:14:57Z</time>
      </trkpt>
      <trkpt lat="42.8404" lon="0.23595">
        <ele>2339</ele>
        <time>2012-02-23T10:15:00Z</time>
      </trkpt>
      <trkpt lat="42.84032" lon="0.23594">
        <ele>2339</ele>
        <time>2012-02-23T10:15:03Z</time>
      </trkpt>
      <trkpt lat="42.84029" lon="0.23598">
        <ele>2339</ele>
        <time>2012-02-23T10:15:07Z</time>
      </trkpt>
      <trkpt lat="42.84028" lon="0.236">
        <ele>2339</ele>
        <time>2012-02-23T10:15:16Z</time>
      </trkpt>
      <trkpt lat="42.84029" lon="0.23602">
        <ele>2339</ele>
        <time>2012-02-23T10:15:30Z</time>
      </trkpt>
      <trkpt lat="42.84031" lon="0.23601">
        <ele>2339</ele>
        <time>2012-02-23T10:16:00Z</time>
      </trkpt>
      <trkpt lat="42.8403" lon="0.236">
        <ele>2341</ele>
        <time>2012-02-23T10:16:07Z</time>
      </trkpt>
      <trkpt lat="42.84031" lon="0.23602">
        <ele>2341</ele>
        <time>2012-02-23T10:16:15Z</time>
      </trkpt>
      <trkpt lat="42.84031" lon="0.23605">
        <ele>2341</ele>
        <time>2012-02-23T10:16:20Z</time>
      </trkpt>
      <trkpt lat="42.84029" lon="0.23604">
        <ele>2341</ele>
        <time>2012-02-23T10:16:26Z</time>
      </trkpt>
      <trkpt lat="42.84029" lon="0.23603">
        <ele>2341</ele>
        <time>2012-02-23T10:16:31Z</time>
      </trkpt>
      <trkpt lat="42.8403" lon="0.23601">
        <ele>2341</ele>
        <time>2012-02-23T10:16:35Z</time>
      </trkpt>
      <trkpt lat="42.8403" lon="0.23603">
        <ele>2341</ele>
        <time>2012-02-23T10:16:50Z</time>
      </trkpt>
      <trkpt lat="42.8403" lon="0.23601">
        <ele>2341</ele>
        <time>2012-02-23T10:17:08Z</time>
      </trkpt>
      <trkpt lat="42.84029" lon="0.23602">
        <ele>2340</ele>
        <time>2012-02-23T10:17:52Z</time>
      </trkpt>
      <trkpt lat="42.84027" lon="0.23602">
        <ele>2340</ele>
        <time>2012-02-23T10:18:11Z</time>
      </trkpt>
      <trkpt lat="42.84024" lon="0.23601">
        <ele>2340</ele>
        <time>2012-02-23T10:18:14Z</time>
      </trkpt>
      <trkpt lat="42.84018" lon="0.23598">
        <ele>2340</ele>
        <time>2012-02-23T10:18:17Z</time>
      </trkpt>
      <trkpt lat="42.84011" lon="0.23596">
        <ele>2340</ele>
        <time>2012-02-23T10:18:20Z</time>
      </trkpt>
      <trkpt lat="42.84002" lon="0.23594">
        <ele>2340</ele>
        <time>2012-02-23T10:18:23Z</time>
      </trkpt>
      <trkpt lat="42.83993" lon="0.2359">
        <ele>2340</ele>
        <time>2012-02-23T10:18:26Z</time>
      </trkpt>
      <trkpt lat="42.83987" lon="0.23585">
        <ele>2340</ele>
        <time>2012-02-23T10:18:29Z</time>
      </trkpt>
      <trkpt lat="42.83982" lon="0.2358">
        <ele>2340</ele>
        <time>2012-02-23T10:18:32Z</time>
      </trkpt>
      <trkpt lat="42.83976" lon="0.23577">
        <ele>2340</ele>
        <time>2012-02-23T10:18:35Z</time>
      </trkpt>
      <trkpt lat="42.83972" lon="0.23573">
        <ele>2340</ele>
        <time>2012-02-23T10:18:38Z</time>
      </trkpt>
      <trkpt lat="42.83968" lon="0.23564">
        <ele>2340</ele>
        <time>2012-02-23T10:18:41Z</time>
      </trkpt>
      <trkpt lat="42.83966" lon="0.23547">
        <ele>2339</ele>
        <time>2012-02-23T10:18:44Z</time>
      </trkpt>
      <trkpt lat="42.83964" lon="0.23528">
        <ele>2337</ele>
        <time>2012-02-23T10:18:47Z</time>
      </trkpt>
      <trkpt lat="42.83963" lon="0.2351">
        <ele>2335</ele>
        <time>2012-02-23T10:18:50Z</time>
      </trkpt>
      <trkpt lat="42.83958" lon="0.23494">
        <ele>2333</ele>
        <time>2012-02-23T10:18:53Z</time>
      </trkpt>
      <trkpt lat="42.83951" lon="0.23485">
        <ele>2332</ele>
        <time>2012-02-23T10:18:56Z</time>
      </trkpt>
      <trkpt lat="42.83943" lon="0.23473">
        <ele>2330</ele>
        <time>2012-02-23T10:18:59Z</time>
      </trkpt>
      <trkpt lat="42.83936" lon="0.23465">
        <ele>2328</ele>
        <time>2012-02-23T10:19:02Z</time>
      </trkpt>
      <trkpt lat="42.83932" lon="0.23462">
        <ele>2324</ele>
        <time>2012-02-23T10:19:27Z</time>
      </trkpt>
      <trkpt lat="42.83934" lon="0.23452">
        <ele>2323</ele>
        <time>2012-02-23T10:19:30Z</time>
      </trkpt>
      <trkpt lat="42.83926" lon="0.23451">
        <ele>2321</ele>
        <time>2012-02-23T10:19:33Z</time>
      </trkpt>
      <trkpt lat="42.83923" lon="0.23445">
        <ele>2319</ele>
        <time>2012-02-23T10:19:36Z</time>
      </trkpt>
      <trkpt lat="42.83917" lon="0.23438">
        <ele>2317</ele>
        <time>2012-02-23T10:19:39Z</time>
      </trkpt>
      <trkpt lat="42.83909" lon="0.2344">
        <ele>2315</ele>
        <time>2012-02-23T10:19:42Z</time>
      </trkpt>
      <trkpt lat="42.83911" lon="0.23427">
        <ele>2313</ele>
        <time>2012-02-23T10:19:45Z</time>
      </trkpt>
      <trkpt lat="42.83911" lon="0.23417">
        <ele>2311</ele>
        <time>2012-02-23T10:19:48Z</time>
      </trkpt>
      <trkpt lat="42.83902" lon="0.2342">
        <ele>2310</ele>
        <time>2012-02-23T10:19:51Z</time>
      </trkpt>
      <trkpt lat="42.83895" lon="0.23423">
        <ele>2308</ele>
        <time>2012-02-23T10:19:54Z</time>
      </trkpt>
      <trkpt lat="42.83898" lon="0.23411">
        <ele>2305</ele>
        <time>2012-02-23T10:19:57Z</time>
      </trkpt>
      <trkpt lat="42.83901" lon="0.234">
        <ele>2302</ele>
        <time>2012-02-23T10:20:00Z</time>
      </trkpt>
      <trkpt lat="42.83892" lon="0.23402">
        <ele>2299</ele>
        <time>2012-02-23T10:20:03Z</time>
      </trkpt>
      <trkpt lat="42.83888" lon="0.234">
        <ele>2296</ele>
        <time>2012-02-23T10:20:06Z</time>
      </trkpt>
      <trkpt lat="42.83883" lon="0.23392">
        <ele>2293</ele>
        <time>2012-02-23T10:20:09Z</time>
      </trkpt>
      <trkpt lat="42.83875" lon="0.23396">
        <ele>2290</ele>
        <time>2012-02-23T10:20:12Z</time>
      </trkpt>
      <trkpt lat="42.83874" lon="0.23382">
        <ele>2287</ele>
        <time>2012-02-23T10:20:15Z</time>
      </trkpt>
      <trkpt lat="42.83863" lon="0.2338">
        <ele>2284</ele>
        <time>2012-02-23T10:20:18Z</time>
      </trkpt>
      <trkpt lat="42.83854" lon="0.23382">
        <ele>2280</ele>
        <time>2012-02-23T10:20:21Z</time>
      </trkpt>
      <trkpt lat="42.83842" lon="0.23364">
        <ele>2275</ele>
        <time>2012-02-23T10:20:24Z</time>
      </trkpt>
      <trkpt lat="42.83825" lon="0.2335">
        <ele>2270</ele>
        <time>2012-02-23T10:20:27Z</time>
      </trkpt>
      <trkpt lat="42.8381" lon="0.23337">
        <ele>2266</ele>
        <time>2012-02-23T10:20:30Z</time>
      </trkpt>
      <trkpt lat="42.83801" lon="0.23328">
        <ele>2263</ele>
        <time>2012-02-23T10:20:33Z</time>
      </trkpt>
      <trkpt lat="42.83793" lon="0.2332">
        <ele>2260</ele>
        <time>2012-02-23T10:20:36Z</time>
      </trkpt>
      <trkpt lat="42.83785" lon="0.23318">
        <ele>2257</ele>
        <time>2012-02-23T10:20:39Z</time>
      </trkpt>
      <trkpt lat="42.83776" lon="0.23322">
        <ele>2254</ele>
        <time>2012-02-23T10:20:42Z</time>
      </trkpt>
      <trkpt lat="42.8377" lon="0.23313">
        <ele>2251</ele>
        <time>2012-02-23T10:20:45Z</time>
      </trkpt>
      <trkpt lat="42.8376" lon="0.23308">
        <ele>2248</ele>
        <time>2012-02-23T10:20:48Z</time>
      </trkpt>
      <trkpt lat="42.83757" lon="0.23297">
        <ele>2245</ele>
        <time>2012-02-23T10:20:51Z</time>
      </trkpt>
      <trkpt lat="42.83746" lon="0.23296">
        <ele>2242</ele>
        <time>2012-02-23T10:20:54Z</time>
      </trkpt>
      <trkpt lat="42.83736" lon="0.23294">
        <ele>2239</ele>
        <time>2012-02-23T10:20:57Z</time>
      </trkpt>
      <trkpt lat="42.83736" lon="0.23274">
        <ele>2236</ele>
        <time>2012-02-23T10:21:00Z</time>
      </trkpt>
      <trkpt lat="42.83735" lon="0.23244">
        <ele>2232</ele>
        <time>2012-02-23T10:21:03Z</time>
      </trkpt>
      <trkpt lat="42.83735" lon="0.23201">
        <ele>2226</ele>
        <time>2012-02-23T10:21:06Z</time>
      </trkpt>
      <trkpt lat="42.83744" lon="0.23148">
        <ele>2220</ele>
        <time>2012-02-23T10:21:09Z</time>
      </trkpt>
      <trkpt lat="42.83756" lon="0.23089">
        <ele>2213</ele>
        <time>2012-02-23T10:21:12Z</time>
      </trkpt>
      <trkpt lat="42.83763" lon="0.23035">
        <ele>2205</ele>
        <time>2012-02-23T10:21:15Z</time>
      </trkpt>
      <trkpt lat="42.83764" lon="0.22988">
        <ele>2199</ele>
        <time>2012-02-23T10:21:18Z</time>
      </trkpt>
      <trkpt lat="42.83758" lon="0.22955">
        <ele>2193</ele>
        <time>2012-02-23T10:21:21Z</time>
      </trkpt>
      <trkpt lat="42.8375" lon="0.22933">
        <ele>2189</ele>
        <time>2012-02-23T10:21:24Z</time>
      </trkpt>
      <trkpt lat="42.83744" lon="0.22921">
        <ele>2186</ele>
        <time>2012-02-23T10:21:27Z</time>
      </trkpt>
      <trkpt lat="42.83738" lon="0.22913">
        <ele>2185</ele>
        <time>2012-02-23T10:21:30Z</time>
      </trkpt>
      <trkpt lat="42.83733" lon="0.22906">
        <ele>2185</ele>
        <time>2012-02-23T10:21:33Z</time>
      </trkpt>
      <trkpt lat="42.83727" lon="0.22899">
        <ele>2185</ele>
        <time>2012-02-23T10:21:36Z</time>
      </trkpt>
      <trkpt lat="42.83722" lon="0.22893">
        <ele>2185</ele>
        <time>2012-02-23T10:21:39Z</time>
      </trkpt>
      <trkpt lat="42.83716" lon="0.22887">
        <ele>2185</ele>
        <time>2012-02-23T10:21:42Z</time>
      </trkpt>
      <trkpt lat="42.8371" lon="0.22881">
        <ele>2185</ele>
        <time>2012-02-23T10:21:45Z</time>
      </trkpt>
      <trkpt lat="42.83704" lon="0.22874">
        <ele>2185</ele>
        <time>2012-02-23T10:21:48Z</time>
      </trkpt>
      <trkpt lat="42.83697" lon="0.22868">
        <ele>2185</ele>
        <time>2012-02-23T10:21:51Z</time>
      </trkpt>
      <trkpt lat="42.83689" lon="0.22862">
        <ele>2185</ele>
        <time>2012-02-23T10:21:54Z</time>
      </trkpt>
      <trkpt lat="42.83682" lon="0.22856">
        <ele>2185</ele>
        <time>2012-02-23T10:21:57Z</time>
      </trkpt>
      <trkpt lat="42.83675" lon="0.22848">
        <ele>2185</ele>
        <time>2012-02-23T10:22:00Z</time>
      </trkpt>
      <trkpt lat="42.83668" lon="0.22837">
        <ele>2185</ele>
        <time>2012-02-23T10:22:03Z</time>
      </trkpt>
      <trkpt lat="42.8366" lon="0.22823">
        <ele>2184</ele>
        <time>2012-02-23T10:22:06Z</time>
      </trkpt>
      <trkpt lat="42.83651" lon="0.22802">
        <ele>2183</ele>
        <time>2012-02-23T10:22:09Z</time>
      </trkpt>
      <trkpt lat="42.83643" lon="0.22778">
        <ele>2181</ele>
        <time>2012-02-23T10:22:12Z</time>
      </trkpt>
      <trkpt lat="42.83636" lon="0.22754">
        <ele>2180</ele>
        <time>2012-02-23T10:22:15Z</time>
      </trkpt>
      <trkpt lat="42.83634" lon="0.22734">
        <ele>2179</ele>
        <time>2012-02-23T10:22:18Z</time>
      </trkpt>
      <trkpt lat="42.83636" lon="0.22715">
        <ele>2179</ele>
        <time>2012-02-23T10:22:21Z</time>
      </trkpt>
      <trkpt lat="42.83636" lon="0.22696">
        <ele>2177</ele>
        <time>2012-02-23T10:22:24Z</time>
      </trkpt>
      <trkpt lat="42.83634" lon="0.2268">
        <ele>2176</ele>
        <time>2012-02-23T10:22:27Z</time>
      </trkpt>
      <trkpt lat="42.83635" lon="0.22671">
        <ele>2174</ele>
        <time>2012-02-23T10:22:32Z</time>
      </trkpt>
      <trkpt lat="42.83635" lon="0.2267">
        <ele>2174</ele>
        <time>2012-02-23T10:22:35Z</time>
      </trkpt>
      <trkpt lat="42.83634" lon="0.22669">
        <ele>2174</ele>
        <time>2012-02-23T10:22:48Z</time>
      </trkpt>
      <trkpt lat="42.83633" lon="0.22668">
        <ele>2174</ele>
        <time>2012-02-23T10:23:05Z</time>
      </trkpt>
      <trkpt lat="42.83632" lon="0.22667">
        <ele>2174</ele>
        <time>2012-02-23T10:23:15Z</time>
      </trkpt>
      <trkpt lat="42.83631" lon="0.22665">
        <ele>2174</ele>
        <time>2012-02-23T10:23:21Z</time>
      </trkpt>
      <trkpt lat="42.8363" lon="0.22664">
        <ele>2174</ele>
        <time>2012-02-23T10:23:31Z</time>
      </trkpt>
      <trkpt lat="42.83628" lon="0.22661">
        <ele>2174</ele>
        <time>2012-02-23T10:23:37Z</time>
      </trkpt>
      <trkpt lat="42.83627" lon="0.22659">
        <ele>2174</ele>
        <time>2012-02-23T10:23:42Z</time>
      </trkpt>
      <trkpt lat="42.83626" lon="0.22658">
        <ele>2174</ele>
        <time>2012-02-23T10:23:48Z</time>
      </trkpt>
      <trkpt lat="42.83625" lon="0.22656">
        <ele>2174</ele>
        <time>2012-02-23T10:23:55Z</time>
      </trkpt>
      <trkpt lat="42.83625" lon="0.22654">
        <ele>2173</ele>
        <time>2012-02-23T10:24:22Z</time>
      </trkpt>
      <trkpt lat="42.83623" lon="0.22652">
        <ele>2173</ele>
        <time>2012-02-23T10:24:35Z</time>
      </trkpt>
      <trkpt lat="42.83622" lon="0.22651">
        <ele>2172</ele>
        <time>2012-02-23T10:24:43Z</time>
      </trkpt>
      <trkpt lat="42.83621" lon="0.22649">
        <ele>2171</ele>
        <time>2012-02-23T10:25:19Z</time>
      </trkpt>
      <trkpt lat="42.8362" lon="0.22648">
        <ele>2171</ele>
        <time>2012-02-23T10:25:26Z</time>
      </trkpt>
      <trkpt lat="42.8362" lon="0.22646">
        <ele>2171</ele>
        <time>2012-02-23T10:25:30Z</time>
      </trkpt>
      <trkpt lat="42.83619" lon="0.22644">
        <ele>2171</ele>
        <time>2012-02-23T10:25:33Z</time>
      </trkpt>
      <trkpt lat="42.83618" lon="0.22643">
        <ele>2171</ele>
        <time>2012-02-23T10:25:36Z</time>
      </trkpt>
      <trkpt lat="42.83618" lon="0.22641">
        <ele>2171</ele>
        <time>2012-02-23T10:25:40Z</time>
      </trkpt>
      <trkpt lat="42.83617" lon="0.22639">
        <ele>2170</ele>
        <time>2012-02-23T10:25:47Z</time>
      </trkpt>
      <trkpt lat="42.83616" lon="0.22638">
        <ele>2170</ele>
        <time>2012-02-23T10:25:54Z</time>
      </trkpt>
      <trkpt lat="42.83616" lon="0.22637">
        <ele>2170</ele>
        <time>2012-02-23T10:25:58Z</time>
      </trkpt>
      <trkpt lat="42.83615" lon="0.22635">
        <ele>2170</ele>
        <time>2012-02-23T10:26:03Z</time>
      </trkpt>
      <trkpt lat="42.83614" lon="0.22633">
        <ele>2170</ele>
        <time>2012-02-23T10:26:07Z</time>
      </trkpt>
      <trkpt lat="42.83613" lon="0.22632">
        <ele>2170</ele>
        <time>2012-02-23T10:26:12Z</time>
      </trkpt>
      <trkpt lat="42.83613" lon="0.2263">
        <ele>2170</ele>
        <time>2012-02-23T10:26:17Z</time>
      </trkpt>
      <trkpt lat="42.83612" lon="0.22629">
        <ele>2170</ele>
        <time>2012-02-23T10:26:24Z</time>
      </trkpt>
      <trkpt lat="42.83611" lon="0.22627">
        <ele>2170</ele>
        <time>2012-02-23T10:26:33Z</time>
      </trkpt>
      <trkpt lat="42.83611" lon="0.22625">
        <ele>2170</ele>
        <time>2012-02-23T10:26:37Z</time>
      </trkpt>
      <trkpt lat="42.8361" lon="0.22624">
        <ele>2170</ele>
        <time>2012-02-23T10:26:41Z</time>
      </trkpt>
      <trkpt lat="42.8361" lon="0.22622">
        <ele>2170</ele>
        <time>2012-02-23T10:26:47Z</time>
      </trkpt>
      <trkpt lat="42.8361" lon="0.22621">
        <ele>2170</ele>
        <time>2012-02-23T10:26:53Z</time>
      </trkpt>
      <trkpt lat="42.8361" lon="0.22619">
        <ele>2170</ele>
        <time>2012-02-23T10:26:58Z</time>
      </trkpt>
      <trkpt lat="42.8361" lon="0.22617">
        <ele>2170</ele>
        <time>2012-02-23T10:27:03Z</time>
      </trkpt>
      <trkpt lat="42.8361" lon="0.22616">
        <ele>2170</ele>
        <time>2012-02-23T10:27:10Z</time>
      </trkpt>
      <trkpt lat="42.83612" lon="0.22614">
        <ele>2170</ele>
        <time>2012-02-23T10:27:13Z</time>
      </trkpt>
      <trkpt lat="42.83612" lon="0.22612">
        <ele>2170</ele>
        <time>2012-02-23T10:27:16Z</time>
      </trkpt>
      <trkpt lat="42.83614" lon="0.22612">
        <ele>2170</ele>
        <time>2012-02-23T10:27:20Z</time>
      </trkpt>
      <trkpt lat="42.83617" lon="0.2261">
        <ele>2170</ele>
        <time>2012-02-23T10:27:23Z</time>
      </trkpt>
      <trkpt lat="42.83625" lon="0.22606">
        <ele>2170</ele>
        <time>2012-02-23T10:27:26Z</time>
      </trkpt>
      <trkpt lat="42.83633" lon="0.22603">
        <ele>2170</ele>
        <time>2012-02-23T10:27:29Z</time>
      </trkpt>
      <trkpt lat="42.83641" lon="0.226">
        <ele>2170</ele>
        <time>2012-02-23T10:27:32Z</time>
      </trkpt>
      <trkpt lat="42.8365" lon="0.22597">
        <ele>2171</ele>
        <time>2012-02-23T10:27:35Z</time>
      </trkpt>
      <trkpt lat="42.83658" lon="0.22593">
        <ele>2172</ele>
        <time>2012-02-23T10:27:38Z</time>
      </trkpt>
      <trkpt lat="42.83667" lon="0.2259">
        <ele>2173</ele>
        <time>2012-02-23T10:27:41Z</time>
      </trkpt>
      <trkpt lat="42.83675" lon="0.22587">
        <ele>2174</ele>
        <time>2012-02-23T10:27:44Z</time>
      </trkpt>
      <trkpt lat="42.83683" lon="0.22583">
        <ele>2175</ele>
        <time>2012-02-23T10:27:47Z</time>
      </trkpt>
      <trkpt lat="42.83691" lon="0.2258">
        <ele>2176</ele>
        <time>2012-02-23T10:27:50Z</time>
      </trkpt>
      <trkpt lat="42.83699" lon="0.22577">
        <ele>2178</ele>
        <time>2012-02-23T10:27:53Z</time>
      </trkpt>
      <trkpt lat="42.83708" lon="0.22573">
        <ele>2179</ele>
        <time>2012-02-23T10:27:56Z</time>
      </trkpt>
      <trkpt lat="42.83716" lon="0.2257">
        <ele>2181</ele>
        <time>2012-02-23T10:27:59Z</time>
      </trkpt>
      <trkpt lat="42.83724" lon="0.22567">
        <ele>2182</ele>
        <time>2012-02-23T10:28:02Z</time>
      </trkpt>
      <trkpt lat="42.83732" lon="0.22564">
        <ele>2184</ele>
        <time>2012-02-23T10:28:05Z</time>
      </trkpt>
      <trkpt lat="42.8374" lon="0.22561">
        <ele>2186</ele>
        <time>2012-02-23T10:28:08Z</time>
      </trkpt>
      <trkpt lat="42.83749" lon="0.22558">
        <ele>2188</ele>
        <time>2012-02-23T10:28:11Z</time>
      </trkpt>
      <trkpt lat="42.83757" lon="0.22556">
        <ele>2190</ele>
        <time>2012-02-23T10:28:14Z</time>
      </trkpt>
      <trkpt lat="42.83765" lon="0.22553">
        <ele>2192</ele>
        <time>2012-02-23T10:28:17Z</time>
      </trkpt>
      <trkpt lat="42.83773" lon="0.2255">
        <ele>2195</ele>
        <time>2012-02-23T10:28:20Z</time>
      </trkpt>
      <trkpt lat="42.83781" lon="0.22546">
        <ele>2197</ele>
        <time>2012-02-23T10:28:23Z</time>
      </trkpt>
      <trkpt lat="42.83789" lon="0.22544">
        <ele>2200</ele>
        <time>2012-02-23T10:28:26Z</time>
      </trkpt>
      <trkpt lat="42.83796" lon="0.22541">
        <ele>2203</ele>
        <time>2012-02-23T10:28:29Z</time>
      </trkpt>
      <trkpt lat="42.83803" lon="0.22538">
        <ele>2206</ele>
        <time>2012-02-23T10:28:32Z</time>
      </trkpt>
      <trkpt lat="42.83811" lon="0.22535">
        <ele>2209</ele>
        <time>2012-02-23T10:28:35Z</time>
      </trkpt>
      <trkpt lat="42.83819" lon="0.22532">
        <ele>2212</ele>
        <time>2012-02-23T10:28:38Z</time>
      </trkpt>
      <trkpt lat="42.83826" lon="0.22529">
        <ele>2215</ele>
        <time>2012-02-23T10:28:41Z</time>
      </trkpt>
      <trkpt lat="42.83833" lon="0.22526">
        <ele>2218</ele>
        <time>2012-02-23T10:28:44Z</time>
      </trkpt>
      <trkpt lat="42.83841" lon="0.22524">
        <ele>2221</ele>
        <time>2012-02-23T10:28:47Z</time>
      </trkpt>
      <trkpt lat="42.83849" lon="0.22521">
        <ele>2224</ele>
        <time>2012-02-23T10:28:50Z</time>
      </trkpt>
      <trkpt lat="42.83856" lon="0.22518">
        <ele>2227</ele>
        <time>2012-02-23T10:28:53Z</time>
      </trkpt>
      <trkpt lat="42.83863" lon="0.22514">
        <ele>2230</ele>
        <time>2012-02-23T10:28:56Z</time>
      </trkpt>
      <trkpt lat="42.83871" lon="0.22511">
        <ele>2233</ele>
        <time>2012-02-23T10:28:59Z</time>
      </trkpt>
      <trkpt lat="42.8388" lon="0.22507">
        <ele>2235</ele>
        <time>2012-02-23T10:29:02Z</time>
      </trkpt>
      <trkpt lat="42.8389" lon="0.22502">
        <ele>2236</ele>
        <time>2012-02-23T10:29:05Z</time>
      </trkpt>
      <trkpt lat="42.83902" lon="0.22498">
        <ele>2236</ele>
        <time>2012-02-23T10:29:08Z</time>
      </trkpt>
      <trkpt lat="42.83911" lon="0.22494">
        <ele>2236</ele>
        <time>2012-02-23T10:29:11Z</time>
      </trkpt>
      <trkpt lat="42.83916" lon="0.22492">
        <ele>2236</ele>
        <time>2012-02-23T10:29:15Z</time>
      </trkpt>
      <trkpt lat="42.83925" lon="0.2249">
        <ele>2236</ele>
        <time>2012-02-23T10:29:18Z</time>
      </trkpt>
      <trkpt lat="42.83933" lon="0.22487">
        <ele>2236</ele>
        <time>2012-02-23T10:29:21Z</time>
      </trkpt>
      <trkpt lat="42.83941" lon="0.22483">
        <ele>2236</ele>
        <time>2012-02-23T10:29:24Z</time>
      </trkpt>
      <trkpt lat="42.8395" lon="0.2248">
        <ele>2236</ele>
        <time>2012-02-23T10:29:27Z</time>
      </trkpt>
      <trkpt lat="42.83958" lon="0.22477">
        <ele>2236</ele>
        <time>2012-02-23T10:29:30Z</time>
      </trkpt>
      <trkpt lat="42.83965" lon="0.22474">
        <ele>2236</ele>
        <time>2012-02-23T10:29:33Z</time>
      </trkpt>
      <trkpt lat="42.83972" lon="0.22471">
        <ele>2236</ele>
        <time>2012-02-23T10:29:36Z</time>
      </trkpt>
      <trkpt lat="42.8398" lon="0.22468">
        <ele>2237</ele>
        <time>2012-02-23T10:29:39Z</time>
      </trkpt>
      <trkpt lat="42.83988" lon="0.22465">
        <ele>2239</ele>
        <time>2012-02-23T10:29:42Z</time>
      </trkpt>
      <trkpt lat="42.83995" lon="0.22462">
        <ele>2241</ele>
        <time>2012-02-23T10:29:45Z</time>
      </trkpt>
      <trkpt lat="42.84003" lon="0.22459">
        <ele>2243</ele>
        <time>2012-02-23T10:29:48Z</time>
      </trkpt>
      <trkpt lat="42.84011" lon="0.22456">
        <ele>2245</ele>
        <time>2012-02-23T10:29:51Z</time>
      </trkpt>
      <trkpt lat="42.84019" lon="0.22453">
        <ele>2246</ele>
        <time>2012-02-23T10:29:54Z</time>
      </trkpt>
      <trkpt lat="42.84028" lon="0.2245">
        <ele>2248</ele>
        <time>2012-02-23T10:29:57Z</time>
      </trkpt>
      <trkpt lat="42.84035" lon="0.22446">
        <ele>2249</ele>
        <time>2012-02-23T10:30:00Z</time>
      </trkpt>
      <trkpt lat="42.84043" lon="0.22443">
        <ele>2250</ele>
        <time>2012-02-23T10:30:03Z</time>
      </trkpt>
      <trkpt lat="42.84051" lon="0.2244">
        <ele>2251</ele>
        <time>2012-02-23T10:30:06Z</time>
      </trkpt>
      <trkpt lat="42.84059" lon="0.22436">
        <ele>2252</ele>
        <time>2012-02-23T10:30:09Z</time>
      </trkpt>
      <trkpt lat="42.84067" lon="0.22433">
        <ele>2252</ele>
        <time>2012-02-23T10:30:12Z</time>
      </trkpt>
      <trkpt lat="42.84075" lon="0.22431">
        <ele>2253</ele>
        <time>2012-02-23T10:30:15Z</time>
      </trkpt>
      <trkpt lat="42.84083" lon="0.22427">
        <ele>2254</ele>
        <time>2012-02-23T10:30:18Z</time>
      </trkpt>
      <trkpt lat="42.84091" lon="0.22424">
        <ele>2254</ele>
        <time>2012-02-23T10:30:21Z</time>
      </trkpt>
      <trkpt lat="42.841" lon="0.2242">
        <ele>2255</ele>
        <time>2012-02-23T10:30:24Z</time>
      </trkpt>
      <trkpt lat="42.84108" lon="0.22417">
        <ele>2255</ele>
        <time>2012-02-23T10:30:27Z</time>
      </trkpt>
      <trkpt lat="42.84117" lon="0.22413">
        <ele>2255</ele>
        <time>2012-02-23T10:30:30Z</time>
      </trkpt>
      <trkpt lat="42.84125" lon="0.2241">
        <ele>2255</ele>
        <time>2012-02-23T10:30:33Z</time>
      </trkpt>
      <trkpt lat="42.84134" lon="0.22407">
        <ele>2256</ele>
        <time>2012-02-23T10:30:36Z</time>
      </trkpt>
      <trkpt lat="42.84141" lon="0.22404">
        <ele>2256</ele>
        <time>2012-02-23T10:30:39Z</time>
      </trkpt>
      <trkpt lat="42.84149" lon="0.224">
        <ele>2257</ele>
        <time>2012-02-23T10:30:42Z</time>
      </trkpt>
      <trkpt lat="42.84157" lon="0.22398">
        <ele>2258</ele>
        <time>2012-02-23T10:30:45Z</time>
      </trkpt>
      <trkpt lat="42.84166" lon="0.22395">
        <ele>2259</ele>
        <time>2012-02-23T10:30:48Z</time>
      </trkpt>
      <trkpt lat="42.84173" lon="0.22391">
        <ele>2260</ele>
        <time>2012-02-23T10:30:51Z</time>
      </trkpt>
      <trkpt lat="42.84181" lon="0.22388">
        <ele>2261</ele>
        <time>2012-02-23T10:30:54Z</time>
      </trkpt>
      <trkpt lat="42.84189" lon="0.22384">
        <ele>2263</ele>
        <time>2012-02-23T10:30:57Z</time>
      </trkpt>
      <trkpt lat="42.84197" lon="0.2238">
        <ele>2264</ele>
        <time>2012-02-23T10:31:00Z</time>
      </trkpt>
      <trkpt lat="42.84205" lon="0.22377">
        <ele>2265</ele>
        <time>2012-02-23T10:31:03Z</time>
      </trkpt>
      <trkpt lat="42.84213" lon="0.22373">
        <ele>2265</ele>
        <time>2012-02-23T10:31:06Z</time>
      </trkpt>
      <trkpt lat="42.84221" lon="0.2237">
        <ele>2265</ele>
        <time>2012-02-23T10:31:09Z</time>
      </trkpt>
      <trkpt lat="42.8423" lon="0.22367">
        <ele>2265</ele>
        <time>2012-02-23T10:31:12Z</time>
      </trkpt>
      <trkpt lat="42.84239" lon="0.22364">
        <ele>2265</ele>
        <time>2012-02-23T10:31:15Z</time>
      </trkpt>
      <trkpt lat="42.84249" lon="0.22361">
        <ele>2265</ele>
        <time>2012-02-23T10:31:18Z</time>
      </trkpt>
      <trkpt lat="42.84257" lon="0.22357">
        <ele>2265</ele>
        <time>2012-02-23T10:31:21Z</time>
      </trkpt>
      <trkpt lat="42.84263" lon="0.22355">
        <ele>2265</ele>
        <time>2012-02-23T10:31:24Z</time>
      </trkpt>
      <trkpt lat="42.84272" lon="0.22352">
        <ele>2265</ele>
        <time>2012-02-23T10:31:27Z</time>
      </trkpt>
      <trkpt lat="42.8428" lon="0.22349">
        <ele>2265</ele>
        <time>2012-02-23T10:31:30Z</time>
      </trkpt>
      <trkpt lat="42.84288" lon="0.22345">
        <ele>2265</ele>
        <time>2012-02-23T10:31:33Z</time>
      </trkpt>
      <trkpt lat="42.84294" lon="0.22343">
        <ele>2266</ele>
        <time>2012-02-23T10:31:36Z</time>
      </trkpt>
      <trkpt lat="42.84297" lon="0.22343">
        <ele>2267</ele>
        <time>2012-02-23T10:32:11Z</time>
      </trkpt>
      <trkpt lat="42.84301" lon="0.22341">
        <ele>2267</ele>
        <time>2012-02-23T10:32:14Z</time>
      </trkpt>
      <trkpt lat="42.84307" lon="0.22339">
        <ele>2267</ele>
        <time>2012-02-23T10:32:17Z</time>
      </trkpt>
      <trkpt lat="42.84314" lon="0.22335">
        <ele>2268</ele>
        <time>2012-02-23T10:32:20Z</time>
      </trkpt>
      <trkpt lat="42.84323" lon="0.22332">
        <ele>2268</ele>
        <time>2012-02-23T10:32:23Z</time>
      </trkpt>
      <trkpt lat="42.8433" lon="0.22328">
        <ele>2269</ele>
        <time>2012-02-23T10:32:26Z</time>
      </trkpt>
      <trkpt lat="42.84338" lon="0.22325">
        <ele>2270</ele>
        <time>2012-02-23T10:32:29Z</time>
      </trkpt>
      <trkpt lat="42.84346" lon="0.22322">
        <ele>2272</ele>
        <time>2012-02-23T10:32:32Z</time>
      </trkpt>
      <trkpt lat="42.84354" lon="0.22319">
        <ele>2273</ele>
        <time>2012-02-23T10:32:35Z</time>
      </trkpt>
      <trkpt lat="42.84362" lon="0.22316">
        <ele>2275</ele>
        <time>2012-02-23T10:32:38Z</time>
      </trkpt>
      <trkpt lat="42.8437" lon="0.22312">
        <ele>2276</ele>
        <time>2012-02-23T10:32:41Z</time>
      </trkpt>
      <trkpt lat="42.84377" lon="0.22309">
        <ele>2278</ele>
        <time>2012-02-23T10:32:44Z</time>
      </trkpt>
      <trkpt lat="42.84386" lon="0.22307">
        <ele>2280</ele>
        <time>2012-02-23T10:32:47Z</time>
      </trkpt>
      <trkpt lat="42.84393" lon="0.22304">
        <ele>2283</ele>
        <time>2012-02-23T10:32:50Z</time>
      </trkpt>
      <trkpt lat="42.84401" lon="0.223">
        <ele>2286</ele>
        <time>2012-02-23T10:32:53Z</time>
      </trkpt>
      <trkpt lat="42.84408" lon="0.22297">
        <ele>2289</ele>
        <time>2012-02-23T10:32:56Z</time>
      </trkpt>
      <trkpt lat="42.84415" lon="0.22294">
        <ele>2292</ele>
        <time>2012-02-23T10:32:59Z</time>
      </trkpt>
      <trkpt lat="42.84423" lon="0.22291">
        <ele>2295</ele>
        <time>2012-02-23T10:33:02Z</time>
      </trkpt>
      <trkpt lat="42.84431" lon="0.22288">
        <ele>2298</ele>
        <time>2012-02-23T10:33:05Z</time>
      </trkpt>
      <trkpt lat="42.84438" lon="0.22285">
        <ele>2301</ele>
        <time>2012-02-23T10:33:08Z</time>
      </trkpt>
      <trkpt lat="42.84446" lon="0.22282">
        <ele>2303</ele>
        <time>2012-02-23T10:33:11Z</time>
      </trkpt>
      <trkpt lat="42.84454" lon="0.2228">
        <ele>2304</ele>
        <time>2012-02-23T10:33:14Z</time>
      </trkpt>
      <trkpt lat="42.84462" lon="0.22277">
        <ele>2306</ele>
        <time>2012-02-23T10:33:17Z</time>
      </trkpt>
      <trkpt lat="42.8447" lon="0.22273">
        <ele>2307</ele>
        <time>2012-02-23T10:33:20Z</time>
      </trkpt>
      <trkpt lat="42.84478" lon="0.2227">
        <ele>2308</ele>
        <time>2012-02-23T10:33:23Z</time>
      </trkpt>
      <trkpt lat="42.84487" lon="0.22267">
        <ele>2308</ele>
        <time>2012-02-23T10:33:26Z</time>
      </trkpt>
      <trkpt lat="42.84495" lon="0.22263">
        <ele>2308</ele>
        <time>2012-02-23T10:33:29Z</time>
      </trkpt>
      <trkpt lat="42.84504" lon="0.2226">
        <ele>2309</ele>
        <time>2012-02-23T10:33:32Z</time>
      </trkpt>
      <trkpt lat="42.84512" lon="0.22257">
        <ele>2309</ele>
        <time>2012-02-23T10:33:35Z</time>
      </trkpt>
      <trkpt lat="42.84519" lon="0.22254">
        <ele>2310</ele>
        <time>2012-02-23T10:33:38Z</time>
      </trkpt>
      <trkpt lat="42.84527" lon="0.22251">
        <ele>2312</ele>
        <time>2012-02-23T10:33:41Z</time>
      </trkpt>
      <trkpt lat="42.84535" lon="0.22248">
        <ele>2315</ele>
        <time>2012-02-23T10:33:44Z</time>
      </trkpt>
      <trkpt lat="42.84542" lon="0.22245">
        <ele>2318</ele>
        <time>2012-02-23T10:33:47Z</time>
      </trkpt>
      <trkpt lat="42.8455" lon="0.22242">
        <ele>2321</ele>
        <time>2012-02-23T10:33:50Z</time>
      </trkpt>
      <trkpt lat="42.84557" lon="0.22239">
        <ele>2324</ele>
        <time>2012-02-23T10:33:53Z</time>
      </trkpt>
      <trkpt lat="42.84565" lon="0.22236">
        <ele>2327</ele>
        <time>2012-02-23T10:33:56Z</time>
      </trkpt>
      <trkpt lat="42.84572" lon="0.22233">
        <ele>2330</ele>
        <time>2012-02-23T10:33:59Z</time>
      </trkpt>
      <trkpt lat="42.84579" lon="0.22231">
        <ele>2333</ele>
        <time>2012-02-23T10:34:02Z</time>
      </trkpt>
      <trkpt lat="42.84587" lon="0.22228">
        <ele>2336</ele>
        <time>2012-02-23T10:34:05Z</time>
      </trkpt>
      <trkpt lat="42.84596" lon="0.22224">
        <ele>2339</ele>
        <time>2012-02-23T10:34:08Z</time>
      </trkpt>
      <trkpt lat="42.84605" lon="0.22221">
        <ele>2340</ele>
        <time>2012-02-23T10:34:11Z</time>
      </trkpt>
      <trkpt lat="42.84614" lon="0.22217">
        <ele>2340</ele>
        <time>2012-02-23T10:34:14Z</time>
      </trkpt>
      <trkpt lat="42.84622" lon="0.22214">
        <ele>2340</ele>
        <time>2012-02-23T10:34:17Z</time>
      </trkpt>
      <trkpt lat="42.84629" lon="0.22211">
        <ele>2341</ele>
        <time>2012-02-23T10:34:20Z</time>
      </trkpt>
      <trkpt lat="42.84637" lon="0.22208">
        <ele>2342</ele>
        <time>2012-02-23T10:34:23Z</time>
      </trkpt>
      <trkpt lat="42.84645" lon="0.22204">
        <ele>2343</ele>
        <time>2012-02-23T10:34:26Z</time>
      </trkpt>
      <trkpt lat="42.84654" lon="0.22201">
        <ele>2344</ele>
        <time>2012-02-23T10:34:29Z</time>
      </trkpt>
      <trkpt lat="42.84662" lon="0.22198">
        <ele>2346</ele>
        <time>2012-02-23T10:34:32Z</time>
      </trkpt>
      <trkpt lat="42.8467" lon="0.22195">
        <ele>2347</ele>
        <time>2012-02-23T10:34:35Z</time>
      </trkpt>
      <trkpt lat="42.84678" lon="0.22191">
        <ele>2349</ele>
        <time>2012-02-23T10:34:38Z</time>
      </trkpt>
      <trkpt lat="42.84686" lon="0.22188">
        <ele>2350</ele>
        <time>2012-02-23T10:34:41Z</time>
      </trkpt>
      <trkpt lat="42.84693" lon="0.22185">
        <ele>2353</ele>
        <time>2012-02-23T10:34:44Z</time>
      </trkpt>
      <trkpt lat="42.84701" lon="0.22182">
        <ele>2356</ele>
        <time>2012-02-23T10:34:47Z</time>
      </trkpt>
      <trkpt lat="42.84708" lon="0.22179">
        <ele>2359</ele>
        <time>2012-02-23T10:34:50Z</time>
      </trkpt>
      <trkpt lat="42.84716" lon="0.22176">
        <ele>2362</ele>
        <time>2012-02-23T10:34:53Z</time>
      </trkpt>
      <trkpt lat="42.84723" lon="0.22173">
        <ele>2365</ele>
        <time>2012-02-23T10:34:56Z</time>
      </trkpt>
      <trkpt lat="42.8473" lon="0.2217">
        <ele>2368</ele>
        <time>2012-02-23T10:34:59Z</time>
      </trkpt>
      <trkpt lat="42.84737" lon="0.22167">
        <ele>2371</ele>
        <time>2012-02-23T10:35:02Z</time>
      </trkpt>
      <trkpt lat="42.84745" lon="0.22165">
        <ele>2374</ele>
        <time>2012-02-23T10:35:05Z</time>
      </trkpt>
      <trkpt lat="42.84752" lon="0.22162">
        <ele>2377</ele>
        <time>2012-02-23T10:35:08Z</time>
      </trkpt>
      <trkpt lat="42.8476" lon="0.22159">
        <ele>2380</ele>
        <time>2012-02-23T10:35:11Z</time>
      </trkpt>
      <trkpt lat="42.84767" lon="0.22156">
        <ele>2384</ele>
        <time>2012-02-23T10:35:14Z</time>
      </trkpt>
      <trkpt lat="42.84775" lon="0.22153">
        <ele>2387</ele>
        <time>2012-02-23T10:35:17Z</time>
      </trkpt>
      <trkpt lat="42.84783" lon="0.22149">
        <ele>2390</ele>
        <time>2012-02-23T10:35:20Z</time>
      </trkpt>
      <trkpt lat="42.84792" lon="0.22145">
        <ele>2393</ele>
        <time>2012-02-23T10:35:23Z</time>
      </trkpt>
      <trkpt lat="42.848" lon="0.22142">
        <ele>2394</ele>
        <time>2012-02-23T10:35:26Z</time>
      </trkpt>
      <trkpt lat="42.84809" lon="0.22138">
        <ele>2395</ele>
        <time>2012-02-23T10:35:29Z</time>
      </trkpt>
      <trkpt lat="42.84817" lon="0.22135">
        <ele>2395</ele>
        <time>2012-02-23T10:35:32Z</time>
      </trkpt>
      <trkpt lat="42.84825" lon="0.22132">
        <ele>2396</ele>
        <time>2012-02-23T10:35:35Z</time>
      </trkpt>
      <trkpt lat="42.84833" lon="0.22129">
        <ele>2397</ele>
        <time>2012-02-23T10:35:38Z</time>
      </trkpt>
      <trkpt lat="42.84841" lon="0.22126">
        <ele>2398</ele>
        <time>2012-02-23T10:35:41Z</time>
      </trkpt>
      <trkpt lat="42.84849" lon="0.22122">
        <ele>2399</ele>
        <time>2012-02-23T10:35:44Z</time>
      </trkpt>
      <trkpt lat="42.84857" lon="0.22119">
        <ele>2400</ele>
        <time>2012-02-23T10:35:47Z</time>
      </trkpt>
      <trkpt lat="42.84865" lon="0.22117">
        <ele>2401</ele>
        <time>2012-02-23T10:35:50Z</time>
      </trkpt>
      <trkpt lat="42.84873" lon="0.22114">
        <ele>2402</ele>
        <time>2012-02-23T10:35:53Z</time>
      </trkpt>
      <trkpt lat="42.84882" lon="0.2211">
        <ele>2403</ele>
        <time>2012-02-23T10:35:56Z</time>
      </trkpt>
      <trkpt lat="42.8489" lon="0.22108">
        <ele>2404</ele>
        <time>2012-02-23T10:35:59Z</time>
      </trkpt>
      <trkpt lat="42.84899" lon="0.22104">
        <ele>2406</ele>
        <time>2012-02-23T10:36:02Z</time>
      </trkpt>
      <trkpt lat="42.84907" lon="0.22101">
        <ele>2408</ele>
        <time>2012-02-23T10:36:05Z</time>
      </trkpt>
      <trkpt lat="42.84914" lon="0.22098">
        <ele>2411</ele>
        <time>2012-02-23T10:36:08Z</time>
      </trkpt>
      <trkpt lat="42.84921" lon="0.22095">
        <ele>2414</ele>
        <time>2012-02-23T10:36:11Z</time>
      </trkpt>
      <trkpt lat="42.84929" lon="0.22092">
        <ele>2417</ele>
        <time>2012-02-23T10:36:14Z</time>
      </trkpt>
      <trkpt lat="42.84936" lon="0.22089">
        <ele>2420</ele>
        <time>2012-02-23T10:36:17Z</time>
      </trkpt>
      <trkpt lat="42.84943" lon="0.22087">
        <ele>2423</ele>
        <time>2012-02-23T10:36:20Z</time>
      </trkpt>
      <trkpt lat="42.84951" lon="0.22084">
        <ele>2426</ele>
        <time>2012-02-23T10:36:23Z</time>
      </trkpt>
      <trkpt lat="42.84959" lon="0.22082">
        <ele>2429</ele>
        <time>2012-02-23T10:36:26Z</time>
      </trkpt>
      <trkpt lat="42.84966" lon="0.22079">
        <ele>2432</ele>
        <time>2012-02-23T10:36:29Z</time>
      </trkpt>
      <trkpt lat="42.84974" lon="0.22076">
        <ele>2435</ele>
        <time>2012-02-23T10:36:32Z</time>
      </trkpt>
      <trkpt lat="42.84981" lon="0.22073">
        <ele>2438</ele>
        <time>2012-02-23T10:36:35Z</time>
      </trkpt>
      <trkpt lat="42.84989" lon="0.2207">
        <ele>2441</ele>
        <time>2012-02-23T10:36:38Z</time>
      </trkpt>
      <trkpt lat="42.84997" lon="0.22068">
        <ele>2444</ele>
        <time>2012-02-23T10:36:41Z</time>
      </trkpt>
      <trkpt lat="42.85005" lon="0.22065">
        <ele>2447</ele>
        <time>2012-02-23T10:36:44Z</time>
      </trkpt>
      <trkpt lat="42.85013" lon="0.22062">
        <ele>2450</ele>
        <time>2012-02-23T10:36:47Z</time>
      </trkpt>
      <trkpt lat="42.8502" lon="0.22059">
        <ele>2453</ele>
        <time>2012-02-23T10:36:50Z</time>
      </trkpt>
      <trkpt lat="42.85029" lon="0.22058">
        <ele>2456</ele>
        <time>2012-02-23T10:36:53Z</time>
      </trkpt>
      <trkpt lat="42.85035" lon="0.22062">
        <ele>2459</ele>
        <time>2012-02-23T10:36:56Z</time>
      </trkpt>
      <trkpt lat="42.85037" lon="0.22064">
        <ele>2464</ele>
        <time>2012-02-23T10:37:01Z</time>
      </trkpt>
      <trkpt lat="42.85037" lon="0.22066">
        <ele>2464</ele>
        <time>2012-02-23T10:37:04Z</time>
      </trkpt>
      <trkpt lat="42.85037" lon="0.22068">
        <ele>2464</ele>
        <time>2012-02-23T10:37:17Z</time>
      </trkpt>
      <trkpt lat="42.85038" lon="0.22069">
        <ele>2464</ele>
        <time>2012-02-23T10:37:44Z</time>
      </trkpt>
      <trkpt lat="42.8504" lon="0.22074">
        <ele>2464</ele>
        <time>2012-02-23T10:37:48Z</time>
      </trkpt>
      <trkpt lat="42.85041" lon="0.22079">
        <ele>2464</ele>
        <time>2012-02-23T10:37:51Z</time>
      </trkpt>
      <trkpt lat="42.85041" lon="0.22084">
        <ele>2464</ele>
        <time>2012-02-23T10:37:54Z</time>
      </trkpt>
      <trkpt lat="42.85042" lon="0.22092">
        <ele>2464</ele>
        <time>2012-02-23T10:37:57Z</time>
      </trkpt>
      <trkpt lat="42.85043" lon="0.22099">
        <ele>2464</ele>
        <time>2012-02-23T10:38:00Z</time>
      </trkpt>
      <trkpt lat="42.85046" lon="0.22104">
        <ele>2464</ele>
        <time>2012-02-23T10:38:03Z</time>
      </trkpt>
      <trkpt lat="42.85047" lon="0.2211">
        <ele>2464</ele>
        <time>2012-02-23T10:38:06Z</time>
      </trkpt>
      <trkpt lat="42.85049" lon="0.22117">
        <ele>2464</ele>
        <time>2012-02-23T10:38:09Z</time>
      </trkpt>
      <trkpt lat="42.85053" lon="0.22125">
        <ele>2464</ele>
        <time>2012-02-23T10:38:12Z</time>
      </trkpt>
      <trkpt lat="42.85059" lon="0.22134">
        <ele>2464</ele>
        <time>2012-02-23T10:38:15Z</time>
      </trkpt>
      <trkpt lat="42.85066" lon="0.22146">
        <ele>2464</ele>
        <time>2012-02-23T10:38:18Z</time>
      </trkpt>
      <trkpt lat="42.85077" lon="0.22173">
        <ele>2464</ele>
        <time>2012-02-23T10:38:21Z</time>
      </trkpt>
      <trkpt lat="42.85085" lon="0.22199">
        <ele>2461</ele>
        <time>2012-02-23T10:38:24Z</time>
      </trkpt>
      <trkpt lat="42.85088" lon="0.2222">
        <ele>2460</ele>
        <time>2012-02-23T10:38:27Z</time>
      </trkpt>
      <trkpt lat="42.85089" lon="0.22238">
        <ele>2460</ele>
        <time>2012-02-23T10:38:30Z</time>
      </trkpt>
      <trkpt lat="42.85089" lon="0.22255">
        <ele>2459</ele>
        <time>2012-02-23T10:38:33Z</time>
      </trkpt>
      <trkpt lat="42.8509" lon="0.22271">
        <ele>2457</ele>
        <time>2012-02-23T10:38:36Z</time>
      </trkpt>
      <trkpt lat="42.85091" lon="0.22288">
        <ele>2455</ele>
        <time>2012-02-23T10:38:39Z</time>
      </trkpt>
      <trkpt lat="42.8509" lon="0.22307">
        <ele>2453</ele>
        <time>2012-02-23T10:38:42Z</time>
      </trkpt>
      <trkpt lat="42.85087" lon="0.22327">
        <ele>2451</ele>
        <time>2012-02-23T10:38:45Z</time>
      </trkpt>
      <trkpt lat="42.85083" lon="0.22352">
        <ele>2448</ele>
        <time>2012-02-23T10:38:48Z</time>
      </trkpt>
      <trkpt lat="42.8508" lon="0.2237">
        <ele>2447</ele>
        <time>2012-02-23T10:38:51Z</time>
      </trkpt>
      <trkpt lat="42.85079" lon="0.22378">
        <ele>2447</ele>
        <time>2012-02-23T10:38:54Z</time>
      </trkpt>
      <trkpt lat="42.8508" lon="0.22382">
        <ele>2447</ele>
        <time>2012-02-23T10:38:58Z</time>
      </trkpt>
      <trkpt lat="42.85081" lon="0.22386">
        <ele>2447</ele>
        <time>2012-02-23T10:39:02Z</time>
      </trkpt>
      <trkpt lat="42.85082" lon="0.22387">
        <ele>2447</ele>
        <time>2012-02-23T10:39:05Z</time>
      </trkpt>
      <trkpt lat="42.85083" lon="0.22388">
        <ele>2447</ele>
        <time>2012-02-23T10:39:08Z</time>
      </trkpt>
      <trkpt lat="42.85085" lon="0.22388">
        <ele>2447</ele>
        <time>2012-02-23T10:39:30Z</time>
      </trkpt>
      <trkpt lat="42.85085" lon="0.22386">
        <ele>2446</ele>
        <time>2012-02-23T10:39:39Z</time>
      </trkpt>
      <trkpt lat="42.85086" lon="0.22385">
        <ele>2444</ele>
        <time>2012-02-23T10:40:00Z</time>
      </trkpt>
      <trkpt lat="42.85087" lon="0.22384">
        <ele>2444</ele>
        <time>2012-02-23T10:40:51Z</time>
      </trkpt>
      <trkpt lat="42.85086" lon="0.22385">
        <ele>2444</ele>
        <time>2012-02-23T10:41:35Z</time>
      </trkpt>
      <trkpt lat="42.85085" lon="0.22386">
        <ele>2444</ele>
        <time>2012-02-23T10:42:13Z</time>
      </trkpt>
      <trkpt lat="42.85085" lon="0.22388">
        <ele>2443</ele>
        <time>2012-02-23T10:42:30Z</time>
      </trkpt>
      <trkpt lat="42.85085" lon="0.22389">
        <ele>2443</ele>
        <time>2012-02-23T10:42:33Z</time>
      </trkpt>
      <trkpt lat="42.85085" lon="0.22391">
        <ele>2443</ele>
        <time>2012-02-23T10:42:36Z</time>
      </trkpt>
      <trkpt lat="42.85086" lon="0.22389">
        <ele>2443</ele>
        <time>2012-02-23T10:42:43Z</time>
      </trkpt>
      <trkpt lat="42.85087" lon="0.22388">
        <ele>2443</ele>
        <time>2012-02-23T10:42:47Z</time>
      </trkpt>
      <trkpt lat="42.85088" lon="0.22387">
        <ele>2443</ele>
        <time>2012-02-23T10:42:50Z</time>
      </trkpt>
      <trkpt lat="42.85089" lon="0.22387">
        <ele>2443</ele>
        <time>2012-02-23T10:42:55Z</time>
      </trkpt>
      <trkpt lat="42.8509" lon="0.22385">
        <ele>2443</ele>
        <time>2012-02-23T10:42:59Z</time>
      </trkpt>
      <trkpt lat="42.85091" lon="0.22384">
        <ele>2443</ele>
        <time>2012-02-23T10:43:02Z</time>
      </trkpt>
      <trkpt lat="42.85093" lon="0.22383">
        <ele>2443</ele>
        <time>2012-02-23T10:43:10Z</time>
      </trkpt>
      <trkpt lat="42.85094" lon="0.22382">
        <ele>2443</ele>
        <time>2012-02-23T10:43:15Z</time>
      </trkpt>
      <trkpt lat="42.85095" lon="0.22381">
        <ele>2443</ele>
        <time>2012-02-23T10:43:45Z</time>
      </trkpt>
      <trkpt lat="42.85096" lon="0.22381">
        <ele>2443</ele>
        <time>2012-02-23T10:43:50Z</time>
      </trkpt>
      <trkpt lat="42.85097" lon="0.22382">
        <ele>2443</ele>
        <time>2012-02-23T10:43:53Z</time>
      </trkpt>
      <trkpt lat="42.85099" lon="0.22383">
        <ele>2443</ele>
        <time>2012-02-23T10:44:00Z</time>
      </trkpt>
      <trkpt lat="42.85099" lon="0.22386">
        <ele>2443</ele>
        <time>2012-02-23T10:44:05Z</time>
      </trkpt>
      <trkpt lat="42.85098" lon="0.2239">
        <ele>2443</ele>
        <time>2012-02-23T10:44:09Z</time>
      </trkpt>
      <trkpt lat="42.85095" lon="0.22394">
        <ele>2440</ele>
        <time>2012-02-23T10:44:13Z</time>
      </trkpt>
      <trkpt lat="42.85094" lon="0.22396">
        <ele>2439</ele>
        <time>2012-02-23T10:44:16Z</time>
      </trkpt>
      <trkpt lat="42.85094" lon="0.22401">
        <ele>2437</ele>
        <time>2012-02-23T10:44:19Z</time>
      </trkpt>
      <trkpt lat="42.85095" lon="0.22403">
        <ele>2434</ele>
        <time>2012-02-23T10:44:22Z</time>
      </trkpt>
      <trkpt lat="42.85093" lon="0.22408">
        <ele>2432</ele>
        <time>2012-02-23T10:44:26Z</time>
      </trkpt>
      <trkpt lat="42.85088" lon="0.22413">
        <ele>2429</ele>
        <time>2012-02-23T10:44:30Z</time>
      </trkpt>
      <trkpt lat="42.85089" lon="0.22415">
        <ele>2427</ele>
        <time>2012-02-23T10:44:33Z</time>
      </trkpt>
      <trkpt lat="42.85088" lon="0.22418">
        <ele>2424</ele>
        <time>2012-02-23T10:44:38Z</time>
      </trkpt>
      <trkpt lat="42.85086" lon="0.22422">
        <ele>2422</ele>
        <time>2012-02-23T10:44:41Z</time>
      </trkpt>
      <trkpt lat="42.85084" lon="0.22426">
        <ele>2421</ele>
        <time>2012-02-23T10:44:44Z</time>
      </trkpt>
      <trkpt lat="42.85082" lon="0.2243">
        <ele>2419</ele>
        <time>2012-02-23T10:44:48Z</time>
      </trkpt>
      <trkpt lat="42.8508" lon="0.22434">
        <ele>2418</ele>
        <time>2012-02-23T10:44:51Z</time>
      </trkpt>
      <trkpt lat="42.85078" lon="0.22439">
        <ele>2416</ele>
        <time>2012-02-23T10:44:54Z</time>
      </trkpt>
      <trkpt lat="42.85077" lon="0.22444">
        <ele>2415</ele>
        <time>2012-02-23T10:44:57Z</time>
      </trkpt>
      <trkpt lat="42.85074" lon="0.22453">
        <ele>2413</ele>
        <time>2012-02-23T10:45:00Z</time>
      </trkpt>
      <trkpt lat="42.85071" lon="0.22456">
        <ele>2409</ele>
        <time>2012-02-23T10:45:20Z</time>
      </trkpt>
      <trkpt lat="42.8507" lon="0.22457">
        <ele>2408</ele>
        <time>2012-02-23T10:47:23Z</time>
      </trkpt>
      <trkpt lat="42.8507" lon="0.22459">
        <ele>2408</ele>
        <time>2012-02-23T10:47:26Z</time>
      </trkpt>
      <trkpt lat="42.85069" lon="0.2246">
        <ele>2407</ele>
        <time>2012-02-23T10:47:31Z</time>
      </trkpt>
      <trkpt lat="42.85068" lon="0.22462">
        <ele>2407</ele>
        <time>2012-02-23T10:47:36Z</time>
      </trkpt>
      <trkpt lat="42.85068" lon="0.22464">
        <ele>2407</ele>
        <time>2012-02-23T10:47:54Z</time>
      </trkpt>
      <trkpt lat="42.85068" lon="0.22465">
        <ele>2407</ele>
        <time>2012-02-23T10:48:19Z</time>
      </trkpt>
      <trkpt lat="42.85069" lon="0.22465">
        <ele>2406</ele>
        <time>2012-02-23T10:50:17Z</time>
      </trkpt>
      <trkpt lat="42.85068" lon="0.22465">
        <ele>2406</ele>
        <time>2012-02-23T10:50:55Z</time>
      </trkpt>
      <trkpt lat="42.85067" lon="0.22465">
        <ele>2406</ele>
        <time>2012-02-23T10:51:02Z</time>
      </trkpt>
      <trkpt lat="42.85067" lon="0.22466">
        <ele>2406</ele>
        <time>2012-02-23T10:51:05Z</time>
      </trkpt>
      <trkpt lat="42.85067" lon="0.22468">
        <ele>2406</ele>
        <time>2012-02-23T10:51:09Z</time>
      </trkpt>
      <trkpt lat="42.85067" lon="0.22469">
        <ele>2406</ele>
        <time>2012-02-23T10:51:12Z</time>
      </trkpt>
      <trkpt lat="42.85065" lon="0.22468">
        <ele>2409</ele>
        <time>2012-02-23T10:51:19Z</time>
      </trkpt>
      <trkpt lat="42.85064" lon="0.22468">
        <ele>2409</ele>
        <time>2012-02-23T10:51:32Z</time>
      </trkpt>
      <trkpt lat="42.85071" lon="0.22471">
        <ele>2409</ele>
        <time>2012-02-23T10:51:35Z</time>
      </trkpt>
      <trkpt lat="42.85076" lon="0.22468">
        <ele>2409</ele>
        <time>2012-02-23T10:51:38Z</time>
      </trkpt>
      <trkpt lat="42.85082" lon="0.22467">
        <ele>2408</ele>
        <time>2012-02-23T10:51:41Z</time>
      </trkpt>
      <trkpt lat="42.85083" lon="0.22474">
        <ele>2406</ele>
        <time>2012-02-23T10:51:44Z</time>
      </trkpt>
      <trkpt lat="42.85076" lon="0.22489">
        <ele>2403</ele>
        <time>2012-02-23T10:51:47Z</time>
      </trkpt>
      <trkpt lat="42.85075" lon="0.22498">
        <ele>2400</ele>
        <time>2012-02-23T10:51:50Z</time>
      </trkpt>
      <trkpt lat="42.85081" lon="0.22495">
        <ele>2397</ele>
        <time>2012-02-23T10:51:53Z</time>
      </trkpt>
      <trkpt lat="42.85086" lon="0.22497">
        <ele>2394</ele>
        <time>2012-02-23T10:51:56Z</time>
      </trkpt>
      <trkpt lat="42.85088" lon="0.22506">
        <ele>2390</ele>
        <time>2012-02-23T10:52:00Z</time>
      </trkpt>
      <trkpt lat="42.85099" lon="0.22501">
        <ele>2387</ele>
        <time>2012-02-23T10:52:03Z</time>
      </trkpt>
      <trkpt lat="42.85105" lon="0.22499">
        <ele>2384</ele>
        <time>2012-02-23T10:52:06Z</time>
      </trkpt>
      <trkpt lat="42.85108" lon="0.22499">
        <ele>2381</ele>
        <time>2012-02-23T10:52:09Z</time>
      </trkpt>
      <trkpt lat="42.85112" lon="0.22496">
        <ele>2378</ele>
        <time>2012-02-23T10:52:12Z</time>
      </trkpt>
      <trkpt lat="42.85115" lon="0.22494">
        <ele>2375</ele>
        <time>2012-02-23T10:52:20Z</time>
      </trkpt>
      <trkpt lat="42.85117" lon="0.22493">
        <ele>2374</ele>
        <time>2012-02-23T10:52:24Z</time>
      </trkpt>
      <trkpt lat="42.8512" lon="0.22491">
        <ele>2373</ele>
        <time>2012-02-23T10:52:28Z</time>
      </trkpt>
      <trkpt lat="42.85124" lon="0.2249">
        <ele>2373</ele>
        <time>2012-02-23T10:52:31Z</time>
      </trkpt>
      <trkpt lat="42.85127" lon="0.22488">
        <ele>2372</ele>
        <time>2012-02-23T10:52:34Z</time>
      </trkpt>
      <trkpt lat="42.85132" lon="0.22485">
        <ele>2371</ele>
        <time>2012-02-23T10:52:37Z</time>
      </trkpt>
      <trkpt lat="42.85141" lon="0.22479">
        <ele>2370</ele>
        <time>2012-02-23T10:52:40Z</time>
      </trkpt>
      <trkpt lat="42.85149" lon="0.22475">
        <ele>2368</ele>
        <time>2012-02-23T10:52:43Z</time>
      </trkpt>
      <trkpt lat="42.85157" lon="0.22472">
        <ele>2366</ele>
        <time>2012-02-23T10:52:46Z</time>
      </trkpt>
      <trkpt lat="42.85161" lon="0.2247">
        <ele>2365</ele>
        <time>2012-02-23T10:52:49Z</time>
      </trkpt>
      <trkpt lat="42.85167" lon="0.22468">
        <ele>2364</ele>
        <time>2012-02-23T10:52:52Z</time>
      </trkpt>
      <trkpt lat="42.8517" lon="0.22467">
        <ele>2363</ele>
        <time>2012-02-23T10:52:56Z</time>
      </trkpt>
      <trkpt lat="42.85173" lon="0.22467">
        <ele>2363</ele>
        <time>2012-02-23T10:53:00Z</time>
      </trkpt>
      <trkpt lat="42.85181" lon="0.22467">
        <ele>2361</ele>
        <time>2012-02-23T10:53:04Z</time>
      </trkpt>
      <trkpt lat="42.85191" lon="0.22466">
        <ele>2360</ele>
        <time>2012-02-23T10:53:07Z</time>
      </trkpt>
      <trkpt lat="42.85197" lon="0.22465">
        <ele>2358</ele>
        <time>2012-02-23T10:53:10Z</time>
      </trkpt>
      <trkpt lat="42.85201" lon="0.22466">
        <ele>2357</ele>
        <time>2012-02-23T10:53:13Z</time>
      </trkpt>
      <trkpt lat="42.85207" lon="0.22466">
        <ele>2356</ele>
        <time>2012-02-23T10:53:16Z</time>
      </trkpt>
      <trkpt lat="42.85214" lon="0.22466">
        <ele>2355</ele>
        <time>2012-02-23T10:53:19Z</time>
      </trkpt>
      <trkpt lat="42.8522" lon="0.22466">
        <ele>2354</ele>
        <time>2012-02-23T10:53:22Z</time>
      </trkpt>
      <trkpt lat="42.85226" lon="0.22467">
        <ele>2353</ele>
        <time>2012-02-23T10:53:25Z</time>
      </trkpt>
      <trkpt lat="42.85234" lon="0.22467">
        <ele>2352</ele>
        <time>2012-02-23T10:53:28Z</time>
      </trkpt>
      <trkpt lat="42.8524" lon="0.22469">
        <ele>2350</ele>
        <time>2012-02-23T10:53:31Z</time>
      </trkpt>
      <trkpt lat="42.85246" lon="0.22469">
        <ele>2349</ele>
        <time>2012-02-23T10:53:34Z</time>
      </trkpt>
      <trkpt lat="42.85252" lon="0.22471">
        <ele>2348</ele>
        <time>2012-02-23T10:53:37Z</time>
      </trkpt>
      <trkpt lat="42.85258" lon="0.22472">
        <ele>2347</ele>
        <time>2012-02-23T10:53:40Z</time>
      </trkpt>
      <trkpt lat="42.85265" lon="0.22474">
        <ele>2346</ele>
        <time>2012-02-23T10:53:43Z</time>
      </trkpt>
      <trkpt lat="42.85272" lon="0.22475">
        <ele>2345</ele>
        <time>2012-02-23T10:53:46Z</time>
      </trkpt>
      <trkpt lat="42.85278" lon="0.22476">
        <ele>2345</ele>
        <time>2012-02-23T10:53:49Z</time>
      </trkpt>
      <trkpt lat="42.85283" lon="0.22477">
        <ele>2344</ele>
        <time>2012-02-23T10:53:52Z</time>
      </trkpt>
      <trkpt lat="42.85287" lon="0.22479">
        <ele>2343</ele>
        <time>2012-02-23T10:53:55Z</time>
      </trkpt>
      <trkpt lat="42.85292" lon="0.22479">
        <ele>2342</ele>
        <time>2012-02-23T10:53:58Z</time>
      </trkpt>
      <trkpt lat="42.85295" lon="0.22479">
        <ele>2341</ele>
        <time>2012-02-23T10:54:01Z</time>
      </trkpt>
      <trkpt lat="42.853" lon="0.2248">
        <ele>2340</ele>
        <time>2012-02-23T10:54:04Z</time>
      </trkpt>
      <trkpt lat="42.85305" lon="0.2248">
        <ele>2339</ele>
        <time>2012-02-23T10:54:07Z</time>
      </trkpt>
      <trkpt lat="42.8531" lon="0.22481">
        <ele>2339</ele>
        <time>2012-02-23T10:54:10Z</time>
      </trkpt>
      <trkpt lat="42.85316" lon="0.22481">
        <ele>2339</ele>
        <time>2012-02-23T10:54:13Z</time>
      </trkpt>
      <trkpt lat="42.85321" lon="0.22482">
        <ele>2338</ele>
        <time>2012-02-23T10:54:16Z</time>
      </trkpt>
      <trkpt lat="42.85327" lon="0.22482">
        <ele>2338</ele>
        <time>2012-02-23T10:54:19Z</time>
      </trkpt>
      <trkpt lat="42.85332" lon="0.22483">
        <ele>2337</ele>
        <time>2012-02-23T10:54:22Z</time>
      </trkpt>
      <trkpt lat="42.85339" lon="0.22484">
        <ele>2337</ele>
        <time>2012-02-23T10:54:25Z</time>
      </trkpt>
      <trkpt lat="42.85345" lon="0.22485">
        <ele>2336</ele>
        <time>2012-02-23T10:54:28Z</time>
      </trkpt>
      <trkpt lat="42.8535" lon="0.22485">
        <ele>2336</ele>
        <time>2012-02-23T10:54:31Z</time>
      </trkpt>
      <trkpt lat="42.8536" lon="0.22486">
        <ele>2335</ele>
        <time>2012-02-23T10:54:35Z</time>
      </trkpt>
      <trkpt lat="42.85368" lon="0.22488">
        <ele>2334</ele>
        <time>2012-02-23T10:54:38Z</time>
      </trkpt>
      <trkpt lat="42.85376" lon="0.22494">
        <ele>2333</ele>
        <time>2012-02-23T10:54:42Z</time>
      </trkpt>
      <trkpt lat="42.85381" lon="0.22502">
        <ele>2333</ele>
        <time>2012-02-23T10:54:45Z</time>
      </trkpt>
      <trkpt lat="42.85386" lon="0.22513">
        <ele>2333</ele>
        <time>2012-02-23T10:54:48Z</time>
      </trkpt>
      <trkpt lat="42.8539" lon="0.22521">
        <ele>2333</ele>
        <time>2012-02-23T10:54:52Z</time>
      </trkpt>
      <trkpt lat="42.85394" lon="0.22527">
        <ele>2333</ele>
        <time>2012-02-23T10:54:55Z</time>
      </trkpt>
      <trkpt lat="42.85398" lon="0.22531">
        <ele>2333</ele>
        <time>2012-02-23T10:54:59Z</time>
      </trkpt>
      <trkpt lat="42.85407" lon="0.22539">
        <ele>2332</ele>
        <time>2012-02-23T10:55:03Z</time>
      </trkpt>
      <trkpt lat="42.85419" lon="0.22553">
        <ele>2331</ele>
        <time>2012-02-23T10:55:06Z</time>
      </trkpt>
      <trkpt lat="42.85426" lon="0.22567">
        <ele>2330</ele>
        <time>2012-02-23T10:55:09Z</time>
      </trkpt>
      <trkpt lat="42.85426" lon="0.22574">
        <ele>2330</ele>
        <time>2012-02-23T10:55:13Z</time>
      </trkpt>
      <trkpt lat="42.85427" lon="0.22579">
        <ele>2330</ele>
        <time>2012-02-23T10:55:18Z</time>
      </trkpt>
      <trkpt lat="42.85428" lon="0.22583">
        <ele>2330</ele>
        <time>2012-02-23T10:55:22Z</time>
      </trkpt>
      <trkpt lat="42.85428" lon="0.22586">
        <ele>2330</ele>
        <time>2012-02-23T10:55:25Z</time>
      </trkpt>
      <trkpt lat="42.85429" lon="0.22591">
        <ele>2330</ele>
        <time>2012-02-23T10:55:29Z</time>
      </trkpt>
      <trkpt lat="42.85429" lon="0.22596">
        <ele>2330</ele>
        <time>2012-02-23T10:55:32Z</time>
      </trkpt>
      <trkpt lat="42.85429" lon="0.22603">
        <ele>2330</ele>
        <time>2012-02-23T10:55:35Z</time>
      </trkpt>
      <trkpt lat="42.85427" lon="0.22612">
        <ele>2330</ele>
        <time>2012-02-23T10:55:38Z</time>
      </trkpt>
      <trkpt lat="42.85424" lon="0.22622">
        <ele>2330</ele>
        <time>2012-02-23T10:55:42Z</time>
      </trkpt>
      <trkpt lat="42.85422" lon="0.22628">
        <ele>2330</ele>
        <time>2012-02-23T10:55:46Z</time>
      </trkpt>
      <trkpt lat="42.85421" lon="0.22632">
        <ele>2330</ele>
        <time>2012-02-23T10:55:51Z</time>
      </trkpt>
      <trkpt lat="42.85421" lon="0.22635">
        <ele>2330</ele>
        <time>2012-02-23T10:55:55Z</time>
      </trkpt>
      <trkpt lat="42.85423" lon="0.22639">
        <ele>2330</ele>
        <time>2012-02-23T10:55:59Z</time>
      </trkpt>
      <trkpt lat="42.85424" lon="0.22644">
        <ele>2330</ele>
        <time>2012-02-23T10:56:03Z</time>
      </trkpt>
      <trkpt lat="42.85427" lon="0.22651">
        <ele>2330</ele>
        <time>2012-02-23T10:56:07Z</time>
      </trkpt>
      <trkpt lat="42.85429" lon="0.22656">
        <ele>2330</ele>
        <time>2012-02-23T10:56:10Z</time>
      </trkpt>
      <trkpt lat="42.85432" lon="0.22664">
        <ele>2330</ele>
        <time>2012-02-23T10:56:13Z</time>
      </trkpt>
      <trkpt lat="42.85438" lon="0.2268">
        <ele>2329</ele>
        <time>2012-02-23T10:56:16Z</time>
      </trkpt>
      <trkpt lat="42.8544" lon="0.22696">
        <ele>2327</ele>
        <time>2012-02-23T10:56:19Z</time>
      </trkpt>
      <trkpt lat="42.8544" lon="0.22709">
        <ele>2326</ele>
        <time>2012-02-23T10:56:22Z</time>
      </trkpt>
      <trkpt lat="42.85439" lon="0.22717">
        <ele>2326</ele>
        <time>2012-02-23T10:56:25Z</time>
      </trkpt>
      <trkpt lat="42.85437" lon="0.22728">
        <ele>2325</ele>
        <time>2012-02-23T10:56:29Z</time>
      </trkpt>
      <trkpt lat="42.85437" lon="0.22733">
        <ele>2325</ele>
        <time>2012-02-23T10:56:33Z</time>
      </trkpt>
      <trkpt lat="42.85437" lon="0.22738">
        <ele>2325</ele>
        <time>2012-02-23T10:56:37Z</time>
      </trkpt>
      <trkpt lat="42.85438" lon="0.22739">
        <ele>2325</ele>
        <time>2012-02-23T10:56:40Z</time>
      </trkpt>
      <trkpt lat="42.85439" lon="0.22743">
        <ele>2325</ele>
        <time>2012-02-23T10:56:45Z</time>
      </trkpt>
      <trkpt lat="42.8544" lon="0.22746">
        <ele>2324</ele>
        <time>2012-02-23T10:56:52Z</time>
      </trkpt>
      <trkpt lat="42.85441" lon="0.22747">
        <ele>2323</ele>
        <time>2012-02-23T10:56:56Z</time>
      </trkpt>
      <trkpt lat="42.85441" lon="0.22748">
        <ele>2323</ele>
        <time>2012-02-23T10:56:59Z</time>
      </trkpt>
      <trkpt lat="42.85444" lon="0.22751">
        <ele>2323</ele>
        <time>2012-02-23T10:57:05Z</time>
      </trkpt>
      <trkpt lat="42.85447" lon="0.22753">
        <ele>2323</ele>
        <time>2012-02-23T10:57:11Z</time>
      </trkpt>
      <trkpt lat="42.8545" lon="0.22753">
        <ele>2321</ele>
        <time>2012-02-23T10:57:17Z</time>
      </trkpt>
      <trkpt lat="42.85451" lon="0.22753">
        <ele>2321</ele>
        <time>2012-02-23T10:57:20Z</time>
      </trkpt>
      <trkpt lat="42.85452" lon="0.22752">
        <ele>2320</ele>
        <time>2012-02-23T10:57:23Z</time>
      </trkpt>
      <trkpt lat="42.85453" lon="0.22751">
        <ele>2319</ele>
        <time>2012-02-23T10:57:28Z</time>
      </trkpt>
      <trkpt lat="42.85454" lon="0.2275">
        <ele>2318</ele>
        <time>2012-02-23T10:57:35Z</time>
      </trkpt>
      <trkpt lat="42.85455" lon="0.22749">
        <ele>2318</ele>
        <time>2012-02-23T10:57:46Z</time>
      </trkpt>
      <trkpt lat="42.85454" lon="0.22749">
        <ele>2317</ele>
        <time>2012-02-23T10:57:57Z</time>
      </trkpt>
      <trkpt lat="42.85452" lon="0.22749">
        <ele>2315</ele>
        <time>2012-02-23T10:58:03Z</time>
      </trkpt>
      <trkpt lat="42.85453" lon="0.22749">
        <ele>2315</ele>
        <time>2012-02-23T10:58:16Z</time>
      </trkpt>
      <trkpt lat="42.85456" lon="0.22751">
        <ele>2315</ele>
        <time>2012-02-23T10:58:21Z</time>
      </trkpt>
      <trkpt lat="42.85463" lon="0.22762">
        <ele>2313</ele>
        <time>2012-02-23T10:58:25Z</time>
      </trkpt>
      <trkpt lat="42.85469" lon="0.22781">
        <ele>2311</ele>
        <time>2012-02-23T10:58:28Z</time>
      </trkpt>
      <trkpt lat="42.85472" lon="0.22797">
        <ele>2310</ele>
        <time>2012-02-23T10:58:31Z</time>
      </trkpt>
      <trkpt lat="42.85477" lon="0.22835">
        <ele>2306</ele>
        <time>2012-02-23T10:58:35Z</time>
      </trkpt>
      <trkpt lat="42.85477" lon="0.22861">
        <ele>2303</ele>
        <time>2012-02-23T10:58:38Z</time>
      </trkpt>
      <trkpt lat="42.8548" lon="0.2288">
        <ele>2300</ele>
        <time>2012-02-23T10:58:41Z</time>
      </trkpt>
      <trkpt lat="42.85484" lon="0.229">
        <ele>2298</ele>
        <time>2012-02-23T10:58:44Z</time>
      </trkpt>
      <trkpt lat="42.85487" lon="0.22911">
        <ele>2296</ele>
        <time>2012-02-23T10:58:47Z</time>
      </trkpt>
      <trkpt lat="42.8549" lon="0.22919">
        <ele>2296</ele>
        <time>2012-02-23T10:58:50Z</time>
      </trkpt>
      <trkpt lat="42.85494" lon="0.22926">
        <ele>2295</ele>
        <time>2012-02-23T10:58:53Z</time>
      </trkpt>
      <trkpt lat="42.85497" lon="0.22932">
        <ele>2295</ele>
        <time>2012-02-23T10:58:56Z</time>
      </trkpt>
      <trkpt lat="42.85499" lon="0.22939">
        <ele>2294</ele>
        <time>2012-02-23T10:58:59Z</time>
      </trkpt>
      <trkpt lat="42.85499" lon="0.22945">
        <ele>2294</ele>
        <time>2012-02-23T10:59:02Z</time>
      </trkpt>
      <trkpt lat="42.85498" lon="0.22951">
        <ele>2294</ele>
        <time>2012-02-23T10:59:05Z</time>
      </trkpt>
      <trkpt lat="42.85498" lon="0.22953">
        <ele>2294</ele>
        <time>2012-02-23T10:59:14Z</time>
      </trkpt>
      <trkpt lat="42.85499" lon="0.22954">
        <ele>2294</ele>
        <time>2012-02-23T10:59:18Z</time>
      </trkpt>
      <trkpt lat="42.85506" lon="0.22958">
        <ele>2294</ele>
        <time>2012-02-23T10:59:21Z</time>
      </trkpt>
      <trkpt lat="42.85516" lon="0.22961">
        <ele>2294</ele>
        <time>2012-02-23T10:59:24Z</time>
      </trkpt>
      <trkpt lat="42.85524" lon="0.22962">
        <ele>2293</ele>
        <time>2012-02-23T10:59:27Z</time>
      </trkpt>
      <trkpt lat="42.85532" lon="0.22962">
        <ele>2290</ele>
        <time>2012-02-23T10:59:30Z</time>
      </trkpt>
      <trkpt lat="42.85543" lon="0.22963">
        <ele>2287</ele>
        <time>2012-02-23T10:59:33Z</time>
      </trkpt>
      <trkpt lat="42.85556" lon="0.22963">
        <ele>2284</ele>
        <time>2012-02-23T10:59:36Z</time>
      </trkpt>
      <trkpt lat="42.85569" lon="0.22962">
        <ele>2281</ele>
        <time>2012-02-23T10:59:39Z</time>
      </trkpt>
      <trkpt lat="42.85581" lon="0.22963">
        <ele>2278</ele>
        <time>2012-02-23T10:59:42Z</time>
      </trkpt>
      <trkpt lat="42.85588" lon="0.22964">
        <ele>2278</ele>
        <time>2012-02-23T10:59:45Z</time>
      </trkpt>
      <trkpt lat="42.85594" lon="0.22964">
        <ele>2278</ele>
        <time>2012-02-23T10:59:48Z</time>
      </trkpt>
      <trkpt lat="42.85598" lon="0.22965">
        <ele>2277</ele>
        <time>2012-02-23T10:59:52Z</time>
      </trkpt>
      <trkpt lat="42.85598" lon="0.22967">
        <ele>2277</ele>
        <time>2012-02-23T11:00:09Z</time>
      </trkpt>
      <trkpt lat="42.8559" lon="0.22975">
        <ele>2277</ele>
        <time>2012-02-23T11:00:13Z</time>
      </trkpt>
      <trkpt lat="42.85584" lon="0.22981">
        <ele>2277</ele>
        <time>2012-02-23T11:00:16Z</time>
      </trkpt>
      <trkpt lat="42.85578" lon="0.22985">
        <ele>2277</ele>
        <time>2012-02-23T11:00:19Z</time>
      </trkpt>
      <trkpt lat="42.85569" lon="0.22991">
        <ele>2276</ele>
        <time>2012-02-23T11:00:23Z</time>
      </trkpt>
      <trkpt lat="42.85569" lon="0.23">
        <ele>2273</ele>
        <time>2012-02-23T11:00:26Z</time>
      </trkpt>
      <trkpt lat="42.85572" lon="0.23013">
        <ele>2270</ele>
        <time>2012-02-23T11:00:29Z</time>
      </trkpt>
      <trkpt lat="42.85573" lon="0.2302">
        <ele>2267</ele>
        <time>2012-02-23T11:01:02Z</time>
      </trkpt>
      <trkpt lat="42.85574" lon="0.23018">
        <ele>2266</ele>
        <time>2012-02-23T11:01:22Z</time>
      </trkpt>
      <trkpt lat="42.85575" lon="0.23017">
        <ele>2265</ele>
        <time>2012-02-23T11:01:38Z</time>
      </trkpt>
      <trkpt lat="42.85577" lon="0.23014">
        <ele>2265</ele>
        <time>2012-02-23T11:01:41Z</time>
      </trkpt>
      <trkpt lat="42.85579" lon="0.23013">
        <ele>2265</ele>
        <time>2012-02-23T11:01:44Z</time>
      </trkpt>
      <trkpt lat="42.85583" lon="0.23009">
        <ele>2265</ele>
        <time>2012-02-23T11:01:47Z</time>
      </trkpt>
      <trkpt lat="42.85585" lon="0.23012">
        <ele>2264</ele>
        <time>2012-02-23T11:01:51Z</time>
      </trkpt>
      <trkpt lat="42.85583" lon="0.23021">
        <ele>2262</ele>
        <time>2012-02-23T11:01:54Z</time>
      </trkpt>
      <trkpt lat="42.85583" lon="0.2303">
        <ele>2261</ele>
        <time>2012-02-23T11:01:57Z</time>
      </trkpt>
      <trkpt lat="42.85593" lon="0.23023">
        <ele>2259</ele>
        <time>2012-02-23T11:02:00Z</time>
      </trkpt>
      <trkpt lat="42.85601" lon="0.23018">
        <ele>2257</ele>
        <time>2012-02-23T11:02:03Z</time>
      </trkpt>
      <trkpt lat="42.85608" lon="0.23013">
        <ele>2254</ele>
        <time>2012-02-23T11:02:06Z</time>
      </trkpt>
      <trkpt lat="42.85615" lon="0.23008">
        <ele>2253</ele>
        <time>2012-02-23T11:02:09Z</time>
      </trkpt>
      <trkpt lat="42.85616" lon="0.23008">
        <ele>2252</ele>
        <time>2012-02-23T11:02:13Z</time>
      </trkpt>
      <trkpt lat="42.85617" lon="0.23008">
        <ele>2252</ele>
        <time>2012-02-23T11:02:18Z</time>
      </trkpt>
      <trkpt lat="42.85618" lon="0.23007">
        <ele>2252</ele>
        <time>2012-02-23T11:02:24Z</time>
      </trkpt>
      <trkpt lat="42.8562" lon="0.23007">
        <ele>2247</ele>
        <time>2012-02-23T11:03:03Z</time>
      </trkpt>
      <trkpt lat="42.85621" lon="0.23008">
        <ele>2247</ele>
        <time>2012-02-23T11:03:15Z</time>
      </trkpt>
      <trkpt lat="42.85621" lon="0.23009">
        <ele>2247</ele>
        <time>2012-02-23T11:03:18Z</time>
      </trkpt>
      <trkpt lat="42.8562" lon="0.23009">
        <ele>2247</ele>
        <time>2012-02-23T11:03:35Z</time>
      </trkpt>
      <trkpt lat="42.85618" lon="0.23008">
        <ele>2247</ele>
        <time>2012-02-23T11:03:41Z</time>
      </trkpt>
      <trkpt lat="42.85618" lon="0.23005">
        <ele>2246</ele>
        <time>2012-02-23T11:03:52Z</time>
      </trkpt>
      <trkpt lat="42.85617" lon="0.23005">
        <ele>2244</ele>
        <time>2012-02-23T11:04:02Z</time>
      </trkpt>
      <trkpt lat="42.85613" lon="0.23005">
        <ele>2243</ele>
        <time>2012-02-23T11:04:06Z</time>
      </trkpt>
      <trkpt lat="42.85614" lon="0.23005">
        <ele>2242</ele>
        <time>2012-02-23T11:04:10Z</time>
      </trkpt>
      <trkpt lat="42.85617" lon="0.23005">
        <ele>2242</ele>
        <time>2012-02-23T11:04:13Z</time>
      </trkpt>
      <trkpt lat="42.85619" lon="0.23006">
        <ele>2242</ele>
        <time>2012-02-23T11:04:19Z</time>
      </trkpt>
      <trkpt lat="42.8562" lon="0.23006">
        <ele>2242</ele>
        <time>2012-02-23T11:04:39Z</time>
      </trkpt>
      <trkpt lat="42.8562" lon="0.23007">
        <ele>2242</ele>
        <time>2012-02-23T11:04:52Z</time>
      </trkpt>
      <trkpt lat="42.85619" lon="0.23007">
        <ele>2242</ele>
        <time>2012-02-23T11:05:12Z</time>
      </trkpt>
      <trkpt lat="42.85618" lon="0.23007">
        <ele>2242</ele>
        <time>2012-02-23T11:05:20Z</time>
      </trkpt>
      <trkpt lat="42.85619" lon="0.23006">
        <ele>2243</ele>
        <time>2012-02-23T11:05:49Z</time>
      </trkpt>
      <trkpt lat="42.85619" lon="0.23007">
        <ele>2243</ele>
        <time>2012-02-23T11:05:59Z</time>
      </trkpt>
      <trkpt lat="42.85621" lon="0.23007">
        <ele>2243</ele>
        <time>2012-02-23T11:06:10Z</time>
      </trkpt>
      <trkpt lat="42.85619" lon="0.23008">
        <ele>2243</ele>
        <time>2012-02-23T11:06:29Z</time>
      </trkpt>
      <trkpt lat="42.85618" lon="0.23007">
        <ele>2243</ele>
        <time>2012-02-23T11:06:40Z</time>
      </trkpt>
      <trkpt lat="42.85619" lon="0.23007">
        <ele>2243</ele>
        <time>2012-02-23T11:06:48Z</time>
      </trkpt>
      <trkpt lat="42.8562" lon="0.23007">
        <ele>2243</ele>
        <time>2012-02-23T11:07:00Z</time>
      </trkpt>
      <trkpt lat="42.85619" lon="0.23006">
        <ele>2243</ele>
        <time>2012-02-23T11:07:05Z</time>
      </trkpt>
      <trkpt lat="42.85618" lon="0.23006">
        <ele>2243</ele>
        <time>2012-02-23T11:07:10Z</time>
      </trkpt>
      <trkpt lat="42.85619" lon="0.23006">
        <ele>2244</ele>
        <time>2012-02-23T11:07:44Z</time>
      </trkpt>
      <trkpt lat="42.8562" lon="0.23006">
        <ele>2244</ele>
        <time>2012-02-23T11:07:47Z</time>
      </trkpt>
      <trkpt lat="42.85619" lon="0.23007">
        <ele>2244</ele>
        <time>2012-02-23T11:07:52Z</time>
      </trkpt>
      <trkpt lat="42.85617" lon="0.23007">
        <ele>2244</ele>
        <time>2012-02-23T11:07:58Z</time>
      </trkpt>
      <trkpt lat="42.85616" lon="0.23007">
        <ele>2244</ele>
        <time>2012-02-23T11:08:02Z</time>
      </trkpt>
      <trkpt lat="42.85616" lon="0.23009">
        <ele>2244</ele>
        <time>2012-02-23T11:08:11Z</time>
      </trkpt>
      <trkpt lat="42.85616" lon="0.2301">
        <ele>2248</ele>
        <time>2012-02-23T11:08:17Z</time>
      </trkpt>
      <trkpt lat="42.85617" lon="0.23012">
        <ele>2253</ele>
        <time>2012-02-23T11:08:28Z</time>
      </trkpt>
      <trkpt lat="42.85616" lon="0.23013">
        <ele>2254</ele>
        <time>2012-02-23T11:08:40Z</time>
      </trkpt>
      <trkpt lat="42.85614" lon="0.23012">
        <ele>2257</ele>
        <time>2012-02-23T11:09:20Z</time>
      </trkpt>
      <trkpt lat="42.85614" lon="0.23011">
        <ele>2258</ele>
        <time>2012-02-23T11:09:31Z</time>
      </trkpt>
      <trkpt lat="42.85615" lon="0.23009">
        <ele>2258</ele>
        <time>2012-02-23T11:09:36Z</time>
      </trkpt>
      <trkpt lat="42.85615" lon="0.23008">
        <ele>2258</ele>
        <time>2012-02-23T11:09:40Z</time>
      </trkpt>
      <trkpt lat="42.85617" lon="0.23007">
        <ele>2258</ele>
        <time>2012-02-23T11:09:44Z</time>
      </trkpt>
      <trkpt lat="42.85617" lon="0.23005">
        <ele>2257</ele>
        <time>2012-02-23T11:09:49Z</time>
      </trkpt>
      <trkpt lat="42.85621" lon="0.23005">
        <ele>2256</ele>
        <time>2012-02-23T11:09:55Z</time>
      </trkpt>
      <trkpt lat="42.85622" lon="0.23005">
        <ele>2253</ele>
        <time>2012-02-23T11:10:15Z</time>
      </trkpt>
      <trkpt lat="42.85625" lon="0.23006">
        <ele>2253</ele>
        <time>2012-02-23T11:10:19Z</time>
      </trkpt>
      <trkpt lat="42.85625" lon="0.23006">
        <ele>2252</ele>
        <time>2012-02-23T11:10:23Z</time>
      </trkpt>
      <trkpt lat="42.85623" lon="0.23006">
        <ele>2252</ele>
        <time>2012-02-23T11:10:26Z</time>
      </trkpt>
      <trkpt lat="42.85621" lon="0.23005">
        <ele>2251</ele>
        <time>2012-02-23T11:10:33Z</time>
      </trkpt>
      <trkpt lat="42.85619" lon="0.23005">
        <ele>2251</ele>
        <time>2012-02-23T11:10:37Z</time>
      </trkpt>
      <trkpt lat="42.85619" lon="0.23006">
        <ele>2251</ele>
        <time>2012-02-23T11:10:52Z</time>
      </trkpt>
      <trkpt lat="42.85619" lon="0.23008">
        <ele>2251</ele>
        <time>2012-02-23T11:10:55Z</time>
      </trkpt>
      <trkpt lat="42.85621" lon="0.23007">
        <ele>2249</ele>
        <time>2012-02-23T11:11:04Z</time>
      </trkpt>
      <trkpt lat="42.85619" lon="0.23007">
        <ele>2249</ele>
        <time>2012-02-23T11:11:20Z</time>
      </trkpt>
      <trkpt lat="42.85618" lon="0.23006">
        <ele>2247</ele>
        <time>2012-02-23T11:11:28Z</time>
      </trkpt>
      <trkpt lat="42.85619" lon="0.23008">
        <ele>2246</ele>
        <time>2012-02-23T11:11:37Z</time>
      </trkpt>
      <trkpt lat="42.8562" lon="0.23009">
        <ele>2246</ele>
        <time>2012-02-23T11:11:49Z</time>
      </trkpt>
      <trkpt lat="42.85621" lon="0.23009">
        <ele>2246</ele>
        <time>2012-02-23T11:12:00Z</time>
      </trkpt>
      <trkpt lat="42.85621" lon="0.23007">
        <ele>2246</ele>
        <time>2012-02-23T11:12:18Z</time>
      </trkpt>
      <trkpt lat="42.8562" lon="0.23006">
        <ele>2246</ele>
        <time>2012-02-23T11:12:32Z</time>
      </trkpt>
      <trkpt lat="42.85622" lon="0.23006">
        <ele>2246</ele>
        <time>2012-02-23T11:12:56Z</time>
      </trkpt>
      <trkpt lat="42.8562" lon="0.23005">
        <ele>2246</ele>
        <time>2012-02-23T11:13:30Z</time>
      </trkpt>
      <trkpt lat="42.85619" lon="0.23006">
        <ele>2246</ele>
        <time>2012-02-23T11:14:17Z</time>
      </trkpt>
      <trkpt lat="42.85621" lon="0.23006">
        <ele>2246</ele>
        <time>2012-02-23T11:14:21Z</time>
      </trkpt>
      <trkpt lat="42.85622" lon="0.23005">
        <ele>2246</ele>
        <time>2012-02-23T11:14:31Z</time>
      </trkpt>
      <trkpt lat="42.85623" lon="0.23004">
        <ele>2246</ele>
        <time>2012-02-23T11:14:36Z</time>
      </trkpt>
      <trkpt lat="42.85623" lon="0.23002">
        <ele>2246</ele>
        <time>2012-02-23T11:14:43Z</time>
      </trkpt>
      <trkpt lat="42.85622" lon="0.23001">
        <ele>2247</ele>
        <time>2012-02-23T11:14:48Z</time>
      </trkpt>
      <trkpt lat="42.85622" lon="0.22999">
        <ele>2250</ele>
        <time>2012-02-23T11:15:02Z</time>
      </trkpt>
      <trkpt lat="42.85622" lon="0.22998">
        <ele>2251</ele>
        <time>2012-02-23T11:15:13Z</time>
      </trkpt>
      <trkpt lat="42.85624" lon="0.22997">
        <ele>2251</ele>
        <time>2012-02-23T11:15:16Z</time>
      </trkpt>
      <trkpt lat="42.85625" lon="0.22997">
        <ele>2251</ele>
        <time>2012-02-23T11:15:19Z</time>
      </trkpt>
      <trkpt lat="42.85628" lon="0.22997">
        <ele>2251</ele>
        <time>2012-02-23T11:15:23Z</time>
      </trkpt>
      <trkpt lat="42.8563" lon="0.22996">
        <ele>2251</ele>
        <time>2012-02-23T11:15:27Z</time>
      </trkpt>
      <trkpt lat="42.85632" lon="0.22995">
        <ele>2251</ele>
        <time>2012-02-23T11:15:30Z</time>
      </trkpt>
      <trkpt lat="42.85633" lon="0.22995">
        <ele>2251</ele>
        <time>2012-02-23T11:15:33Z</time>
      </trkpt>
      <trkpt lat="42.85635" lon="0.22993">
        <ele>2251</ele>
        <time>2012-02-23T11:15:37Z</time>
      </trkpt>
      <trkpt lat="42.85638" lon="0.22991">
        <ele>2251</ele>
        <time>2012-02-23T11:15:43Z</time>
      </trkpt>
      <trkpt lat="42.85639" lon="0.2299">
        <ele>2249</ele>
        <time>2012-02-23T11:16:00Z</time>
      </trkpt>
      <trkpt lat="42.85642" lon="0.22988">
        <ele>2249</ele>
        <time>2012-02-23T11:16:04Z</time>
      </trkpt>
      <trkpt lat="42.85644" lon="0.22987">
        <ele>2249</ele>
        <time>2012-02-23T11:16:08Z</time>
      </trkpt>
      <trkpt lat="42.85647" lon="0.22986">
        <ele>2249</ele>
        <time>2012-02-23T11:16:12Z</time>
      </trkpt>
      <trkpt lat="42.85649" lon="0.22984">
        <ele>2248</ele>
        <time>2012-02-23T11:16:19Z</time>
      </trkpt>
      <trkpt lat="42.85651" lon="0.22984">
        <ele>2248</ele>
        <time>2012-02-23T11:16:22Z</time>
      </trkpt>
      <trkpt lat="42.85654" lon="0.22983">
        <ele>2247</ele>
        <time>2012-02-23T11:16:26Z</time>
      </trkpt>
      <trkpt lat="42.85656" lon="0.22982">
        <ele>2247</ele>
        <time>2012-02-23T11:16:30Z</time>
      </trkpt>
      <trkpt lat="42.85658" lon="0.22981">
        <ele>2247</ele>
        <time>2012-02-23T11:16:33Z</time>
      </trkpt>
      <trkpt lat="42.8566" lon="0.2298">
        <ele>2246</ele>
        <time>2012-02-23T11:16:37Z</time>
      </trkpt>
      <trkpt lat="42.85661" lon="0.2298">
        <ele>2246</ele>
        <time>2012-02-23T11:16:40Z</time>
      </trkpt>
      <trkpt lat="42.85664" lon="0.22979">
        <ele>2246</ele>
        <time>2012-02-23T11:16:44Z</time>
      </trkpt>
      <trkpt lat="42.85666" lon="0.22978">
        <ele>2245</ele>
        <time>2012-02-23T11:16:48Z</time>
      </trkpt>
      <trkpt lat="42.85669" lon="0.22977">
        <ele>2245</ele>
        <time>2012-02-23T11:16:52Z</time>
      </trkpt>
      <trkpt lat="42.85672" lon="0.22977">
        <ele>2245</ele>
        <time>2012-02-23T11:16:57Z</time>
      </trkpt>
      <trkpt lat="42.85673" lon="0.22976">
        <ele>2244</ele>
        <time>2012-02-23T11:17:00Z</time>
      </trkpt>
      <trkpt lat="42.85675" lon="0.22975">
        <ele>2244</ele>
        <time>2012-02-23T11:17:05Z</time>
      </trkpt>
      <trkpt lat="42.85676" lon="0.22973">
        <ele>2244</ele>
        <time>2012-02-23T11:17:08Z</time>
      </trkpt>
      <trkpt lat="42.85677" lon="0.22972">
        <ele>2244</ele>
        <time>2012-02-23T11:17:11Z</time>
      </trkpt>
      <trkpt lat="42.85679" lon="0.2297">
        <ele>2244</ele>
        <time>2012-02-23T11:17:14Z</time>
      </trkpt>
      <trkpt lat="42.8568" lon="0.22969">
        <ele>2244</ele>
        <time>2012-02-23T11:17:17Z</time>
      </trkpt>
      <trkpt lat="42.85682" lon="0.22968">
        <ele>2244</ele>
        <time>2012-02-23T11:17:20Z</time>
      </trkpt>
      <trkpt lat="42.85684" lon="0.22967">
        <ele>2244</ele>
        <time>2012-02-23T11:17:23Z</time>
      </trkpt>
      <trkpt lat="42.85687" lon="0.22965">
        <ele>2244</ele>
        <time>2012-02-23T11:17:27Z</time>
      </trkpt>
      <trkpt lat="42.8569" lon="0.22964">
        <ele>2244</ele>
        <time>2012-02-23T11:17:31Z</time>
      </trkpt>
      <trkpt lat="42.85693" lon="0.22962">
        <ele>2244</ele>
        <time>2012-02-23T11:17:35Z</time>
      </trkpt>
      <trkpt lat="42.85696" lon="0.22961">
        <ele>2244</ele>
        <time>2012-02-23T11:17:40Z</time>
      </trkpt>
      <trkpt lat="42.85698" lon="0.22959">
        <ele>2244</ele>
        <time>2012-02-23T11:17:44Z</time>
      </trkpt>
      <trkpt lat="42.85702" lon="0.22957">
        <ele>2244</ele>
        <time>2012-02-23T11:17:48Z</time>
      </trkpt>
      <trkpt lat="42.85703" lon="0.22954">
        <ele>2244</ele>
        <time>2012-02-23T11:17:52Z</time>
      </trkpt>
      <trkpt lat="42.85704" lon="0.2295">
        <ele>2244</ele>
        <time>2012-02-23T11:17:56Z</time>
      </trkpt>
      <trkpt lat="42.85705" lon="0.22947">
        <ele>2244</ele>
        <time>2012-02-23T11:18:00Z</time>
      </trkpt>
      <trkpt lat="42.85708" lon="0.22944">
        <ele>2244</ele>
        <time>2012-02-23T11:18:04Z</time>
      </trkpt>
      <trkpt lat="42.85709" lon="0.22942">
        <ele>2244</ele>
        <time>2012-02-23T11:18:07Z</time>
      </trkpt>
      <trkpt lat="42.85711" lon="0.22939">
        <ele>2244</ele>
        <time>2012-02-23T11:18:12Z</time>
      </trkpt>
      <trkpt lat="42.85711" lon="0.22937">
        <ele>2244</ele>
        <time>2012-02-23T11:18:15Z</time>
      </trkpt>
      <trkpt lat="42.85712" lon="0.22933">
        <ele>2244</ele>
        <time>2012-02-23T11:18:20Z</time>
      </trkpt>
      <trkpt lat="42.85712" lon="0.2293">
        <ele>2244</ele>
        <time>2012-02-23T11:18:24Z</time>
      </trkpt>
      <trkpt lat="42.85713" lon="0.22927">
        <ele>2244</ele>
        <time>2012-02-23T11:18:28Z</time>
      </trkpt>
      <trkpt lat="42.85713" lon="0.22925">
        <ele>2244</ele>
        <time>2012-02-23T11:18:31Z</time>
      </trkpt>
      <trkpt lat="42.85712" lon="0.22921">
        <ele>2244</ele>
        <time>2012-02-23T11:18:35Z</time>
      </trkpt>
      <trkpt lat="42.85713" lon="0.22922">
        <ele>2244</ele>
        <time>2012-02-23T11:18:41Z</time>
      </trkpt>
      <trkpt lat="42.85714" lon="0.22923">
        <ele>2246</ele>
        <time>2012-02-23T11:18:53Z</time>
      </trkpt>
      <trkpt lat="42.85715" lon="0.22922">
        <ele>2247</ele>
        <time>2012-02-23T11:19:19Z</time>
      </trkpt>
      <trkpt lat="42.85715" lon="0.22918">
        <ele>2247</ele>
        <time>2012-02-23T11:19:23Z</time>
      </trkpt>
      <trkpt lat="42.85716" lon="0.22913">
        <ele>2247</ele>
        <time>2012-02-23T11:19:27Z</time>
      </trkpt>
      <trkpt lat="42.85718" lon="0.22909">
        <ele>2248</ele>
        <time>2012-02-23T11:19:31Z</time>
      </trkpt>
      <trkpt lat="42.85719" lon="0.22905">
        <ele>2249</ele>
        <time>2012-02-23T11:19:35Z</time>
      </trkpt>
      <trkpt lat="42.85721" lon="0.22902">
        <ele>2250</ele>
        <time>2012-02-23T11:19:39Z</time>
      </trkpt>
      <trkpt lat="42.85723" lon="0.22898">
        <ele>2251</ele>
        <time>2012-02-23T11:19:43Z</time>
      </trkpt>
      <trkpt lat="42.85724" lon="0.22895">
        <ele>2252</ele>
        <time>2012-02-23T11:19:47Z</time>
      </trkpt>
      <trkpt lat="42.85727" lon="0.22892">
        <ele>2253</ele>
        <time>2012-02-23T11:19:51Z</time>
      </trkpt>
      <trkpt lat="42.85729" lon="0.22888">
        <ele>2253</ele>
        <time>2012-02-23T11:19:55Z</time>
      </trkpt>
      <trkpt lat="42.85732" lon="0.22884">
        <ele>2253</ele>
        <time>2012-02-23T11:20:00Z</time>
      </trkpt>
      <trkpt lat="42.85735" lon="0.22881">
        <ele>2253</ele>
        <time>2012-02-23T11:20:06Z</time>
      </trkpt>
      <trkpt lat="42.85737" lon="0.22878">
        <ele>2253</ele>
        <time>2012-02-23T11:20:10Z</time>
      </trkpt>
      <trkpt lat="42.8574" lon="0.22875">
        <ele>2253</ele>
        <time>2012-02-23T11:20:14Z</time>
      </trkpt>
      <trkpt lat="42.85743" lon="0.22872">
        <ele>2253</ele>
        <time>2012-02-23T11:20:18Z</time>
      </trkpt>
      <trkpt lat="42.85744" lon="0.22868">
        <ele>2253</ele>
        <time>2012-02-23T11:20:22Z</time>
      </trkpt>
      <trkpt lat="42.85747" lon="0.22865">
        <ele>2253</ele>
        <time>2012-02-23T11:20:26Z</time>
      </trkpt>
      <trkpt lat="42.85749" lon="0.22862">
        <ele>2253</ele>
        <time>2012-02-23T11:20:29Z</time>
      </trkpt>
      <trkpt lat="42.85751" lon="0.22859">
        <ele>2253</ele>
        <time>2012-02-23T11:20:33Z</time>
      </trkpt>
      <trkpt lat="42.85753" lon="0.22855">
        <ele>2253</ele>
        <time>2012-02-23T11:20:37Z</time>
      </trkpt>
      <trkpt lat="42.85755" lon="0.22852">
        <ele>2253</ele>
        <time>2012-02-23T11:20:41Z</time>
      </trkpt>
      <trkpt lat="42.85757" lon="0.22848">
        <ele>2253</ele>
        <time>2012-02-23T11:20:45Z</time>
      </trkpt>
      <trkpt lat="42.85759" lon="0.22845">
        <ele>2253</ele>
        <time>2012-02-23T11:20:49Z</time>
      </trkpt>
      <trkpt lat="42.85761" lon="0.22841">
        <ele>2253</ele>
        <time>2012-02-23T11:20:53Z</time>
      </trkpt>
      <trkpt lat="42.85763" lon="0.22837">
        <ele>2253</ele>
        <time>2012-02-23T11:20:57Z</time>
      </trkpt>
      <trkpt lat="42.85764" lon="0.22833">
        <ele>2253</ele>
        <time>2012-02-23T11:21:01Z</time>
      </trkpt>
      <trkpt lat="42.85766" lon="0.22829">
        <ele>2253</ele>
        <time>2012-02-23T11:21:05Z</time>
      </trkpt>
      <trkpt lat="42.85767" lon="0.22826">
        <ele>2253</ele>
        <time>2012-02-23T11:21:09Z</time>
      </trkpt>
      <trkpt lat="42.85768" lon="0.22822">
        <ele>2253</ele>
        <time>2012-02-23T11:21:13Z</time>
      </trkpt>
      <trkpt lat="42.8577" lon="0.22818">
        <ele>2253</ele>
        <time>2012-02-23T11:21:17Z</time>
      </trkpt>
      <trkpt lat="42.85771" lon="0.22814">
        <ele>2253</ele>
        <time>2012-02-23T11:21:21Z</time>
      </trkpt>
      <trkpt lat="42.85772" lon="0.22811">
        <ele>2253</ele>
        <time>2012-02-23T11:21:25Z</time>
      </trkpt>
      <trkpt lat="42.85774" lon="0.22807">
        <ele>2253</ele>
        <time>2012-02-23T11:21:29Z</time>
      </trkpt>
      <trkpt lat="42.85777" lon="0.22803">
        <ele>2253</ele>
        <time>2012-02-23T11:21:33Z</time>
      </trkpt>
      <trkpt lat="42.85778" lon="0.228">
        <ele>2253</ele>
        <time>2012-02-23T11:21:37Z</time>
      </trkpt>
      <trkpt lat="42.8578" lon="0.22797">
        <ele>2253</ele>
        <time>2012-02-23T11:21:41Z</time>
      </trkpt>
      <trkpt lat="42.85783" lon="0.22794">
        <ele>2253</ele>
        <time>2012-02-23T11:21:45Z</time>
      </trkpt>
      <trkpt lat="42.85785" lon="0.22792">
        <ele>2253</ele>
        <time>2012-02-23T11:21:49Z</time>
      </trkpt>
      <trkpt lat="42.85788" lon="0.22788">
        <ele>2252</ele>
        <time>2012-02-23T11:21:53Z</time>
      </trkpt>
      <trkpt lat="42.8579" lon="0.22785">
        <ele>2252</ele>
        <time>2012-02-23T11:21:57Z</time>
      </trkpt>
      <trkpt lat="42.85793" lon="0.22783">
        <ele>2252</ele>
        <time>2012-02-23T11:22:01Z</time>
      </trkpt>
      <trkpt lat="42.85795" lon="0.22779">
        <ele>2252</ele>
        <time>2012-02-23T11:22:06Z</time>
      </trkpt>
      <trkpt lat="42.85797" lon="0.22776">
        <ele>2252</ele>
        <time>2012-02-23T11:22:10Z</time>
      </trkpt>
      <trkpt lat="42.858" lon="0.22773">
        <ele>2252</ele>
        <time>2012-02-23T11:22:14Z</time>
      </trkpt>
      <trkpt lat="42.85802" lon="0.22771">
        <ele>2252</ele>
        <time>2012-02-23T11:22:18Z</time>
      </trkpt>
      <trkpt lat="42.85804" lon="0.2277">
        <ele>2252</ele>
        <time>2012-02-23T11:22:21Z</time>
      </trkpt>
      <trkpt lat="42.85806" lon="0.22769">
        <ele>2252</ele>
        <time>2012-02-23T11:22:25Z</time>
      </trkpt>
      <trkpt lat="42.85809" lon="0.22767">
        <ele>2252</ele>
        <time>2012-02-23T11:22:30Z</time>
      </trkpt>
      <trkpt lat="42.85811" lon="0.22767">
        <ele>2252</ele>
        <time>2012-02-23T11:22:33Z</time>
      </trkpt>
      <trkpt lat="42.85813" lon="0.22765">
        <ele>2252</ele>
        <time>2012-02-23T11:22:37Z</time>
      </trkpt>
      <trkpt lat="42.85815" lon="0.22765">
        <ele>2252</ele>
        <time>2012-02-23T11:22:40Z</time>
      </trkpt>
      <trkpt lat="42.85817" lon="0.22764">
        <ele>2252</ele>
        <time>2012-02-23T11:22:44Z</time>
      </trkpt>
      <trkpt lat="42.85819" lon="0.22763">
        <ele>2252</ele>
        <time>2012-02-23T11:22:48Z</time>
      </trkpt>
      <trkpt lat="42.85822" lon="0.22763">
        <ele>2252</ele>
        <time>2012-02-23T11:22:52Z</time>
      </trkpt>
      <trkpt lat="42.85825" lon="0.22763">
        <ele>2252</ele>
        <time>2012-02-23T11:22:56Z</time>
      </trkpt>
      <trkpt lat="42.85828" lon="0.22763">
        <ele>2252</ele>
        <time>2012-02-23T11:23:04Z</time>
      </trkpt>
      <trkpt lat="42.8583" lon="0.22763">
        <ele>2252</ele>
        <time>2012-02-23T11:23:08Z</time>
      </trkpt>
      <trkpt lat="42.85833" lon="0.22762">
        <ele>2252</ele>
        <time>2012-02-23T11:23:12Z</time>
      </trkpt>
      <trkpt lat="42.85836" lon="0.22763">
        <ele>2252</ele>
        <time>2012-02-23T11:23:17Z</time>
      </trkpt>
      <trkpt lat="42.85839" lon="0.22765">
        <ele>2252</ele>
        <time>2012-02-23T11:23:21Z</time>
      </trkpt>
      <trkpt lat="42.85842" lon="0.22768">
        <ele>2253</ele>
        <time>2012-02-23T11:23:26Z</time>
      </trkpt>
      <trkpt lat="42.85844" lon="0.2277">
        <ele>2253</ele>
        <time>2012-02-23T11:23:30Z</time>
      </trkpt>
      <trkpt lat="42.85847" lon="0.22771">
        <ele>2253</ele>
        <time>2012-02-23T11:23:34Z</time>
      </trkpt>
      <trkpt lat="42.8585" lon="0.22772">
        <ele>2253</ele>
        <time>2012-02-23T11:23:38Z</time>
      </trkpt>
      <trkpt lat="42.85854" lon="0.22773">
        <ele>2253</ele>
        <time>2012-02-23T11:23:42Z</time>
      </trkpt>
      <trkpt lat="42.85857" lon="0.22772">
        <ele>2253</ele>
        <time>2012-02-23T11:23:46Z</time>
      </trkpt>
      <trkpt lat="42.8586" lon="0.22772">
        <ele>2253</ele>
        <time>2012-02-23T11:23:50Z</time>
      </trkpt>
      <trkpt lat="42.85864" lon="0.22772">
        <ele>2253</ele>
        <time>2012-02-23T11:23:53Z</time>
      </trkpt>
      <trkpt lat="42.85868" lon="0.22772">
        <ele>2253</ele>
        <time>2012-02-23T11:23:56Z</time>
      </trkpt>
      <trkpt lat="42.85872" lon="0.22771">
        <ele>2253</ele>
        <time>2012-02-23T11:24:00Z</time>
      </trkpt>
      <trkpt lat="42.85875" lon="0.2277">
        <ele>2253</ele>
        <time>2012-02-23T11:24:03Z</time>
      </trkpt>
      <trkpt lat="42.85878" lon="0.22767">
        <ele>2253</ele>
        <time>2012-02-23T11:24:07Z</time>
      </trkpt>
      <trkpt lat="42.85881" lon="0.22764">
        <ele>2252</ele>
        <time>2012-02-23T11:24:11Z</time>
      </trkpt>
      <trkpt lat="42.85885" lon="0.22761">
        <ele>2252</ele>
        <time>2012-02-23T11:24:15Z</time>
      </trkpt>
      <trkpt lat="42.85888" lon="0.22759">
        <ele>2252</ele>
        <time>2012-02-23T11:24:19Z</time>
      </trkpt>
      <trkpt lat="42.8589" lon="0.22757">
        <ele>2252</ele>
        <time>2012-02-23T11:24:22Z</time>
      </trkpt>
      <trkpt lat="42.85893" lon="0.22754">
        <ele>2252</ele>
        <time>2012-02-23T11:24:27Z</time>
      </trkpt>
      <trkpt lat="42.85894" lon="0.22752">
        <ele>2252</ele>
        <time>2012-02-23T11:24:30Z</time>
      </trkpt>
      <trkpt lat="42.85896" lon="0.22751">
        <ele>2252</ele>
        <time>2012-02-23T11:24:33Z</time>
      </trkpt>
      <trkpt lat="42.85899" lon="0.22749">
        <ele>2252</ele>
        <time>2012-02-23T11:24:38Z</time>
      </trkpt>
      <trkpt lat="42.859" lon="0.22748">
        <ele>2252</ele>
        <time>2012-02-23T11:24:41Z</time>
      </trkpt>
      <trkpt lat="42.85902" lon="0.22746">
        <ele>2252</ele>
        <time>2012-02-23T11:24:44Z</time>
      </trkpt>
      <trkpt lat="42.85904" lon="0.22744">
        <ele>2252</ele>
        <time>2012-02-23T11:24:49Z</time>
      </trkpt>
      <trkpt lat="42.85907" lon="0.22742">
        <ele>2252</ele>
        <time>2012-02-23T11:24:54Z</time>
      </trkpt>
      <trkpt lat="42.85909" lon="0.22741">
        <ele>2252</ele>
        <time>2012-02-23T11:24:58Z</time>
      </trkpt>
      <trkpt lat="42.85911" lon="0.2274">
        <ele>2252</ele>
        <time>2012-02-23T11:25:01Z</time>
      </trkpt>
      <trkpt lat="42.85913" lon="0.22739">
        <ele>2252</ele>
        <time>2012-02-23T11:25:05Z</time>
      </trkpt>
      <trkpt lat="42.85916" lon="0.22739">
        <ele>2252</ele>
        <time>2012-02-23T11:25:09Z</time>
      </trkpt>
      <trkpt lat="42.85919" lon="0.22738">
        <ele>2252</ele>
        <time>2012-02-23T11:25:13Z</time>
      </trkpt>
      <trkpt lat="42.85922" lon="0.22738">
        <ele>2252</ele>
        <time>2012-02-23T11:25:17Z</time>
      </trkpt>
      <trkpt lat="42.85925" lon="0.22737">
        <ele>2252</ele>
        <time>2012-02-23T11:25:21Z</time>
      </trkpt>
      <trkpt lat="42.85928" lon="0.22737">
        <ele>2252</ele>
        <time>2012-02-23T11:25:25Z</time>
      </trkpt>
      <trkpt lat="42.85931" lon="0.22737">
        <ele>2252</ele>
        <time>2012-02-23T11:25:29Z</time>
      </trkpt>
      <trkpt lat="42.85933" lon="0.22737">
        <ele>2252</ele>
        <time>2012-02-23T11:25:33Z</time>
      </trkpt>
      <trkpt lat="42.85936" lon="0.22736">
        <ele>2254</ele>
        <time>2012-02-23T11:25:38Z</time>
      </trkpt>
      <trkpt lat="42.85937" lon="0.22735">
        <ele>2255</ele>
        <time>2012-02-23T11:25:41Z</time>
      </trkpt>
      <trkpt lat="42.85939" lon="0.22732">
        <ele>2256</ele>
        <time>2012-02-23T11:25:45Z</time>
      </trkpt>
      <trkpt lat="42.85942" lon="0.22729">
        <ele>2257</ele>
        <time>2012-02-23T11:25:49Z</time>
      </trkpt>
      <trkpt lat="42.85944" lon="0.22725">
        <ele>2257</ele>
        <time>2012-02-23T11:25:53Z</time>
      </trkpt>
      <trkpt lat="42.85945" lon="0.22721">
        <ele>2257</ele>
        <time>2012-02-23T11:25:57Z</time>
      </trkpt>
      <trkpt lat="42.85946" lon="0.22717">
        <ele>2257</ele>
        <time>2012-02-23T11:26:01Z</time>
      </trkpt>
      <trkpt lat="42.85947" lon="0.22713">
        <ele>2257</ele>
        <time>2012-02-23T11:26:05Z</time>
      </trkpt>
      <trkpt lat="42.85949" lon="0.22709">
        <ele>2257</ele>
        <time>2012-02-23T11:26:09Z</time>
      </trkpt>
      <trkpt lat="42.85951" lon="0.22706">
        <ele>2257</ele>
        <time>2012-02-23T11:26:13Z</time>
      </trkpt>
      <trkpt lat="42.85953" lon="0.22704">
        <ele>2257</ele>
        <time>2012-02-23T11:26:17Z</time>
      </trkpt>
      <trkpt lat="42.85956" lon="0.227">
        <ele>2257</ele>
        <time>2012-02-23T11:26:22Z</time>
      </trkpt>
      <trkpt lat="42.85957" lon="0.22698">
        <ele>2257</ele>
        <time>2012-02-23T11:26:25Z</time>
      </trkpt>
      <trkpt lat="42.85959" lon="0.22696">
        <ele>2257</ele>
        <time>2012-02-23T11:26:28Z</time>
      </trkpt>
      <trkpt lat="42.8596" lon="0.22694">
        <ele>2257</ele>
        <time>2012-02-23T11:26:31Z</time>
      </trkpt>
      <trkpt lat="42.85961" lon="0.22692">
        <ele>2257</ele>
        <time>2012-02-23T11:26:34Z</time>
      </trkpt>
      <trkpt lat="42.85962" lon="0.2269">
        <ele>2257</ele>
        <time>2012-02-23T11:26:45Z</time>
      </trkpt>
      <trkpt lat="42.85963" lon="0.22687">
        <ele>2257</ele>
        <time>2012-02-23T11:26:49Z</time>
      </trkpt>
      <trkpt lat="42.85965" lon="0.22683">
        <ele>2257</ele>
        <time>2012-02-23T11:26:53Z</time>
      </trkpt>
      <trkpt lat="42.85964" lon="0.22679">
        <ele>2257</ele>
        <time>2012-02-23T11:26:57Z</time>
      </trkpt>
      <trkpt lat="42.85965" lon="0.22675">
        <ele>2257</ele>
        <time>2012-02-23T11:27:01Z</time>
      </trkpt>
      <trkpt lat="42.85965" lon="0.22671">
        <ele>2257</ele>
        <time>2012-02-23T11:27:05Z</time>
      </trkpt>
      <trkpt lat="42.85965" lon="0.22668">
        <ele>2257</ele>
        <time>2012-02-23T11:27:09Z</time>
      </trkpt>
      <trkpt lat="42.85965" lon="0.22665">
        <ele>2258</ele>
        <time>2012-02-23T11:27:13Z</time>
      </trkpt>
      <trkpt lat="42.85964" lon="0.22663">
        <ele>2258</ele>
        <time>2012-02-23T11:27:16Z</time>
      </trkpt>
      <trkpt lat="42.85965" lon="0.22661">
        <ele>2259</ele>
        <time>2012-02-23T11:27:19Z</time>
      </trkpt>
      <trkpt lat="42.85965" lon="0.2266">
        <ele>2259</ele>
        <time>2012-02-23T11:27:22Z</time>
      </trkpt>
      <trkpt lat="42.85966" lon="0.22658">
        <ele>2260</ele>
        <time>2012-02-23T11:27:25Z</time>
      </trkpt>
      <trkpt lat="42.85966" lon="0.22657">
        <ele>2260</ele>
        <time>2012-02-23T11:27:28Z</time>
      </trkpt>
      <trkpt lat="42.85968" lon="0.22655">
        <ele>2261</ele>
        <time>2012-02-23T11:27:31Z</time>
      </trkpt>
      <trkpt lat="42.85967" lon="0.22653">
        <ele>2262</ele>
        <time>2012-02-23T11:27:34Z</time>
      </trkpt>
      <trkpt lat="42.85966" lon="0.2265">
        <ele>2263</ele>
        <time>2012-02-23T11:27:38Z</time>
      </trkpt>
      <trkpt lat="42.85965" lon="0.22648">
        <ele>2264</ele>
        <time>2012-02-23T11:27:42Z</time>
      </trkpt>
      <trkpt lat="42.85963" lon="0.22647">
        <ele>2265</ele>
        <time>2012-02-23T11:27:45Z</time>
      </trkpt>
      <trkpt lat="42.85963" lon="0.22645">
        <ele>2266</ele>
        <time>2012-02-23T11:27:49Z</time>
      </trkpt>
      <trkpt lat="42.85963" lon="0.22642">
        <ele>2266</ele>
        <time>2012-02-23T11:27:53Z</time>
      </trkpt>
      <trkpt lat="42.85964" lon="0.2264">
        <ele>2267</ele>
        <time>2012-02-23T11:27:56Z</time>
      </trkpt>
      <trkpt lat="42.85965" lon="0.22638">
        <ele>2267</ele>
        <time>2012-02-23T11:27:59Z</time>
      </trkpt>
      <trkpt lat="42.85966" lon="0.22637">
        <ele>2267</ele>
        <time>2012-02-23T11:28:02Z</time>
      </trkpt>
      <trkpt lat="42.85967" lon="0.22636">
        <ele>2267</ele>
        <time>2012-02-23T11:28:05Z</time>
      </trkpt>
      <trkpt lat="42.85969" lon="0.22635">
        <ele>2267</ele>
        <time>2012-02-23T11:28:08Z</time>
      </trkpt>
      <trkpt lat="42.85971" lon="0.22633">
        <ele>2268</ele>
        <time>2012-02-23T11:28:13Z</time>
      </trkpt>
      <trkpt lat="42.8597" lon="0.22631">
        <ele>2269</ele>
        <time>2012-02-23T11:28:16Z</time>
      </trkpt>
      <trkpt lat="42.85969" lon="0.22629">
        <ele>2270</ele>
        <time>2012-02-23T11:28:23Z</time>
      </trkpt>
      <trkpt lat="42.85968" lon="0.22628">
        <ele>2270</ele>
        <time>2012-02-23T11:28:26Z</time>
      </trkpt>
      <trkpt lat="42.85968" lon="0.22626">
        <ele>2270</ele>
        <time>2012-02-23T11:28:29Z</time>
      </trkpt>
      <trkpt lat="42.85967" lon="0.22624">
        <ele>2271</ele>
        <time>2012-02-23T11:28:32Z</time>
      </trkpt>
      <trkpt lat="42.85966" lon="0.22621">
        <ele>2271</ele>
        <time>2012-02-23T11:28:37Z</time>
      </trkpt>
      <trkpt lat="42.85966" lon="0.22619">
        <ele>2272</ele>
        <time>2012-02-23T11:28:40Z</time>
      </trkpt>
      <trkpt lat="42.85968" lon="0.22618">
        <ele>2273</ele>
        <time>2012-02-23T11:29:13Z</time>
      </trkpt>
      <trkpt lat="42.8597" lon="0.22617">
        <ele>2273</ele>
        <time>2012-02-23T11:29:16Z</time>
      </trkpt>
      <trkpt lat="42.85972" lon="0.22616">
        <ele>2274</ele>
        <time>2012-02-23T11:29:21Z</time>
      </trkpt>
      <trkpt lat="42.85974" lon="0.22617">
        <ele>2275</ele>
        <time>2012-02-23T11:29:24Z</time>
      </trkpt>
      <trkpt lat="42.85975" lon="0.22618">
        <ele>2276</ele>
        <time>2012-02-23T11:29:27Z</time>
      </trkpt>
      <trkpt lat="42.85976" lon="0.2262">
        <ele>2276</ele>
        <time>2012-02-23T11:29:30Z</time>
      </trkpt>
      <trkpt lat="42.85977" lon="0.22622">
        <ele>2276</ele>
        <time>2012-02-23T11:29:33Z</time>
      </trkpt>
      <trkpt lat="42.85978" lon="0.22623">
        <ele>2277</ele>
        <time>2012-02-23T11:29:36Z</time>
      </trkpt>
      <trkpt lat="42.8598" lon="0.22625">
        <ele>2278</ele>
        <time>2012-02-23T11:29:39Z</time>
      </trkpt>
      <trkpt lat="42.85982" lon="0.22628">
        <ele>2279</ele>
        <time>2012-02-23T11:29:43Z</time>
      </trkpt>
      <trkpt lat="42.85984" lon="0.22629">
        <ele>2280</ele>
        <time>2012-02-23T11:29:47Z</time>
      </trkpt>
      <trkpt lat="42.85988" lon="0.22628">
        <ele>2281</ele>
        <time>2012-02-23T11:29:51Z</time>
      </trkpt>
      <trkpt lat="42.85991" lon="0.22628">
        <ele>2281</ele>
        <time>2012-02-23T11:29:55Z</time>
      </trkpt>
      <trkpt lat="42.85994" lon="0.2263">
        <ele>2281</ele>
        <time>2012-02-23T11:29:59Z</time>
      </trkpt>
      <trkpt lat="42.85997" lon="0.22631">
        <ele>2282</ele>
        <time>2012-02-23T11:30:03Z</time>
      </trkpt>
      <trkpt lat="42.86" lon="0.2263">
        <ele>2282</ele>
        <time>2012-02-23T11:30:07Z</time>
      </trkpt>
      <trkpt lat="42.86003" lon="0.22629">
        <ele>2282</ele>
        <time>2012-02-23T11:30:11Z</time>
      </trkpt>
      <trkpt lat="42.86003" lon="0.22627">
        <ele>2282</ele>
        <time>2012-02-23T11:30:15Z</time>
      </trkpt>
      <trkpt lat="42.86004" lon="0.22626">
        <ele>2282</ele>
        <time>2012-02-23T11:30:32Z</time>
      </trkpt>
      <trkpt lat="42.86005" lon="0.22625">
        <ele>2282</ele>
        <time>2012-02-23T11:30:41Z</time>
      </trkpt>
      <trkpt lat="42.86004" lon="0.22625">
        <ele>2281</ele>
        <time>2012-02-23T11:30:49Z</time>
      </trkpt>
      <trkpt lat="42.86005" lon="0.22622">
        <ele>2280</ele>
        <time>2012-02-23T11:30:54Z</time>
      </trkpt>
      <trkpt lat="42.86005" lon="0.22621">
        <ele>2277</ele>
        <time>2012-02-23T11:30:58Z</time>
      </trkpt>
      <trkpt lat="42.86005" lon="0.22623">
        <ele>2275</ele>
        <time>2012-02-23T11:31:05Z</time>
      </trkpt>
      <trkpt lat="42.86003" lon="0.22623">
        <ele>2275</ele>
        <time>2012-02-23T11:31:12Z</time>
      </trkpt>
      <trkpt lat="42.86002" lon="0.22623">
        <ele>2275</ele>
        <time>2012-02-23T11:31:18Z</time>
      </trkpt>
      <trkpt lat="42.86002" lon="0.22625">
        <ele>2274</ele>
        <time>2012-02-23T11:31:38Z</time>
      </trkpt>
      <trkpt lat="42.86003" lon="0.22623">
        <ele>2274</ele>
        <time>2012-02-23T11:31:45Z</time>
      </trkpt>
      <trkpt lat="42.86004" lon="0.22623">
        <ele>2274</ele>
        <time>2012-02-23T11:31:56Z</time>
      </trkpt>
      <trkpt lat="42.86003" lon="0.22622">
        <ele>2274</ele>
        <time>2012-02-23T11:32:06Z</time>
      </trkpt>
      <trkpt lat="42.86003" lon="0.22623">
        <ele>2274</ele>
        <time>2012-02-23T11:32:24Z</time>
      </trkpt>
      <trkpt lat="42.86006" lon="0.22622">
        <ele>2275</ele>
        <time>2012-02-23T11:32:28Z</time>
      </trkpt>
      <trkpt lat="42.86009" lon="0.22619">
        <ele>2275</ele>
        <time>2012-02-23T11:32:32Z</time>
      </trkpt>
      <trkpt lat="42.86011" lon="0.22616">
        <ele>2276</ele>
        <time>2012-02-23T11:32:36Z</time>
      </trkpt>
      <trkpt lat="42.86013" lon="0.22613">
        <ele>2276</ele>
        <time>2012-02-23T11:32:40Z</time>
      </trkpt>
      <trkpt lat="42.86015" lon="0.2261">
        <ele>2277</ele>
        <time>2012-02-23T11:32:44Z</time>
      </trkpt>
      <trkpt lat="42.86017" lon="0.22606">
        <ele>2277</ele>
        <time>2012-02-23T11:32:48Z</time>
      </trkpt>
      <trkpt lat="42.86019" lon="0.22602">
        <ele>2277</ele>
        <time>2012-02-23T11:32:52Z</time>
      </trkpt>
      <trkpt lat="42.86021" lon="0.22598">
        <ele>2278</ele>
        <time>2012-02-23T11:32:56Z</time>
      </trkpt>
      <trkpt lat="42.86022" lon="0.22595">
        <ele>2279</ele>
        <time>2012-02-23T11:33:00Z</time>
      </trkpt>
      <trkpt lat="42.86024" lon="0.22591">
        <ele>2280</ele>
        <time>2012-02-23T11:33:04Z</time>
      </trkpt>
      <trkpt lat="42.86026" lon="0.22588">
        <ele>2281</ele>
        <time>2012-02-23T11:33:08Z</time>
      </trkpt>
      <trkpt lat="42.86027" lon="0.22584">
        <ele>2281</ele>
        <time>2012-02-23T11:33:13Z</time>
      </trkpt>
      <trkpt lat="42.86028" lon="0.22583">
        <ele>2282</ele>
        <time>2012-02-23T11:33:16Z</time>
      </trkpt>
      <trkpt lat="42.86029" lon="0.22581">
        <ele>2283</ele>
        <time>2012-02-23T11:33:20Z</time>
      </trkpt>
      <trkpt lat="42.86029" lon="0.2258">
        <ele>2284</ele>
        <time>2012-02-23T11:33:23Z</time>
      </trkpt>
      <trkpt lat="42.86032" lon="0.22577">
        <ele>2284</ele>
        <time>2012-02-23T11:33:28Z</time>
      </trkpt>
      <trkpt lat="42.86034" lon="0.22573">
        <ele>2284</ele>
        <time>2012-02-23T11:33:32Z</time>
      </trkpt>
      <trkpt lat="42.86035" lon="0.22571">
        <ele>2285</ele>
        <time>2012-02-23T11:33:35Z</time>
      </trkpt>
      <trkpt lat="42.86036" lon="0.22569">
        <ele>2285</ele>
        <time>2012-02-23T11:33:38Z</time>
      </trkpt>
      <trkpt lat="42.86037" lon="0.22566">
        <ele>2285</ele>
        <time>2012-02-23T11:33:43Z</time>
      </trkpt>
      <trkpt lat="42.86038" lon="0.22564">
        <ele>2285</ele>
        <time>2012-02-23T11:33:46Z</time>
      </trkpt>
      <trkpt lat="42.86039" lon="0.22561">
        <ele>2286</ele>
        <time>2012-02-23T11:33:50Z</time>
      </trkpt>
      <trkpt lat="42.86042" lon="0.22558">
        <ele>2286</ele>
        <time>2012-02-23T11:33:54Z</time>
      </trkpt>
      <trkpt lat="42.86043" lon="0.22556">
        <ele>2286</ele>
        <time>2012-02-23T11:33:57Z</time>
      </trkpt>
      <trkpt lat="42.86045" lon="0.22553">
        <ele>2286</ele>
        <time>2012-02-23T11:34:01Z</time>
      </trkpt>
      <trkpt lat="42.86048" lon="0.22549">
        <ele>2286</ele>
        <time>2012-02-23T11:34:06Z</time>
      </trkpt>
      <trkpt lat="42.8605" lon="0.22546">
        <ele>2286</ele>
        <time>2012-02-23T11:34:11Z</time>
      </trkpt>
      <trkpt lat="42.86052" lon="0.22542">
        <ele>2286</ele>
        <time>2012-02-23T11:34:16Z</time>
      </trkpt>
      <trkpt lat="42.86052" lon="0.2254">
        <ele>2286</ele>
        <time>2012-02-23T11:34:19Z</time>
      </trkpt>
      <trkpt lat="42.86053" lon="0.22537">
        <ele>2286</ele>
        <time>2012-02-23T11:34:24Z</time>
      </trkpt>
      <trkpt lat="42.86053" lon="0.22535">
        <ele>2286</ele>
        <time>2012-02-23T11:34:27Z</time>
      </trkpt>
      <trkpt lat="42.86054" lon="0.22534">
        <ele>2287</ele>
        <time>2012-02-23T11:34:30Z</time>
      </trkpt>
      <trkpt lat="42.86054" lon="0.22532">
        <ele>2288</ele>
        <time>2012-02-23T11:34:33Z</time>
      </trkpt>
      <trkpt lat="42.86054" lon="0.2253">
        <ele>2288</ele>
        <time>2012-02-23T11:34:36Z</time>
      </trkpt>
      <trkpt lat="42.86054" lon="0.22528">
        <ele>2290</ele>
        <time>2012-02-23T11:34:53Z</time>
      </trkpt>
      <trkpt lat="42.86055" lon="0.22527">
        <ele>2290</ele>
        <time>2012-02-23T11:34:56Z</time>
      </trkpt>
      <trkpt lat="42.86056" lon="0.22524">
        <ele>2291</ele>
        <time>2012-02-23T11:35:01Z</time>
      </trkpt>
      <trkpt lat="42.86057" lon="0.22522">
        <ele>2292</ele>
        <time>2012-02-23T11:35:04Z</time>
      </trkpt>
      <trkpt lat="42.86058" lon="0.22518">
        <ele>2293</ele>
        <time>2012-02-23T11:35:09Z</time>
      </trkpt>
      <trkpt lat="42.86059" lon="0.22516">
        <ele>2293</ele>
        <time>2012-02-23T11:35:12Z</time>
      </trkpt>
      <trkpt lat="42.8606" lon="0.22514">
        <ele>2294</ele>
        <time>2012-02-23T11:35:15Z</time>
      </trkpt>
      <trkpt lat="42.86061" lon="0.22511">
        <ele>2294</ele>
        <time>2012-02-23T11:35:20Z</time>
      </trkpt>
      <trkpt lat="42.86062" lon="0.22509">
        <ele>2295</ele>
        <time>2012-02-23T11:35:23Z</time>
      </trkpt>
      <trkpt lat="42.86063" lon="0.22507">
        <ele>2296</ele>
        <time>2012-02-23T11:35:26Z</time>
      </trkpt>
      <trkpt lat="42.86064" lon="0.22505">
        <ele>2297</ele>
        <time>2012-02-23T11:35:29Z</time>
      </trkpt>
      <trkpt lat="42.86065" lon="0.22503">
        <ele>2297</ele>
        <time>2012-02-23T11:35:32Z</time>
      </trkpt>
      <trkpt lat="42.86065" lon="0.22502">
        <ele>2298</ele>
        <time>2012-02-23T11:35:35Z</time>
      </trkpt>
      <trkpt lat="42.86066" lon="0.22499">
        <ele>2299</ele>
        <time>2012-02-23T11:35:41Z</time>
      </trkpt>
      <trkpt lat="42.86067" lon="0.22497">
        <ele>2300</ele>
        <time>2012-02-23T11:35:59Z</time>
      </trkpt>
      <trkpt lat="42.86068" lon="0.22495">
        <ele>2300</ele>
        <time>2012-02-23T11:36:02Z</time>
      </trkpt>
      <trkpt lat="42.86068" lon="0.22493">
        <ele>2301</ele>
        <time>2012-02-23T11:36:05Z</time>
      </trkpt>
      <trkpt lat="42.86069" lon="0.22491">
        <ele>2302</ele>
        <time>2012-02-23T11:36:08Z</time>
      </trkpt>
      <trkpt lat="42.86069" lon="0.22489">
        <ele>2303</ele>
        <time>2012-02-23T11:36:11Z</time>
      </trkpt>
      <trkpt lat="42.8607" lon="0.22491">
        <ele>2304</ele>
        <time>2012-02-23T11:36:23Z</time>
      </trkpt>
      <trkpt lat="42.86071" lon="0.22494">
        <ele>2305</ele>
        <time>2012-02-23T11:36:28Z</time>
      </trkpt>
      <trkpt lat="42.86072" lon="0.22496">
        <ele>2305</ele>
        <time>2012-02-23T11:36:31Z</time>
      </trkpt>
      <trkpt lat="42.86074" lon="0.225">
        <ele>2307</ele>
        <time>2012-02-23T11:36:36Z</time>
      </trkpt>
      <trkpt lat="42.86074" lon="0.22501">
        <ele>2308</ele>
        <time>2012-02-23T11:36:40Z</time>
      </trkpt>
      <trkpt lat="42.86074" lon="0.22503">
        <ele>2309</ele>
        <time>2012-02-23T11:36:47Z</time>
      </trkpt>
      <trkpt lat="42.86075" lon="0.22506">
        <ele>2311</ele>
        <time>2012-02-23T11:36:51Z</time>
      </trkpt>
      <trkpt lat="42.86076" lon="0.22508">
        <ele>2311</ele>
        <time>2012-02-23T11:36:54Z</time>
      </trkpt>
      <trkpt lat="42.86077" lon="0.22509">
        <ele>2312</ele>
        <time>2012-02-23T11:36:57Z</time>
      </trkpt>
      <trkpt lat="42.86078" lon="0.22511">
        <ele>2313</ele>
        <time>2012-02-23T11:37:00Z</time>
      </trkpt>
      <trkpt lat="42.8608" lon="0.22512">
        <ele>2313</ele>
        <time>2012-02-23T11:37:04Z</time>
      </trkpt>
      <trkpt lat="42.86081" lon="0.22514">
        <ele>2313</ele>
        <time>2012-02-23T11:37:07Z</time>
      </trkpt>
      <trkpt lat="42.86082" lon="0.22514">
        <ele>2313</ele>
        <time>2012-02-23T11:37:10Z</time>
      </trkpt>
      <trkpt lat="42.86084" lon="0.22515">
        <ele>2313</ele>
        <time>2012-02-23T11:37:13Z</time>
      </trkpt>
      <trkpt lat="42.86085" lon="0.22515">
        <ele>2313</ele>
        <time>2012-02-23T11:37:16Z</time>
      </trkpt>
      <trkpt lat="42.86087" lon="0.22516">
        <ele>2314</ele>
        <time>2012-02-23T11:37:19Z</time>
      </trkpt>
      <trkpt lat="42.86089" lon="0.22517">
        <ele>2314</ele>
        <time>2012-02-23T11:37:23Z</time>
      </trkpt>
      <trkpt lat="42.86091" lon="0.22517">
        <ele>2314</ele>
        <time>2012-02-23T11:37:26Z</time>
      </trkpt>
      <trkpt lat="42.86092" lon="0.22518">
        <ele>2315</ele>
        <time>2012-02-23T11:37:29Z</time>
      </trkpt>
      <trkpt lat="42.86093" lon="0.22519">
        <ele>2315</ele>
        <time>2012-02-23T11:37:32Z</time>
      </trkpt>
      <trkpt lat="42.86094" lon="0.22518">
        <ele>2316</ele>
        <time>2012-02-23T11:37:46Z</time>
      </trkpt>
      <trkpt lat="42.86095" lon="0.22518">
        <ele>2316</ele>
        <time>2012-02-23T11:38:05Z</time>
      </trkpt>
      <trkpt lat="42.86096" lon="0.22517">
        <ele>2316</ele>
        <time>2012-02-23T11:38:08Z</time>
      </trkpt>
      <trkpt lat="42.86097" lon="0.22518">
        <ele>2316</ele>
        <time>2012-02-23T11:38:11Z</time>
      </trkpt>
      <trkpt lat="42.86099" lon="0.22519">
        <ele>2316</ele>
        <time>2012-02-23T11:38:14Z</time>
      </trkpt>
      <trkpt lat="42.861" lon="0.22518">
        <ele>2316</ele>
        <time>2012-02-23T11:38:17Z</time>
      </trkpt>
      <trkpt lat="42.86102" lon="0.22518">
        <ele>2316</ele>
        <time>2012-02-23T11:38:20Z</time>
      </trkpt>
      <trkpt lat="42.86103" lon="0.22518">
        <ele>2316</ele>
        <time>2012-02-23T11:38:23Z</time>
      </trkpt>
      <trkpt lat="42.86106" lon="0.22517">
        <ele>2316</ele>
        <time>2012-02-23T11:38:28Z</time>
      </trkpt>
      <trkpt lat="42.86108" lon="0.22517">
        <ele>2316</ele>
        <time>2012-02-23T11:38:32Z</time>
      </trkpt>
      <trkpt lat="42.8611" lon="0.22516">
        <ele>2316</ele>
        <time>2012-02-23T11:38:35Z</time>
      </trkpt>
      <trkpt lat="42.86113" lon="0.22514">
        <ele>2316</ele>
        <time>2012-02-23T11:38:40Z</time>
      </trkpt>
      <trkpt lat="42.86116" lon="0.22511">
        <ele>2316</ele>
        <time>2012-02-23T11:38:45Z</time>
      </trkpt>
      <trkpt lat="42.86116" lon="0.22509">
        <ele>2316</ele>
        <time>2012-02-23T11:38:48Z</time>
      </trkpt>
      <trkpt lat="42.86117" lon="0.22508">
        <ele>2317</ele>
        <time>2012-02-23T11:38:51Z</time>
      </trkpt>
      <trkpt lat="42.86119" lon="0.22504">
        <ele>2318</ele>
        <time>2012-02-23T11:38:56Z</time>
      </trkpt>
      <trkpt lat="42.86119" lon="0.22503">
        <ele>2319</ele>
        <time>2012-02-23T11:39:17Z</time>
      </trkpt>
      <trkpt lat="42.86118" lon="0.22504">
        <ele>2319</ele>
        <time>2012-02-23T11:39:22Z</time>
      </trkpt>
      <trkpt lat="42.86119" lon="0.22503">
        <ele>2319</ele>
        <time>2012-02-23T11:39:31Z</time>
      </trkpt>
      <trkpt lat="42.86121" lon="0.22502">
        <ele>2319</ele>
        <time>2012-02-23T11:39:34Z</time>
      </trkpt>
      <trkpt lat="42.86122" lon="0.22501">
        <ele>2319</ele>
        <time>2012-02-23T11:39:42Z</time>
      </trkpt>
      <trkpt lat="42.86121" lon="0.22502">
        <ele>2319</ele>
        <time>2012-02-23T11:39:47Z</time>
      </trkpt>
      <trkpt lat="42.86122" lon="0.22501">
        <ele>2319</ele>
        <time>2012-02-23T11:39:53Z</time>
      </trkpt>
      <trkpt lat="42.86123" lon="0.22499">
        <ele>2319</ele>
        <time>2012-02-23T11:39:57Z</time>
      </trkpt>
      <trkpt lat="42.86124" lon="0.22497">
        <ele>2319</ele>
        <time>2012-02-23T11:40:00Z</time>
      </trkpt>
      <trkpt lat="42.86128" lon="0.22494">
        <ele>2319</ele>
        <time>2012-02-23T11:40:04Z</time>
      </trkpt>
      <trkpt lat="42.86132" lon="0.22492">
        <ele>2320</ele>
        <time>2012-02-23T11:40:08Z</time>
      </trkpt>
      <trkpt lat="42.86134" lon="0.22489">
        <ele>2320</ele>
        <time>2012-02-23T11:40:13Z</time>
      </trkpt>
      <trkpt lat="42.86135" lon="0.22487">
        <ele>2320</ele>
        <time>2012-02-23T11:40:16Z</time>
      </trkpt>
      <trkpt lat="42.86137" lon="0.22485">
        <ele>2320</ele>
        <time>2012-02-23T11:40:19Z</time>
      </trkpt>
      <trkpt lat="42.8614" lon="0.22482">
        <ele>2320</ele>
        <time>2012-02-23T11:40:23Z</time>
      </trkpt>
      <trkpt lat="42.86141" lon="0.2248">
        <ele>2320</ele>
        <time>2012-02-23T11:40:26Z</time>
      </trkpt>
      <trkpt lat="42.86142" lon="0.22478">
        <ele>2321</ele>
        <time>2012-02-23T11:40:29Z</time>
      </trkpt>
      <trkpt lat="42.86144" lon="0.22474">
        <ele>2321</ele>
        <time>2012-02-23T11:40:34Z</time>
      </trkpt>
      <trkpt lat="42.86146" lon="0.22472">
        <ele>2321</ele>
        <time>2012-02-23T11:40:37Z</time>
      </trkpt>
      <trkpt lat="42.86147" lon="0.2247">
        <ele>2322</ele>
        <time>2012-02-23T11:40:40Z</time>
      </trkpt>
      <trkpt lat="42.86147" lon="0.22468">
        <ele>2323</ele>
        <time>2012-02-23T11:40:43Z</time>
      </trkpt>
      <trkpt lat="42.86148" lon="0.22466">
        <ele>2323</ele>
        <time>2012-02-23T11:40:46Z</time>
      </trkpt>
      <trkpt lat="42.86149" lon="0.22464">
        <ele>2323</ele>
        <time>2012-02-23T11:40:49Z</time>
      </trkpt>
      <trkpt lat="42.86152" lon="0.22461">
        <ele>2323</ele>
        <time>2012-02-23T11:40:53Z</time>
      </trkpt>
      <trkpt lat="42.86153" lon="0.22459">
        <ele>2323</ele>
        <time>2012-02-23T11:40:56Z</time>
      </trkpt>
      <trkpt lat="42.86154" lon="0.22457">
        <ele>2323</ele>
        <time>2012-02-23T11:40:59Z</time>
      </trkpt>
      <trkpt lat="42.86155" lon="0.22456">
        <ele>2323</ele>
        <time>2012-02-23T11:41:02Z</time>
      </trkpt>
      <trkpt lat="42.86156" lon="0.22454">
        <ele>2323</ele>
        <time>2012-02-23T11:41:05Z</time>
      </trkpt>
      <trkpt lat="42.86156" lon="0.22451">
        <ele>2324</ele>
        <time>2012-02-23T11:41:10Z</time>
      </trkpt>
      <trkpt lat="42.86155" lon="0.2245">
        <ele>2325</ele>
        <time>2012-02-23T11:41:16Z</time>
      </trkpt>
      <trkpt lat="42.86154" lon="0.22451">
        <ele>2326</ele>
        <time>2012-02-23T11:41:24Z</time>
      </trkpt>
      <trkpt lat="42.86155" lon="0.22449">
        <ele>2326</ele>
        <time>2012-02-23T11:41:28Z</time>
      </trkpt>
      <trkpt lat="42.86156" lon="0.22445">
        <ele>2327</ele>
        <time>2012-02-23T11:41:33Z</time>
      </trkpt>
      <trkpt lat="42.86158" lon="0.22442">
        <ele>2327</ele>
        <time>2012-02-23T11:41:37Z</time>
      </trkpt>
      <trkpt lat="42.8616" lon="0.22439">
        <ele>2327</ele>
        <time>2012-02-23T11:41:41Z</time>
      </trkpt>
      <trkpt lat="42.86163" lon="0.22435">
        <ele>2328</ele>
        <time>2012-02-23T11:41:46Z</time>
      </trkpt>
      <trkpt lat="42.86165" lon="0.22433">
        <ele>2329</ele>
        <time>2012-02-23T11:41:50Z</time>
      </trkpt>
      <trkpt lat="42.86167" lon="0.2243">
        <ele>2330</ele>
        <time>2012-02-23T11:41:54Z</time>
      </trkpt>
      <trkpt lat="42.86169" lon="0.22427">
        <ele>2331</ele>
        <time>2012-02-23T11:41:59Z</time>
      </trkpt>
      <trkpt lat="42.86171" lon="0.22424">
        <ele>2332</ele>
        <time>2012-02-23T11:42:04Z</time>
      </trkpt>
      <trkpt lat="42.86174" lon="0.22422">
        <ele>2332</ele>
        <time>2012-02-23T11:42:08Z</time>
      </trkpt>
      <trkpt lat="42.86175" lon="0.2242">
        <ele>2332</ele>
        <time>2012-02-23T11:42:11Z</time>
      </trkpt>
      <trkpt lat="42.86177" lon="0.22416">
        <ele>2332</ele>
        <time>2012-02-23T11:42:17Z</time>
      </trkpt>
      <trkpt lat="42.86179" lon="0.22412">
        <ele>2332</ele>
        <time>2012-02-23T11:42:23Z</time>
      </trkpt>
      <trkpt lat="42.8618" lon="0.22409">
        <ele>2333</ele>
        <time>2012-02-23T11:42:27Z</time>
      </trkpt>
      <trkpt lat="42.86182" lon="0.22407">
        <ele>2333</ele>
        <time>2012-02-23T11:42:30Z</time>
      </trkpt>
      <trkpt lat="42.86184" lon="0.22404">
        <ele>2335</ele>
        <time>2012-02-23T11:42:34Z</time>
      </trkpt>
      <trkpt lat="42.86185" lon="0.22403">
        <ele>2336</ele>
        <time>2012-02-23T11:42:37Z</time>
      </trkpt>
      <trkpt lat="42.86186" lon="0.22401">
        <ele>2336</ele>
        <time>2012-02-23T11:42:40Z</time>
      </trkpt>
      <trkpt lat="42.86186" lon="0.224">
        <ele>2339</ele>
        <time>2012-02-23T11:43:06Z</time>
      </trkpt>
      <trkpt lat="42.86186" lon="0.22401">
        <ele>2342</ele>
        <time>2012-02-23T11:43:24Z</time>
      </trkpt>
      <trkpt lat="42.86185" lon="0.22402">
        <ele>2342</ele>
        <time>2012-02-23T11:43:31Z</time>
      </trkpt>
      <trkpt lat="42.86186" lon="0.22403">
        <ele>2342</ele>
        <time>2012-02-23T11:43:41Z</time>
      </trkpt>
      <trkpt lat="42.86185" lon="0.22402">
        <ele>2339</ele>
        <time>2012-02-23T11:44:02Z</time>
      </trkpt>
      <trkpt lat="42.86187" lon="0.22402">
        <ele>2339</ele>
        <time>2012-02-23T11:44:09Z</time>
      </trkpt>
      <trkpt lat="42.86188" lon="0.224">
        <ele>2329</ele>
        <time>2012-02-23T11:44:22Z</time>
      </trkpt>
      <trkpt lat="42.86189" lon="0.224">
        <ele>2321</ele>
        <time>2012-02-23T11:44:34Z</time>
      </trkpt>
      <trkpt lat="42.8619" lon="0.22399">
        <ele>2322</ele>
        <time>2012-02-23T11:44:40Z</time>
      </trkpt>
      <trkpt lat="42.86189" lon="0.22398">
        <ele>2322</ele>
        <time>2012-02-23T11:44:46Z</time>
      </trkpt>
      <trkpt lat="42.86187" lon="0.22398">
        <ele>2323</ele>
        <time>2012-02-23T11:44:51Z</time>
      </trkpt>
      <trkpt lat="42.86189" lon="0.22398">
        <ele>2325</ele>
        <time>2012-02-23T11:44:57Z</time>
      </trkpt>
      <trkpt lat="42.86193" lon="0.22397">
        <ele>2325</ele>
        <time>2012-02-23T11:45:03Z</time>
      </trkpt>
      <trkpt lat="42.86191" lon="0.22399">
        <ele>2325</ele>
        <time>2012-02-23T11:45:10Z</time>
      </trkpt>
      <trkpt lat="42.8619" lon="0.224">
        <ele>2325</ele>
        <time>2012-02-23T11:45:13Z</time>
      </trkpt>
      <trkpt lat="42.86189" lon="0.224">
        <ele>2325</ele>
        <time>2012-02-23T11:45:16Z</time>
      </trkpt>
      <trkpt lat="42.8619" lon="0.22399">
        <ele>2332</ele>
        <time>2012-02-23T11:45:26Z</time>
      </trkpt>
      <trkpt lat="42.86191" lon="0.22397">
        <ele>2334</ele>
        <time>2012-02-23T11:45:29Z</time>
      </trkpt>
      <trkpt lat="42.86192" lon="0.22395">
        <ele>2335</ele>
        <time>2012-02-23T11:45:32Z</time>
      </trkpt>
      <trkpt lat="42.86194" lon="0.22392">
        <ele>2338</ele>
        <time>2012-02-23T11:45:37Z</time>
      </trkpt>
      <trkpt lat="42.86195" lon="0.22389">
        <ele>2339</ele>
        <time>2012-02-23T11:45:42Z</time>
      </trkpt>
      <trkpt lat="42.86196" lon="0.22386">
        <ele>2342</ele>
        <time>2012-02-23T11:45:48Z</time>
      </trkpt>
      <trkpt lat="42.86198" lon="0.22382">
        <ele>2343</ele>
        <time>2012-02-23T11:45:55Z</time>
      </trkpt>
      <trkpt lat="42.86199" lon="0.2238">
        <ele>2344</ele>
        <time>2012-02-23T11:45:58Z</time>
      </trkpt>
      <trkpt lat="42.862" lon="0.22378">
        <ele>2345</ele>
        <time>2012-02-23T11:46:01Z</time>
      </trkpt>
      <trkpt lat="42.86201" lon="0.22377">
        <ele>2345</ele>
        <time>2012-02-23T11:46:05Z</time>
      </trkpt>
      <trkpt lat="42.86202" lon="0.22375">
        <ele>2345</ele>
        <time>2012-02-23T11:46:09Z</time>
      </trkpt>
      <trkpt lat="42.86203" lon="0.22375">
        <ele>2345</ele>
        <time>2012-02-23T11:46:12Z</time>
      </trkpt>
      <trkpt lat="42.86203" lon="0.22373">
        <ele>2345</ele>
        <time>2012-02-23T11:46:29Z</time>
      </trkpt>
      <trkpt lat="42.86204" lon="0.22371">
        <ele>2348</ele>
        <time>2012-02-23T11:46:41Z</time>
      </trkpt>
      <trkpt lat="42.86207" lon="0.22368">
        <ele>2348</ele>
        <time>2012-02-23T11:46:45Z</time>
      </trkpt>
      <trkpt lat="42.86208" lon="0.22366">
        <ele>2348</ele>
        <time>2012-02-23T11:46:48Z</time>
      </trkpt>
      <trkpt lat="42.86208" lon="0.22365">
        <ele>2348</ele>
        <time>2012-02-23T11:46:53Z</time>
      </trkpt>
      <trkpt lat="42.86209" lon="0.22363">
        <ele>2348</ele>
        <time>2012-02-23T11:46:57Z</time>
      </trkpt>
      <trkpt lat="42.86211" lon="0.2236">
        <ele>2348</ele>
        <time>2012-02-23T11:47:02Z</time>
      </trkpt>
      <trkpt lat="42.86212" lon="0.22359">
        <ele>2348</ele>
        <time>2012-02-23T11:47:05Z</time>
      </trkpt>
      <trkpt lat="42.86213" lon="0.22357">
        <ele>2348</ele>
        <time>2012-02-23T11:47:08Z</time>
      </trkpt>
      <trkpt lat="42.86215" lon="0.22354">
        <ele>2348</ele>
        <time>2012-02-23T11:47:12Z</time>
      </trkpt>
      <trkpt lat="42.86215" lon="0.22352">
        <ele>2350</ele>
        <time>2012-02-23T11:47:50Z</time>
      </trkpt>
      <trkpt lat="42.86215" lon="0.2235">
        <ele>2353</ele>
        <time>2012-02-23T11:47:53Z</time>
      </trkpt>
      <trkpt lat="42.86215" lon="0.22347">
        <ele>2356</ele>
        <time>2012-02-23T11:47:57Z</time>
      </trkpt>
      <trkpt lat="42.86215" lon="0.22345">
        <ele>2357</ele>
        <time>2012-02-23T11:48:00Z</time>
      </trkpt>
      <trkpt lat="42.86215" lon="0.22341">
        <ele>2360</ele>
        <time>2012-02-23T11:48:05Z</time>
      </trkpt>
      <trkpt lat="42.86216" lon="0.22339">
        <ele>2361</ele>
        <time>2012-02-23T11:48:08Z</time>
      </trkpt>
      <trkpt lat="42.86217" lon="0.22337">
        <ele>2361</ele>
        <time>2012-02-23T11:48:11Z</time>
      </trkpt>
      <trkpt lat="42.86219" lon="0.22333">
        <ele>2361</ele>
        <time>2012-02-23T11:48:16Z</time>
      </trkpt>
      <trkpt lat="42.8622" lon="0.2233">
        <ele>2361</ele>
        <time>2012-02-23T11:48:22Z</time>
      </trkpt>
      <trkpt lat="42.86221" lon="0.22326">
        <ele>2361</ele>
        <time>2012-02-23T11:48:27Z</time>
      </trkpt>
      <trkpt lat="42.86222" lon="0.22324">
        <ele>2361</ele>
        <time>2012-02-23T11:48:30Z</time>
      </trkpt>
      <trkpt lat="42.86221" lon="0.22323">
        <ele>2361</ele>
        <time>2012-02-23T11:48:33Z</time>
      </trkpt>
      <trkpt lat="42.86221" lon="0.2232">
        <ele>2362</ele>
        <time>2012-02-23T11:48:38Z</time>
      </trkpt>
      <trkpt lat="42.86222" lon="0.22316">
        <ele>2363</ele>
        <time>2012-02-23T11:48:43Z</time>
      </trkpt>
      <trkpt lat="42.86223" lon="0.22314">
        <ele>2366</ele>
        <time>2012-02-23T11:49:11Z</time>
      </trkpt>
      <trkpt lat="42.86226" lon="0.22312">
        <ele>2367</ele>
        <time>2012-02-23T11:49:15Z</time>
      </trkpt>
      <trkpt lat="42.86228" lon="0.22309">
        <ele>2367</ele>
        <time>2012-02-23T11:49:19Z</time>
      </trkpt>
      <trkpt lat="42.86229" lon="0.22307">
        <ele>2367</ele>
        <time>2012-02-23T11:49:22Z</time>
      </trkpt>
      <trkpt lat="42.8623" lon="0.22305">
        <ele>2367</ele>
        <time>2012-02-23T11:49:25Z</time>
      </trkpt>
      <trkpt lat="42.86232" lon="0.22302">
        <ele>2367</ele>
        <time>2012-02-23T11:49:30Z</time>
      </trkpt>
      <trkpt lat="42.86232" lon="0.223">
        <ele>2367</ele>
        <time>2012-02-23T11:49:33Z</time>
      </trkpt>
      <trkpt lat="42.86233" lon="0.22299">
        <ele>2367</ele>
        <time>2012-02-23T11:49:36Z</time>
      </trkpt>
      <trkpt lat="42.86234" lon="0.22297">
        <ele>2367</ele>
        <time>2012-02-23T11:49:39Z</time>
      </trkpt>
      <trkpt lat="42.86235" lon="0.22294">
        <ele>2367</ele>
        <time>2012-02-23T11:49:45Z</time>
      </trkpt>
      <trkpt lat="42.86235" lon="0.22292">
        <ele>2367</ele>
        <time>2012-02-23T11:49:49Z</time>
      </trkpt>
      <trkpt lat="42.86236" lon="0.2229">
        <ele>2367</ele>
        <time>2012-02-23T11:49:53Z</time>
      </trkpt>
      <trkpt lat="42.86237" lon="0.22289">
        <ele>2367</ele>
        <time>2012-02-23T11:49:56Z</time>
      </trkpt>
      <trkpt lat="42.86237" lon="0.22287">
        <ele>2367</ele>
        <time>2012-02-23T11:49:59Z</time>
      </trkpt>
      <trkpt lat="42.86238" lon="0.22286">
        <ele>2367</ele>
        <time>2012-02-23T11:50:02Z</time>
      </trkpt>
      <trkpt lat="42.86239" lon="0.22284">
        <ele>2368</ele>
        <time>2012-02-23T11:50:06Z</time>
      </trkpt>
      <trkpt lat="42.86241" lon="0.22281">
        <ele>2369</ele>
        <time>2012-02-23T11:50:11Z</time>
      </trkpt>
      <trkpt lat="42.86242" lon="0.22279">
        <ele>2369</ele>
        <time>2012-02-23T11:50:15Z</time>
      </trkpt>
      <trkpt lat="42.8624" lon="0.2228">
        <ele>2370</ele>
        <time>2012-02-23T11:50:28Z</time>
      </trkpt>
      <trkpt lat="42.8624" lon="0.22279">
        <ele>2371</ele>
        <time>2012-02-23T11:50:43Z</time>
      </trkpt>
      <trkpt lat="42.86241" lon="0.22277">
        <ele>2371</ele>
        <time>2012-02-23T11:50:46Z</time>
      </trkpt>
      <trkpt lat="42.86242" lon="0.22275">
        <ele>2371</ele>
        <time>2012-02-23T11:50:50Z</time>
      </trkpt>
      <trkpt lat="42.86243" lon="0.22274">
        <ele>2371</ele>
        <time>2012-02-23T11:50:53Z</time>
      </trkpt>
      <trkpt lat="42.86245" lon="0.22272">
        <ele>2371</ele>
        <time>2012-02-23T11:50:56Z</time>
      </trkpt>
      <trkpt lat="42.86245" lon="0.2227">
        <ele>2371</ele>
        <time>2012-02-23T11:51:00Z</time>
      </trkpt>
      <trkpt lat="42.86246" lon="0.22268">
        <ele>2373</ele>
        <time>2012-02-23T11:51:03Z</time>
      </trkpt>
      <trkpt lat="42.86247" lon="0.22266">
        <ele>2373</ele>
        <time>2012-02-23T11:51:06Z</time>
      </trkpt>
      <trkpt lat="42.86248" lon="0.22264">
        <ele>2374</ele>
        <time>2012-02-23T11:51:11Z</time>
      </trkpt>
      <trkpt lat="42.86248" lon="0.22263">
        <ele>2374</ele>
        <time>2012-02-23T11:51:15Z</time>
      </trkpt>
      <trkpt lat="42.86249" lon="0.22261">
        <ele>2375</ele>
        <time>2012-02-23T11:51:19Z</time>
      </trkpt>
      <trkpt lat="42.8625" lon="0.22259">
        <ele>2376</ele>
        <time>2012-02-23T11:51:24Z</time>
      </trkpt>
      <trkpt lat="42.86251" lon="0.22258">
        <ele>2377</ele>
        <time>2012-02-23T11:51:27Z</time>
      </trkpt>
      <trkpt lat="42.86252" lon="0.22257">
        <ele>2378</ele>
        <time>2012-02-23T11:51:31Z</time>
      </trkpt>
      <trkpt lat="42.86251" lon="0.22255">
        <ele>2380</ele>
        <time>2012-02-23T11:52:04Z</time>
      </trkpt>
      <trkpt lat="42.86253" lon="0.22254">
        <ele>2380</ele>
        <time>2012-02-23T11:52:11Z</time>
      </trkpt>
      <trkpt lat="42.86256" lon="0.22254">
        <ele>2380</ele>
        <time>2012-02-23T11:52:16Z</time>
      </trkpt>
      <trkpt lat="42.86257" lon="0.22254">
        <ele>2380</ele>
        <time>2012-02-23T11:52:19Z</time>
      </trkpt>
      <trkpt lat="42.86258" lon="0.22254">
        <ele>2380</ele>
        <time>2012-02-23T11:52:22Z</time>
      </trkpt>
      <trkpt lat="42.8626" lon="0.22254">
        <ele>2380</ele>
        <time>2012-02-23T11:52:25Z</time>
      </trkpt>
      <trkpt lat="42.86261" lon="0.22255">
        <ele>2381</ele>
        <time>2012-02-23T11:52:28Z</time>
      </trkpt>
      <trkpt lat="42.86262" lon="0.22254">
        <ele>2382</ele>
        <time>2012-02-23T11:52:31Z</time>
      </trkpt>
      <trkpt lat="42.86264" lon="0.22253">
        <ele>2383</ele>
        <time>2012-02-23T11:52:34Z</time>
      </trkpt>
      <trkpt lat="42.86265" lon="0.22253">
        <ele>2383</ele>
        <time>2012-02-23T11:52:37Z</time>
      </trkpt>
      <trkpt lat="42.86266" lon="0.22251">
        <ele>2383</ele>
        <time>2012-02-23T11:52:40Z</time>
      </trkpt>
      <trkpt lat="42.86268" lon="0.2225">
        <ele>2384</ele>
        <time>2012-02-23T11:52:46Z</time>
      </trkpt>
      <trkpt lat="42.86269" lon="0.2225">
        <ele>2384</ele>
        <time>2012-02-23T11:52:51Z</time>
      </trkpt>
      <trkpt lat="42.86271" lon="0.2225">
        <ele>2385</ele>
        <time>2012-02-23T11:52:54Z</time>
      </trkpt>
      <trkpt lat="42.86272" lon="0.2225">
        <ele>2387</ele>
        <time>2012-02-23T11:52:57Z</time>
      </trkpt>
      <trkpt lat="42.86274" lon="0.2225">
        <ele>2388</ele>
        <time>2012-02-23T11:53:01Z</time>
      </trkpt>
      <trkpt lat="42.86275" lon="0.22251">
        <ele>2389</ele>
        <time>2012-02-23T11:53:05Z</time>
      </trkpt>
      <trkpt lat="42.86276" lon="0.22251">
        <ele>2390</ele>
        <time>2012-02-23T11:53:34Z</time>
      </trkpt>
      <trkpt lat="42.86278" lon="0.2225">
        <ele>2390</ele>
        <time>2012-02-23T11:53:56Z</time>
      </trkpt>
      <trkpt lat="42.86279" lon="0.22251">
        <ele>2390</ele>
        <time>2012-02-23T11:53:59Z</time>
      </trkpt>
      <trkpt lat="42.86282" lon="0.22252">
        <ele>2391</ele>
        <time>2012-02-23T11:54:04Z</time>
      </trkpt>
      <trkpt lat="42.86283" lon="0.22251">
        <ele>2393</ele>
        <time>2012-02-23T11:54:07Z</time>
      </trkpt>
      <trkpt lat="42.86285" lon="0.22251">
        <ele>2394</ele>
        <time>2012-02-23T11:54:11Z</time>
      </trkpt>
      <trkpt lat="42.86288" lon="0.22251">
        <ele>2395</ele>
        <time>2012-02-23T11:54:16Z</time>
      </trkpt>
      <trkpt lat="42.86289" lon="0.22252">
        <ele>2395</ele>
        <time>2012-02-23T11:54:19Z</time>
      </trkpt>
      <trkpt lat="42.86291" lon="0.22252">
        <ele>2395</ele>
        <time>2012-02-23T11:54:22Z</time>
      </trkpt>
      <trkpt lat="42.86293" lon="0.22252">
        <ele>2396</ele>
        <time>2012-02-23T11:54:26Z</time>
      </trkpt>
      <trkpt lat="42.86295" lon="0.22253">
        <ele>2396</ele>
        <time>2012-02-23T11:54:29Z</time>
      </trkpt>
      <trkpt lat="42.86296" lon="0.22254">
        <ele>2397</ele>
        <time>2012-02-23T11:54:32Z</time>
      </trkpt>
      <trkpt lat="42.86299" lon="0.22255">
        <ele>2399</ele>
        <time>2012-02-23T11:54:37Z</time>
      </trkpt>
      <trkpt lat="42.863" lon="0.22257">
        <ele>2400</ele>
        <time>2012-02-23T11:54:40Z</time>
      </trkpt>
      <trkpt lat="42.86301" lon="0.22257">
        <ele>2401</ele>
        <time>2012-02-23T11:54:43Z</time>
      </trkpt>
      <trkpt lat="42.86303" lon="0.22259">
        <ele>2401</ele>
        <time>2012-02-23T11:54:46Z</time>
      </trkpt>
      <trkpt lat="42.86304" lon="0.22259">
        <ele>2402</ele>
        <time>2012-02-23T11:54:49Z</time>
      </trkpt>
      <trkpt lat="42.86305" lon="0.22257">
        <ele>2403</ele>
        <time>2012-02-23T11:54:52Z</time>
      </trkpt>
      <trkpt lat="42.86306" lon="0.22256">
        <ele>2403</ele>
        <time>2012-02-23T11:54:57Z</time>
      </trkpt>
      <trkpt lat="42.86308" lon="0.22255">
        <ele>2403</ele>
        <time>2012-02-23T11:55:05Z</time>
      </trkpt>
      <trkpt lat="42.86307" lon="0.22254">
        <ele>2403</ele>
        <time>2012-02-23T11:55:20Z</time>
      </trkpt>
      <trkpt lat="42.86307" lon="0.22252">
        <ele>2403</ele>
        <time>2012-02-23T11:55:23Z</time>
      </trkpt>
      <trkpt lat="42.86308" lon="0.22251">
        <ele>2403</ele>
        <time>2012-02-23T11:55:33Z</time>
      </trkpt>
      <trkpt lat="42.86309" lon="0.22249">
        <ele>2405</ele>
        <time>2012-02-23T11:55:42Z</time>
      </trkpt>
      <trkpt lat="42.8631" lon="0.22246">
        <ele>2406</ele>
        <time>2012-02-23T11:55:46Z</time>
      </trkpt>
      <trkpt lat="42.8631" lon="0.22244">
        <ele>2406</ele>
        <time>2012-02-23T11:55:49Z</time>
      </trkpt>
      <trkpt lat="42.86311" lon="0.22242">
        <ele>2407</ele>
        <time>2012-02-23T11:55:52Z</time>
      </trkpt>
      <trkpt lat="42.86311" lon="0.22239">
        <ele>2407</ele>
        <time>2012-02-23T11:55:56Z</time>
      </trkpt>
      <trkpt lat="42.86312" lon="0.22236">
        <ele>2407</ele>
        <time>2012-02-23T11:56:00Z</time>
      </trkpt>
      <trkpt lat="42.86312" lon="0.22233">
        <ele>2407</ele>
        <time>2012-02-23T11:56:04Z</time>
      </trkpt>
      <trkpt lat="42.86314" lon="0.22231">
        <ele>2407</ele>
        <time>2012-02-23T11:56:10Z</time>
      </trkpt>
      <trkpt lat="42.86315" lon="0.22233">
        <ele>2407</ele>
        <time>2012-02-23T11:56:15Z</time>
      </trkpt>
      <trkpt lat="42.86316" lon="0.22233">
        <ele>2408</ele>
        <time>2012-02-23T11:56:18Z</time>
      </trkpt>
      <trkpt lat="42.86317" lon="0.22234">
        <ele>2409</ele>
        <time>2012-02-23T11:56:22Z</time>
      </trkpt>
      <trkpt lat="42.86319" lon="0.22237">
        <ele>2412</ele>
        <time>2012-02-23T11:56:28Z</time>
      </trkpt>
      <trkpt lat="42.86321" lon="0.22237">
        <ele>2412</ele>
        <time>2012-02-23T11:56:33Z</time>
      </trkpt>
      <trkpt lat="42.86322" lon="0.22237">
        <ele>2412</ele>
        <time>2012-02-23T11:57:12Z</time>
      </trkpt>
      <trkpt lat="42.86327" lon="0.22236">
        <ele>2412</ele>
        <time>2012-02-23T11:57:16Z</time>
      </trkpt>
      <trkpt lat="42.86328" lon="0.22236">
        <ele>2412</ele>
        <time>2012-02-23T11:57:19Z</time>
      </trkpt>
      <trkpt lat="42.86329" lon="0.22235">
        <ele>2412</ele>
        <time>2012-02-23T11:57:22Z</time>
      </trkpt>
      <trkpt lat="42.8633" lon="0.22235">
        <ele>2412</ele>
        <time>2012-02-23T11:57:25Z</time>
      </trkpt>
      <trkpt lat="42.86332" lon="0.22234">
        <ele>2412</ele>
        <time>2012-02-23T11:57:29Z</time>
      </trkpt>
      <trkpt lat="42.86333" lon="0.22232">
        <ele>2412</ele>
        <time>2012-02-23T11:57:32Z</time>
      </trkpt>
      <trkpt lat="42.86335" lon="0.2223">
        <ele>2412</ele>
        <time>2012-02-23T11:57:37Z</time>
      </trkpt>
      <trkpt lat="42.86337" lon="0.22229">
        <ele>2412</ele>
        <time>2012-02-23T11:57:40Z</time>
      </trkpt>
      <trkpt lat="42.86338" lon="0.22227">
        <ele>2412</ele>
        <time>2012-02-23T11:57:43Z</time>
      </trkpt>
      <trkpt lat="42.86339" lon="0.22226">
        <ele>2412</ele>
        <time>2012-02-23T11:57:46Z</time>
      </trkpt>
      <trkpt lat="42.86341" lon="0.22224">
        <ele>2412</ele>
        <time>2012-02-23T11:57:49Z</time>
      </trkpt>
      <trkpt lat="42.86342" lon="0.22222">
        <ele>2412</ele>
        <time>2012-02-23T11:57:53Z</time>
      </trkpt>
      <trkpt lat="42.86343" lon="0.2222">
        <ele>2412</ele>
        <time>2012-02-23T11:57:56Z</time>
      </trkpt>
      <trkpt lat="42.86342" lon="0.22221">
        <ele>2413</ele>
        <time>2012-02-23T11:58:19Z</time>
      </trkpt>
      <trkpt lat="42.86342" lon="0.22219">
        <ele>2413</ele>
        <time>2012-02-23T11:58:40Z</time>
      </trkpt>
      <trkpt lat="42.86342" lon="0.22218">
        <ele>2413</ele>
        <time>2012-02-23T11:58:43Z</time>
      </trkpt>
      <trkpt lat="42.86343" lon="0.22215">
        <ele>2414</ele>
        <time>2012-02-23T11:58:47Z</time>
      </trkpt>
      <trkpt lat="42.86343" lon="0.22211">
        <ele>2414</ele>
        <time>2012-02-23T11:58:52Z</time>
      </trkpt>
      <trkpt lat="42.86342" lon="0.22208">
        <ele>2415</ele>
        <time>2012-02-23T11:58:57Z</time>
      </trkpt>
      <trkpt lat="42.86342" lon="0.22206">
        <ele>2415</ele>
        <time>2012-02-23T11:59:00Z</time>
      </trkpt>
      <trkpt lat="42.86342" lon="0.22204">
        <ele>2416</ele>
        <time>2012-02-23T11:59:03Z</time>
      </trkpt>
      <trkpt lat="42.86341" lon="0.22202">
        <ele>2417</ele>
        <time>2012-02-23T11:59:06Z</time>
      </trkpt>
      <trkpt lat="42.86341" lon="0.222">
        <ele>2418</ele>
        <time>2012-02-23T11:59:09Z</time>
      </trkpt>
      <trkpt lat="42.86341" lon="0.22197">
        <ele>2419</ele>
        <time>2012-02-23T11:59:13Z</time>
      </trkpt>
      <trkpt lat="42.86341" lon="0.22195">
        <ele>2419</ele>
        <time>2012-02-23T11:59:16Z</time>
      </trkpt>
      <trkpt lat="42.86341" lon="0.22194">
        <ele>2419</ele>
        <time>2012-02-23T11:59:20Z</time>
      </trkpt>
      <trkpt lat="42.8634" lon="0.22194">
        <ele>2420</ele>
        <time>2012-02-23T11:59:34Z</time>
      </trkpt>
      <trkpt lat="42.8634" lon="0.22192">
        <ele>2421</ele>
        <time>2012-02-23T11:59:42Z</time>
      </trkpt>
      <trkpt lat="42.8634" lon="0.2219">
        <ele>2422</ele>
        <time>2012-02-23T11:59:45Z</time>
      </trkpt>
      <trkpt lat="42.8634" lon="0.22187">
        <ele>2422</ele>
        <time>2012-02-23T11:59:49Z</time>
      </trkpt>
      <trkpt lat="42.86341" lon="0.22184">
        <ele>2423</ele>
        <time>2012-02-23T11:59:53Z</time>
      </trkpt>
      <trkpt lat="42.86341" lon="0.22181">
        <ele>2424</ele>
        <time>2012-02-23T11:59:57Z</time>
      </trkpt>
      <trkpt lat="42.86341" lon="0.22178">
        <ele>2425</ele>
        <time>2012-02-23T12:00:01Z</time>
      </trkpt>
      <trkpt lat="42.8634" lon="0.22174">
        <ele>2427</ele>
        <time>2012-02-23T12:00:06Z</time>
      </trkpt>
      <trkpt lat="42.8634" lon="0.22172">
        <ele>2428</ele>
        <time>2012-02-23T12:00:10Z</time>
      </trkpt>
      <trkpt lat="42.8634" lon="0.2217">
        <ele>2429</ele>
        <time>2012-02-23T12:00:13Z</time>
      </trkpt>
      <trkpt lat="42.86339" lon="0.22167">
        <ele>2430</ele>
        <time>2012-02-23T12:00:17Z</time>
      </trkpt>
      <trkpt lat="42.86339" lon="0.22165">
        <ele>2434</ele>
        <time>2012-02-23T12:00:50Z</time>
      </trkpt>
      <trkpt lat="42.86338" lon="0.22164">
        <ele>2434</ele>
        <time>2012-02-23T12:00:53Z</time>
      </trkpt>
      <trkpt lat="42.86338" lon="0.22161">
        <ele>2434</ele>
        <time>2012-02-23T12:00:57Z</time>
      </trkpt>
      <trkpt lat="42.86339" lon="0.2216">
        <ele>2435</ele>
        <time>2012-02-23T12:01:00Z</time>
      </trkpt>
      <trkpt lat="42.86341" lon="0.2216">
        <ele>2436</ele>
        <time>2012-02-23T12:01:04Z</time>
      </trkpt>
      <trkpt lat="42.86344" lon="0.2216">
        <ele>2438</ele>
        <time>2012-02-23T12:01:08Z</time>
      </trkpt>
      <trkpt lat="42.86347" lon="0.2216">
        <ele>2441</ele>
        <time>2012-02-23T12:01:13Z</time>
      </trkpt>
      <trkpt lat="42.86348" lon="0.2216">
        <ele>2441</ele>
        <time>2012-02-23T12:01:16Z</time>
      </trkpt>
      <trkpt lat="42.8635" lon="0.22161">
        <ele>2441</ele>
        <time>2012-02-23T12:01:19Z</time>
      </trkpt>
      <trkpt lat="42.86351" lon="0.22161">
        <ele>2441</ele>
        <time>2012-02-23T12:01:24Z</time>
      </trkpt>
      <trkpt lat="42.86351" lon="0.22159">
        <ele>2441</ele>
        <time>2012-02-23T12:01:27Z</time>
      </trkpt>
      <trkpt lat="42.86351" lon="0.22158">
        <ele>2441</ele>
        <time>2012-02-23T12:01:30Z</time>
      </trkpt>
      <trkpt lat="42.8635" lon="0.22154">
        <ele>2442</ele>
        <time>2012-02-23T12:01:34Z</time>
      </trkpt>
      <trkpt lat="42.86349" lon="0.22152">
        <ele>2442</ele>
        <time>2012-02-23T12:01:37Z</time>
      </trkpt>
      <trkpt lat="42.86349" lon="0.22151">
        <ele>2442</ele>
        <time>2012-02-23T12:01:40Z</time>
      </trkpt>
      <trkpt lat="42.86347" lon="0.22151">
        <ele>2444</ele>
        <time>2012-02-23T12:01:55Z</time>
      </trkpt>
      <trkpt lat="42.86348" lon="0.2215">
        <ele>2444</ele>
        <time>2012-02-23T12:01:59Z</time>
      </trkpt>
      <trkpt lat="42.8635" lon="0.2215">
        <ele>2444</ele>
        <time>2012-02-23T12:02:03Z</time>
      </trkpt>
      <trkpt lat="42.8635" lon="0.22148">
        <ele>2445</ele>
        <time>2012-02-23T12:02:14Z</time>
      </trkpt>
      <trkpt lat="42.86349" lon="0.22146">
        <ele>2445</ele>
        <time>2012-02-23T12:02:17Z</time>
      </trkpt>
      <trkpt lat="42.86347" lon="0.22143">
        <ele>2445</ele>
        <time>2012-02-23T12:02:22Z</time>
      </trkpt>
      <trkpt lat="42.86346" lon="0.22141">
        <ele>2445</ele>
        <time>2012-02-23T12:02:25Z</time>
      </trkpt>
      <trkpt lat="42.86346" lon="0.2214">
        <ele>2446</ele>
        <time>2012-02-23T12:02:28Z</time>
      </trkpt>
      <trkpt lat="42.86348" lon="0.22139">
        <ele>2446</ele>
        <time>2012-02-23T12:02:33Z</time>
      </trkpt>
      <trkpt lat="42.86349" lon="0.22139">
        <ele>2446</ele>
        <time>2012-02-23T12:02:36Z</time>
      </trkpt>
      <trkpt lat="42.8635" lon="0.22138">
        <ele>2446</ele>
        <time>2012-02-23T12:02:39Z</time>
      </trkpt>
      <trkpt lat="42.86353" lon="0.22138">
        <ele>2446</ele>
        <time>2012-02-23T12:02:43Z</time>
      </trkpt>
      <trkpt lat="42.86354" lon="0.22137">
        <ele>2446</ele>
        <time>2012-02-23T12:02:46Z</time>
      </trkpt>
      <trkpt lat="42.86356" lon="0.22137">
        <ele>2446</ele>
        <time>2012-02-23T12:02:49Z</time>
      </trkpt>
      <trkpt lat="42.86357" lon="0.22137">
        <ele>2446</ele>
        <time>2012-02-23T12:02:52Z</time>
      </trkpt>
      <trkpt lat="42.86358" lon="0.22136">
        <ele>2446</ele>
        <time>2012-02-23T12:02:55Z</time>
      </trkpt>
      <trkpt lat="42.86361" lon="0.22135">
        <ele>2446</ele>
        <time>2012-02-23T12:03:00Z</time>
      </trkpt>
      <trkpt lat="42.86364" lon="0.22133">
        <ele>2446</ele>
        <time>2012-02-23T12:03:05Z</time>
      </trkpt>
      <trkpt lat="42.86365" lon="0.22132">
        <ele>2446</ele>
        <time>2012-02-23T12:03:08Z</time>
      </trkpt>
      <trkpt lat="42.86366" lon="0.22131">
        <ele>2448</ele>
        <time>2012-02-23T12:03:38Z</time>
      </trkpt>
      <trkpt lat="42.86367" lon="0.2213">
        <ele>2448</ele>
        <time>2012-02-23T12:03:41Z</time>
      </trkpt>
      <trkpt lat="42.86369" lon="0.22129">
        <ele>2448</ele>
        <time>2012-02-23T12:03:44Z</time>
      </trkpt>
      <trkpt lat="42.86372" lon="0.22127">
        <ele>2448</ele>
        <time>2012-02-23T12:03:49Z</time>
      </trkpt>
      <trkpt lat="42.86373" lon="0.22126">
        <ele>2449</ele>
        <time>2012-02-23T12:03:52Z</time>
      </trkpt>
      <trkpt lat="42.86374" lon="0.22125">
        <ele>2449</ele>
        <time>2012-02-23T12:03:55Z</time>
      </trkpt>
      <trkpt lat="42.86377" lon="0.22122">
        <ele>2451</ele>
        <time>2012-02-23T12:04:00Z</time>
      </trkpt>
      <trkpt lat="42.86379" lon="0.22121">
        <ele>2451</ele>
        <time>2012-02-23T12:04:03Z</time>
      </trkpt>
      <trkpt lat="42.8638" lon="0.22119">
        <ele>2452</ele>
        <time>2012-02-23T12:04:06Z</time>
      </trkpt>
      <trkpt lat="42.86381" lon="0.22118">
        <ele>2452</ele>
        <time>2012-02-23T12:04:09Z</time>
      </trkpt>
      <trkpt lat="42.86383" lon="0.22116">
        <ele>2453</ele>
        <time>2012-02-23T12:04:12Z</time>
      </trkpt>
      <trkpt lat="42.86385" lon="0.22113">
        <ele>2454</ele>
        <time>2012-02-23T12:04:17Z</time>
      </trkpt>
      <trkpt lat="42.86387" lon="0.22111">
        <ele>2455</ele>
        <time>2012-02-23T12:04:20Z</time>
      </trkpt>
      <trkpt lat="42.86389" lon="0.22108">
        <ele>2456</ele>
        <time>2012-02-23T12:04:25Z</time>
      </trkpt>
      <trkpt lat="42.86391" lon="0.22106">
        <ele>2457</ele>
        <time>2012-02-23T12:04:28Z</time>
      </trkpt>
      <trkpt lat="42.86392" lon="0.22105">
        <ele>2458</ele>
        <time>2012-02-23T12:04:31Z</time>
      </trkpt>
      <trkpt lat="42.86393" lon="0.22104">
        <ele>2460</ele>
        <time>2012-02-23T12:05:01Z</time>
      </trkpt>
      <trkpt lat="42.86394" lon="0.22102">
        <ele>2460</ele>
        <time>2012-02-23T12:05:04Z</time>
      </trkpt>
      <trkpt lat="42.86395" lon="0.22101">
        <ele>2461</ele>
        <time>2012-02-23T12:05:07Z</time>
      </trkpt>
      <trkpt lat="42.86397" lon="0.22099">
        <ele>2461</ele>
        <time>2012-02-23T12:05:10Z</time>
      </trkpt>
      <trkpt lat="42.86398" lon="0.22098">
        <ele>2462</ele>
        <time>2012-02-23T12:05:13Z</time>
      </trkpt>
      <trkpt lat="42.86399" lon="0.22096">
        <ele>2462</ele>
        <time>2012-02-23T12:05:16Z</time>
      </trkpt>
      <trkpt lat="42.864" lon="0.22093">
        <ele>2463</ele>
        <time>2012-02-23T12:05:20Z</time>
      </trkpt>
      <trkpt lat="42.86402" lon="0.2209">
        <ele>2464</ele>
        <time>2012-02-23T12:05:25Z</time>
      </trkpt>
      <trkpt lat="42.86403" lon="0.22086">
        <ele>2464</ele>
        <time>2012-02-23T12:05:30Z</time>
      </trkpt>
      <trkpt lat="42.86404" lon="0.22084">
        <ele>2465</ele>
        <time>2012-02-23T12:05:33Z</time>
      </trkpt>
      <trkpt lat="42.86404" lon="0.22081">
        <ele>2465</ele>
        <time>2012-02-23T12:05:38Z</time>
      </trkpt>
      <trkpt lat="42.86405" lon="0.22078">
        <ele>2466</ele>
        <time>2012-02-23T12:05:42Z</time>
      </trkpt>
      <trkpt lat="42.86405" lon="0.22076">
        <ele>2468</ele>
        <time>2012-02-23T12:06:36Z</time>
      </trkpt>
      <trkpt lat="42.86405" lon="0.22074">
        <ele>2468</ele>
        <time>2012-02-23T12:06:39Z</time>
      </trkpt>
      <trkpt lat="42.86405" lon="0.22072">
        <ele>2468</ele>
        <time>2012-02-23T12:06:42Z</time>
      </trkpt>
      <trkpt lat="42.86404" lon="0.22069">
        <ele>2468</ele>
        <time>2012-02-23T12:06:46Z</time>
      </trkpt>
      <trkpt lat="42.86404" lon="0.22066">
        <ele>2469</ele>
        <time>2012-02-23T12:06:50Z</time>
      </trkpt>
      <trkpt lat="42.86403" lon="0.22063">
        <ele>2470</ele>
        <time>2012-02-23T12:06:54Z</time>
      </trkpt>
      <trkpt lat="42.86403" lon="0.22061">
        <ele>2470</ele>
        <time>2012-02-23T12:06:57Z</time>
      </trkpt>
      <trkpt lat="42.86403" lon="0.22058">
        <ele>2471</ele>
        <time>2012-02-23T12:07:02Z</time>
      </trkpt>
      <trkpt lat="42.86404" lon="0.22057">
        <ele>2472</ele>
        <time>2012-02-23T12:07:05Z</time>
      </trkpt>
      <trkpt lat="42.86406" lon="0.22057">
        <ele>2473</ele>
        <time>2012-02-23T12:07:09Z</time>
      </trkpt>
      <trkpt lat="42.86409" lon="0.22056">
        <ele>2474</ele>
        <time>2012-02-23T12:07:14Z</time>
      </trkpt>
      <trkpt lat="42.86412" lon="0.22056">
        <ele>2475</ele>
        <time>2012-02-23T12:07:18Z</time>
      </trkpt>
      <trkpt lat="42.86413" lon="0.22056">
        <ele>2476</ele>
        <time>2012-02-23T12:07:37Z</time>
      </trkpt>
      <trkpt lat="42.86414" lon="0.22056">
        <ele>2476</ele>
        <time>2012-02-23T12:07:40Z</time>
      </trkpt>
      <trkpt lat="42.86416" lon="0.22055">
        <ele>2476</ele>
        <time>2012-02-23T12:07:43Z</time>
      </trkpt>
      <trkpt lat="42.86418" lon="0.22055">
        <ele>2477</ele>
        <time>2012-02-23T12:07:47Z</time>
      </trkpt>
      <trkpt lat="42.86421" lon="0.22055">
        <ele>2478</ele>
        <time>2012-02-23T12:07:52Z</time>
      </trkpt>
      <trkpt lat="42.86422" lon="0.22057">
        <ele>2479</ele>
        <time>2012-02-23T12:07:59Z</time>
      </trkpt>
      <trkpt lat="42.86423" lon="0.22058">
        <ele>2479</ele>
        <time>2012-02-23T12:08:10Z</time>
      </trkpt>
      <trkpt lat="42.86426" lon="0.22058">
        <ele>2479</ele>
        <time>2012-02-23T12:08:15Z</time>
      </trkpt>
      <trkpt lat="42.86428" lon="0.22059">
        <ele>2480</ele>
        <time>2012-02-23T12:08:18Z</time>
      </trkpt>
      <trkpt lat="42.86429" lon="0.22059">
        <ele>2480</ele>
        <time>2012-02-23T12:08:21Z</time>
      </trkpt>
      <trkpt lat="42.8643" lon="0.2206">
        <ele>2481</ele>
        <time>2012-02-23T12:08:24Z</time>
      </trkpt>
      <trkpt lat="42.86433" lon="0.2206">
        <ele>2481</ele>
        <time>2012-02-23T12:08:28Z</time>
      </trkpt>
      <trkpt lat="42.86435" lon="0.22061">
        <ele>2482</ele>
        <time>2012-02-23T12:08:32Z</time>
      </trkpt>
      <trkpt lat="42.86436" lon="0.22061">
        <ele>2482</ele>
        <time>2012-02-23T12:08:35Z</time>
      </trkpt>
      <trkpt lat="42.86438" lon="0.22061">
        <ele>2483</ele>
        <time>2012-02-23T12:08:38Z</time>
      </trkpt>
      <trkpt lat="42.86439" lon="0.22061">
        <ele>2483</ele>
        <time>2012-02-23T12:08:41Z</time>
      </trkpt>
      <trkpt lat="42.86441" lon="0.22058">
        <ele>2484</ele>
        <time>2012-02-23T12:08:45Z</time>
      </trkpt>
      <trkpt lat="42.86441" lon="0.22055">
        <ele>2484</ele>
        <time>2012-02-23T12:08:48Z</time>
      </trkpt>
      <trkpt lat="42.86443" lon="0.22055">
        <ele>2484</ele>
        <time>2012-02-23T12:08:51Z</time>
      </trkpt>
      <trkpt lat="42.86444" lon="0.22055">
        <ele>2485</ele>
        <time>2012-02-23T12:08:54Z</time>
      </trkpt>
      <trkpt lat="42.86446" lon="0.22055">
        <ele>2485</ele>
        <time>2012-02-23T12:08:58Z</time>
      </trkpt>
      <trkpt lat="42.86447" lon="0.22053">
        <ele>2485</ele>
        <time>2012-02-23T12:09:23Z</time>
      </trkpt>
      <trkpt lat="42.86449" lon="0.22052">
        <ele>2485</ele>
        <time>2012-02-23T12:09:26Z</time>
      </trkpt>
      <trkpt lat="42.86451" lon="0.2205">
        <ele>2485</ele>
        <time>2012-02-23T12:09:31Z</time>
      </trkpt>
      <trkpt lat="42.86452" lon="0.22048">
        <ele>2485</ele>
        <time>2012-02-23T12:09:34Z</time>
      </trkpt>
      <trkpt lat="42.86455" lon="0.22046">
        <ele>2485</ele>
        <time>2012-02-23T12:09:38Z</time>
      </trkpt>
      <trkpt lat="42.86457" lon="0.22044">
        <ele>2486</ele>
        <time>2012-02-23T12:09:42Z</time>
      </trkpt>
      <trkpt lat="42.86459" lon="0.22044">
        <ele>2487</ele>
        <time>2012-02-23T12:09:45Z</time>
      </trkpt>
      <trkpt lat="42.86461" lon="0.22043">
        <ele>2488</ele>
        <time>2012-02-23T12:09:50Z</time>
      </trkpt>
      <trkpt lat="42.86462" lon="0.22042">
        <ele>2488</ele>
        <time>2012-02-23T12:09:53Z</time>
      </trkpt>
      <trkpt lat="42.86466" lon="0.22042">
        <ele>2488</ele>
        <time>2012-02-23T12:09:57Z</time>
      </trkpt>
      <trkpt lat="42.86468" lon="0.22042">
        <ele>2488</ele>
        <time>2012-02-23T12:10:01Z</time>
      </trkpt>
      <trkpt lat="42.8647" lon="0.22043">
        <ele>2490</ele>
        <time>2012-02-23T12:12:00Z</time>
      </trkpt>
      <trkpt lat="42.8647" lon="0.22042">
        <ele>2490</ele>
        <time>2012-02-23T12:12:25Z</time>
      </trkpt>
      <trkpt lat="42.8647" lon="0.22043">
        <ele>2490</ele>
        <time>2012-02-23T12:12:58Z</time>
      </trkpt>
      <trkpt lat="42.8647" lon="0.22045">
        <ele>2491</ele>
        <time>2012-02-23T12:13:50Z</time>
      </trkpt>
      <trkpt lat="42.86471" lon="0.22046">
        <ele>2491</ele>
        <time>2012-02-23T12:14:25Z</time>
      </trkpt>
      <trkpt lat="42.86472" lon="0.22047">
        <ele>2491</ele>
        <time>2012-02-23T12:14:30Z</time>
      </trkpt>
      <trkpt lat="42.86471" lon="0.22049">
        <ele>2494</ele>
        <time>2012-02-23T12:15:05Z</time>
      </trkpt>
      <trkpt lat="42.8647" lon="0.2205">
        <ele>2496</ele>
        <time>2012-02-23T12:15:24Z</time>
      </trkpt>
      <trkpt lat="42.8647" lon="0.22048">
        <ele>2496</ele>
        <time>2012-02-23T12:15:51Z</time>
      </trkpt>
      <trkpt lat="42.8647" lon="0.22047">
        <ele>2496</ele>
        <time>2012-02-23T12:15:56Z</time>
      </trkpt>
      <trkpt lat="42.8647" lon="0.22048">
        <ele>2496</ele>
        <time>2012-02-23T12:16:05Z</time>
      </trkpt>
      <trkpt lat="42.86469" lon="0.2205">
        <ele>2496</ele>
        <time>2012-02-23T12:16:11Z</time>
      </trkpt>
      <trkpt lat="42.86469" lon="0.22051">
        <ele>2497</ele>
        <time>2012-02-23T12:16:20Z</time>
      </trkpt>
      <trkpt lat="42.86469" lon="0.2205">
        <ele>2498</ele>
        <time>2012-02-23T12:16:52Z</time>
      </trkpt>
      <trkpt lat="42.86469" lon="0.22048">
        <ele>2498</ele>
        <time>2012-02-23T12:17:10Z</time>
      </trkpt>
      <trkpt lat="42.8647" lon="0.22047">
        <ele>2498</ele>
        <time>2012-02-23T12:17:21Z</time>
      </trkpt>
      <trkpt lat="42.86471" lon="0.22045">
        <ele>2496</ele>
        <time>2012-02-23T12:17:38Z</time>
      </trkpt>
      <trkpt lat="42.86471" lon="0.22044">
        <ele>2495</ele>
        <time>2012-02-23T12:17:47Z</time>
      </trkpt>
      <trkpt lat="42.86471" lon="0.22042">
        <ele>2494</ele>
        <time>2012-02-23T12:17:56Z</time>
      </trkpt>
      <trkpt lat="42.86471" lon="0.22041">
        <ele>2493</ele>
        <time>2012-02-23T12:18:09Z</time>
      </trkpt>
      <trkpt lat="42.86471" lon="0.22039">
        <ele>2491</ele>
        <time>2012-02-23T12:18:32Z</time>
      </trkpt>
      <trkpt lat="42.8647" lon="0.22041">
        <ele>2483</ele>
        <time>2012-02-23T12:20:06Z</time>
      </trkpt>
      <trkpt lat="42.86469" lon="0.22042">
        <ele>2483</ele>
        <time>2012-02-23T12:20:09Z</time>
      </trkpt>
      <trkpt lat="42.86469" lon="0.22041">
        <ele>2483</ele>
        <time>2012-02-23T12:20:22Z</time>
      </trkpt>
      <trkpt lat="42.86468" lon="0.22043">
        <ele>2483</ele>
        <time>2012-02-23T12:20:29Z</time>
      </trkpt>
      <trkpt lat="42.86467" lon="0.22044">
        <ele>2483</ele>
        <time>2012-02-23T12:20:35Z</time>
      </trkpt>
      <trkpt lat="42.86468" lon="0.22042">
        <ele>2483</ele>
        <time>2012-02-23T12:20:41Z</time>
      </trkpt>
      <trkpt lat="42.86468" lon="0.2204">
        <ele>2483</ele>
        <time>2012-02-23T12:20:45Z</time>
      </trkpt>
      <trkpt lat="42.86469" lon="0.22039">
        <ele>2483</ele>
        <time>2012-02-23T12:20:51Z</time>
      </trkpt>
      <trkpt lat="42.86469" lon="0.22038">
        <ele>2482</ele>
        <time>2012-02-23T12:21:38Z</time>
      </trkpt>
      <trkpt lat="42.86469" lon="0.22039">
        <ele>2482</ele>
        <time>2012-02-23T12:21:59Z</time>
      </trkpt>
      <trkpt lat="42.86468" lon="0.2204">
        <ele>2482</ele>
        <time>2012-02-23T12:22:08Z</time>
      </trkpt>
      <trkpt lat="42.86469" lon="0.22038">
        <ele>2482</ele>
        <time>2012-02-23T12:22:26Z</time>
      </trkpt>
      <trkpt lat="42.86468" lon="0.2204">
        <ele>2482</ele>
        <time>2012-02-23T12:22:33Z</time>
      </trkpt>
      <trkpt lat="42.86469" lon="0.22039">
        <ele>2483</ele>
        <time>2012-02-23T12:22:52Z</time>
      </trkpt>
      <trkpt lat="42.8647" lon="0.22041">
        <ele>2483</ele>
        <time>2012-02-23T12:23:21Z</time>
      </trkpt>
      <trkpt lat="42.86471" lon="0.2204">
        <ele>2484</ele>
        <time>2012-02-23T12:23:25Z</time>
      </trkpt>
      <trkpt lat="42.86473" lon="0.22039">
        <ele>2485</ele>
        <time>2012-02-23T12:23:29Z</time>
      </trkpt>
      <trkpt lat="42.86476" lon="0.22037">
        <ele>2485</ele>
        <time>2012-02-23T12:23:33Z</time>
      </trkpt>
      <trkpt lat="42.86479" lon="0.22035">
        <ele>2485</ele>
        <time>2012-02-23T12:23:38Z</time>
      </trkpt>
      <trkpt lat="42.86481" lon="0.22033">
        <ele>2486</ele>
        <time>2012-02-23T12:23:42Z</time>
      </trkpt>
      <trkpt lat="42.86483" lon="0.22031">
        <ele>2487</ele>
        <time>2012-02-23T12:23:46Z</time>
      </trkpt>
      <trkpt lat="42.86486" lon="0.2203">
        <ele>2488</ele>
        <time>2012-02-23T12:23:50Z</time>
      </trkpt>
      <trkpt lat="42.86489" lon="0.22029">
        <ele>2489</ele>
        <time>2012-02-23T12:23:54Z</time>
      </trkpt>
      <trkpt lat="42.8649" lon="0.22027">
        <ele>2489</ele>
        <time>2012-02-23T12:23:57Z</time>
      </trkpt>
      <trkpt lat="42.86493" lon="0.22026">
        <ele>2490</ele>
        <time>2012-02-23T12:24:01Z</time>
      </trkpt>
      <trkpt lat="42.86495" lon="0.22024">
        <ele>2490</ele>
        <time>2012-02-23T12:24:05Z</time>
      </trkpt>
      <trkpt lat="42.86496" lon="0.22022">
        <ele>2491</ele>
        <time>2012-02-23T12:24:08Z</time>
      </trkpt>
      <trkpt lat="42.86499" lon="0.2202">
        <ele>2491</ele>
        <time>2012-02-23T12:24:12Z</time>
      </trkpt>
      <trkpt lat="42.86501" lon="0.22018">
        <ele>2493</ele>
        <time>2012-02-23T12:24:16Z</time>
      </trkpt>
      <trkpt lat="42.86503" lon="0.22017">
        <ele>2493</ele>
        <time>2012-02-23T12:24:19Z</time>
      </trkpt>
      <trkpt lat="42.86505" lon="0.22016">
        <ele>2494</ele>
        <time>2012-02-23T12:24:23Z</time>
      </trkpt>
      <trkpt lat="42.86508" lon="0.22014">
        <ele>2496</ele>
        <time>2012-02-23T12:24:27Z</time>
      </trkpt>
      <trkpt lat="42.8651" lon="0.22013">
        <ele>2498</ele>
        <time>2012-02-23T12:24:31Z</time>
      </trkpt>
      <trkpt lat="42.86513" lon="0.22011">
        <ele>2500</ele>
        <time>2012-02-23T12:24:36Z</time>
      </trkpt>
      <trkpt lat="42.86515" lon="0.22009">
        <ele>2502</ele>
        <time>2012-02-23T12:24:40Z</time>
      </trkpt>
      <trkpt lat="42.86518" lon="0.22008">
        <ele>2505</ele>
        <time>2012-02-23T12:24:44Z</time>
      </trkpt>
      <trkpt lat="42.86521" lon="0.22006">
        <ele>2508</ele>
        <time>2012-02-23T12:24:48Z</time>
      </trkpt>
      <trkpt lat="42.86523" lon="0.22005">
        <ele>2510</ele>
        <time>2012-02-23T12:24:52Z</time>
      </trkpt>
      <trkpt lat="42.86526" lon="0.22003">
        <ele>2513</ele>
        <time>2012-02-23T12:24:58Z</time>
      </trkpt>
      <trkpt lat="42.86529" lon="0.22002">
        <ele>2515</ele>
        <time>2012-02-23T12:25:02Z</time>
      </trkpt>
      <trkpt lat="42.86532" lon="0.22001">
        <ele>2517</ele>
        <time>2012-02-23T12:25:06Z</time>
      </trkpt>
      <trkpt lat="42.86535" lon="0.21999">
        <ele>2519</ele>
        <time>2012-02-23T12:25:10Z</time>
      </trkpt>
      <trkpt lat="42.86538" lon="0.21998">
        <ele>2521</ele>
        <time>2012-02-23T12:25:14Z</time>
      </trkpt>
      <trkpt lat="42.86541" lon="0.21996">
        <ele>2523</ele>
        <time>2012-02-23T12:25:18Z</time>
      </trkpt>
      <trkpt lat="42.86543" lon="0.21995">
        <ele>2524</ele>
        <time>2012-02-23T12:25:21Z</time>
      </trkpt>
      <trkpt lat="42.86545" lon="0.21994">
        <ele>2525</ele>
        <time>2012-02-23T12:25:25Z</time>
      </trkpt>
      <trkpt lat="42.86547" lon="0.21994">
        <ele>2526</ele>
        <time>2012-02-23T12:25:28Z</time>
      </trkpt>
      <trkpt lat="42.86548" lon="0.21993">
        <ele>2527</ele>
        <time>2012-02-23T12:25:33Z</time>
      </trkpt>
      <trkpt lat="42.86549" lon="0.21992">
        <ele>2528</ele>
        <time>2012-02-23T12:25:43Z</time>
      </trkpt>
      <trkpt lat="42.86551" lon="0.21991">
        <ele>2528</ele>
        <time>2012-02-23T12:25:48Z</time>
      </trkpt>
      <trkpt lat="42.86552" lon="0.2199">
        <ele>2528</ele>
        <time>2012-02-23T12:25:54Z</time>
      </trkpt>
      <trkpt lat="42.86553" lon="0.2199">
        <ele>2528</ele>
        <time>2012-02-23T12:25:57Z</time>
      </trkpt>
      <trkpt lat="42.86554" lon="0.21989">
        <ele>2528</ele>
        <time>2012-02-23T12:26:00Z</time>
      </trkpt>
      <trkpt lat="42.86556" lon="0.21989">
        <ele>2528</ele>
        <time>2012-02-23T12:26:03Z</time>
      </trkpt>
      <trkpt lat="42.86555" lon="0.21989">
        <ele>2527</ele>
        <time>2012-02-23T12:26:17Z</time>
      </trkpt>
      <trkpt lat="42.86556" lon="0.21989">
        <ele>2526</ele>
        <time>2012-02-23T12:26:23Z</time>
      </trkpt>
      <trkpt lat="42.86558" lon="0.21988">
        <ele>2525</ele>
        <time>2012-02-23T12:26:27Z</time>
      </trkpt>
      <trkpt lat="42.86561" lon="0.21987">
        <ele>2524</ele>
        <time>2012-02-23T12:26:31Z</time>
      </trkpt>
      <trkpt lat="42.86563" lon="0.21986">
        <ele>2523</ele>
        <time>2012-02-23T12:26:36Z</time>
      </trkpt>
      <trkpt lat="42.86565" lon="0.21985">
        <ele>2522</ele>
        <time>2012-02-23T12:26:40Z</time>
      </trkpt>
      <trkpt lat="42.86568" lon="0.21984">
        <ele>2521</ele>
        <time>2012-02-23T12:26:44Z</time>
      </trkpt>
      <trkpt lat="42.8657" lon="0.21983">
        <ele>2520</ele>
        <time>2012-02-23T12:26:47Z</time>
      </trkpt>
      <trkpt lat="42.86572" lon="0.21983">
        <ele>2519</ele>
        <time>2012-02-23T12:26:51Z</time>
      </trkpt>
      <trkpt lat="42.86575" lon="0.21982">
        <ele>2519</ele>
        <time>2012-02-23T12:26:55Z</time>
      </trkpt>
      <trkpt lat="42.86576" lon="0.21981">
        <ele>2518</ele>
        <time>2012-02-23T12:26:58Z</time>
      </trkpt>
      <trkpt lat="42.86578" lon="0.21981">
        <ele>2517</ele>
        <time>2012-02-23T12:27:02Z</time>
      </trkpt>
      <trkpt lat="42.8658" lon="0.2198">
        <ele>2516</ele>
        <time>2012-02-23T12:27:05Z</time>
      </trkpt>
      <trkpt lat="42.86581" lon="0.21979">
        <ele>2515</ele>
        <time>2012-02-23T12:27:08Z</time>
      </trkpt>
      <trkpt lat="42.86583" lon="0.21978">
        <ele>2515</ele>
        <time>2012-02-23T12:27:11Z</time>
      </trkpt>
      <trkpt lat="42.86584" lon="0.21977">
        <ele>2514</ele>
        <time>2012-02-23T12:27:14Z</time>
      </trkpt>
      <trkpt lat="42.86587" lon="0.21976">
        <ele>2513</ele>
        <time>2012-02-23T12:27:18Z</time>
      </trkpt>
      <trkpt lat="42.8659" lon="0.21975">
        <ele>2513</ele>
        <time>2012-02-23T12:27:22Z</time>
      </trkpt>
      <trkpt lat="42.86591" lon="0.21975">
        <ele>2512</ele>
        <time>2012-02-23T12:27:25Z</time>
      </trkpt>
      <trkpt lat="42.86593" lon="0.21974">
        <ele>2512</ele>
        <time>2012-02-23T12:27:28Z</time>
      </trkpt>
      <trkpt lat="42.86596" lon="0.21973">
        <ele>2511</ele>
        <time>2012-02-23T12:27:33Z</time>
      </trkpt>
      <trkpt lat="42.86597" lon="0.21973">
        <ele>2511</ele>
        <time>2012-02-23T12:27:36Z</time>
      </trkpt>
      <trkpt lat="42.866" lon="0.21972">
        <ele>2511</ele>
        <time>2012-02-23T12:27:40Z</time>
      </trkpt>
      <trkpt lat="42.86602" lon="0.21971">
        <ele>2510</ele>
        <time>2012-02-23T12:27:44Z</time>
      </trkpt>
      <trkpt lat="42.86605" lon="0.2197">
        <ele>2510</ele>
        <time>2012-02-23T12:27:48Z</time>
      </trkpt>
      <trkpt lat="42.86607" lon="0.21968">
        <ele>2510</ele>
        <time>2012-02-23T12:27:52Z</time>
      </trkpt>
      <trkpt lat="42.8661" lon="0.21967">
        <ele>2510</ele>
        <time>2012-02-23T12:27:57Z</time>
      </trkpt>
      <trkpt lat="42.86612" lon="0.21965">
        <ele>2510</ele>
        <time>2012-02-23T12:28:02Z</time>
      </trkpt>
      <trkpt lat="42.86611" lon="0.21964">
        <ele>2510</ele>
        <time>2012-02-23T12:28:11Z</time>
      </trkpt>
      <trkpt lat="42.86612" lon="0.21962">
        <ele>2510</ele>
        <time>2012-02-23T12:28:19Z</time>
      </trkpt>
      <trkpt lat="42.86615" lon="0.2196">
        <ele>2510</ele>
        <time>2012-02-23T12:28:24Z</time>
      </trkpt>
      <trkpt lat="42.86616" lon="0.21959">
        <ele>2510</ele>
        <time>2012-02-23T12:28:27Z</time>
      </trkpt>
      <trkpt lat="42.86619" lon="0.21956">
        <ele>2510</ele>
        <time>2012-02-23T12:28:32Z</time>
      </trkpt>
      <trkpt lat="42.8662" lon="0.21955">
        <ele>2510</ele>
        <time>2012-02-23T12:28:35Z</time>
      </trkpt>
      <trkpt lat="42.86622" lon="0.21953">
        <ele>2510</ele>
        <time>2012-02-23T12:28:38Z</time>
      </trkpt>
      <trkpt lat="42.86623" lon="0.21952">
        <ele>2510</ele>
        <time>2012-02-23T12:28:41Z</time>
      </trkpt>
      <trkpt lat="42.86625" lon="0.2195">
        <ele>2510</ele>
        <time>2012-02-23T12:28:44Z</time>
      </trkpt>
      <trkpt lat="42.86626" lon="0.21949">
        <ele>2510</ele>
        <time>2012-02-23T12:28:47Z</time>
      </trkpt>
      <trkpt lat="42.86628" lon="0.21948">
        <ele>2510</ele>
        <time>2012-02-23T12:28:50Z</time>
      </trkpt>
      <trkpt lat="42.86629" lon="0.21946">
        <ele>2510</ele>
        <time>2012-02-23T12:28:53Z</time>
      </trkpt>
      <trkpt lat="42.86631" lon="0.21944">
        <ele>2510</ele>
        <time>2012-02-23T12:28:58Z</time>
      </trkpt>
      <trkpt lat="42.86633" lon="0.21942">
        <ele>2510</ele>
        <time>2012-02-23T12:29:01Z</time>
      </trkpt>
      <trkpt lat="42.86634" lon="0.21941">
        <ele>2510</ele>
        <time>2012-02-23T12:29:04Z</time>
      </trkpt>
      <trkpt lat="42.86636" lon="0.21939">
        <ele>2510</ele>
        <time>2012-02-23T12:29:07Z</time>
      </trkpt>
      <trkpt lat="42.86637" lon="0.21937">
        <ele>2510</ele>
        <time>2012-02-23T12:29:10Z</time>
      </trkpt>
      <trkpt lat="42.86639" lon="0.21936">
        <ele>2510</ele>
        <time>2012-02-23T12:29:13Z</time>
      </trkpt>
      <trkpt lat="42.8664" lon="0.21934">
        <ele>2510</ele>
        <time>2012-02-23T12:29:16Z</time>
      </trkpt>
      <trkpt lat="42.86641" lon="0.21933">
        <ele>2511</ele>
        <time>2012-02-23T12:29:19Z</time>
      </trkpt>
      <trkpt lat="42.86643" lon="0.21931">
        <ele>2511</ele>
        <time>2012-02-23T12:29:22Z</time>
      </trkpt>
      <trkpt lat="42.86644" lon="0.2193">
        <ele>2511</ele>
        <time>2012-02-23T12:29:25Z</time>
      </trkpt>
      <trkpt lat="42.86645" lon="0.21928">
        <ele>2511</ele>
        <time>2012-02-23T12:29:28Z</time>
      </trkpt>
      <trkpt lat="42.86645" lon="0.21927">
        <ele>2513</ele>
        <time>2012-02-23T12:29:47Z</time>
      </trkpt>
      <trkpt lat="42.86646" lon="0.21926">
        <ele>2513</ele>
        <time>2012-02-23T12:29:50Z</time>
      </trkpt>
      <trkpt lat="42.86646" lon="0.21924">
        <ele>2513</ele>
        <time>2012-02-23T12:29:53Z</time>
      </trkpt>
      <trkpt lat="42.86647" lon="0.21922">
        <ele>2514</ele>
        <time>2012-02-23T12:29:56Z</time>
      </trkpt>
      <trkpt lat="42.86648" lon="0.21919">
        <ele>2514</ele>
        <time>2012-02-23T12:29:59Z</time>
      </trkpt>
      <trkpt lat="42.86648" lon="0.21918">
        <ele>2515</ele>
        <time>2012-02-23T12:30:02Z</time>
      </trkpt>
      <trkpt lat="42.86649" lon="0.21915">
        <ele>2516</ele>
        <time>2012-02-23T12:30:06Z</time>
      </trkpt>
      <trkpt lat="42.86649" lon="0.21913">
        <ele>2516</ele>
        <time>2012-02-23T12:30:09Z</time>
      </trkpt>
      <trkpt lat="42.8665" lon="0.21909">
        <ele>2517</ele>
        <time>2012-02-23T12:30:14Z</time>
      </trkpt>
      <trkpt lat="42.86651" lon="0.21907">
        <ele>2517</ele>
        <time>2012-02-23T12:30:17Z</time>
      </trkpt>
      <trkpt lat="42.86652" lon="0.21905">
        <ele>2518</ele>
        <time>2012-02-23T12:30:20Z</time>
      </trkpt>
      <trkpt lat="42.86652" lon="0.21904">
        <ele>2518</ele>
        <time>2012-02-23T12:30:23Z</time>
      </trkpt>
      <trkpt lat="42.86653" lon="0.21902">
        <ele>2519</ele>
        <time>2012-02-23T12:30:26Z</time>
      </trkpt>
      <trkpt lat="42.86654" lon="0.219">
        <ele>2519</ele>
        <time>2012-02-23T12:30:29Z</time>
      </trkpt>
      <trkpt lat="42.86655" lon="0.21898">
        <ele>2520</ele>
        <time>2012-02-23T12:30:32Z</time>
      </trkpt>
      <trkpt lat="42.86655" lon="0.21896">
        <ele>2521</ele>
        <time>2012-02-23T12:30:35Z</time>
      </trkpt>
      <trkpt lat="42.86656" lon="0.21894">
        <ele>2523</ele>
        <time>2012-02-23T12:31:03Z</time>
      </trkpt>
      <trkpt lat="42.86657" lon="0.21891">
        <ele>2524</ele>
        <time>2012-02-23T12:31:07Z</time>
      </trkpt>
      <trkpt lat="42.86657" lon="0.21888">
        <ele>2525</ele>
        <time>2012-02-23T12:31:11Z</time>
      </trkpt>
      <trkpt lat="42.86658" lon="0.21885">
        <ele>2526</ele>
        <time>2012-02-23T12:31:15Z</time>
      </trkpt>
      <trkpt lat="42.86659" lon="0.21883">
        <ele>2527</ele>
        <time>2012-02-23T12:31:18Z</time>
      </trkpt>
      <trkpt lat="42.8666" lon="0.21882">
        <ele>2527</ele>
        <time>2012-02-23T12:31:21Z</time>
      </trkpt>
      <trkpt lat="42.8666" lon="0.2188">
        <ele>2528</ele>
        <time>2012-02-23T12:31:24Z</time>
      </trkpt>
      <trkpt lat="42.86662" lon="0.21879">
        <ele>2529</ele>
        <time>2012-02-23T12:31:27Z</time>
      </trkpt>
      <trkpt lat="42.86663" lon="0.21877">
        <ele>2530</ele>
        <time>2012-02-23T12:31:30Z</time>
      </trkpt>
      <trkpt lat="42.86664" lon="0.21875">
        <ele>2530</ele>
        <time>2012-02-23T12:31:33Z</time>
      </trkpt>
      <trkpt lat="42.86665" lon="0.21872">
        <ele>2532</ele>
        <time>2012-02-23T12:31:38Z</time>
      </trkpt>
      <trkpt lat="42.86667" lon="0.21869">
        <ele>2533</ele>
        <time>2012-02-23T12:31:42Z</time>
      </trkpt>
      <trkpt lat="42.86668" lon="0.21867">
        <ele>2533</ele>
        <time>2012-02-23T12:31:45Z</time>
      </trkpt>
      <trkpt lat="42.86669" lon="0.21866">
        <ele>2534</ele>
        <time>2012-02-23T12:31:48Z</time>
      </trkpt>
      <trkpt lat="42.86669" lon="0.21864">
        <ele>2537</ele>
        <time>2012-02-23T12:32:16Z</time>
      </trkpt>
      <trkpt lat="42.8667" lon="0.21862">
        <ele>2538</ele>
        <time>2012-02-23T12:32:19Z</time>
      </trkpt>
      <trkpt lat="42.86671" lon="0.21859">
        <ele>2538</ele>
        <time>2012-02-23T12:32:23Z</time>
      </trkpt>
      <trkpt lat="42.86673" lon="0.21857">
        <ele>2538</ele>
        <time>2012-02-23T12:32:26Z</time>
      </trkpt>
      <trkpt lat="42.86674" lon="0.21855">
        <ele>2539</ele>
        <time>2012-02-23T12:32:29Z</time>
      </trkpt>
      <trkpt lat="42.86676" lon="0.21852">
        <ele>2539</ele>
        <time>2012-02-23T12:32:33Z</time>
      </trkpt>
      <trkpt lat="42.86678" lon="0.21849">
        <ele>2539</ele>
        <time>2012-02-23T12:32:37Z</time>
      </trkpt>
      <trkpt lat="42.8668" lon="0.21847">
        <ele>2539</ele>
        <time>2012-02-23T12:32:41Z</time>
      </trkpt>
      <trkpt lat="42.86681" lon="0.21845">
        <ele>2540</ele>
        <time>2012-02-23T12:32:44Z</time>
      </trkpt>
      <trkpt lat="42.86683" lon="0.21843">
        <ele>2540</ele>
        <time>2012-02-23T12:32:47Z</time>
      </trkpt>
      <trkpt lat="42.86685" lon="0.2184">
        <ele>2541</ele>
        <time>2012-02-23T12:32:52Z</time>
      </trkpt>
      <trkpt lat="42.86686" lon="0.21838">
        <ele>2542</ele>
        <time>2012-02-23T12:32:55Z</time>
      </trkpt>
      <trkpt lat="42.86688" lon="0.21835">
        <ele>2543</ele>
        <time>2012-02-23T12:33:00Z</time>
      </trkpt>
      <trkpt lat="42.86689" lon="0.21833">
        <ele>2544</ele>
        <time>2012-02-23T12:33:03Z</time>
      </trkpt>
      <trkpt lat="42.86692" lon="0.21831">
        <ele>2545</ele>
        <time>2012-02-23T12:33:08Z</time>
      </trkpt>
      <trkpt lat="42.86693" lon="0.21829">
        <ele>2545</ele>
        <time>2012-02-23T12:33:11Z</time>
      </trkpt>
      <trkpt lat="42.86693" lon="0.21826">
        <ele>2550</ele>
        <time>2012-02-23T12:33:48Z</time>
      </trkpt>
      <trkpt lat="42.86695" lon="0.21823">
        <ele>2550</ele>
        <time>2012-02-23T12:33:53Z</time>
      </trkpt>
      <trkpt lat="42.86697" lon="0.2182">
        <ele>2550</ele>
        <time>2012-02-23T12:33:57Z</time>
      </trkpt>
      <trkpt lat="42.86698" lon="0.21818">
        <ele>2551</ele>
        <time>2012-02-23T12:34:00Z</time>
      </trkpt>
      <trkpt lat="42.86701" lon="0.21815">
        <ele>2552</ele>
        <time>2012-02-23T12:34:07Z</time>
      </trkpt>
      <trkpt lat="42.86702" lon="0.21814">
        <ele>2553</ele>
        <time>2012-02-23T12:34:11Z</time>
      </trkpt>
      <trkpt lat="42.86703" lon="0.21813">
        <ele>2554</ele>
        <time>2012-02-23T12:34:15Z</time>
      </trkpt>
      <trkpt lat="42.86704" lon="0.21809">
        <ele>2555</ele>
        <time>2012-02-23T12:34:21Z</time>
      </trkpt>
      <trkpt lat="42.86704" lon="0.21805">
        <ele>2556</ele>
        <time>2012-02-23T12:34:26Z</time>
      </trkpt>
      <trkpt lat="42.86704" lon="0.21802">
        <ele>2557</ele>
        <time>2012-02-23T12:34:31Z</time>
      </trkpt>
      <trkpt lat="42.86704" lon="0.21798">
        <ele>2558</ele>
        <time>2012-02-23T12:34:37Z</time>
      </trkpt>
      <trkpt lat="42.86704" lon="0.21795">
        <ele>2559</ele>
        <time>2012-02-23T12:35:11Z</time>
      </trkpt>
      <trkpt lat="42.86706" lon="0.21792">
        <ele>2560</ele>
        <time>2012-02-23T12:35:18Z</time>
      </trkpt>
      <trkpt lat="42.86708" lon="0.21792">
        <ele>2561</ele>
        <time>2012-02-23T12:35:22Z</time>
      </trkpt>
      <trkpt lat="42.86709" lon="0.21793">
        <ele>2562</ele>
        <time>2012-02-23T12:35:25Z</time>
      </trkpt>
      <trkpt lat="42.86712" lon="0.21795">
        <ele>2563</ele>
        <time>2012-02-23T12:35:30Z</time>
      </trkpt>
      <trkpt lat="42.86714" lon="0.21798">
        <ele>2563</ele>
        <time>2012-02-23T12:35:36Z</time>
      </trkpt>
      <trkpt lat="42.86717" lon="0.218">
        <ele>2564</ele>
        <time>2012-02-23T12:35:42Z</time>
      </trkpt>
      <trkpt lat="42.8672" lon="0.218">
        <ele>2565</ele>
        <time>2012-02-23T12:35:47Z</time>
      </trkpt>
      <trkpt lat="42.86723" lon="0.21801">
        <ele>2566</ele>
        <time>2012-02-23T12:35:51Z</time>
      </trkpt>
      <trkpt lat="42.86725" lon="0.21802">
        <ele>2567</ele>
        <time>2012-02-23T12:35:56Z</time>
      </trkpt>
      <trkpt lat="42.86728" lon="0.21804">
        <ele>2568</ele>
        <time>2012-02-23T12:36:01Z</time>
      </trkpt>
      <trkpt lat="42.86729" lon="0.21806">
        <ele>2568</ele>
        <time>2012-02-23T12:36:04Z</time>
      </trkpt>
      <trkpt lat="42.8673" lon="0.21806">
        <ele>2569</ele>
        <time>2012-02-23T12:36:07Z</time>
      </trkpt>
      <trkpt lat="42.86729" lon="0.21806">
        <ele>2569</ele>
        <time>2012-02-23T12:36:39Z</time>
      </trkpt>
      <trkpt lat="42.86731" lon="0.21806">
        <ele>2569</ele>
        <time>2012-02-23T12:36:58Z</time>
      </trkpt>
      <trkpt lat="42.86733" lon="0.21806">
        <ele>2569</ele>
        <time>2012-02-23T12:37:03Z</time>
      </trkpt>
      <trkpt lat="42.86736" lon="0.21806">
        <ele>2569</ele>
        <time>2012-02-23T12:37:07Z</time>
      </trkpt>
      <trkpt lat="42.86737" lon="0.21806">
        <ele>2569</ele>
        <time>2012-02-23T12:37:10Z</time>
      </trkpt>
      <trkpt lat="42.86739" lon="0.21807">
        <ele>2569</ele>
        <time>2012-02-23T12:37:14Z</time>
      </trkpt>
      <trkpt lat="42.86741" lon="0.21808">
        <ele>2569</ele>
        <time>2012-02-23T12:37:17Z</time>
      </trkpt>
      <trkpt lat="42.86742" lon="0.21808">
        <ele>2569</ele>
        <time>2012-02-23T12:37:20Z</time>
      </trkpt>
      <trkpt lat="42.86744" lon="0.21808">
        <ele>2570</ele>
        <time>2012-02-23T12:37:23Z</time>
      </trkpt>
      <trkpt lat="42.86746" lon="0.21808">
        <ele>2571</ele>
        <time>2012-02-23T12:37:27Z</time>
      </trkpt>
      <trkpt lat="42.86747" lon="0.21808">
        <ele>2571</ele>
        <time>2012-02-23T12:37:30Z</time>
      </trkpt>
      <trkpt lat="42.86749" lon="0.21809">
        <ele>2571</ele>
        <time>2012-02-23T12:37:33Z</time>
      </trkpt>
      <trkpt lat="42.86752" lon="0.21809">
        <ele>2572</ele>
        <time>2012-02-23T12:37:38Z</time>
      </trkpt>
      <trkpt lat="42.86753" lon="0.21809">
        <ele>2572</ele>
        <time>2012-02-23T12:37:41Z</time>
      </trkpt>
      <trkpt lat="42.86754" lon="0.21807">
        <ele>2573</ele>
        <time>2012-02-23T12:37:46Z</time>
      </trkpt>
      <trkpt lat="42.86754" lon="0.21805">
        <ele>2573</ele>
        <time>2012-02-23T12:38:21Z</time>
      </trkpt>
      <trkpt lat="42.86753" lon="0.21803">
        <ele>2573</ele>
        <time>2012-02-23T12:38:24Z</time>
      </trkpt>
      <trkpt lat="42.86752" lon="0.218">
        <ele>2573</ele>
        <time>2012-02-23T12:38:29Z</time>
      </trkpt>
      <trkpt lat="42.86752" lon="0.21798">
        <ele>2574</ele>
        <time>2012-02-23T12:38:32Z</time>
      </trkpt>
      <trkpt lat="42.86751" lon="0.21796">
        <ele>2575</ele>
        <time>2012-02-23T12:38:35Z</time>
      </trkpt>
      <trkpt lat="42.86751" lon="0.21794">
        <ele>2575</ele>
        <time>2012-02-23T12:38:38Z</time>
      </trkpt>
      <trkpt lat="42.8675" lon="0.21791">
        <ele>2576</ele>
        <time>2012-02-23T12:38:42Z</time>
      </trkpt>
      <trkpt lat="42.86749" lon="0.2179">
        <ele>2576</ele>
        <time>2012-02-23T12:38:45Z</time>
      </trkpt>
      <trkpt lat="42.86749" lon="0.21788">
        <ele>2576</ele>
        <time>2012-02-23T12:38:48Z</time>
      </trkpt>
      <trkpt lat="42.86748" lon="0.21786">
        <ele>2577</ele>
        <time>2012-02-23T12:38:51Z</time>
      </trkpt>
      <trkpt lat="42.86748" lon="0.21784">
        <ele>2577</ele>
        <time>2012-02-23T12:38:54Z</time>
      </trkpt>
      <trkpt lat="42.86748" lon="0.21783">
        <ele>2578</ele>
        <time>2012-02-23T12:38:57Z</time>
      </trkpt>
      <trkpt lat="42.86747" lon="0.21781">
        <ele>2578</ele>
        <time>2012-02-23T12:39:00Z</time>
      </trkpt>
      <trkpt lat="42.86747" lon="0.21778">
        <ele>2579</ele>
        <time>2012-02-23T12:39:05Z</time>
      </trkpt>
      <trkpt lat="42.86748" lon="0.21777">
        <ele>2580</ele>
        <time>2012-02-23T12:39:25Z</time>
      </trkpt>
      <trkpt lat="42.86748" lon="0.21775">
        <ele>2580</ele>
        <time>2012-02-23T12:39:42Z</time>
      </trkpt>
      <trkpt lat="42.86747" lon="0.21772">
        <ele>2580</ele>
        <time>2012-02-23T12:39:47Z</time>
      </trkpt>
      <trkpt lat="42.86747" lon="0.2177">
        <ele>2580</ele>
        <time>2012-02-23T12:39:50Z</time>
      </trkpt>
      <trkpt lat="42.86747" lon="0.21768">
        <ele>2580</ele>
        <time>2012-02-23T12:39:53Z</time>
      </trkpt>
      <trkpt lat="42.86748" lon="0.21765">
        <ele>2581</ele>
        <time>2012-02-23T12:39:57Z</time>
      </trkpt>
      <trkpt lat="42.86748" lon="0.21763">
        <ele>2581</ele>
        <time>2012-02-23T12:40:00Z</time>
      </trkpt>
      <trkpt lat="42.86748" lon="0.21761">
        <ele>2581</ele>
        <time>2012-02-23T12:40:03Z</time>
      </trkpt>
      <trkpt lat="42.86748" lon="0.21757">
        <ele>2582</ele>
        <time>2012-02-23T12:40:07Z</time>
      </trkpt>
      <trkpt lat="42.86748" lon="0.21754">
        <ele>2582</ele>
        <time>2012-02-23T12:40:11Z</time>
      </trkpt>
      <trkpt lat="42.86748" lon="0.21751">
        <ele>2583</ele>
        <time>2012-02-23T12:40:15Z</time>
      </trkpt>
      <trkpt lat="42.86749" lon="0.21748">
        <ele>2584</ele>
        <time>2012-02-23T12:40:19Z</time>
      </trkpt>
      <trkpt lat="42.86748" lon="0.21746">
        <ele>2585</ele>
        <time>2012-02-23T12:40:22Z</time>
      </trkpt>
      <trkpt lat="42.86748" lon="0.21748">
        <ele>2585</ele>
        <time>2012-02-23T12:40:36Z</time>
      </trkpt>
      <trkpt lat="42.86748" lon="0.21746">
        <ele>2585</ele>
        <time>2012-02-23T12:40:52Z</time>
      </trkpt>
      <trkpt lat="42.86749" lon="0.21744">
        <ele>2585</ele>
        <time>2012-02-23T12:40:55Z</time>
      </trkpt>
      <trkpt lat="42.86749" lon="0.21743">
        <ele>2585</ele>
        <time>2012-02-23T12:40:58Z</time>
      </trkpt>
      <trkpt lat="42.86749" lon="0.21741">
        <ele>2585</ele>
        <time>2012-02-23T12:41:01Z</time>
      </trkpt>
      <trkpt lat="42.8675" lon="0.21739">
        <ele>2586</ele>
        <time>2012-02-23T12:41:04Z</time>
      </trkpt>
      <trkpt lat="42.86751" lon="0.21737">
        <ele>2586</ele>
        <time>2012-02-23T12:41:07Z</time>
      </trkpt>
      <trkpt lat="42.86753" lon="0.21734">
        <ele>2587</ele>
        <time>2012-02-23T12:41:12Z</time>
      </trkpt>
      <trkpt lat="42.86754" lon="0.21731">
        <ele>2588</ele>
        <time>2012-02-23T12:41:16Z</time>
      </trkpt>
      <trkpt lat="42.86754" lon="0.21727">
        <ele>2589</ele>
        <time>2012-02-23T12:41:21Z</time>
      </trkpt>
      <trkpt lat="42.86755" lon="0.21726">
        <ele>2590</ele>
        <time>2012-02-23T12:41:25Z</time>
      </trkpt>
      <trkpt lat="42.86754" lon="0.21726">
        <ele>2592</ele>
        <time>2012-02-23T12:41:31Z</time>
      </trkpt>
      <trkpt lat="42.86756" lon="0.21727">
        <ele>2594</ele>
        <time>2012-02-23T12:42:13Z</time>
      </trkpt>
      <trkpt lat="42.86758" lon="0.21728">
        <ele>2594</ele>
        <time>2012-02-23T12:42:17Z</time>
      </trkpt>
      <trkpt lat="42.86761" lon="0.21729">
        <ele>2595</ele>
        <time>2012-02-23T12:42:21Z</time>
      </trkpt>
      <trkpt lat="42.86764" lon="0.2173">
        <ele>2595</ele>
        <time>2012-02-23T12:42:25Z</time>
      </trkpt>
      <trkpt lat="42.86767" lon="0.21731">
        <ele>2595</ele>
        <time>2012-02-23T12:42:29Z</time>
      </trkpt>
      <trkpt lat="42.86768" lon="0.21731">
        <ele>2595</ele>
        <time>2012-02-23T12:42:32Z</time>
      </trkpt>
      <trkpt lat="42.86771" lon="0.21731">
        <ele>2596</ele>
        <time>2012-02-23T12:42:36Z</time>
      </trkpt>
      <trkpt lat="42.86773" lon="0.21729">
        <ele>2596</ele>
        <time>2012-02-23T12:42:39Z</time>
      </trkpt>
      <trkpt lat="42.86773" lon="0.21726">
        <ele>2598</ele>
        <time>2012-02-23T12:42:43Z</time>
      </trkpt>
      <trkpt lat="42.86774" lon="0.21723">
        <ele>2599</ele>
        <time>2012-02-23T12:42:47Z</time>
      </trkpt>
      <trkpt lat="42.86774" lon="0.2172">
        <ele>2600</ele>
        <time>2012-02-23T12:42:51Z</time>
      </trkpt>
      <trkpt lat="42.86775" lon="0.21717">
        <ele>2601</ele>
        <time>2012-02-23T12:42:55Z</time>
      </trkpt>
      <trkpt lat="42.86775" lon="0.21715">
        <ele>2601</ele>
        <time>2012-02-23T12:42:58Z</time>
      </trkpt>
      <trkpt lat="42.86777" lon="0.21715">
        <ele>2601</ele>
        <time>2012-02-23T12:43:02Z</time>
      </trkpt>
      <trkpt lat="42.8678" lon="0.21716">
        <ele>2602</ele>
        <time>2012-02-23T12:43:07Z</time>
      </trkpt>
      <trkpt lat="42.86781" lon="0.21717">
        <ele>2602</ele>
        <time>2012-02-23T12:43:39Z</time>
      </trkpt>
      <trkpt lat="42.86784" lon="0.21717">
        <ele>2602</ele>
        <time>2012-02-23T12:43:43Z</time>
      </trkpt>
      <trkpt lat="42.86785" lon="0.21717">
        <ele>2603</ele>
        <time>2012-02-23T12:43:47Z</time>
      </trkpt>
      <trkpt lat="42.86788" lon="0.21718">
        <ele>2605</ele>
        <time>2012-02-23T12:43:52Z</time>
      </trkpt>
      <trkpt lat="42.86791" lon="0.21719">
        <ele>2605</ele>
        <time>2012-02-23T12:43:56Z</time>
      </trkpt>
      <trkpt lat="42.86793" lon="0.21719">
        <ele>2606</ele>
        <time>2012-02-23T12:44:00Z</time>
      </trkpt>
      <trkpt lat="42.86795" lon="0.21719">
        <ele>2606</ele>
        <time>2012-02-23T12:44:03Z</time>
      </trkpt>
      <trkpt lat="42.86795" lon="0.21717">
        <ele>2606</ele>
        <time>2012-02-23T12:44:07Z</time>
      </trkpt>
      <trkpt lat="42.86795" lon="0.21714">
        <ele>2606</ele>
        <time>2012-02-23T12:44:11Z</time>
      </trkpt>
      <trkpt lat="42.86795" lon="0.21711">
        <ele>2607</ele>
        <time>2012-02-23T12:44:15Z</time>
      </trkpt>
      <trkpt lat="42.86795" lon="0.21709">
        <ele>2607</ele>
        <time>2012-02-23T12:44:18Z</time>
      </trkpt>
      <trkpt lat="42.86795" lon="0.21706">
        <ele>2608</ele>
        <time>2012-02-23T12:44:22Z</time>
      </trkpt>
      <trkpt lat="42.86795" lon="0.21703">
        <ele>2608</ele>
        <time>2012-02-23T12:44:26Z</time>
      </trkpt>
      <trkpt lat="42.86796" lon="0.217">
        <ele>2609</ele>
        <time>2012-02-23T12:44:30Z</time>
      </trkpt>
      <trkpt lat="42.86796" lon="0.21698">
        <ele>2609</ele>
        <time>2012-02-23T12:44:33Z</time>
      </trkpt>
      <trkpt lat="42.86798" lon="0.21696">
        <ele>2611</ele>
        <time>2012-02-23T12:44:39Z</time>
      </trkpt>
      <trkpt lat="42.868" lon="0.21697">
        <ele>2611</ele>
        <time>2012-02-23T12:44:44Z</time>
      </trkpt>
      <trkpt lat="42.86802" lon="0.21698">
        <ele>2612</ele>
        <time>2012-02-23T12:44:47Z</time>
      </trkpt>
      <trkpt lat="42.86803" lon="0.21699">
        <ele>2612</ele>
        <time>2012-02-23T12:44:51Z</time>
      </trkpt>
      <trkpt lat="42.86804" lon="0.217">
        <ele>2612</ele>
        <time>2012-02-23T12:44:55Z</time>
      </trkpt>
      <trkpt lat="42.86806" lon="0.21701">
        <ele>2613</ele>
        <time>2012-02-23T12:44:58Z</time>
      </trkpt>
      <trkpt lat="42.86807" lon="0.21702">
        <ele>2613</ele>
        <time>2012-02-23T12:45:03Z</time>
      </trkpt>
      <trkpt lat="42.86808" lon="0.21702">
        <ele>2613</ele>
        <time>2012-02-23T12:45:16Z</time>
      </trkpt>
      <trkpt lat="42.86811" lon="0.21703">
        <ele>2613</ele>
        <time>2012-02-23T12:45:20Z</time>
      </trkpt>
      <trkpt lat="42.86811" lon="0.21702">
        <ele>2613</ele>
        <time>2012-02-23T12:45:24Z</time>
      </trkpt>
      <trkpt lat="42.86811" lon="0.21698">
        <ele>2613</ele>
        <time>2012-02-23T12:45:29Z</time>
      </trkpt>
      <trkpt lat="42.86812" lon="0.21697">
        <ele>2613</ele>
        <time>2012-02-23T12:45:32Z</time>
      </trkpt>
      <trkpt lat="42.86813" lon="0.21695">
        <ele>2613</ele>
        <time>2012-02-23T12:45:35Z</time>
      </trkpt>
      <trkpt lat="42.86813" lon="0.21693">
        <ele>2613</ele>
        <time>2012-02-23T12:45:38Z</time>
      </trkpt>
      <trkpt lat="42.86814" lon="0.21691">
        <ele>2613</ele>
        <time>2012-02-23T12:45:41Z</time>
      </trkpt>
      <trkpt lat="42.86815" lon="0.21688">
        <ele>2615</ele>
        <time>2012-02-23T12:45:46Z</time>
      </trkpt>
      <trkpt lat="42.86815" lon="0.21686">
        <ele>2615</ele>
        <time>2012-02-23T12:45:49Z</time>
      </trkpt>
      <trkpt lat="42.86816" lon="0.21686">
        <ele>2616</ele>
        <time>2012-02-23T12:45:59Z</time>
      </trkpt>
      <trkpt lat="42.86818" lon="0.21687">
        <ele>2616</ele>
        <time>2012-02-23T12:46:14Z</time>
      </trkpt>
      <trkpt lat="42.8682" lon="0.2169">
        <ele>2617</ele>
        <time>2012-02-23T12:46:19Z</time>
      </trkpt>
      <trkpt lat="42.86822" lon="0.21692">
        <ele>2618</ele>
        <time>2012-02-23T12:46:23Z</time>
      </trkpt>
      <trkpt lat="42.86824" lon="0.21693">
        <ele>2618</ele>
        <time>2012-02-23T12:46:26Z</time>
      </trkpt>
      <trkpt lat="42.86824" lon="0.21695">
        <ele>2618</ele>
        <time>2012-02-23T12:46:29Z</time>
      </trkpt>
      <trkpt lat="42.86827" lon="0.21697">
        <ele>2619</ele>
        <time>2012-02-23T12:46:34Z</time>
      </trkpt>
      <trkpt lat="42.86828" lon="0.21697">
        <ele>2619</ele>
        <time>2012-02-23T12:46:37Z</time>
      </trkpt>
      <trkpt lat="42.86829" lon="0.21695">
        <ele>2620</ele>
        <time>2012-02-23T12:46:41Z</time>
      </trkpt>
      <trkpt lat="42.8683" lon="0.21692">
        <ele>2621</ele>
        <time>2012-02-23T12:46:45Z</time>
      </trkpt>
      <trkpt lat="42.8683" lon="0.21689">
        <ele>2622</ele>
        <time>2012-02-23T12:46:49Z</time>
      </trkpt>
      <trkpt lat="42.86831" lon="0.21687">
        <ele>2622</ele>
        <time>2012-02-23T12:46:52Z</time>
      </trkpt>
      <trkpt lat="42.86831" lon="0.21684">
        <ele>2623</ele>
        <time>2012-02-23T12:46:56Z</time>
      </trkpt>
      <trkpt lat="42.86832" lon="0.21682">
        <ele>2623</ele>
        <time>2012-02-23T12:46:59Z</time>
      </trkpt>
      <trkpt lat="42.86832" lon="0.21678">
        <ele>2623</ele>
        <time>2012-02-23T12:47:04Z</time>
      </trkpt>
      <trkpt lat="42.86832" lon="0.21677">
        <ele>2624</ele>
        <time>2012-02-23T12:47:52Z</time>
      </trkpt>
      <trkpt lat="42.86833" lon="0.21675">
        <ele>2624</ele>
        <time>2012-02-23T12:47:55Z</time>
      </trkpt>
      <trkpt lat="42.86833" lon="0.21673">
        <ele>2624</ele>
        <time>2012-02-23T12:47:58Z</time>
      </trkpt>
      <trkpt lat="42.86834" lon="0.21671">
        <ele>2624</ele>
        <time>2012-02-23T12:48:01Z</time>
      </trkpt>
      <trkpt lat="42.86834" lon="0.21668">
        <ele>2624</ele>
        <time>2012-02-23T12:48:05Z</time>
      </trkpt>
      <trkpt lat="42.86835" lon="0.21666">
        <ele>2624</ele>
        <time>2012-02-23T12:48:08Z</time>
      </trkpt>
      <trkpt lat="42.86836" lon="0.21664">
        <ele>2624</ele>
        <time>2012-02-23T12:48:11Z</time>
      </trkpt>
      <trkpt lat="42.86837" lon="0.21663">
        <ele>2624</ele>
        <time>2012-02-23T12:48:17Z</time>
      </trkpt>
      <trkpt lat="42.86839" lon="0.21665">
        <ele>2625</ele>
        <time>2012-02-23T12:48:21Z</time>
      </trkpt>
      <trkpt lat="42.8684" lon="0.21666">
        <ele>2626</ele>
        <time>2012-02-23T12:48:25Z</time>
      </trkpt>
      <trkpt lat="42.86843" lon="0.21668">
        <ele>2626</ele>
        <time>2012-02-23T12:48:30Z</time>
      </trkpt>
      <trkpt lat="42.86844" lon="0.21669">
        <ele>2626</ele>
        <time>2012-02-23T12:48:33Z</time>
      </trkpt>
      <trkpt lat="42.86845" lon="0.2167">
        <ele>2627</ele>
        <time>2012-02-23T12:48:37Z</time>
      </trkpt>
      <trkpt lat="42.86848" lon="0.21672">
        <ele>2628</ele>
        <time>2012-02-23T12:48:42Z</time>
      </trkpt>
      <trkpt lat="42.86849" lon="0.21673">
        <ele>2628</ele>
        <time>2012-02-23T12:48:45Z</time>
      </trkpt>
      <trkpt lat="42.8685" lon="0.21674">
        <ele>2629</ele>
        <time>2012-02-23T12:49:21Z</time>
      </trkpt>
      <trkpt lat="42.86852" lon="0.21675">
        <ele>2630</ele>
        <time>2012-02-23T12:49:24Z</time>
      </trkpt>
      <trkpt lat="42.86854" lon="0.21677">
        <ele>2630</ele>
        <time>2012-02-23T12:49:28Z</time>
      </trkpt>
      <trkpt lat="42.86856" lon="0.21678">
        <ele>2631</ele>
        <time>2012-02-23T12:49:31Z</time>
      </trkpt>
      <trkpt lat="42.86858" lon="0.21678">
        <ele>2632</ele>
        <time>2012-02-23T12:49:36Z</time>
      </trkpt>
      <trkpt lat="42.86858" lon="0.21676">
        <ele>2633</ele>
        <time>2012-02-23T12:49:39Z</time>
      </trkpt>
      <trkpt lat="42.86858" lon="0.21674">
        <ele>2633</ele>
        <time>2012-02-23T12:49:42Z</time>
      </trkpt>
      <trkpt lat="42.86858" lon="0.21672">
        <ele>2634</ele>
        <time>2012-02-23T12:49:45Z</time>
      </trkpt>
      <trkpt lat="42.86859" lon="0.21669">
        <ele>2635</ele>
        <time>2012-02-23T12:49:49Z</time>
      </trkpt>
      <trkpt lat="42.86859" lon="0.21667">
        <ele>2635</ele>
        <time>2012-02-23T12:49:52Z</time>
      </trkpt>
      <trkpt lat="42.86859" lon="0.21664">
        <ele>2636</ele>
        <time>2012-02-23T12:49:56Z</time>
      </trkpt>
      <trkpt lat="42.8686" lon="0.21661">
        <ele>2636</ele>
        <time>2012-02-23T12:50:00Z</time>
      </trkpt>
      <trkpt lat="42.8686" lon="0.21658">
        <ele>2637</ele>
        <time>2012-02-23T12:50:04Z</time>
      </trkpt>
      <trkpt lat="42.8686" lon="0.21655">
        <ele>2638</ele>
        <time>2012-02-23T12:50:08Z</time>
      </trkpt>
      <trkpt lat="42.86861" lon="0.21652">
        <ele>2638</ele>
        <time>2012-02-23T12:50:12Z</time>
      </trkpt>
      <trkpt lat="42.86861" lon="0.21649">
        <ele>2639</ele>
        <time>2012-02-23T12:50:15Z</time>
      </trkpt>
      <trkpt lat="42.86861" lon="0.21646">
        <ele>2639</ele>
        <time>2012-02-23T12:50:19Z</time>
      </trkpt>
      <trkpt lat="42.86862" lon="0.21643">
        <ele>2640</ele>
        <time>2012-02-23T12:50:24Z</time>
      </trkpt>
      <trkpt lat="42.86863" lon="0.2164">
        <ele>2640</ele>
        <time>2012-02-23T12:50:28Z</time>
      </trkpt>
      <trkpt lat="42.86863" lon="0.21637">
        <ele>2641</ele>
        <time>2012-02-23T12:50:32Z</time>
      </trkpt>
      <trkpt lat="42.86864" lon="0.21634">
        <ele>2642</ele>
        <time>2012-02-23T12:50:36Z</time>
      </trkpt>
      <trkpt lat="42.86866" lon="0.21632">
        <ele>2643</ele>
        <time>2012-02-23T12:51:20Z</time>
      </trkpt>
      <trkpt lat="42.86867" lon="0.21633">
        <ele>2643</ele>
        <time>2012-02-23T12:51:25Z</time>
      </trkpt>
      <trkpt lat="42.86868" lon="0.21634">
        <ele>2643</ele>
        <time>2012-02-23T12:51:28Z</time>
      </trkpt>
      <trkpt lat="42.86869" lon="0.21636">
        <ele>2644</ele>
        <time>2012-02-23T12:51:31Z</time>
      </trkpt>
      <trkpt lat="42.86871" lon="0.21637">
        <ele>2645</ele>
        <time>2012-02-23T12:51:34Z</time>
      </trkpt>
      <trkpt lat="42.86872" lon="0.21639">
        <ele>2645</ele>
        <time>2012-02-23T12:51:37Z</time>
      </trkpt>
      <trkpt lat="42.86873" lon="0.21641">
        <ele>2645</ele>
        <time>2012-02-23T12:51:40Z</time>
      </trkpt>
      <trkpt lat="42.86874" lon="0.21642">
        <ele>2646</ele>
        <time>2012-02-23T12:51:43Z</time>
      </trkpt>
      <trkpt lat="42.86876" lon="0.21643">
        <ele>2647</ele>
        <time>2012-02-23T12:51:46Z</time>
      </trkpt>
      <trkpt lat="42.86877" lon="0.21644">
        <ele>2647</ele>
        <time>2012-02-23T12:51:49Z</time>
      </trkpt>
      <trkpt lat="42.86878" lon="0.21645">
        <ele>2647</ele>
        <time>2012-02-23T12:51:52Z</time>
      </trkpt>
      <trkpt lat="42.86881" lon="0.21647">
        <ele>2648</ele>
        <time>2012-02-23T12:51:57Z</time>
      </trkpt>
      <trkpt lat="42.86882" lon="0.21648">
        <ele>2648</ele>
        <time>2012-02-23T12:52:00Z</time>
      </trkpt>
      <trkpt lat="42.86884" lon="0.2165">
        <ele>2649</ele>
        <time>2012-02-23T12:52:03Z</time>
      </trkpt>
      <trkpt lat="42.86885" lon="0.21651">
        <ele>2649</ele>
        <time>2012-02-23T12:52:06Z</time>
      </trkpt>
      <trkpt lat="42.86886" lon="0.21652">
        <ele>2649</ele>
        <time>2012-02-23T12:52:09Z</time>
      </trkpt>
      <trkpt lat="42.86887" lon="0.21653">
        <ele>2650</ele>
        <time>2012-02-23T12:52:12Z</time>
      </trkpt>
      <trkpt lat="42.86889" lon="0.21653">
        <ele>2651</ele>
        <time>2012-02-23T12:53:01Z</time>
      </trkpt>
      <trkpt lat="42.8689" lon="0.21654">
        <ele>2651</ele>
        <time>2012-02-23T12:53:04Z</time>
      </trkpt>
      <trkpt lat="42.86892" lon="0.21652">
        <ele>2651</ele>
        <time>2012-02-23T12:53:10Z</time>
      </trkpt>
      <trkpt lat="42.86893" lon="0.21649">
        <ele>2652</ele>
        <time>2012-02-23T12:53:15Z</time>
      </trkpt>
      <trkpt lat="42.86893" lon="0.21646">
        <ele>2652</ele>
        <time>2012-02-23T12:53:19Z</time>
      </trkpt>
      <trkpt lat="42.86894" lon="0.21643">
        <ele>2652</ele>
        <time>2012-02-23T12:53:23Z</time>
      </trkpt>
      <trkpt lat="42.86894" lon="0.2164">
        <ele>2653</ele>
        <time>2012-02-23T12:53:27Z</time>
      </trkpt>
      <trkpt lat="42.86895" lon="0.21636">
        <ele>2653</ele>
        <time>2012-02-23T12:53:32Z</time>
      </trkpt>
      <trkpt lat="42.86895" lon="0.21633">
        <ele>2654</ele>
        <time>2012-02-23T12:53:36Z</time>
      </trkpt>
      <trkpt lat="42.86895" lon="0.2163">
        <ele>2654</ele>
        <time>2012-02-23T12:53:40Z</time>
      </trkpt>
      <trkpt lat="42.86895" lon="0.21626">
        <ele>2655</ele>
        <time>2012-02-23T12:53:44Z</time>
      </trkpt>
      <trkpt lat="42.86896" lon="0.21624">
        <ele>2655</ele>
        <time>2012-02-23T12:54:20Z</time>
      </trkpt>
      <trkpt lat="42.86897" lon="0.21621">
        <ele>2655</ele>
        <time>2012-02-23T12:54:24Z</time>
      </trkpt>
      <trkpt lat="42.86897" lon="0.21619">
        <ele>2655</ele>
        <time>2012-02-23T12:54:27Z</time>
      </trkpt>
      <trkpt lat="42.86897" lon="0.21616">
        <ele>2655</ele>
        <time>2012-02-23T12:54:31Z</time>
      </trkpt>
      <trkpt lat="42.86897" lon="0.21613">
        <ele>2655</ele>
        <time>2012-02-23T12:54:35Z</time>
      </trkpt>
      <trkpt lat="42.86898" lon="0.2161">
        <ele>2656</ele>
        <time>2012-02-23T12:54:40Z</time>
      </trkpt>
      <trkpt lat="42.86899" lon="0.2161">
        <ele>2657</ele>
        <time>2012-02-23T12:54:49Z</time>
      </trkpt>
      <trkpt lat="42.869" lon="0.21611">
        <ele>2658</ele>
        <time>2012-02-23T12:54:56Z</time>
      </trkpt>
      <trkpt lat="42.86901" lon="0.21612">
        <ele>2659</ele>
        <time>2012-02-23T12:55:00Z</time>
      </trkpt>
      <trkpt lat="42.86902" lon="0.21614">
        <ele>2659</ele>
        <time>2012-02-23T12:55:03Z</time>
      </trkpt>
      <trkpt lat="42.86903" lon="0.21615">
        <ele>2659</ele>
        <time>2012-02-23T12:55:06Z</time>
      </trkpt>
      <trkpt lat="42.86905" lon="0.21616">
        <ele>2660</ele>
        <time>2012-02-23T12:55:09Z</time>
      </trkpt>
      <trkpt lat="42.86906" lon="0.21618">
        <ele>2660</ele>
        <time>2012-02-23T12:55:12Z</time>
      </trkpt>
      <trkpt lat="42.86907" lon="0.21619">
        <ele>2661</ele>
        <time>2012-02-23T12:55:15Z</time>
      </trkpt>
      <trkpt lat="42.86908" lon="0.2162">
        <ele>2661</ele>
        <time>2012-02-23T12:55:18Z</time>
      </trkpt>
      <trkpt lat="42.86909" lon="0.21621">
        <ele>2662</ele>
        <time>2012-02-23T12:55:21Z</time>
      </trkpt>
      <trkpt lat="42.86911" lon="0.21622">
        <ele>2662</ele>
        <time>2012-02-23T12:55:24Z</time>
      </trkpt>
      <trkpt lat="42.86912" lon="0.21624">
        <ele>2662</ele>
        <time>2012-02-23T12:55:27Z</time>
      </trkpt>
      <trkpt lat="42.86913" lon="0.21625">
        <ele>2663</ele>
        <time>2012-02-23T12:55:30Z</time>
      </trkpt>
      <trkpt lat="42.86915" lon="0.21626">
        <ele>2663</ele>
        <time>2012-02-23T12:55:33Z</time>
      </trkpt>
      <trkpt lat="42.86917" lon="0.21628">
        <ele>2664</ele>
        <time>2012-02-23T12:55:38Z</time>
      </trkpt>
      <trkpt lat="42.86918" lon="0.21629">
        <ele>2665</ele>
        <time>2012-02-23T12:56:01Z</time>
      </trkpt>
      <trkpt lat="42.86919" lon="0.2163">
        <ele>2665</ele>
        <time>2012-02-23T12:56:04Z</time>
      </trkpt>
      <trkpt lat="42.86922" lon="0.21633">
        <ele>2665</ele>
        <time>2012-02-23T12:56:09Z</time>
      </trkpt>
      <trkpt lat="42.86923" lon="0.21634">
        <ele>2666</ele>
        <time>2012-02-23T12:56:12Z</time>
      </trkpt>
      <trkpt lat="42.86926" lon="0.21635">
        <ele>2667</ele>
        <time>2012-02-23T12:56:17Z</time>
      </trkpt>
      <trkpt lat="42.86927" lon="0.21636">
        <ele>2668</ele>
        <time>2012-02-23T12:56:20Z</time>
      </trkpt>
      <trkpt lat="42.86929" lon="0.21638">
        <ele>2668</ele>
        <time>2012-02-23T12:56:23Z</time>
      </trkpt>
      <trkpt lat="42.8693" lon="0.21639">
        <ele>2669</ele>
        <time>2012-02-23T12:56:26Z</time>
      </trkpt>
      <trkpt lat="42.86932" lon="0.21636">
        <ele>2670</ele>
        <time>2012-02-23T12:56:32Z</time>
      </trkpt>
      <trkpt lat="42.86932" lon="0.21634">
        <ele>2671</ele>
        <time>2012-02-23T12:56:35Z</time>
      </trkpt>
      <trkpt lat="42.86932" lon="0.21632">
        <ele>2671</ele>
        <time>2012-02-23T12:56:38Z</time>
      </trkpt>
      <trkpt lat="42.86932" lon="0.21629">
        <ele>2672</ele>
        <time>2012-02-23T12:56:42Z</time>
      </trkpt>
      <trkpt lat="42.86932" lon="0.21626">
        <ele>2673</ele>
        <time>2012-02-23T12:56:46Z</time>
      </trkpt>
      <trkpt lat="42.86932" lon="0.21623">
        <ele>2674</ele>
        <time>2012-02-23T12:57:06Z</time>
      </trkpt>
      <trkpt lat="42.86931" lon="0.21622">
        <ele>2674</ele>
        <time>2012-02-23T12:57:23Z</time>
      </trkpt>
      <trkpt lat="42.86931" lon="0.21619">
        <ele>2675</ele>
        <time>2012-02-23T12:57:27Z</time>
      </trkpt>
      <trkpt lat="42.86931" lon="0.21615">
        <ele>2675</ele>
        <time>2012-02-23T12:57:31Z</time>
      </trkpt>
      <trkpt lat="42.86931" lon="0.21613">
        <ele>2676</ele>
        <time>2012-02-23T12:57:34Z</time>
      </trkpt>
      <trkpt lat="42.86931" lon="0.2161">
        <ele>2676</ele>
        <time>2012-02-23T12:57:38Z</time>
      </trkpt>
      <trkpt lat="42.86931" lon="0.21607">
        <ele>2676</ele>
        <time>2012-02-23T12:57:42Z</time>
      </trkpt>
      <trkpt lat="42.8693" lon="0.21604">
        <ele>2676</ele>
        <time>2012-02-23T12:57:46Z</time>
      </trkpt>
      <trkpt lat="42.8693" lon="0.21601">
        <ele>2677</ele>
        <time>2012-02-23T12:57:50Z</time>
      </trkpt>
      <trkpt lat="42.8693" lon="0.21598">
        <ele>2677</ele>
        <time>2012-02-23T12:57:55Z</time>
      </trkpt>
      <trkpt lat="42.8693" lon="0.21595">
        <ele>2678</ele>
        <time>2012-02-23T12:57:59Z</time>
      </trkpt>
      <trkpt lat="42.86929" lon="0.21591">
        <ele>2678</ele>
        <time>2012-02-23T12:58:03Z</time>
      </trkpt>
      <trkpt lat="42.86929" lon="0.21588">
        <ele>2679</ele>
        <time>2012-02-23T12:58:07Z</time>
      </trkpt>
      <trkpt lat="42.86929" lon="0.21586">
        <ele>2680</ele>
        <time>2012-02-23T12:58:11Z</time>
      </trkpt>
      <trkpt lat="42.86929" lon="0.21583">
        <ele>2680</ele>
        <time>2012-02-23T12:58:15Z</time>
      </trkpt>
      <trkpt lat="42.86929" lon="0.21581">
        <ele>2681</ele>
        <time>2012-02-23T12:58:42Z</time>
      </trkpt>
      <trkpt lat="42.86929" lon="0.21579">
        <ele>2681</ele>
        <time>2012-02-23T12:58:45Z</time>
      </trkpt>
      <trkpt lat="42.86928" lon="0.21576">
        <ele>2681</ele>
        <time>2012-02-23T12:58:49Z</time>
      </trkpt>
      <trkpt lat="42.86928" lon="0.21572">
        <ele>2681</ele>
        <time>2012-02-23T12:58:53Z</time>
      </trkpt>
      <trkpt lat="42.8693" lon="0.2157">
        <ele>2683</ele>
        <time>2012-02-23T12:59:01Z</time>
      </trkpt>
      <trkpt lat="42.86932" lon="0.21571">
        <ele>2684</ele>
        <time>2012-02-23T12:59:05Z</time>
      </trkpt>
      <trkpt lat="42.86935" lon="0.21572">
        <ele>2685</ele>
        <time>2012-02-23T12:59:10Z</time>
      </trkpt>
      <trkpt lat="42.86936" lon="0.21573">
        <ele>2685</ele>
        <time>2012-02-23T12:59:13Z</time>
      </trkpt>
      <trkpt lat="42.86939" lon="0.21574">
        <ele>2686</ele>
        <time>2012-02-23T12:59:18Z</time>
      </trkpt>
      <trkpt lat="42.8694" lon="0.21575">
        <ele>2686</ele>
        <time>2012-02-23T12:59:22Z</time>
      </trkpt>
      <trkpt lat="42.86941" lon="0.21576">
        <ele>2686</ele>
        <time>2012-02-23T12:59:25Z</time>
      </trkpt>
      <trkpt lat="42.86943" lon="0.21576">
        <ele>2687</ele>
        <time>2012-02-23T12:59:28Z</time>
      </trkpt>
      <trkpt lat="42.86944" lon="0.21576">
        <ele>2687</ele>
        <time>2012-02-23T12:59:31Z</time>
      </trkpt>
      <trkpt lat="42.86946" lon="0.21576">
        <ele>2689</ele>
        <time>2012-02-23T13:00:06Z</time>
      </trkpt>
      <trkpt lat="42.86948" lon="0.21577">
        <ele>2689</ele>
        <time>2012-02-23T13:00:10Z</time>
      </trkpt>
      <trkpt lat="42.8695" lon="0.21577">
        <ele>2690</ele>
        <time>2012-02-23T13:00:13Z</time>
      </trkpt>
      <trkpt lat="42.8695" lon="0.21575">
        <ele>2691</ele>
        <time>2012-02-23T13:00:17Z</time>
      </trkpt>
      <trkpt lat="42.8695" lon="0.21573">
        <ele>2692</ele>
        <time>2012-02-23T13:00:20Z</time>
      </trkpt>
      <trkpt lat="42.8695" lon="0.2157">
        <ele>2692</ele>
        <time>2012-02-23T13:00:24Z</time>
      </trkpt>
      <trkpt lat="42.8695" lon="0.21566">
        <ele>2692</ele>
        <time>2012-02-23T13:00:28Z</time>
      </trkpt>
      <trkpt lat="42.86949" lon="0.21563">
        <ele>2693</ele>
        <time>2012-02-23T13:00:33Z</time>
      </trkpt>
      <trkpt lat="42.86948" lon="0.21559">
        <ele>2693</ele>
        <time>2012-02-23T13:00:37Z</time>
      </trkpt>
      <trkpt lat="42.86947" lon="0.21556">
        <ele>2694</ele>
        <time>2012-02-23T13:00:41Z</time>
      </trkpt>
      <trkpt lat="42.86946" lon="0.21553">
        <ele>2694</ele>
        <time>2012-02-23T13:00:45Z</time>
      </trkpt>
      <trkpt lat="42.86946" lon="0.21552">
        <ele>2695</ele>
        <time>2012-02-23T13:00:51Z</time>
      </trkpt>
      <trkpt lat="42.86945" lon="0.2155">
        <ele>2696</ele>
        <time>2012-02-23T13:01:26Z</time>
      </trkpt>
      <trkpt lat="42.86945" lon="0.21547">
        <ele>2696</ele>
        <time>2012-02-23T13:01:31Z</time>
      </trkpt>
      <trkpt lat="42.86945" lon="0.21544">
        <ele>2696</ele>
        <time>2012-02-23T13:01:35Z</time>
      </trkpt>
      <trkpt lat="42.86945" lon="0.21541">
        <ele>2697</ele>
        <time>2012-02-23T13:01:40Z</time>
      </trkpt>
      <trkpt lat="42.86946" lon="0.21539">
        <ele>2697</ele>
        <time>2012-02-23T13:01:43Z</time>
      </trkpt>
      <trkpt lat="42.86946" lon="0.21537">
        <ele>2697</ele>
        <time>2012-02-23T13:01:46Z</time>
      </trkpt>
      <trkpt lat="42.86947" lon="0.21535">
        <ele>2697</ele>
        <time>2012-02-23T13:01:49Z</time>
      </trkpt>
      <trkpt lat="42.86947" lon="0.21533">
        <ele>2697</ele>
        <time>2012-02-23T13:01:52Z</time>
      </trkpt>
      <trkpt lat="42.86948" lon="0.21532">
        <ele>2698</ele>
        <time>2012-02-23T13:01:55Z</time>
      </trkpt>
      <trkpt lat="42.86948" lon="0.2153">
        <ele>2698</ele>
        <time>2012-02-23T13:01:58Z</time>
      </trkpt>
      <trkpt lat="42.86949" lon="0.21529">
        <ele>2699</ele>
        <time>2012-02-23T13:02:02Z</time>
      </trkpt>
      <trkpt lat="42.8695" lon="0.21527">
        <ele>2700</ele>
        <time>2012-02-23T13:02:05Z</time>
      </trkpt>
      <trkpt lat="42.86951" lon="0.21523">
        <ele>2701</ele>
        <time>2012-02-23T13:02:10Z</time>
      </trkpt>
      <trkpt lat="42.86951" lon="0.21522">
        <ele>2702</ele>
        <time>2012-02-23T13:02:30Z</time>
      </trkpt>
      <trkpt lat="42.86952" lon="0.21519">
        <ele>2702</ele>
        <time>2012-02-23T13:02:34Z</time>
      </trkpt>
      <trkpt lat="42.86952" lon="0.21516">
        <ele>2702</ele>
        <time>2012-02-23T13:02:38Z</time>
      </trkpt>
      <trkpt lat="42.86952" lon="0.21513">
        <ele>2702</ele>
        <time>2012-02-23T13:02:42Z</time>
      </trkpt>
      <trkpt lat="42.86953" lon="0.21509">
        <ele>2702</ele>
        <time>2012-02-23T13:02:46Z</time>
      </trkpt>
      <trkpt lat="42.86953" lon="0.21506">
        <ele>2703</ele>
        <time>2012-02-23T13:02:50Z</time>
      </trkpt>
      <trkpt lat="42.86954" lon="0.21503">
        <ele>2703</ele>
        <time>2012-02-23T13:02:54Z</time>
      </trkpt>
      <trkpt lat="42.86954" lon="0.215">
        <ele>2703</ele>
        <time>2012-02-23T13:02:58Z</time>
      </trkpt>
      <trkpt lat="42.86955" lon="0.21498">
        <ele>2704</ele>
        <time>2012-02-23T13:03:01Z</time>
      </trkpt>
      <trkpt lat="42.86955" lon="0.21496">
        <ele>2705</ele>
        <time>2012-02-23T13:03:04Z</time>
      </trkpt>
      <trkpt lat="42.86956" lon="0.21492">
        <ele>2705</ele>
        <time>2012-02-23T13:03:08Z</time>
      </trkpt>
      <trkpt lat="42.86956" lon="0.21488">
        <ele>2707</ele>
        <time>2012-02-23T13:03:14Z</time>
      </trkpt>
      <trkpt lat="42.86957" lon="0.21488">
        <ele>2712</ele>
        <time>2012-02-23T13:03:59Z</time>
      </trkpt>
      <trkpt lat="42.86957" lon="0.21486">
        <ele>2714</ele>
        <time>2012-02-23T13:04:34Z</time>
      </trkpt>
      <trkpt lat="42.86957" lon="0.21485">
        <ele>2714</ele>
        <time>2012-02-23T13:04:59Z</time>
      </trkpt>
      <trkpt lat="42.86957" lon="0.21486">
        <ele>2714</ele>
        <time>2012-02-23T13:05:13Z</time>
      </trkpt>
      <trkpt lat="42.86956" lon="0.21489">
        <ele>2714</ele>
        <time>2012-02-23T13:05:17Z</time>
      </trkpt>
      <trkpt lat="42.86957" lon="0.21488">
        <ele>2714</ele>
        <time>2012-02-23T13:05:20Z</time>
      </trkpt>
      <trkpt lat="42.86957" lon="0.21487">
        <ele>2714</ele>
        <time>2012-02-23T13:05:56Z</time>
      </trkpt>
      <trkpt lat="42.86957" lon="0.21489">
        <ele>2713</ele>
        <time>2012-02-23T13:07:20Z</time>
      </trkpt>
      <trkpt lat="42.86956" lon="0.21487">
        <ele>2713</ele>
        <time>2012-02-23T13:07:37Z</time>
      </trkpt>
      <trkpt lat="42.86957" lon="0.21487">
        <ele>2713</ele>
        <time>2012-02-23T13:07:54Z</time>
      </trkpt>
      <trkpt lat="42.86957" lon="0.21488">
        <ele>2713</ele>
        <time>2012-02-23T13:08:23Z</time>
      </trkpt>
      <trkpt lat="42.86956" lon="0.21488">
        <ele>2712</ele>
        <time>2012-02-23T13:08:50Z</time>
      </trkpt>
      <trkpt lat="42.86956" lon="0.21487">
        <ele>2712</ele>
        <time>2012-02-23T13:11:02Z</time>
      </trkpt>
      <trkpt lat="42.86956" lon="0.21485">
        <ele>2712</ele>
        <time>2012-02-23T13:11:13Z</time>
      </trkpt>
      <trkpt lat="42.86958" lon="0.21484">
        <ele>2712</ele>
        <time>2012-02-23T13:11:19Z</time>
      </trkpt>
      <trkpt lat="42.86959" lon="0.21485">
        <ele>2712</ele>
        <time>2012-02-23T13:11:22Z</time>
      </trkpt>
      <trkpt lat="42.8696" lon="0.21485">
        <ele>2712</ele>
        <time>2012-02-23T13:11:46Z</time>
      </trkpt>
      <trkpt lat="42.86961" lon="0.21486">
        <ele>2712</ele>
        <time>2012-02-23T13:12:24Z</time>
      </trkpt>
      <trkpt lat="42.86961" lon="0.21485">
        <ele>2712</ele>
        <time>2012-02-23T13:13:23Z</time>
      </trkpt>
      <trkpt lat="42.8696" lon="0.21485">
        <ele>2712</ele>
        <time>2012-02-23T13:13:36Z</time>
      </trkpt>
      <trkpt lat="42.86959" lon="0.21485">
        <ele>2712</ele>
        <time>2012-02-23T13:13:45Z</time>
      </trkpt>
      <trkpt lat="42.86958" lon="0.21487">
        <ele>2712</ele>
        <time>2012-02-23T13:13:49Z</time>
      </trkpt>
      <trkpt lat="42.86958" lon="0.21488">
        <ele>2712</ele>
        <time>2012-02-23T13:13:52Z</time>
      </trkpt>
      <trkpt lat="42.86956" lon="0.21487">
        <ele>2712</ele>
        <time>2012-02-23T13:14:18Z</time>
      </trkpt>
      <trkpt lat="42.86955" lon="0.21487">
        <ele>2712</ele>
        <time>2012-02-23T13:15:02Z</time>
      </trkpt>
      <trkpt lat="42.86956" lon="0.21485">
        <ele>2712</ele>
        <time>2012-02-23T13:15:26Z</time>
      </trkpt>
      <trkpt lat="42.86957" lon="0.21484">
        <ele>2712</ele>
        <time>2012-02-23T13:15:31Z</time>
      </trkpt>
      <trkpt lat="42.86958" lon="0.21485">
        <ele>2712</ele>
        <time>2012-02-23T13:15:58Z</time>
      </trkpt>
      <trkpt lat="42.8696" lon="0.21485">
        <ele>2712</ele>
        <time>2012-02-23T13:16:20Z</time>
      </trkpt>
      <trkpt lat="42.86958" lon="0.21485">
        <ele>2712</ele>
        <time>2012-02-23T13:17:23Z</time>
      </trkpt>
      <trkpt lat="42.86957" lon="0.21485">
        <ele>2712</ele>
        <time>2012-02-23T13:17:32Z</time>
      </trkpt>
      <trkpt lat="42.86958" lon="0.21483">
        <ele>2712</ele>
        <time>2012-02-23T13:17:50Z</time>
      </trkpt>
      <trkpt lat="42.86956" lon="0.21482">
        <ele>2715</ele>
        <time>2012-02-23T13:18:26Z</time>
      </trkpt>
      <trkpt lat="42.86958" lon="0.21483">
        <ele>2715</ele>
        <time>2012-02-23T13:18:42Z</time>
      </trkpt>
      <trkpt lat="42.86956" lon="0.21483">
        <ele>2715</ele>
        <time>2012-02-23T13:20:02Z</time>
      </trkpt>
      <trkpt lat="42.86955" lon="0.21483">
        <ele>2715</ele>
        <time>2012-02-23T13:20:28Z</time>
      </trkpt>
      <trkpt lat="42.86955" lon="0.21485">
        <ele>2714</ele>
        <time>2012-02-23T13:20:33Z</time>
      </trkpt>
      <trkpt lat="42.86956" lon="0.21486">
        <ele>2713</ele>
        <time>2012-02-23T13:20:41Z</time>
      </trkpt>
      <trkpt lat="42.86957" lon="0.21486">
        <ele>2712</ele>
        <time>2012-02-23T13:20:48Z</time>
      </trkpt>
      <trkpt lat="42.86958" lon="0.21486">
        <ele>2711</ele>
        <time>2012-02-23T13:21:21Z</time>
      </trkpt>
      <trkpt lat="42.86959" lon="0.21488">
        <ele>2709</ele>
        <time>2012-02-23T13:21:38Z</time>
      </trkpt>
      <trkpt lat="42.86958" lon="0.21487">
        <ele>2708</ele>
        <time>2012-02-23T13:22:58Z</time>
      </trkpt>
      <trkpt lat="42.86956" lon="0.21487">
        <ele>2708</ele>
        <time>2012-02-23T13:23:53Z</time>
      </trkpt>
      <trkpt lat="42.86956" lon="0.21489">
        <ele>2708</ele>
        <time>2012-02-23T13:24:31Z</time>
      </trkpt>
      <trkpt lat="42.86956" lon="0.21487">
        <ele>2708</ele>
        <time>2012-02-23T13:25:02Z</time>
      </trkpt>
      <trkpt lat="42.86955" lon="0.21486">
        <ele>2709</ele>
        <time>2012-02-23T13:25:15Z</time>
      </trkpt>
      <trkpt lat="42.86956" lon="0.21486">
        <ele>2709</ele>
        <time>2012-02-23T13:25:27Z</time>
      </trkpt>
      <trkpt lat="42.86957" lon="0.21488">
        <ele>2709</ele>
        <time>2012-02-23T13:25:47Z</time>
      </trkpt>
      <trkpt lat="42.86956" lon="0.21487">
        <ele>2709</ele>
        <time>2012-02-23T13:26:11Z</time>
      </trkpt>
      <trkpt lat="42.86957" lon="0.21487">
        <ele>2710</ele>
        <time>2012-02-23T13:27:22Z</time>
      </trkpt>
      <trkpt lat="42.86958" lon="0.21487">
        <ele>2710</ele>
        <time>2012-02-23T13:29:01Z</time>
      </trkpt>
      <trkpt lat="42.86957" lon="0.21486">
        <ele>2710</ele>
        <time>2012-02-23T13:29:21Z</time>
      </trkpt>
      <trkpt lat="42.86955" lon="0.21486">
        <ele>2710</ele>
        <time>2012-02-23T13:29:25Z</time>
      </trkpt>
      <trkpt lat="42.86957" lon="0.21487">
        <ele>2710</ele>
        <time>2012-02-23T13:29:32Z</time>
      </trkpt>
      <trkpt lat="42.86958" lon="0.21488">
        <ele>2710</ele>
        <time>2012-02-23T13:29:41Z</time>
      </trkpt>
      <trkpt lat="42.86959" lon="0.21488">
        <ele>2710</ele>
        <time>2012-02-23T13:29:44Z</time>
      </trkpt>
      <trkpt lat="42.86958" lon="0.21486">
        <ele>2710</ele>
        <time>2012-02-23T13:29:53Z</time>
      </trkpt>
      <trkpt lat="42.8696" lon="0.21488">
        <ele>2710</ele>
        <time>2012-02-23T13:30:40Z</time>
      </trkpt>
      <trkpt lat="42.86958" lon="0.21488">
        <ele>2710</ele>
        <time>2012-02-23T13:31:13Z</time>
      </trkpt>
      <trkpt lat="42.86957" lon="0.21488">
        <ele>2710</ele>
        <time>2012-02-23T13:31:17Z</time>
      </trkpt>
      <trkpt lat="42.86956" lon="0.21489">
        <ele>2710</ele>
        <time>2012-02-23T13:31:48Z</time>
      </trkpt>
      <trkpt lat="42.86957" lon="0.2149">
        <ele>2710</ele>
        <time>2012-02-23T13:32:24Z</time>
      </trkpt>
      <trkpt lat="42.86958" lon="0.2149">
        <ele>2710</ele>
        <time>2012-02-23T13:32:48Z</time>
      </trkpt>
      <trkpt lat="42.86959" lon="0.21491">
        <ele>2710</ele>
        <time>2012-02-23T13:33:39Z</time>
      </trkpt>
      <trkpt lat="42.86958" lon="0.21491">
        <ele>2710</ele>
        <time>2012-02-23T13:33:59Z</time>
      </trkpt>
      <trkpt lat="42.86957" lon="0.21493">
        <ele>2710</ele>
        <time>2012-02-23T13:34:02Z</time>
      </trkpt>
      <trkpt lat="42.86956" lon="0.21494">
        <ele>2710</ele>
        <time>2012-02-23T13:34:06Z</time>
      </trkpt>
      <trkpt lat="42.86952" lon="0.21501">
        <ele>2710</ele>
        <time>2012-02-23T13:34:09Z</time>
      </trkpt>
      <trkpt lat="42.86951" lon="0.21507">
        <ele>2710</ele>
        <time>2012-02-23T13:34:13Z</time>
      </trkpt>
      <trkpt lat="42.86951" lon="0.21511">
        <ele>2710</ele>
        <time>2012-02-23T13:34:16Z</time>
      </trkpt>
      <trkpt lat="42.86951" lon="0.21517">
        <ele>2710</ele>
        <time>2012-02-23T13:34:19Z</time>
      </trkpt>
      <trkpt lat="42.8695" lon="0.21521">
        <ele>2709</ele>
        <time>2012-02-23T13:34:22Z</time>
      </trkpt>
      <trkpt lat="42.86951" lon="0.21526">
        <ele>2708</ele>
        <time>2012-02-23T13:34:25Z</time>
      </trkpt>
      <trkpt lat="42.86951" lon="0.21532">
        <ele>2707</ele>
        <time>2012-02-23T13:34:28Z</time>
      </trkpt>
      <trkpt lat="42.86951" lon="0.21539">
        <ele>2705</ele>
        <time>2012-02-23T13:34:31Z</time>
      </trkpt>
      <trkpt lat="42.86953" lon="0.21547">
        <ele>2703</ele>
        <time>2012-02-23T13:34:34Z</time>
      </trkpt>
      <trkpt lat="42.86954" lon="0.21561">
        <ele>2701</ele>
        <time>2012-02-23T13:34:37Z</time>
      </trkpt>
      <trkpt lat="42.86956" lon="0.21572">
        <ele>2699</ele>
        <time>2012-02-23T13:34:40Z</time>
      </trkpt>
      <trkpt lat="42.86959" lon="0.21585">
        <ele>2698</ele>
        <time>2012-02-23T13:34:43Z</time>
      </trkpt>
      <trkpt lat="42.86962" lon="0.21599">
        <ele>2696</ele>
        <time>2012-02-23T13:34:46Z</time>
      </trkpt>
      <trkpt lat="42.86967" lon="0.21615">
        <ele>2695</ele>
        <time>2012-02-23T13:34:49Z</time>
      </trkpt>
      <trkpt lat="42.86972" lon="0.21625">
        <ele>2693</ele>
        <time>2012-02-23T13:34:52Z</time>
      </trkpt>
      <trkpt lat="42.86975" lon="0.2163">
        <ele>2693</ele>
        <time>2012-02-23T13:34:55Z</time>
      </trkpt>
      <trkpt lat="42.86976" lon="0.21629">
        <ele>2692</ele>
        <time>2012-02-23T13:34:58Z</time>
      </trkpt>
      <trkpt lat="42.86977" lon="0.21631">
        <ele>2692</ele>
        <time>2012-02-23T13:35:02Z</time>
      </trkpt>
      <trkpt lat="42.86977" lon="0.21632">
        <ele>2692</ele>
        <time>2012-02-23T13:35:06Z</time>
      </trkpt>
      <trkpt lat="42.86977" lon="0.21634">
        <ele>2692</ele>
        <time>2012-02-23T13:35:11Z</time>
      </trkpt>
      <trkpt lat="42.86976" lon="0.21636">
        <ele>2692</ele>
        <time>2012-02-23T13:35:14Z</time>
      </trkpt>
      <trkpt lat="42.86973" lon="0.21637">
        <ele>2692</ele>
        <time>2012-02-23T13:35:17Z</time>
      </trkpt>
      <trkpt lat="42.86968" lon="0.21633">
        <ele>2691</ele>
        <time>2012-02-23T13:35:21Z</time>
      </trkpt>
      <trkpt lat="42.86964" lon="0.21626">
        <ele>2690</ele>
        <time>2012-02-23T13:35:24Z</time>
      </trkpt>
      <trkpt lat="42.86959" lon="0.21618">
        <ele>2689</ele>
        <time>2012-02-23T13:35:27Z</time>
      </trkpt>
      <trkpt lat="42.86953" lon="0.21612">
        <ele>2688</ele>
        <time>2012-02-23T13:35:30Z</time>
      </trkpt>
      <trkpt lat="42.8695" lon="0.21622">
        <ele>2686</ele>
        <time>2012-02-23T13:35:33Z</time>
      </trkpt>
      <trkpt lat="42.86953" lon="0.21637">
        <ele>2685</ele>
        <time>2012-02-23T13:35:36Z</time>
      </trkpt>
      <trkpt lat="42.86947" lon="0.21641">
        <ele>2683</ele>
        <time>2012-02-23T13:35:39Z</time>
      </trkpt>
      <trkpt lat="42.86937" lon="0.21631">
        <ele>2681</ele>
        <time>2012-02-23T13:35:42Z</time>
      </trkpt>
      <trkpt lat="42.86933" lon="0.21641">
        <ele>2678</ele>
        <time>2012-02-23T13:35:45Z</time>
      </trkpt>
      <trkpt lat="42.86935" lon="0.21655">
        <ele>2676</ele>
        <time>2012-02-23T13:35:48Z</time>
      </trkpt>
      <trkpt lat="42.86936" lon="0.21664">
        <ele>2675</ele>
        <time>2012-02-23T13:35:51Z</time>
      </trkpt>
      <trkpt lat="42.86928" lon="0.21659">
        <ele>2673</ele>
        <time>2012-02-23T13:35:54Z</time>
      </trkpt>
      <trkpt lat="42.86919" lon="0.21655">
        <ele>2670</ele>
        <time>2012-02-23T13:35:57Z</time>
      </trkpt>
      <trkpt lat="42.86919" lon="0.21666">
        <ele>2668</ele>
        <time>2012-02-23T13:36:00Z</time>
      </trkpt>
      <trkpt lat="42.86917" lon="0.21675">
        <ele>2666</ele>
        <time>2012-02-23T13:36:03Z</time>
      </trkpt>
      <trkpt lat="42.86908" lon="0.21668">
        <ele>2665</ele>
        <time>2012-02-23T13:36:06Z</time>
      </trkpt>
      <trkpt lat="42.86901" lon="0.21677">
        <ele>2663</ele>
        <time>2012-02-23T13:36:09Z</time>
      </trkpt>
      <trkpt lat="42.86902" lon="0.21692">
        <ele>2661</ele>
        <time>2012-02-23T13:36:12Z</time>
      </trkpt>
      <trkpt lat="42.86898" lon="0.21701">
        <ele>2659</ele>
        <time>2012-02-23T13:36:15Z</time>
      </trkpt>
      <trkpt lat="42.8689" lon="0.21691">
        <ele>2657</ele>
        <time>2012-02-23T13:36:18Z</time>
      </trkpt>
      <trkpt lat="42.86881" lon="0.21688">
        <ele>2655</ele>
        <time>2012-02-23T13:36:21Z</time>
      </trkpt>
      <trkpt lat="42.86881" lon="0.21701">
        <ele>2652</ele>
        <time>2012-02-23T13:36:24Z</time>
      </trkpt>
      <trkpt lat="42.86883" lon="0.21714">
        <ele>2651</ele>
        <time>2012-02-23T13:36:27Z</time>
      </trkpt>
      <trkpt lat="42.86885" lon="0.21727">
        <ele>2650</ele>
        <time>2012-02-23T13:36:30Z</time>
      </trkpt>
      <trkpt lat="42.86886" lon="0.21738">
        <ele>2649</ele>
        <time>2012-02-23T13:36:33Z</time>
      </trkpt>
      <trkpt lat="42.86888" lon="0.21752">
        <ele>2647</ele>
        <time>2012-02-23T13:36:36Z</time>
      </trkpt>
      <trkpt lat="42.86889" lon="0.21767">
        <ele>2646</ele>
        <time>2012-02-23T13:36:39Z</time>
      </trkpt>
      <trkpt lat="42.86889" lon="0.21779">
        <ele>2645</ele>
        <time>2012-02-23T13:36:42Z</time>
      </trkpt>
      <trkpt lat="42.8689" lon="0.2179">
        <ele>2644</ele>
        <time>2012-02-23T13:36:45Z</time>
      </trkpt>
      <trkpt lat="42.86891" lon="0.21802">
        <ele>2642</ele>
        <time>2012-02-23T13:36:48Z</time>
      </trkpt>
      <trkpt lat="42.8689" lon="0.21816">
        <ele>2641</ele>
        <time>2012-02-23T13:36:51Z</time>
      </trkpt>
      <trkpt lat="42.8689" lon="0.21824">
        <ele>2639</ele>
        <time>2012-02-23T13:36:54Z</time>
      </trkpt>
      <trkpt lat="42.86888" lon="0.21838">
        <ele>2636</ele>
        <time>2012-02-23T13:36:57Z</time>
      </trkpt>
      <trkpt lat="42.86889" lon="0.21848">
        <ele>2634</ele>
        <time>2012-02-23T13:37:00Z</time>
      </trkpt>
      <trkpt lat="42.86889" lon="0.2185">
        <ele>2631</ele>
        <time>2012-02-23T13:38:01Z</time>
      </trkpt>
      <trkpt lat="42.86885" lon="0.21853">
        <ele>2630</ele>
        <time>2012-02-23T13:38:04Z</time>
      </trkpt>
      <trkpt lat="42.86879" lon="0.21854">
        <ele>2629</ele>
        <time>2012-02-23T13:38:07Z</time>
      </trkpt>
      <trkpt lat="42.86879" lon="0.21866">
        <ele>2627</ele>
        <time>2012-02-23T13:38:10Z</time>
      </trkpt>
      <trkpt lat="42.86879" lon="0.21875">
        <ele>2625</ele>
        <time>2012-02-23T13:38:13Z</time>
      </trkpt>
      <trkpt lat="42.8687" lon="0.21868">
        <ele>2623</ele>
        <time>2012-02-23T13:38:16Z</time>
      </trkpt>
      <trkpt lat="42.86862" lon="0.21861">
        <ele>2620</ele>
        <time>2012-02-23T13:38:19Z</time>
      </trkpt>
      <trkpt lat="42.86861" lon="0.21875">
        <ele>2617</ele>
        <time>2012-02-23T13:38:22Z</time>
      </trkpt>
      <trkpt lat="42.86855" lon="0.21883">
        <ele>2614</ele>
        <time>2012-02-23T13:38:25Z</time>
      </trkpt>
      <trkpt lat="42.86845" lon="0.21869">
        <ele>2611</ele>
        <time>2012-02-23T13:38:28Z</time>
      </trkpt>
      <trkpt lat="42.86839" lon="0.21859">
        <ele>2608</ele>
        <time>2012-02-23T13:38:31Z</time>
      </trkpt>
      <trkpt lat="42.86835" lon="0.21867">
        <ele>2605</ele>
        <time>2012-02-23T13:38:34Z</time>
      </trkpt>
      <trkpt lat="42.86838" lon="0.21882">
        <ele>2602</ele>
        <time>2012-02-23T13:38:37Z</time>
      </trkpt>
      <trkpt lat="42.86839" lon="0.21892">
        <ele>2600</ele>
        <time>2012-02-23T13:38:40Z</time>
      </trkpt>
      <trkpt lat="42.86833" lon="0.21893">
        <ele>2598</ele>
        <time>2012-02-23T13:38:43Z</time>
      </trkpt>
      <trkpt lat="42.86826" lon="0.21883">
        <ele>2596</ele>
        <time>2012-02-23T13:38:46Z</time>
      </trkpt>
      <trkpt lat="42.86822" lon="0.21892">
        <ele>2593</ele>
        <time>2012-02-23T13:38:49Z</time>
      </trkpt>
      <trkpt lat="42.86824" lon="0.21904">
        <ele>2590</ele>
        <time>2012-02-23T13:38:52Z</time>
      </trkpt>
      <trkpt lat="42.86827" lon="0.21915">
        <ele>2587</ele>
        <time>2012-02-23T13:38:55Z</time>
      </trkpt>
      <trkpt lat="42.86829" lon="0.21926">
        <ele>2584</ele>
        <time>2012-02-23T13:38:58Z</time>
      </trkpt>
      <trkpt lat="42.86823" lon="0.21928">
        <ele>2581</ele>
        <time>2012-02-23T13:39:01Z</time>
      </trkpt>
      <trkpt lat="42.86816" lon="0.21918">
        <ele>2578</ele>
        <time>2012-02-23T13:39:04Z</time>
      </trkpt>
      <trkpt lat="42.86808" lon="0.21911">
        <ele>2576</ele>
        <time>2012-02-23T13:39:07Z</time>
      </trkpt>
      <trkpt lat="42.86805" lon="0.21923">
        <ele>2574</ele>
        <time>2012-02-23T13:39:10Z</time>
      </trkpt>
      <trkpt lat="42.86809" lon="0.21937">
        <ele>2572</ele>
        <time>2012-02-23T13:39:13Z</time>
      </trkpt>
      <trkpt lat="42.86811" lon="0.21948">
        <ele>2569</ele>
        <time>2012-02-23T13:39:16Z</time>
      </trkpt>
      <trkpt lat="42.86804" lon="0.21949">
        <ele>2566</ele>
        <time>2012-02-23T13:39:19Z</time>
      </trkpt>
      <trkpt lat="42.86797" lon="0.21939">
        <ele>2563</ele>
        <time>2012-02-23T13:39:22Z</time>
      </trkpt>
      <trkpt lat="42.86793" lon="0.21933">
        <ele>2561</ele>
        <time>2012-02-23T13:39:25Z</time>
      </trkpt>
      <trkpt lat="42.86787" lon="0.21939">
        <ele>2559</ele>
        <time>2012-02-23T13:39:28Z</time>
      </trkpt>
      <trkpt lat="42.8679" lon="0.21951">
        <ele>2556</ele>
        <time>2012-02-23T13:39:31Z</time>
      </trkpt>
      <trkpt lat="42.86792" lon="0.21961">
        <ele>2554</ele>
        <time>2012-02-23T13:39:34Z</time>
      </trkpt>
      <trkpt lat="42.8679" lon="0.21966">
        <ele>2552</ele>
        <time>2012-02-23T13:39:37Z</time>
      </trkpt>
      <trkpt lat="42.86781" lon="0.21954">
        <ele>2550</ele>
        <time>2012-02-23T13:39:40Z</time>
      </trkpt>
      <trkpt lat="42.86775" lon="0.21946">
        <ele>2548</ele>
        <time>2012-02-23T13:39:43Z</time>
      </trkpt>
      <trkpt lat="42.86768" lon="0.21948">
        <ele>2547</ele>
        <time>2012-02-23T13:39:46Z</time>
      </trkpt>
      <trkpt lat="42.86771" lon="0.2196">
        <ele>2544</ele>
        <time>2012-02-23T13:39:49Z</time>
      </trkpt>
      <trkpt lat="42.86775" lon="0.21971">
        <ele>2541</ele>
        <time>2012-02-23T13:39:52Z</time>
      </trkpt>
      <trkpt lat="42.86777" lon="0.21982">
        <ele>2539</ele>
        <time>2012-02-23T13:39:55Z</time>
      </trkpt>
      <trkpt lat="42.86778" lon="0.21999">
        <ele>2537</ele>
        <time>2012-02-23T13:39:58Z</time>
      </trkpt>
      <trkpt lat="42.8678" lon="0.22014">
        <ele>2535</ele>
        <time>2012-02-23T13:40:01Z</time>
      </trkpt>
      <trkpt lat="42.8678" lon="0.22029">
        <ele>2534</ele>
        <time>2012-02-23T13:40:04Z</time>
      </trkpt>
      <trkpt lat="42.86768" lon="0.2205">
        <ele>2532</ele>
        <time>2012-02-23T13:40:07Z</time>
      </trkpt>
      <trkpt lat="42.86747" lon="0.22075">
        <ele>2529</ele>
        <time>2012-02-23T13:40:10Z</time>
      </trkpt>
      <trkpt lat="42.86734" lon="0.22097">
        <ele>2526</ele>
        <time>2012-02-23T13:40:13Z</time>
      </trkpt>
      <trkpt lat="42.86731" lon="0.22112">
        <ele>2525</ele>
        <time>2012-02-23T13:40:16Z</time>
      </trkpt>
      <trkpt lat="42.86733" lon="0.22128">
        <ele>2522</ele>
        <time>2012-02-23T13:40:19Z</time>
      </trkpt>
      <trkpt lat="42.86732" lon="0.22148">
        <ele>2520</ele>
        <time>2012-02-23T13:40:22Z</time>
      </trkpt>
      <trkpt lat="42.86734" lon="0.2217">
        <ele>2517</ele>
        <time>2012-02-23T13:40:25Z</time>
      </trkpt>
      <trkpt lat="42.86737" lon="0.22187">
        <ele>2516</ele>
        <time>2012-02-23T13:40:28Z</time>
      </trkpt>
      <trkpt lat="42.86739" lon="0.22199">
        <ele>2514</ele>
        <time>2012-02-23T13:40:31Z</time>
      </trkpt>
      <trkpt lat="42.86742" lon="0.22206">
        <ele>2513</ele>
        <time>2012-02-23T13:40:34Z</time>
      </trkpt>
      <trkpt lat="42.86744" lon="0.22211">
        <ele>2512</ele>
        <time>2012-02-23T13:40:37Z</time>
      </trkpt>
      <trkpt lat="42.86746" lon="0.22219">
        <ele>2511</ele>
        <time>2012-02-23T13:40:40Z</time>
      </trkpt>
      <trkpt lat="42.86745" lon="0.22225">
        <ele>2511</ele>
        <time>2012-02-23T13:40:43Z</time>
      </trkpt>
      <trkpt lat="42.86744" lon="0.22226">
        <ele>2509</ele>
        <time>2012-02-23T13:40:59Z</time>
      </trkpt>
      <trkpt lat="42.86743" lon="0.22224">
        <ele>2509</ele>
        <time>2012-02-23T13:41:57Z</time>
      </trkpt>
      <trkpt lat="42.86743" lon="0.22226">
        <ele>2509</ele>
        <time>2012-02-23T13:42:15Z</time>
      </trkpt>
      <trkpt lat="42.86744" lon="0.2223">
        <ele>2509</ele>
        <time>2012-02-23T13:42:18Z</time>
      </trkpt>
      <trkpt lat="42.86752" lon="0.22233">
        <ele>2509</ele>
        <time>2012-02-23T13:42:21Z</time>
      </trkpt>
      <trkpt lat="42.86761" lon="0.22239">
        <ele>2508</ele>
        <time>2012-02-23T13:42:24Z</time>
      </trkpt>
      <trkpt lat="42.86766" lon="0.22241">
        <ele>2506</ele>
        <time>2012-02-23T13:42:27Z</time>
      </trkpt>
      <trkpt lat="42.86771" lon="0.22245">
        <ele>2504</ele>
        <time>2012-02-23T13:42:30Z</time>
      </trkpt>
      <trkpt lat="42.86776" lon="0.22248">
        <ele>2502</ele>
        <time>2012-02-23T13:42:34Z</time>
      </trkpt>
      <trkpt lat="42.86776" lon="0.22249">
        <ele>2501</ele>
        <time>2012-02-23T13:42:41Z</time>
      </trkpt>
      <trkpt lat="42.86777" lon="0.22252">
        <ele>2501</ele>
        <time>2012-02-23T13:42:46Z</time>
      </trkpt>
      <trkpt lat="42.86781" lon="0.22255">
        <ele>2501</ele>
        <time>2012-02-23T13:42:49Z</time>
      </trkpt>
      <trkpt lat="42.86776" lon="0.22263">
        <ele>2500</ele>
        <time>2012-02-23T13:42:52Z</time>
      </trkpt>
      <trkpt lat="42.86772" lon="0.2227">
        <ele>2500</ele>
        <time>2012-02-23T13:42:55Z</time>
      </trkpt>
      <trkpt lat="42.86778" lon="0.22274">
        <ele>2498</ele>
        <time>2012-02-23T13:42:58Z</time>
      </trkpt>
      <trkpt lat="42.86771" lon="0.22285">
        <ele>2495</ele>
        <time>2012-02-23T13:43:01Z</time>
      </trkpt>
      <trkpt lat="42.86768" lon="0.22294">
        <ele>2492</ele>
        <time>2012-02-23T13:43:04Z</time>
      </trkpt>
      <trkpt lat="42.86779" lon="0.22297">
        <ele>2489</ele>
        <time>2012-02-23T13:43:07Z</time>
      </trkpt>
      <trkpt lat="42.86786" lon="0.22302">
        <ele>2486</ele>
        <time>2012-02-23T13:43:10Z</time>
      </trkpt>
      <trkpt lat="42.86776" lon="0.22312">
        <ele>2483</ele>
        <time>2012-02-23T13:43:13Z</time>
      </trkpt>
      <trkpt lat="42.86779" lon="0.22324">
        <ele>2479</ele>
        <time>2012-02-23T13:43:16Z</time>
      </trkpt>
      <trkpt lat="42.86774" lon="0.22335">
        <ele>2474</ele>
        <time>2012-02-23T13:43:19Z</time>
      </trkpt>
      <trkpt lat="42.86767" lon="0.22343">
        <ele>2469</ele>
        <time>2012-02-23T13:43:22Z</time>
      </trkpt>
      <trkpt lat="42.86769" lon="0.22352">
        <ele>2464</ele>
        <time>2012-02-23T13:43:25Z</time>
      </trkpt>
      <trkpt lat="42.86769" lon="0.22354">
        <ele>2457</ele>
        <time>2012-02-23T13:43:42Z</time>
      </trkpt>
      <trkpt lat="42.8677" lon="0.22354">
        <ele>2456</ele>
        <time>2012-02-23T13:43:54Z</time>
      </trkpt>
      <trkpt lat="42.86771" lon="0.22355">
        <ele>2455</ele>
        <time>2012-02-23T13:44:24Z</time>
      </trkpt>
      <trkpt lat="42.8677" lon="0.22357">
        <ele>2455</ele>
        <time>2012-02-23T13:44:27Z</time>
      </trkpt>
      <trkpt lat="42.86768" lon="0.22358">
        <ele>2455</ele>
        <time>2012-02-23T13:44:32Z</time>
      </trkpt>
      <trkpt lat="42.86765" lon="0.22363">
        <ele>2455</ele>
        <time>2012-02-23T13:44:35Z</time>
      </trkpt>
      <trkpt lat="42.86761" lon="0.22371">
        <ele>2455</ele>
        <time>2012-02-23T13:44:38Z</time>
      </trkpt>
      <trkpt lat="42.86757" lon="0.22381">
        <ele>2455</ele>
        <time>2012-02-23T13:44:41Z</time>
      </trkpt>
      <trkpt lat="42.86753" lon="0.22392">
        <ele>2454</ele>
        <time>2012-02-23T13:44:44Z</time>
      </trkpt>
      <trkpt lat="42.86749" lon="0.22401">
        <ele>2451</ele>
        <time>2012-02-23T13:44:47Z</time>
      </trkpt>
      <trkpt lat="42.86745" lon="0.22408">
        <ele>2448</ele>
        <time>2012-02-23T13:44:50Z</time>
      </trkpt>
      <trkpt lat="42.86741" lon="0.22414">
        <ele>2446</ele>
        <time>2012-02-23T13:44:53Z</time>
      </trkpt>
      <trkpt lat="42.86736" lon="0.22422">
        <ele>2445</ele>
        <time>2012-02-23T13:44:56Z</time>
      </trkpt>
      <trkpt lat="42.86729" lon="0.22431">
        <ele>2443</ele>
        <time>2012-02-23T13:44:59Z</time>
      </trkpt>
      <trkpt lat="42.86724" lon="0.22439">
        <ele>2441</ele>
        <time>2012-02-23T13:45:02Z</time>
      </trkpt>
      <trkpt lat="42.86718" lon="0.22448">
        <ele>2440</ele>
        <time>2012-02-23T13:45:05Z</time>
      </trkpt>
      <trkpt lat="42.86711" lon="0.22459">
        <ele>2438</ele>
        <time>2012-02-23T13:45:08Z</time>
      </trkpt>
      <trkpt lat="42.86701" lon="0.22475">
        <ele>2436</ele>
        <time>2012-02-23T13:45:11Z</time>
      </trkpt>
      <trkpt lat="42.86693" lon="0.22491">
        <ele>2434</ele>
        <time>2012-02-23T13:45:14Z</time>
      </trkpt>
      <trkpt lat="42.8669" lon="0.225">
        <ele>2432</ele>
        <time>2012-02-23T13:45:17Z</time>
      </trkpt>
      <trkpt lat="42.86687" lon="0.22508">
        <ele>2430</ele>
        <time>2012-02-23T13:45:20Z</time>
      </trkpt>
      <trkpt lat="42.86683" lon="0.22517">
        <ele>2428</ele>
        <time>2012-02-23T13:45:23Z</time>
      </trkpt>
      <trkpt lat="42.86679" lon="0.22525">
        <ele>2427</ele>
        <time>2012-02-23T13:45:26Z</time>
      </trkpt>
      <trkpt lat="42.86674" lon="0.22531">
        <ele>2427</ele>
        <time>2012-02-23T13:45:29Z</time>
      </trkpt>
      <trkpt lat="42.86669" lon="0.22539">
        <ele>2426</ele>
        <time>2012-02-23T13:45:32Z</time>
      </trkpt>
      <trkpt lat="42.86677" lon="0.22545">
        <ele>2425</ele>
        <time>2012-02-23T13:45:35Z</time>
      </trkpt>
      <trkpt lat="42.86677" lon="0.22556">
        <ele>2423</ele>
        <time>2012-02-23T13:45:38Z</time>
      </trkpt>
      <trkpt lat="42.86666" lon="0.22566">
        <ele>2421</ele>
        <time>2012-02-23T13:45:41Z</time>
      </trkpt>
      <trkpt lat="42.8666" lon="0.22576">
        <ele>2418</ele>
        <time>2012-02-23T13:45:44Z</time>
      </trkpt>
      <trkpt lat="42.86657" lon="0.22595">
        <ele>2415</ele>
        <time>2012-02-23T13:45:47Z</time>
      </trkpt>
      <trkpt lat="42.86646" lon="0.22609">
        <ele>2412</ele>
        <time>2012-02-23T13:45:50Z</time>
      </trkpt>
      <trkpt lat="42.86636" lon="0.22618">
        <ele>2409</ele>
        <time>2012-02-23T13:45:53Z</time>
      </trkpt>
      <trkpt lat="42.86626" lon="0.22628">
        <ele>2406</ele>
        <time>2012-02-23T13:45:56Z</time>
      </trkpt>
      <trkpt lat="42.86618" lon="0.22636">
        <ele>2403</ele>
        <time>2012-02-23T13:45:59Z</time>
      </trkpt>
      <trkpt lat="42.86615" lon="0.22638">
        <ele>2402</ele>
        <time>2012-02-23T13:46:02Z</time>
      </trkpt>
      <trkpt lat="42.86614" lon="0.22639">
        <ele>2401</ele>
        <time>2012-02-23T13:47:00Z</time>
      </trkpt>
      <trkpt lat="42.8661" lon="0.22644">
        <ele>2400</ele>
        <time>2012-02-23T13:47:03Z</time>
      </trkpt>
      <trkpt lat="42.86604" lon="0.2265">
        <ele>2399</ele>
        <time>2012-02-23T13:47:06Z</time>
      </trkpt>
      <trkpt lat="42.86592" lon="0.22661">
        <ele>2397</ele>
        <time>2012-02-23T13:47:09Z</time>
      </trkpt>
      <trkpt lat="42.86578" lon="0.22674">
        <ele>2395</ele>
        <time>2012-02-23T13:47:12Z</time>
      </trkpt>
      <trkpt lat="42.86569" lon="0.22683">
        <ele>2393</ele>
        <time>2012-02-23T13:47:15Z</time>
      </trkpt>
      <trkpt lat="42.86559" lon="0.22697">
        <ele>2391</ele>
        <time>2012-02-23T13:47:18Z</time>
      </trkpt>
      <trkpt lat="42.86548" lon="0.22709">
        <ele>2388</ele>
        <time>2012-02-23T13:47:21Z</time>
      </trkpt>
      <trkpt lat="42.86546" lon="0.2272">
        <ele>2386</ele>
        <time>2012-02-23T13:47:24Z</time>
      </trkpt>
      <trkpt lat="42.8655" lon="0.22738">
        <ele>2384</ele>
        <time>2012-02-23T13:47:27Z</time>
      </trkpt>
      <trkpt lat="42.86541" lon="0.22759">
        <ele>2382</ele>
        <time>2012-02-23T13:47:30Z</time>
      </trkpt>
      <trkpt lat="42.86533" lon="0.22775">
        <ele>2379</ele>
        <time>2012-02-23T13:47:33Z</time>
      </trkpt>
      <trkpt lat="42.86527" lon="0.22785">
        <ele>2377</ele>
        <time>2012-02-23T13:47:36Z</time>
      </trkpt>
      <trkpt lat="42.86519" lon="0.22795">
        <ele>2376</ele>
        <time>2012-02-23T13:47:39Z</time>
      </trkpt>
      <trkpt lat="42.86512" lon="0.22805">
        <ele>2374</ele>
        <time>2012-02-23T13:47:42Z</time>
      </trkpt>
      <trkpt lat="42.86513" lon="0.22825">
        <ele>2372</ele>
        <time>2012-02-23T13:47:45Z</time>
      </trkpt>
      <trkpt lat="42.86505" lon="0.22849">
        <ele>2370</ele>
        <time>2012-02-23T13:47:48Z</time>
      </trkpt>
      <trkpt lat="42.86498" lon="0.22865">
        <ele>2368</ele>
        <time>2012-02-23T13:47:51Z</time>
      </trkpt>
      <trkpt lat="42.86494" lon="0.22874">
        <ele>2367</ele>
        <time>2012-02-23T13:47:54Z</time>
      </trkpt>
      <trkpt lat="42.86491" lon="0.22883">
        <ele>2366</ele>
        <time>2012-02-23T13:47:57Z</time>
      </trkpt>
      <trkpt lat="42.86488" lon="0.22889">
        <ele>2365</ele>
        <time>2012-02-23T13:48:00Z</time>
      </trkpt>
      <trkpt lat="42.86483" lon="0.22896">
        <ele>2365</ele>
        <time>2012-02-23T13:48:03Z</time>
      </trkpt>
      <trkpt lat="42.86478" lon="0.22905">
        <ele>2364</ele>
        <time>2012-02-23T13:48:06Z</time>
      </trkpt>
      <trkpt lat="42.86472" lon="0.22914">
        <ele>2363</ele>
        <time>2012-02-23T13:48:09Z</time>
      </trkpt>
      <trkpt lat="42.86465" lon="0.22923">
        <ele>2361</ele>
        <time>2012-02-23T13:48:12Z</time>
      </trkpt>
      <trkpt lat="42.86459" lon="0.22931">
        <ele>2360</ele>
        <time>2012-02-23T13:48:15Z</time>
      </trkpt>
      <trkpt lat="42.86452" lon="0.22941">
        <ele>2359</ele>
        <time>2012-02-23T13:48:18Z</time>
      </trkpt>
      <trkpt lat="42.86446" lon="0.22952">
        <ele>2357</ele>
        <time>2012-02-23T13:48:21Z</time>
      </trkpt>
      <trkpt lat="42.86444" lon="0.22961">
        <ele>2355</ele>
        <time>2012-02-23T13:48:24Z</time>
      </trkpt>
      <trkpt lat="42.86458" lon="0.22959">
        <ele>2352</ele>
        <time>2012-02-23T13:48:27Z</time>
      </trkpt>
      <trkpt lat="42.86467" lon="0.22963">
        <ele>2349</ele>
        <time>2012-02-23T13:48:30Z</time>
      </trkpt>
      <trkpt lat="42.86459" lon="0.22982">
        <ele>2346</ele>
        <time>2012-02-23T13:48:33Z</time>
      </trkpt>
      <trkpt lat="42.86452" lon="0.22993">
        <ele>2343</ele>
        <time>2012-02-23T13:48:36Z</time>
      </trkpt>
      <trkpt lat="42.86446" lon="0.23">
        <ele>2340</ele>
        <time>2012-02-23T13:48:39Z</time>
      </trkpt>
      <trkpt lat="42.86438" lon="0.23008">
        <ele>2337</ele>
        <time>2012-02-23T13:48:42Z</time>
      </trkpt>
      <trkpt lat="42.86431" lon="0.23015">
        <ele>2336</ele>
        <time>2012-02-23T13:48:45Z</time>
      </trkpt>
      <trkpt lat="42.86427" lon="0.23027">
        <ele>2334</ele>
        <time>2012-02-23T13:48:48Z</time>
      </trkpt>
      <trkpt lat="42.8644" lon="0.23029">
        <ele>2331</ele>
        <time>2012-02-23T13:48:51Z</time>
      </trkpt>
      <trkpt lat="42.86444" lon="0.23043">
        <ele>2328</ele>
        <time>2012-02-23T13:48:54Z</time>
      </trkpt>
      <trkpt lat="42.8643" lon="0.23059">
        <ele>2325</ele>
        <time>2012-02-23T13:48:57Z</time>
      </trkpt>
      <trkpt lat="42.86417" lon="0.23068">
        <ele>2322</ele>
        <time>2012-02-23T13:49:00Z</time>
      </trkpt>
      <trkpt lat="42.86408" lon="0.23074">
        <ele>2319</ele>
        <time>2012-02-23T13:49:03Z</time>
      </trkpt>
      <trkpt lat="42.86401" lon="0.23082">
        <ele>2316</ele>
        <time>2012-02-23T13:49:06Z</time>
      </trkpt>
      <trkpt lat="42.86406" lon="0.23092">
        <ele>2313</ele>
        <time>2012-02-23T13:49:09Z</time>
      </trkpt>
      <trkpt lat="42.86401" lon="0.23097">
        <ele>2307</ele>
        <time>2012-02-23T13:49:34Z</time>
      </trkpt>
      <trkpt lat="42.86401" lon="0.23096">
        <ele>2307</ele>
        <time>2012-02-23T13:49:43Z</time>
      </trkpt>
      <trkpt lat="42.86401" lon="0.23094">
        <ele>2306</ele>
        <time>2012-02-23T13:50:38Z</time>
      </trkpt>
      <trkpt lat="42.86401" lon="0.23096">
        <ele>2304</ele>
        <time>2012-02-23T13:51:25Z</time>
      </trkpt>
      <trkpt lat="42.86399" lon="0.23097">
        <ele>2304</ele>
        <time>2012-02-23T13:51:40Z</time>
      </trkpt>
      <trkpt lat="42.86394" lon="0.23099">
        <ele>2302</ele>
        <time>2012-02-23T13:51:43Z</time>
      </trkpt>
      <trkpt lat="42.86387" lon="0.23101">
        <ele>2300</ele>
        <time>2012-02-23T13:51:46Z</time>
      </trkpt>
      <trkpt lat="42.86377" lon="0.23105">
        <ele>2298</ele>
        <time>2012-02-23T13:51:49Z</time>
      </trkpt>
      <trkpt lat="42.86362" lon="0.23113">
        <ele>2295</ele>
        <time>2012-02-23T13:51:52Z</time>
      </trkpt>
      <trkpt lat="42.86352" lon="0.23123">
        <ele>2292</ele>
        <time>2012-02-23T13:51:55Z</time>
      </trkpt>
      <trkpt lat="42.86348" lon="0.23134">
        <ele>2289</ele>
        <time>2012-02-23T13:51:58Z</time>
      </trkpt>
      <trkpt lat="42.86358" lon="0.23137">
        <ele>2286</ele>
        <time>2012-02-23T13:52:01Z</time>
      </trkpt>
      <trkpt lat="42.86354" lon="0.23157">
        <ele>2283</ele>
        <time>2012-02-23T13:52:04Z</time>
      </trkpt>
      <trkpt lat="42.86343" lon="0.23171">
        <ele>2280</ele>
        <time>2012-02-23T13:52:07Z</time>
      </trkpt>
      <trkpt lat="42.8633" lon="0.23185">
        <ele>2277</ele>
        <time>2012-02-23T13:52:10Z</time>
      </trkpt>
      <trkpt lat="42.86315" lon="0.23204">
        <ele>2274</ele>
        <time>2012-02-23T13:52:13Z</time>
      </trkpt>
      <trkpt lat="42.86303" lon="0.23224">
        <ele>2271</ele>
        <time>2012-02-23T13:52:16Z</time>
      </trkpt>
      <trkpt lat="42.86298" lon="0.23238">
        <ele>2268</ele>
        <time>2012-02-23T13:52:19Z</time>
      </trkpt>
      <trkpt lat="42.86309" lon="0.23238">
        <ele>2265</ele>
        <time>2012-02-23T13:52:22Z</time>
      </trkpt>
      <trkpt lat="42.86317" lon="0.23249">
        <ele>2262</ele>
        <time>2012-02-23T13:52:25Z</time>
      </trkpt>
      <trkpt lat="42.86311" lon="0.23274">
        <ele>2259</ele>
        <time>2012-02-23T13:52:28Z</time>
      </trkpt>
      <trkpt lat="42.86314" lon="0.23291">
        <ele>2256</ele>
        <time>2012-02-23T13:52:31Z</time>
      </trkpt>
      <trkpt lat="42.86325" lon="0.23304">
        <ele>2253</ele>
        <time>2012-02-23T13:52:34Z</time>
      </trkpt>
      <trkpt lat="42.86322" lon="0.23329">
        <ele>2250</ele>
        <time>2012-02-23T13:52:37Z</time>
      </trkpt>
      <trkpt lat="42.86319" lon="0.23351">
        <ele>2247</ele>
        <time>2012-02-23T13:52:40Z</time>
      </trkpt>
      <trkpt lat="42.86319" lon="0.23369">
        <ele>2244</ele>
        <time>2012-02-23T13:52:43Z</time>
      </trkpt>
      <trkpt lat="42.86323" lon="0.23379">
        <ele>2242</ele>
        <time>2012-02-23T13:52:46Z</time>
      </trkpt>
      <trkpt lat="42.86324" lon="0.23391">
        <ele>2241</ele>
        <time>2012-02-23T13:52:49Z</time>
      </trkpt>
      <trkpt lat="42.86322" lon="0.23405">
        <ele>2240</ele>
        <time>2012-02-23T13:52:52Z</time>
      </trkpt>
      <trkpt lat="42.8633" lon="0.23412">
        <ele>2237</ele>
        <time>2012-02-23T13:52:55Z</time>
      </trkpt>
      <trkpt lat="42.86339" lon="0.23418">
        <ele>2234</ele>
        <time>2012-02-23T13:52:58Z</time>
      </trkpt>
      <trkpt lat="42.86338" lon="0.2344">
        <ele>2232</ele>
        <time>2012-02-23T13:53:01Z</time>
      </trkpt>
      <trkpt lat="42.86335" lon="0.23465">
        <ele>2229</ele>
        <time>2012-02-23T13:53:04Z</time>
      </trkpt>
      <trkpt lat="42.86332" lon="0.23479">
        <ele>2226</ele>
        <time>2012-02-23T13:53:07Z</time>
      </trkpt>
      <trkpt lat="42.86327" lon="0.23489">
        <ele>2224</ele>
        <time>2012-02-23T13:53:10Z</time>
      </trkpt>
      <trkpt lat="42.86322" lon="0.23491">
        <ele>2223</ele>
        <time>2012-02-23T13:53:59Z</time>
      </trkpt>
      <trkpt lat="42.86319" lon="0.23495">
        <ele>2223</ele>
        <time>2012-02-23T13:54:02Z</time>
      </trkpt>
      <trkpt lat="42.86311" lon="0.23495">
        <ele>2223</ele>
        <time>2012-02-23T13:54:05Z</time>
      </trkpt>
      <trkpt lat="42.86301" lon="0.23494">
        <ele>2223</ele>
        <time>2012-02-23T13:54:08Z</time>
      </trkpt>
      <trkpt lat="42.86291" lon="0.23494">
        <ele>2223</ele>
        <time>2012-02-23T13:54:11Z</time>
      </trkpt>
      <trkpt lat="42.8628" lon="0.23494">
        <ele>2222</ele>
        <time>2012-02-23T13:54:14Z</time>
      </trkpt>
      <trkpt lat="42.8627" lon="0.23493">
        <ele>2221</ele>
        <time>2012-02-23T13:54:17Z</time>
      </trkpt>
      <trkpt lat="42.86261" lon="0.23489">
        <ele>2219</ele>
        <time>2012-02-23T13:54:20Z</time>
      </trkpt>
      <trkpt lat="42.86251" lon="0.23495">
        <ele>2217</ele>
        <time>2012-02-23T13:54:23Z</time>
      </trkpt>
      <trkpt lat="42.86232" lon="0.23509">
        <ele>2215</ele>
        <time>2012-02-23T13:54:26Z</time>
      </trkpt>
      <trkpt lat="42.86222" lon="0.2352">
        <ele>2214</ele>
        <time>2012-02-23T13:54:29Z</time>
      </trkpt>
      <trkpt lat="42.86216" lon="0.23528">
        <ele>2212</ele>
        <time>2012-02-23T13:54:32Z</time>
      </trkpt>
      <trkpt lat="42.86212" lon="0.2354">
        <ele>2211</ele>
        <time>2012-02-23T13:54:35Z</time>
      </trkpt>
      <trkpt lat="42.8622" lon="0.23542">
        <ele>2208</ele>
        <time>2012-02-23T13:54:38Z</time>
      </trkpt>
      <trkpt lat="42.86226" lon="0.23551">
        <ele>2205</ele>
        <time>2012-02-23T13:54:41Z</time>
      </trkpt>
      <trkpt lat="42.86217" lon="0.23577">
        <ele>2202</ele>
        <time>2012-02-23T13:54:44Z</time>
      </trkpt>
      <trkpt lat="42.86212" lon="0.23598">
        <ele>2199</ele>
        <time>2012-02-23T13:54:47Z</time>
      </trkpt>
      <trkpt lat="42.86208" lon="0.23613">
        <ele>2197</ele>
        <time>2012-02-23T13:54:50Z</time>
      </trkpt>
      <trkpt lat="42.86205" lon="0.23621">
        <ele>2195</ele>
        <time>2012-02-23T13:54:53Z</time>
      </trkpt>
      <trkpt lat="42.86202" lon="0.23628">
        <ele>2193</ele>
        <time>2012-02-23T13:54:56Z</time>
      </trkpt>
      <trkpt lat="42.86199" lon="0.23632">
        <ele>2192</ele>
        <time>2012-02-23T13:54:59Z</time>
      </trkpt>
      <trkpt lat="42.862" lon="0.23631">
        <ele>2189</ele>
        <time>2012-02-23T13:55:09Z</time>
      </trkpt>
      <trkpt lat="42.86201" lon="0.23631">
        <ele>2189</ele>
        <time>2012-02-23T13:55:30Z</time>
      </trkpt>
      <trkpt lat="42.86202" lon="0.23633">
        <ele>2189</ele>
        <time>2012-02-23T13:56:16Z</time>
      </trkpt>
      <trkpt lat="42.86201" lon="0.23634">
        <ele>2189</ele>
        <time>2012-02-23T13:56:22Z</time>
      </trkpt>
      <trkpt lat="42.86199" lon="0.23639">
        <ele>2189</ele>
        <time>2012-02-23T13:56:25Z</time>
      </trkpt>
      <trkpt lat="42.86195" lon="0.23647">
        <ele>2187</ele>
        <time>2012-02-23T13:56:28Z</time>
      </trkpt>
      <trkpt lat="42.86191" lon="0.23654">
        <ele>2185</ele>
        <time>2012-02-23T13:56:31Z</time>
      </trkpt>
      <trkpt lat="42.86195" lon="0.23658">
        <ele>2183</ele>
        <time>2012-02-23T13:56:34Z</time>
      </trkpt>
      <trkpt lat="42.86204" lon="0.23657">
        <ele>2180</ele>
        <time>2012-02-23T13:56:37Z</time>
      </trkpt>
      <trkpt lat="42.86199" lon="0.23671">
        <ele>2178</ele>
        <time>2012-02-23T13:56:40Z</time>
      </trkpt>
      <trkpt lat="42.86188" lon="0.23685">
        <ele>2175</ele>
        <time>2012-02-23T13:56:43Z</time>
      </trkpt>
      <trkpt lat="42.86176" lon="0.237">
        <ele>2172</ele>
        <time>2012-02-23T13:56:46Z</time>
      </trkpt>
      <trkpt lat="42.86164" lon="0.23716">
        <ele>2169</ele>
        <time>2012-02-23T13:56:49Z</time>
      </trkpt>
      <trkpt lat="42.86152" lon="0.23732">
        <ele>2166</ele>
        <time>2012-02-23T13:56:52Z</time>
      </trkpt>
      <trkpt lat="42.86142" lon="0.23747">
        <ele>2163</ele>
        <time>2012-02-23T13:56:55Z</time>
      </trkpt>
      <trkpt lat="42.86134" lon="0.2376">
        <ele>2159</ele>
        <time>2012-02-23T13:56:58Z</time>
      </trkpt>
      <trkpt lat="42.86127" lon="0.23769">
        <ele>2155</ele>
        <time>2012-02-23T13:57:01Z</time>
      </trkpt>
      <trkpt lat="42.86134" lon="0.23777">
        <ele>2152</ele>
        <time>2012-02-23T13:57:04Z</time>
      </trkpt>
      <trkpt lat="42.86141" lon="0.23782">
        <ele>2149</ele>
        <time>2012-02-23T13:57:07Z</time>
      </trkpt>
      <trkpt lat="42.86132" lon="0.23794">
        <ele>2146</ele>
        <time>2012-02-23T13:57:10Z</time>
      </trkpt>
      <trkpt lat="42.86119" lon="0.23805">
        <ele>2143</ele>
        <time>2012-02-23T13:57:13Z</time>
      </trkpt>
      <trkpt lat="42.86108" lon="0.2382">
        <ele>2140</ele>
        <time>2012-02-23T13:57:16Z</time>
      </trkpt>
      <trkpt lat="42.86104" lon="0.23828">
        <ele>2137</ele>
        <time>2012-02-23T13:57:19Z</time>
      </trkpt>
      <trkpt lat="42.86101" lon="0.23833">
        <ele>2134</ele>
        <time>2012-02-23T13:57:22Z</time>
      </trkpt>
      <trkpt lat="42.86099" lon="0.23837">
        <ele>2134</ele>
        <time>2012-02-23T13:57:25Z</time>
      </trkpt>
      <trkpt lat="42.86097" lon="0.23838">
        <ele>2134</ele>
        <time>2012-02-23T13:57:29Z</time>
      </trkpt>
      <trkpt lat="42.86096" lon="0.23838">
        <ele>2134</ele>
        <time>2012-02-23T13:57:33Z</time>
      </trkpt>
      <trkpt lat="42.86095" lon="0.2384">
        <ele>2133</ele>
        <time>2012-02-23T13:57:39Z</time>
      </trkpt>
      <trkpt lat="42.86094" lon="0.23843">
        <ele>2133</ele>
        <time>2012-02-23T13:57:43Z</time>
      </trkpt>
      <trkpt lat="42.86092" lon="0.23846">
        <ele>2133</ele>
        <time>2012-02-23T13:57:49Z</time>
      </trkpt>
      <trkpt lat="42.8609" lon="0.23849">
        <ele>2133</ele>
        <time>2012-02-23T13:58:01Z</time>
      </trkpt>
      <trkpt lat="42.86089" lon="0.23851">
        <ele>2133</ele>
        <time>2012-02-23T13:58:05Z</time>
      </trkpt>
      <trkpt lat="42.86087" lon="0.23855">
        <ele>2133</ele>
        <time>2012-02-23T13:58:08Z</time>
      </trkpt>
      <trkpt lat="42.86081" lon="0.23859">
        <ele>2133</ele>
        <time>2012-02-23T13:58:11Z</time>
      </trkpt>
      <trkpt lat="42.86073" lon="0.23861">
        <ele>2133</ele>
        <time>2012-02-23T13:58:14Z</time>
      </trkpt>
      <trkpt lat="42.86064" lon="0.23862">
        <ele>2133</ele>
        <time>2012-02-23T13:58:17Z</time>
      </trkpt>
      <trkpt lat="42.86052" lon="0.23867">
        <ele>2131</ele>
        <time>2012-02-23T13:58:20Z</time>
      </trkpt>
      <trkpt lat="42.86043" lon="0.23875">
        <ele>2130</ele>
        <time>2012-02-23T13:58:23Z</time>
      </trkpt>
      <trkpt lat="42.86032" lon="0.23881">
        <ele>2128</ele>
        <time>2012-02-23T13:58:26Z</time>
      </trkpt>
      <trkpt lat="42.86019" lon="0.23884">
        <ele>2126</ele>
        <time>2012-02-23T13:58:29Z</time>
      </trkpt>
      <trkpt lat="42.86007" lon="0.23893">
        <ele>2125</ele>
        <time>2012-02-23T13:58:32Z</time>
      </trkpt>
      <trkpt lat="42.85997" lon="0.23907">
        <ele>2123</ele>
        <time>2012-02-23T13:58:35Z</time>
      </trkpt>
      <trkpt lat="42.85988" lon="0.2392">
        <ele>2120</ele>
        <time>2012-02-23T13:58:38Z</time>
      </trkpt>
      <trkpt lat="42.85979" lon="0.23931">
        <ele>2118</ele>
        <time>2012-02-23T13:58:41Z</time>
      </trkpt>
      <trkpt lat="42.8597" lon="0.2394">
        <ele>2115</ele>
        <time>2012-02-23T13:58:44Z</time>
      </trkpt>
      <trkpt lat="42.85962" lon="0.23947">
        <ele>2113</ele>
        <time>2012-02-23T13:58:47Z</time>
      </trkpt>
      <trkpt lat="42.85953" lon="0.2395">
        <ele>2111</ele>
        <time>2012-02-23T13:58:50Z</time>
      </trkpt>
      <trkpt lat="42.85941" lon="0.23951">
        <ele>2109</ele>
        <time>2012-02-23T13:58:53Z</time>
      </trkpt>
      <trkpt lat="42.85926" lon="0.23952">
        <ele>2107</ele>
        <time>2012-02-23T13:58:56Z</time>
      </trkpt>
      <trkpt lat="42.8591" lon="0.23955">
        <ele>2105</ele>
        <time>2012-02-23T13:58:59Z</time>
      </trkpt>
      <trkpt lat="42.85896" lon="0.23962">
        <ele>2102</ele>
        <time>2012-02-23T13:59:03Z</time>
      </trkpt>
      <trkpt lat="42.85886" lon="0.23968">
        <ele>2100</ele>
        <time>2012-02-23T13:59:06Z</time>
      </trkpt>
      <trkpt lat="42.85876" lon="0.23974">
        <ele>2098</ele>
        <time>2012-02-23T13:59:09Z</time>
      </trkpt>
      <trkpt lat="42.85867" lon="0.23981">
        <ele>2096</ele>
        <time>2012-02-23T13:59:12Z</time>
      </trkpt>
      <trkpt lat="42.85859" lon="0.23986">
        <ele>2094</ele>
        <time>2012-02-23T13:59:15Z</time>
      </trkpt>
      <trkpt lat="42.85852" lon="0.2399">
        <ele>2093</ele>
        <time>2012-02-23T13:59:18Z</time>
      </trkpt>
      <trkpt lat="42.85845" lon="0.23992">
        <ele>2092</ele>
        <time>2012-02-23T13:59:21Z</time>
      </trkpt>
      <trkpt lat="42.85838" lon="0.23993">
        <ele>2091</ele>
        <time>2012-02-23T13:59:24Z</time>
      </trkpt>
      <trkpt lat="42.85837" lon="0.23992">
        <ele>2089</ele>
        <time>2012-02-23T13:59:35Z</time>
      </trkpt>
      <trkpt lat="42.85835" lon="0.23994">
        <ele>2089</ele>
        <time>2012-02-23T14:00:18Z</time>
      </trkpt>
      <trkpt lat="42.8583" lon="0.23997">
        <ele>2088</ele>
        <time>2012-02-23T14:00:22Z</time>
      </trkpt>
      <trkpt lat="42.85827" lon="0.24">
        <ele>2086</ele>
        <time>2012-02-23T14:00:25Z</time>
      </trkpt>
      <trkpt lat="42.85823" lon="0.24004">
        <ele>2084</ele>
        <time>2012-02-23T14:00:28Z</time>
      </trkpt>
      <trkpt lat="42.85813" lon="0.24008">
        <ele>2082</ele>
        <time>2012-02-23T14:00:31Z</time>
      </trkpt>
      <trkpt lat="42.85802" lon="0.24007">
        <ele>2080</ele>
        <time>2012-02-23T14:00:34Z</time>
      </trkpt>
      <trkpt lat="42.85796" lon="0.24004">
        <ele>2078</ele>
        <time>2012-02-23T14:00:37Z</time>
      </trkpt>
      <trkpt lat="42.85794" lon="0.24003">
        <ele>2077</ele>
        <time>2012-02-23T14:00:40Z</time>
      </trkpt>
      <trkpt lat="42.85793" lon="0.24001">
        <ele>2077</ele>
        <time>2012-02-23T14:00:48Z</time>
      </trkpt>
      <trkpt lat="42.85792" lon="0.24">
        <ele>2077</ele>
        <time>2012-02-23T14:00:53Z</time>
      </trkpt>
      <trkpt lat="42.85787" lon="0.23998">
        <ele>2076</ele>
        <time>2012-02-23T14:00:56Z</time>
      </trkpt>
      <trkpt lat="42.85776" lon="0.23994">
        <ele>2075</ele>
        <time>2012-02-23T14:00:59Z</time>
      </trkpt>
      <trkpt lat="42.85756" lon="0.23988">
        <ele>2072</ele>
        <time>2012-02-23T14:01:02Z</time>
      </trkpt>
      <trkpt lat="42.85738" lon="0.23988">
        <ele>2070</ele>
        <time>2012-02-23T14:01:05Z</time>
      </trkpt>
      <trkpt lat="42.85726" lon="0.23993">
        <ele>2068</ele>
        <time>2012-02-23T14:01:08Z</time>
      </trkpt>
      <trkpt lat="42.85718" lon="0.23999">
        <ele>2067</ele>
        <time>2012-02-23T14:01:11Z</time>
      </trkpt>
      <trkpt lat="42.8571" lon="0.23994">
        <ele>2066</ele>
        <time>2012-02-23T14:01:14Z</time>
      </trkpt>
      <trkpt lat="42.85711" lon="0.23994">
        <ele>2066</ele>
        <time>2012-02-23T14:01:23Z</time>
      </trkpt>
      <trkpt lat="42.8571" lon="0.23994">
        <ele>2066</ele>
        <time>2012-02-23T14:01:26Z</time>
      </trkpt>
      <trkpt lat="42.85709" lon="0.24004">
        <ele>2066</ele>
        <time>2012-02-23T14:01:29Z</time>
      </trkpt>
      <trkpt lat="42.85711" lon="0.24018">
        <ele>2066</ele>
        <time>2012-02-23T14:01:32Z</time>
      </trkpt>
      <trkpt lat="42.85706" lon="0.24017">
        <ele>2064</ele>
        <time>2012-02-23T14:01:35Z</time>
      </trkpt>
      <trkpt lat="42.857" lon="0.24014">
        <ele>2062</ele>
        <time>2012-02-23T14:01:38Z</time>
      </trkpt>
      <trkpt lat="42.85698" lon="0.24023">
        <ele>2060</ele>
        <time>2012-02-23T14:01:41Z</time>
      </trkpt>
      <trkpt lat="42.85689" lon="0.24014">
        <ele>2058</ele>
        <time>2012-02-23T14:01:44Z</time>
      </trkpt>
      <trkpt lat="42.85681" lon="0.23999">
        <ele>2055</ele>
        <time>2012-02-23T14:01:47Z</time>
      </trkpt>
      <trkpt lat="42.85674" lon="0.23985">
        <ele>2052</ele>
        <time>2012-02-23T14:01:50Z</time>
      </trkpt>
      <trkpt lat="42.85664" lon="0.23991">
        <ele>2049</ele>
        <time>2012-02-23T14:01:53Z</time>
      </trkpt>
      <trkpt lat="42.85665" lon="0.24008">
        <ele>2046</ele>
        <time>2012-02-23T14:01:56Z</time>
      </trkpt>
      <trkpt lat="42.85663" lon="0.24019">
        <ele>2043</ele>
        <time>2012-02-23T14:01:59Z</time>
      </trkpt>
      <trkpt lat="42.85658" lon="0.24028">
        <ele>2040</ele>
        <time>2012-02-23T14:02:02Z</time>
      </trkpt>
      <trkpt lat="42.85647" lon="0.24024">
        <ele>2038</ele>
        <time>2012-02-23T14:02:05Z</time>
      </trkpt>
      <trkpt lat="42.85637" lon="0.2402">
        <ele>2037</ele>
        <time>2012-02-23T14:02:08Z</time>
      </trkpt>
      <trkpt lat="42.85638" lon="0.24031">
        <ele>2036</ele>
        <time>2012-02-23T14:02:11Z</time>
      </trkpt>
      <trkpt lat="42.85639" lon="0.24038">
        <ele>2033</ele>
        <time>2012-02-23T14:02:57Z</time>
      </trkpt>
      <trkpt lat="42.85634" lon="0.24037">
        <ele>2033</ele>
        <time>2012-02-23T14:03:00Z</time>
      </trkpt>
      <trkpt lat="42.85625" lon="0.24041">
        <ele>2033</ele>
        <time>2012-02-23T14:03:03Z</time>
      </trkpt>
      <trkpt lat="42.85618" lon="0.24048">
        <ele>2033</ele>
        <time>2012-02-23T14:03:06Z</time>
      </trkpt>
      <trkpt lat="42.85616" lon="0.24049">
        <ele>2033</ele>
        <time>2012-02-23T14:03:10Z</time>
      </trkpt>
      <trkpt lat="42.85614" lon="0.24051">
        <ele>2033</ele>
        <time>2012-02-23T14:03:13Z</time>
      </trkpt>
      <trkpt lat="42.85611" lon="0.24052">
        <ele>2032</ele>
        <time>2012-02-23T14:03:16Z</time>
      </trkpt>
      <trkpt lat="42.85606" lon="0.24052">
        <ele>2031</ele>
        <time>2012-02-23T14:03:19Z</time>
      </trkpt>
      <trkpt lat="42.85601" lon="0.2405">
        <ele>2031</ele>
        <time>2012-02-23T14:03:39Z</time>
      </trkpt>
      <trkpt lat="42.85599" lon="0.2405">
        <ele>2031</ele>
        <time>2012-02-23T14:03:42Z</time>
      </trkpt>
      <trkpt lat="42.85594" lon="0.24049">
        <ele>2030</ele>
        <time>2012-02-23T14:03:45Z</time>
      </trkpt>
      <trkpt lat="42.85588" lon="0.24048">
        <ele>2029</ele>
        <time>2012-02-23T14:03:48Z</time>
      </trkpt>
      <trkpt lat="42.85577" lon="0.24045">
        <ele>2028</ele>
        <time>2012-02-23T14:03:51Z</time>
      </trkpt>
      <trkpt lat="42.85563" lon="0.2404">
        <ele>2027</ele>
        <time>2012-02-23T14:03:54Z</time>
      </trkpt>
      <trkpt lat="42.85554" lon="0.24035">
        <ele>2024</ele>
        <time>2012-02-23T14:03:57Z</time>
      </trkpt>
      <trkpt lat="42.85544" lon="0.24031">
        <ele>2021</ele>
        <time>2012-02-23T14:04:00Z</time>
      </trkpt>
      <trkpt lat="42.85533" lon="0.24027">
        <ele>2018</ele>
        <time>2012-02-23T14:04:03Z</time>
      </trkpt>
      <trkpt lat="42.85528" lon="0.24027">
        <ele>2016</ele>
        <time>2012-02-23T14:04:06Z</time>
      </trkpt>
      <trkpt lat="42.85526" lon="0.24034">
        <ele>2013</ele>
        <time>2012-02-23T14:04:09Z</time>
      </trkpt>
      <trkpt lat="42.8553" lon="0.24039">
        <ele>2011</ele>
        <time>2012-02-23T14:04:12Z</time>
      </trkpt>
      <trkpt lat="42.85527" lon="0.24046">
        <ele>2009</ele>
        <time>2012-02-23T14:04:15Z</time>
      </trkpt>
      <trkpt lat="42.85528" lon="0.24055">
        <ele>2007</ele>
        <time>2012-02-23T14:04:18Z</time>
      </trkpt>
      <trkpt lat="42.85534" lon="0.2406">
        <ele>2005</ele>
        <time>2012-02-23T14:04:21Z</time>
      </trkpt>
      <trkpt lat="42.8553" lon="0.24071">
        <ele>2003</ele>
        <time>2012-02-23T14:04:24Z</time>
      </trkpt>
      <trkpt lat="42.85535" lon="0.24081">
        <ele>2000</ele>
        <time>2012-02-23T14:04:27Z</time>
      </trkpt>
      <trkpt lat="42.85529" lon="0.24092">
        <ele>1997</ele>
        <time>2012-02-23T14:04:30Z</time>
      </trkpt>
      <trkpt lat="42.85524" lon="0.24097">
        <ele>1995</ele>
        <time>2012-02-23T14:04:33Z</time>
      </trkpt>
      <trkpt lat="42.85516" lon="0.24101">
        <ele>1994</ele>
        <time>2012-02-23T14:04:36Z</time>
      </trkpt>
      <trkpt lat="42.85507" lon="0.24116">
        <ele>1992</ele>
        <time>2012-02-23T14:04:39Z</time>
      </trkpt>
      <trkpt lat="42.85508" lon="0.24124">
        <ele>1989</ele>
        <time>2012-02-23T14:04:42Z</time>
      </trkpt>
      <trkpt lat="42.85508" lon="0.24135">
        <ele>1987</ele>
        <time>2012-02-23T14:04:45Z</time>
      </trkpt>
      <trkpt lat="42.8551" lon="0.24148">
        <ele>1985</ele>
        <time>2012-02-23T14:04:48Z</time>
      </trkpt>
      <trkpt lat="42.85512" lon="0.24159">
        <ele>1983</ele>
        <time>2012-02-23T14:04:51Z</time>
      </trkpt>
      <trkpt lat="42.85513" lon="0.24171">
        <ele>1982</ele>
        <time>2012-02-23T14:04:54Z</time>
      </trkpt>
      <trkpt lat="42.85514" lon="0.24188">
        <ele>1980</ele>
        <time>2012-02-23T14:04:57Z</time>
      </trkpt>
      <trkpt lat="42.85517" lon="0.24199">
        <ele>1979</ele>
        <time>2012-02-23T14:05:00Z</time>
      </trkpt>
      <trkpt lat="42.85518" lon="0.24202">
        <ele>1979</ele>
        <time>2012-02-23T14:05:05Z</time>
      </trkpt>
      <trkpt lat="42.85519" lon="0.24206">
        <ele>1979</ele>
        <time>2012-02-23T14:05:09Z</time>
      </trkpt>
      <trkpt lat="42.8552" lon="0.24211">
        <ele>1979</ele>
        <time>2012-02-23T14:05:12Z</time>
      </trkpt>
      <trkpt lat="42.85522" lon="0.24217">
        <ele>1979</ele>
        <time>2012-02-23T14:05:15Z</time>
      </trkpt>
      <trkpt lat="42.85524" lon="0.24227">
        <ele>1979</ele>
        <time>2012-02-23T14:05:18Z</time>
      </trkpt>
      <trkpt lat="42.85525" lon="0.24238">
        <ele>1978</ele>
        <time>2012-02-23T14:05:21Z</time>
      </trkpt>
      <trkpt lat="42.85526" lon="0.24249">
        <ele>1976</ele>
        <time>2012-02-23T14:05:24Z</time>
      </trkpt>
      <trkpt lat="42.85527" lon="0.24256">
        <ele>1975</ele>
        <time>2012-02-23T14:05:27Z</time>
      </trkpt>
      <trkpt lat="42.85527" lon="0.24263">
        <ele>1975</ele>
        <time>2012-02-23T14:05:30Z</time>
      </trkpt>
      <trkpt lat="42.85529" lon="0.24268">
        <ele>1974</ele>
        <time>2012-02-23T14:05:48Z</time>
      </trkpt>
      <trkpt lat="42.85531" lon="0.24283">
        <ele>1973</ele>
        <time>2012-02-23T14:05:51Z</time>
      </trkpt>
      <trkpt lat="42.8553" lon="0.24298">
        <ele>1970</ele>
        <time>2012-02-23T14:05:54Z</time>
      </trkpt>
      <trkpt lat="42.85529" lon="0.24315">
        <ele>1968</ele>
        <time>2012-02-23T14:05:57Z</time>
      </trkpt>
      <trkpt lat="42.85527" lon="0.24336">
        <ele>1966</ele>
        <time>2012-02-23T14:06:00Z</time>
      </trkpt>
      <trkpt lat="42.85528" lon="0.2435">
        <ele>1964</ele>
        <time>2012-02-23T14:06:03Z</time>
      </trkpt>
      <trkpt lat="42.85528" lon="0.24362">
        <ele>1963</ele>
        <time>2012-02-23T14:06:06Z</time>
      </trkpt>
      <trkpt lat="42.85528" lon="0.24372">
        <ele>1961</ele>
        <time>2012-02-23T14:06:09Z</time>
      </trkpt>
      <trkpt lat="42.85526" lon="0.24383">
        <ele>1961</ele>
        <time>2012-02-23T14:06:12Z</time>
      </trkpt>
      <trkpt lat="42.85522" lon="0.24387">
        <ele>1961</ele>
        <time>2012-02-23T14:06:17Z</time>
      </trkpt>
      <trkpt lat="42.85521" lon="0.24387">
        <ele>1960</ele>
        <time>2012-02-23T14:06:21Z</time>
      </trkpt>
      <trkpt lat="42.85522" lon="0.24387">
        <ele>1960</ele>
        <time>2012-02-23T14:08:12Z</time>
      </trkpt>
      <trkpt lat="42.85522" lon="0.24389">
        <ele>1960</ele>
        <time>2012-02-23T14:08:39Z</time>
      </trkpt>
      <trkpt lat="42.85521" lon="0.24388">
        <ele>1960</ele>
        <time>2012-02-23T14:09:44Z</time>
      </trkpt>
      <trkpt lat="42.8552" lon="0.2439">
        <ele>1960</ele>
        <time>2012-02-23T14:09:48Z</time>
      </trkpt>
      <trkpt lat="42.85516" lon="0.24395">
        <ele>1960</ele>
        <time>2012-02-23T14:09:51Z</time>
      </trkpt>
      <trkpt lat="42.85511" lon="0.244">
        <ele>1960</ele>
        <time>2012-02-23T14:09:54Z</time>
      </trkpt>
      <trkpt lat="42.85504" lon="0.24409">
        <ele>1960</ele>
        <time>2012-02-23T14:09:57Z</time>
      </trkpt>
      <trkpt lat="42.85495" lon="0.24423">
        <ele>1958</ele>
        <time>2012-02-23T14:10:00Z</time>
      </trkpt>
      <trkpt lat="42.85492" lon="0.2443">
        <ele>1957</ele>
        <time>2012-02-23T14:10:04Z</time>
      </trkpt>
      <trkpt lat="42.85489" lon="0.24434">
        <ele>1956</ele>
        <time>2012-02-23T14:10:07Z</time>
      </trkpt>
      <trkpt lat="42.85484" lon="0.24441">
        <ele>1954</ele>
        <time>2012-02-23T14:10:10Z</time>
      </trkpt>
      <trkpt lat="42.85473" lon="0.24448">
        <ele>1952</ele>
        <time>2012-02-23T14:10:13Z</time>
      </trkpt>
      <trkpt lat="42.85469" lon="0.24449">
        <ele>1950</ele>
        <time>2012-02-23T14:10:30Z</time>
      </trkpt>
      <trkpt lat="42.85468" lon="0.2445">
        <ele>1949</ele>
        <time>2012-02-23T14:10:42Z</time>
      </trkpt>
      <trkpt lat="42.85466" lon="0.24454">
        <ele>1948</ele>
        <time>2012-02-23T14:10:47Z</time>
      </trkpt>
      <trkpt lat="42.85467" lon="0.24461">
        <ele>1947</ele>
        <time>2012-02-23T14:10:50Z</time>
      </trkpt>
      <trkpt lat="42.8547" lon="0.24465">
        <ele>1946</ele>
        <time>2012-02-23T14:10:53Z</time>
      </trkpt>
      <trkpt lat="42.85466" lon="0.24472">
        <ele>1943</ele>
        <time>2012-02-23T14:10:58Z</time>
      </trkpt>
      <trkpt lat="42.85472" lon="0.24476">
        <ele>1941</ele>
        <time>2012-02-23T14:11:01Z</time>
      </trkpt>
      <trkpt lat="42.85473" lon="0.24476">
        <ele>1937</ele>
        <time>2012-02-23T14:11:07Z</time>
      </trkpt>
      <trkpt lat="42.85472" lon="0.24478">
        <ele>1936</ele>
        <time>2012-02-23T14:11:13Z</time>
      </trkpt>
      <trkpt lat="42.85466" lon="0.24483">
        <ele>1934</ele>
        <time>2012-02-23T14:11:16Z</time>
      </trkpt>
      <trkpt lat="42.85465" lon="0.24483">
        <ele>1934</ele>
        <time>2012-02-23T14:11:19Z</time>
      </trkpt>
      <trkpt lat="42.85464" lon="0.24482">
        <ele>1933</ele>
        <time>2012-02-23T14:11:22Z</time>
      </trkpt>
      <trkpt lat="42.85464" lon="0.24484">
        <ele>1930</ele>
        <time>2012-02-23T14:11:47Z</time>
      </trkpt>
      <trkpt lat="42.85467" lon="0.24489">
        <ele>1929</ele>
        <time>2012-02-23T14:11:50Z</time>
      </trkpt>
      <trkpt lat="42.85454" lon="0.24507">
        <ele>1927</ele>
        <time>2012-02-23T14:11:53Z</time>
      </trkpt>
      <trkpt lat="42.85441" lon="0.24521">
        <ele>1925</ele>
        <time>2012-02-23T14:11:56Z</time>
      </trkpt>
      <trkpt lat="42.85435" lon="0.2453">
        <ele>1922</ele>
        <time>2012-02-23T14:11:59Z</time>
      </trkpt>
      <trkpt lat="42.8543" lon="0.2454">
        <ele>1919</ele>
        <time>2012-02-23T14:12:02Z</time>
      </trkpt>
      <trkpt lat="42.85434" lon="0.24551">
        <ele>1916</ele>
        <time>2012-02-23T14:12:05Z</time>
      </trkpt>
      <trkpt lat="42.85444" lon="0.24548">
        <ele>1913</ele>
        <time>2012-02-23T14:12:08Z</time>
      </trkpt>
      <trkpt lat="42.85452" lon="0.24545">
        <ele>1910</ele>
        <time>2012-02-23T14:12:11Z</time>
      </trkpt>
      <trkpt lat="42.85459" lon="0.24545">
        <ele>1907</ele>
        <time>2012-02-23T14:12:14Z</time>
      </trkpt>
      <trkpt lat="42.85459" lon="0.24563">
        <ele>1904</ele>
        <time>2012-02-23T14:12:17Z</time>
      </trkpt>
      <trkpt lat="42.8545" lon="0.24584">
        <ele>1900</ele>
        <time>2012-02-23T14:12:20Z</time>
      </trkpt>
      <trkpt lat="42.85448" lon="0.24598">
        <ele>1896</ele>
        <time>2012-02-23T14:12:23Z</time>
      </trkpt>
      <trkpt lat="42.85448" lon="0.24602">
        <ele>1889</ele>
        <time>2012-02-23T14:13:16Z</time>
      </trkpt>
      <trkpt lat="42.8545" lon="0.24603">
        <ele>1887</ele>
        <time>2012-02-23T14:13:34Z</time>
      </trkpt>
      <trkpt lat="42.85453" lon="0.2461">
        <ele>1886</ele>
        <time>2012-02-23T14:13:37Z</time>
      </trkpt>
      <trkpt lat="42.85458" lon="0.2462">
        <ele>1886</ele>
        <time>2012-02-23T14:13:40Z</time>
      </trkpt>
      <trkpt lat="42.85466" lon="0.24636">
        <ele>1885</ele>
        <time>2012-02-23T14:13:43Z</time>
      </trkpt>
      <trkpt lat="42.8548" lon="0.2466">
        <ele>1882</ele>
        <time>2012-02-23T14:13:46Z</time>
      </trkpt>
      <trkpt lat="42.85497" lon="0.24686">
        <ele>1879</ele>
        <time>2012-02-23T14:13:49Z</time>
      </trkpt>
      <trkpt lat="42.85514" lon="0.24707">
        <ele>1876</ele>
        <time>2012-02-23T14:13:52Z</time>
      </trkpt>
      <trkpt lat="42.8553" lon="0.24728">
        <ele>1873</ele>
        <time>2012-02-23T14:13:55Z</time>
      </trkpt>
      <trkpt lat="42.85545" lon="0.24749">
        <ele>1870</ele>
        <time>2012-02-23T14:13:58Z</time>
      </trkpt>
      <trkpt lat="42.85558" lon="0.24767">
        <ele>1868</ele>
        <time>2012-02-23T14:14:01Z</time>
      </trkpt>
      <trkpt lat="42.85567" lon="0.24779">
        <ele>1867</ele>
        <time>2012-02-23T14:14:04Z</time>
      </trkpt>
      <trkpt lat="42.85573" lon="0.2479">
        <ele>1867</ele>
        <time>2012-02-23T14:14:07Z</time>
      </trkpt>
      <trkpt lat="42.85577" lon="0.24797">
        <ele>1867</ele>
        <time>2012-02-23T14:14:10Z</time>
      </trkpt>
      <trkpt lat="42.8558" lon="0.24804">
        <ele>1867</ele>
        <time>2012-02-23T14:14:14Z</time>
      </trkpt>
      <trkpt lat="42.85582" lon="0.2481">
        <ele>1867</ele>
        <time>2012-02-23T14:14:17Z</time>
      </trkpt>
      <trkpt lat="42.85583" lon="0.24819">
        <ele>1867</ele>
        <time>2012-02-23T14:14:20Z</time>
      </trkpt>
      <trkpt lat="42.85583" lon="0.24828">
        <ele>1867</ele>
        <time>2012-02-23T14:14:23Z</time>
      </trkpt>
      <trkpt lat="42.85584" lon="0.24836">
        <ele>1867</ele>
        <time>2012-02-23T14:14:26Z</time>
      </trkpt>
      <trkpt lat="42.85585" lon="0.24846">
        <ele>1867</ele>
        <time>2012-02-23T14:14:29Z</time>
      </trkpt>
      <trkpt lat="42.85587" lon="0.24856">
        <ele>1865</ele>
        <time>2012-02-23T14:14:32Z</time>
      </trkpt>
      <trkpt lat="42.85588" lon="0.24865">
        <ele>1864</ele>
        <time>2012-02-23T14:14:35Z</time>
      </trkpt>
      <trkpt lat="42.85589" lon="0.24873">
        <ele>1863</ele>
        <time>2012-02-23T14:14:38Z</time>
      </trkpt>
      <trkpt lat="42.85591" lon="0.24884">
        <ele>1861</ele>
        <time>2012-02-23T14:14:41Z</time>
      </trkpt>
      <trkpt lat="42.85594" lon="0.24893">
        <ele>1859</ele>
        <time>2012-02-23T14:14:44Z</time>
      </trkpt>
      <trkpt lat="42.85597" lon="0.249">
        <ele>1857</ele>
        <time>2012-02-23T14:14:47Z</time>
      </trkpt>
      <trkpt lat="42.85601" lon="0.24909">
        <ele>1854</ele>
        <time>2012-02-23T14:14:50Z</time>
      </trkpt>
      <trkpt lat="42.85607" lon="0.24925">
        <ele>1852</ele>
        <time>2012-02-23T14:14:53Z</time>
      </trkpt>
      <trkpt lat="42.85612" lon="0.2494">
        <ele>1849</ele>
        <time>2012-02-23T14:14:56Z</time>
      </trkpt>
      <trkpt lat="42.85617" lon="0.24961">
        <ele>1847</ele>
        <time>2012-02-23T14:14:59Z</time>
      </trkpt>
      <trkpt lat="42.85619" lon="0.24982">
        <ele>1846</ele>
        <time>2012-02-23T14:15:02Z</time>
      </trkpt>
      <trkpt lat="42.85617" lon="0.25004">
        <ele>1846</ele>
        <time>2012-02-23T14:15:05Z</time>
      </trkpt>
      <trkpt lat="42.85615" lon="0.25025">
        <ele>1844</ele>
        <time>2012-02-23T14:15:08Z</time>
      </trkpt>
      <trkpt lat="42.85613" lon="0.25042">
        <ele>1843</ele>
        <time>2012-02-23T14:15:11Z</time>
      </trkpt>
      <trkpt lat="42.85611" lon="0.25055">
        <ele>1843</ele>
        <time>2012-02-23T14:15:14Z</time>
      </trkpt>
      <trkpt lat="42.85611" lon="0.25067">
        <ele>1842</ele>
        <time>2012-02-23T14:15:17Z</time>
      </trkpt>
      <trkpt lat="42.85611" lon="0.25079">
        <ele>1841</ele>
        <time>2012-02-23T14:15:20Z</time>
      </trkpt>
      <trkpt lat="42.85612" lon="0.25092">
        <ele>1840</ele>
        <time>2012-02-23T14:15:23Z</time>
      </trkpt>
      <trkpt lat="42.85614" lon="0.25098">
        <ele>1839</ele>
        <time>2012-02-23T14:15:26Z</time>
      </trkpt>
      <trkpt lat="42.85616" lon="0.25101">
        <ele>1839</ele>
        <time>2012-02-23T14:15:29Z</time>
      </trkpt>
      <trkpt lat="42.85617" lon="0.25102">
        <ele>1839</ele>
        <time>2012-02-23T14:15:36Z</time>
      </trkpt>
      <trkpt lat="42.85618" lon="0.25102">
        <ele>1842</ele>
        <time>2012-02-23T14:17:52Z</time>
      </trkpt>
      <trkpt lat="42.85619" lon="0.25102">
        <ele>1841</ele>
        <time>2012-02-23T14:18:47Z</time>
      </trkpt>
      <trkpt lat="42.8562" lon="0.25101">
        <ele>1841</ele>
        <time>2012-02-23T14:19:01Z</time>
      </trkpt>
      <trkpt lat="42.85621" lon="0.25099">
        <ele>1841</ele>
        <time>2012-02-23T14:19:11Z</time>
      </trkpt>
      <trkpt lat="42.85622" lon="0.25098">
        <ele>1835</ele>
        <time>2012-02-23T14:19:18Z</time>
      </trkpt>
      <trkpt lat="42.85623" lon="0.25097">
        <ele>1834</ele>
        <time>2012-02-23T14:19:56Z</time>
      </trkpt>
      <trkpt lat="42.85624" lon="0.25098">
        <ele>1834</ele>
        <time>2012-02-23T14:20:58Z</time>
      </trkpt>
      <trkpt lat="42.85633" lon="0.251">
        <ele>1834</ele>
        <time>2012-02-23T14:21:01Z</time>
      </trkpt>
      <trkpt lat="42.85644" lon="0.25105">
        <ele>1834</ele>
        <time>2012-02-23T14:21:04Z</time>
      </trkpt>
      <trkpt lat="42.85651" lon="0.25113">
        <ele>1831</ele>
        <time>2012-02-23T14:21:07Z</time>
      </trkpt>
      <trkpt lat="42.85652" lon="0.25119">
        <ele>1828</ele>
        <time>2012-02-23T14:21:10Z</time>
      </trkpt>
      <trkpt lat="42.85652" lon="0.25121">
        <ele>1826</ele>
        <time>2012-02-23T14:21:13Z</time>
      </trkpt>
      <trkpt lat="42.85654" lon="0.25125">
        <ele>1824</ele>
        <time>2012-02-23T14:21:16Z</time>
      </trkpt>
      <trkpt lat="42.85657" lon="0.25131">
        <ele>1822</ele>
        <time>2012-02-23T14:21:19Z</time>
      </trkpt>
      <trkpt lat="42.85661" lon="0.25137">
        <ele>1820</ele>
        <time>2012-02-23T14:21:22Z</time>
      </trkpt>
      <trkpt lat="42.85667" lon="0.25147">
        <ele>1817</ele>
        <time>2012-02-23T14:21:25Z</time>
      </trkpt>
      <trkpt lat="42.85671" lon="0.25154">
        <ele>1814</ele>
        <time>2012-02-23T14:21:28Z</time>
      </trkpt>
      <trkpt lat="42.85674" lon="0.25161">
        <ele>1811</ele>
        <time>2012-02-23T14:21:31Z</time>
      </trkpt>
      <trkpt lat="42.85677" lon="0.25167">
        <ele>1809</ele>
        <time>2012-02-23T14:21:34Z</time>
      </trkpt>
      <trkpt lat="42.8568" lon="0.25173">
        <ele>1807</ele>
        <time>2012-02-23T14:21:37Z</time>
      </trkpt>
      <trkpt lat="42.85683" lon="0.25179">
        <ele>1804</ele>
        <time>2012-02-23T14:21:40Z</time>
      </trkpt>
      <trkpt lat="42.85686" lon="0.25185">
        <ele>1802</ele>
        <time>2012-02-23T14:21:43Z</time>
      </trkpt>
      <trkpt lat="42.8569" lon="0.25191">
        <ele>1801</ele>
        <time>2012-02-23T14:21:46Z</time>
      </trkpt>
      <trkpt lat="42.85693" lon="0.25196">
        <ele>1801</ele>
        <time>2012-02-23T14:21:49Z</time>
      </trkpt>
      <trkpt lat="42.85696" lon="0.25203">
        <ele>1800</ele>
        <time>2012-02-23T14:21:52Z</time>
      </trkpt>
      <trkpt lat="42.85701" lon="0.25208">
        <ele>1798</ele>
        <time>2012-02-23T14:21:56Z</time>
      </trkpt>
      <trkpt lat="42.85704" lon="0.25211">
        <ele>1797</ele>
        <time>2012-02-23T14:22:00Z</time>
      </trkpt>
      <trkpt lat="42.85704" lon="0.25207">
        <ele>1795</ele>
        <time>2012-02-23T14:22:03Z</time>
      </trkpt>
      <trkpt lat="42.85705" lon="0.25202">
        <ele>1791</ele>
        <time>2012-02-23T14:22:07Z</time>
      </trkpt>
      <trkpt lat="42.85704" lon="0.25203">
        <ele>1787</ele>
        <time>2012-02-23T14:22:14Z</time>
      </trkpt>
      <trkpt lat="42.85703" lon="0.25211">
        <ele>1787</ele>
        <time>2012-02-23T14:22:17Z</time>
      </trkpt>
      <trkpt lat="42.85704" lon="0.25209">
        <ele>1789</ele>
        <time>2012-02-23T14:22:20Z</time>
      </trkpt>
      <trkpt lat="42.85705" lon="0.25205">
        <ele>1789</ele>
        <time>2012-02-23T14:22:23Z</time>
      </trkpt>
      <trkpt lat="42.85706" lon="0.252">
        <ele>1789</ele>
        <time>2012-02-23T14:22:26Z</time>
      </trkpt>
      <trkpt lat="42.85708" lon="0.25201">
        <ele>1785</ele>
        <time>2012-02-23T14:22:31Z</time>
      </trkpt>
      <trkpt lat="42.85712" lon="0.25205">
        <ele>1785</ele>
        <time>2012-02-23T14:22:34Z</time>
      </trkpt>
      <trkpt lat="42.8572" lon="0.2521">
        <ele>1784</ele>
        <time>2012-02-23T14:22:37Z</time>
      </trkpt>
      <trkpt lat="42.85729" lon="0.2522">
        <ele>1783</ele>
        <time>2012-02-23T14:22:40Z</time>
      </trkpt>
      <trkpt lat="42.85734" lon="0.25227">
        <ele>1782</ele>
        <time>2012-02-23T14:22:43Z</time>
      </trkpt>
      <trkpt lat="42.85738" lon="0.25233">
        <ele>1781</ele>
        <time>2012-02-23T14:22:46Z</time>
      </trkpt>
      <trkpt lat="42.85743" lon="0.2524">
        <ele>1781</ele>
        <time>2012-02-23T14:22:50Z</time>
      </trkpt>
      <trkpt lat="42.85746" lon="0.25247">
        <ele>1780</ele>
        <time>2012-02-23T14:22:53Z</time>
      </trkpt>
      <trkpt lat="42.85747" lon="0.25253">
        <ele>1780</ele>
        <time>2012-02-23T14:22:56Z</time>
      </trkpt>
      <trkpt lat="42.85748" lon="0.25258">
        <ele>1780</ele>
        <time>2012-02-23T14:22:59Z</time>
      </trkpt>
      <trkpt lat="42.85748" lon="0.25261">
        <ele>1782</ele>
        <time>2012-02-23T14:23:06Z</time>
      </trkpt>
      <trkpt lat="42.85747" lon="0.25263">
        <ele>1783</ele>
        <time>2012-02-23T14:23:09Z</time>
      </trkpt>
      <trkpt lat="42.85748" lon="0.25267">
        <ele>1794</ele>
        <time>2012-02-23T14:23:24Z</time>
      </trkpt>
      <trkpt lat="42.8574" lon="0.25267">
        <ele>1796</ele>
        <time>2012-02-23T14:23:27Z</time>
      </trkpt>
      <trkpt lat="42.85723" lon="0.25265">
        <ele>1796</ele>
        <time>2012-02-23T14:23:30Z</time>
      </trkpt>
      <trkpt lat="42.85716" lon="0.25264">
        <ele>1798</ele>
        <time>2012-02-23T14:23:35Z</time>
      </trkpt>
      <trkpt lat="42.85711" lon="0.25266">
        <ele>1799</ele>
        <time>2012-02-23T14:23:40Z</time>
      </trkpt>
      <trkpt lat="42.85712" lon="0.25269">
        <ele>1799</ele>
        <time>2012-02-23T14:23:46Z</time>
      </trkpt>
      <trkpt lat="42.85716" lon="0.25278">
        <ele>1799</ele>
        <time>2012-02-23T14:23:49Z</time>
      </trkpt>
      <trkpt lat="42.85723" lon="0.25284">
        <ele>1799</ele>
        <time>2012-02-23T14:23:52Z</time>
      </trkpt>
      <trkpt lat="42.85731" lon="0.2529">
        <ele>1798</ele>
        <time>2012-02-23T14:23:55Z</time>
      </trkpt>
      <trkpt lat="42.85736" lon="0.25296">
        <ele>1796</ele>
        <time>2012-02-23T14:23:58Z</time>
      </trkpt>
      <trkpt lat="42.85742" lon="0.25303">
        <ele>1794</ele>
        <time>2012-02-23T14:24:01Z</time>
      </trkpt>
      <trkpt lat="42.85746" lon="0.2531">
        <ele>1792</ele>
        <time>2012-02-23T14:24:04Z</time>
      </trkpt>
      <trkpt lat="42.85753" lon="0.25318">
        <ele>1790</ele>
        <time>2012-02-23T14:24:07Z</time>
      </trkpt>
      <trkpt lat="42.85759" lon="0.25328">
        <ele>1789</ele>
        <time>2012-02-23T14:24:10Z</time>
      </trkpt>
      <trkpt lat="42.85768" lon="0.25342">
        <ele>1786</ele>
        <time>2012-02-23T14:24:13Z</time>
      </trkpt>
      <trkpt lat="42.85774" lon="0.25354">
        <ele>1784</ele>
        <time>2012-02-23T14:24:16Z</time>
      </trkpt>
      <trkpt lat="42.85779" lon="0.25364">
        <ele>1782</ele>
        <time>2012-02-23T14:24:19Z</time>
      </trkpt>
      <trkpt lat="42.85783" lon="0.25372">
        <ele>1780</ele>
        <time>2012-02-23T14:24:22Z</time>
      </trkpt>
      <trkpt lat="42.85786" lon="0.25378">
        <ele>1778</ele>
        <time>2012-02-23T14:24:25Z</time>
      </trkpt>
      <trkpt lat="42.85788" lon="0.25384">
        <ele>1777</ele>
        <time>2012-02-23T14:24:28Z</time>
      </trkpt>
      <trkpt lat="42.85783" lon="0.25384">
        <ele>1777</ele>
        <time>2012-02-23T14:24:31Z</time>
      </trkpt>
      <trkpt lat="42.85773" lon="0.25376">
        <ele>1777</ele>
        <time>2012-02-23T14:24:34Z</time>
      </trkpt>
      <trkpt lat="42.85765" lon="0.25379">
        <ele>1774</ele>
        <time>2012-02-23T14:24:37Z</time>
      </trkpt>
      <trkpt lat="42.85768" lon="0.25388">
        <ele>1773</ele>
        <time>2012-02-23T14:24:40Z</time>
      </trkpt>
      <trkpt lat="42.85774" lon="0.254">
        <ele>1772</ele>
        <time>2012-02-23T14:24:43Z</time>
      </trkpt>
      <trkpt lat="42.8578" lon="0.25409">
        <ele>1770</ele>
        <time>2012-02-23T14:24:46Z</time>
      </trkpt>
      <trkpt lat="42.85785" lon="0.2542">
        <ele>1768</ele>
        <time>2012-02-23T14:24:49Z</time>
      </trkpt>
      <trkpt lat="42.85789" lon="0.25425">
        <ele>1761</ele>
        <time>2012-02-23T14:25:08Z</time>
      </trkpt>
      <trkpt lat="42.85789" lon="0.25427">
        <ele>1760</ele>
        <time>2012-02-23T14:25:11Z</time>
      </trkpt>
      <trkpt lat="42.85785" lon="0.25433">
        <ele>1760</ele>
        <time>2012-02-23T14:25:14Z</time>
      </trkpt>
      <trkpt lat="42.85787" lon="0.25438">
        <ele>1760</ele>
        <time>2012-02-23T14:25:28Z</time>
      </trkpt>
      <trkpt lat="42.8579" lon="0.25443">
        <ele>1758</ele>
        <time>2012-02-23T14:25:31Z</time>
      </trkpt>
      <trkpt lat="42.85796" lon="0.25448">
        <ele>1757</ele>
        <time>2012-02-23T14:25:34Z</time>
      </trkpt>
      <trkpt lat="42.85802" lon="0.25454">
        <ele>1756</ele>
        <time>2012-02-23T14:25:37Z</time>
      </trkpt>
      <trkpt lat="42.85809" lon="0.25461">
        <ele>1754</ele>
        <time>2012-02-23T14:25:40Z</time>
      </trkpt>
      <trkpt lat="42.85813" lon="0.25466">
        <ele>1753</ele>
        <time>2012-02-23T14:25:43Z</time>
      </trkpt>
      <trkpt lat="42.85817" lon="0.25471">
        <ele>1752</ele>
        <time>2012-02-23T14:25:46Z</time>
      </trkpt>
      <trkpt lat="42.8582" lon="0.25477">
        <ele>1751</ele>
        <time>2012-02-23T14:25:50Z</time>
      </trkpt>
      <trkpt lat="42.85823" lon="0.2548">
        <ele>1751</ele>
        <time>2012-02-23T14:25:54Z</time>
      </trkpt>
      <trkpt lat="42.85822" lon="0.25484">
        <ele>1751</ele>
        <time>2012-02-23T14:25:57Z</time>
      </trkpt>
      <trkpt lat="42.85815" lon="0.25483">
        <ele>1751</ele>
        <time>2012-02-23T14:26:00Z</time>
      </trkpt>
      <trkpt lat="42.85815" lon="0.25489">
        <ele>1750</ele>
        <time>2012-02-23T14:26:03Z</time>
      </trkpt>
      <trkpt lat="42.85821" lon="0.25494">
        <ele>1749</ele>
        <time>2012-02-23T14:26:06Z</time>
      </trkpt>
      <trkpt lat="42.85826" lon="0.25499">
        <ele>1747</ele>
        <time>2012-02-23T14:26:09Z</time>
      </trkpt>
      <trkpt lat="42.85832" lon="0.25504">
        <ele>1747</ele>
        <time>2012-02-23T14:26:12Z</time>
      </trkpt>
      <trkpt lat="42.85837" lon="0.25507">
        <ele>1746</ele>
        <time>2012-02-23T14:26:15Z</time>
      </trkpt>
      <trkpt lat="42.85842" lon="0.25511">
        <ele>1744</ele>
        <time>2012-02-23T14:26:18Z</time>
      </trkpt>
      <trkpt lat="42.85847" lon="0.25514">
        <ele>1742</ele>
        <time>2012-02-23T14:26:21Z</time>
      </trkpt>
      <trkpt lat="42.85851" lon="0.25516">
        <ele>1739</ele>
        <time>2012-02-23T14:26:24Z</time>
      </trkpt>
      <trkpt lat="42.85856" lon="0.25519">
        <ele>1736</ele>
        <time>2012-02-23T14:26:27Z</time>
      </trkpt>
      <trkpt lat="42.85859" lon="0.25522">
        <ele>1735</ele>
        <time>2012-02-23T14:26:30Z</time>
      </trkpt>
      <trkpt lat="42.85864" lon="0.25526">
        <ele>1734</ele>
        <time>2012-02-23T14:26:33Z</time>
      </trkpt>
      <trkpt lat="42.8586" lon="0.2553">
        <ele>1732</ele>
        <time>2012-02-23T14:26:36Z</time>
      </trkpt>
      <trkpt lat="42.85854" lon="0.25528">
        <ele>1729</ele>
        <time>2012-02-23T14:26:39Z</time>
      </trkpt>
      <trkpt lat="42.85854" lon="0.25537">
        <ele>1727</ele>
        <time>2012-02-23T14:26:42Z</time>
      </trkpt>
      <trkpt lat="42.85859" lon="0.25544">
        <ele>1725</ele>
        <time>2012-02-23T14:26:45Z</time>
      </trkpt>
      <trkpt lat="42.85867" lon="0.25552">
        <ele>1723</ele>
        <time>2012-02-23T14:26:48Z</time>
      </trkpt>
      <trkpt lat="42.85871" lon="0.2556">
        <ele>1721</ele>
        <time>2012-02-23T14:26:51Z</time>
      </trkpt>
      <trkpt lat="42.85875" lon="0.25567">
        <ele>1720</ele>
        <time>2012-02-23T14:26:54Z</time>
      </trkpt>
      <trkpt lat="42.85876" lon="0.25565">
        <ele>1719</ele>
        <time>2012-02-23T14:27:01Z</time>
      </trkpt>
      <trkpt lat="42.85877" lon="0.25566">
        <ele>1717</ele>
        <time>2012-02-23T14:27:12Z</time>
      </trkpt>
      <trkpt lat="42.85881" lon="0.2557">
        <ele>1716</ele>
        <time>2012-02-23T14:27:15Z</time>
      </trkpt>
      <trkpt lat="42.85886" lon="0.25573">
        <ele>1714</ele>
        <time>2012-02-23T14:27:18Z</time>
      </trkpt>
      <trkpt lat="42.85896" lon="0.25578">
        <ele>1713</ele>
        <time>2012-02-23T14:27:21Z</time>
      </trkpt>
      <trkpt lat="42.85904" lon="0.2559">
        <ele>1712</ele>
        <time>2012-02-23T14:27:24Z</time>
      </trkpt>
      <trkpt lat="42.85909" lon="0.25598">
        <ele>1711</ele>
        <time>2012-02-23T14:27:27Z</time>
      </trkpt>
      <trkpt lat="42.85912" lon="0.25607">
        <ele>1710</ele>
        <time>2012-02-23T14:27:30Z</time>
      </trkpt>
      <trkpt lat="42.85917" lon="0.25616">
        <ele>1708</ele>
        <time>2012-02-23T14:27:33Z</time>
      </trkpt>
      <trkpt lat="42.8592" lon="0.25622">
        <ele>1707</ele>
        <time>2012-02-23T14:27:36Z</time>
      </trkpt>
      <trkpt lat="42.85916" lon="0.25627">
        <ele>1706</ele>
        <time>2012-02-23T14:27:39Z</time>
      </trkpt>
      <trkpt lat="42.85905" lon="0.2562">
        <ele>1704</ele>
        <time>2012-02-23T14:27:42Z</time>
      </trkpt>
      <trkpt lat="42.85896" lon="0.25613">
        <ele>1701</ele>
        <time>2012-02-23T14:27:45Z</time>
      </trkpt>
      <trkpt lat="42.85884" lon="0.25609">
        <ele>1698</ele>
        <time>2012-02-23T14:27:48Z</time>
      </trkpt>
      <trkpt lat="42.85878" lon="0.25616">
        <ele>1696</ele>
        <time>2012-02-23T14:27:51Z</time>
      </trkpt>
      <trkpt lat="42.85883" lon="0.25623">
        <ele>1694</ele>
        <time>2012-02-23T14:27:54Z</time>
      </trkpt>
      <trkpt lat="42.85888" lon="0.25632">
        <ele>1692</ele>
        <time>2012-02-23T14:27:57Z</time>
      </trkpt>
      <trkpt lat="42.85891" lon="0.25643">
        <ele>1690</ele>
        <time>2012-02-23T14:28:00Z</time>
      </trkpt>
      <trkpt lat="42.85894" lon="0.25653">
        <ele>1689</ele>
        <time>2012-02-23T14:28:03Z</time>
      </trkpt>
      <trkpt lat="42.85896" lon="0.25664">
        <ele>1687</ele>
        <time>2012-02-23T14:28:06Z</time>
      </trkpt>
      <trkpt lat="42.85898" lon="0.2568">
        <ele>1685</ele>
        <time>2012-02-23T14:28:09Z</time>
      </trkpt>
      <trkpt lat="42.85902" lon="0.25694">
        <ele>1683</ele>
        <time>2012-02-23T14:28:12Z</time>
      </trkpt>
      <trkpt lat="42.85903" lon="0.2571">
        <ele>1682</ele>
        <time>2012-02-23T14:28:15Z</time>
      </trkpt>
      <trkpt lat="42.85907" lon="0.25722">
        <ele>1680</ele>
        <time>2012-02-23T14:28:18Z</time>
      </trkpt>
      <trkpt lat="42.8591" lon="0.25727">
        <ele>1678</ele>
        <time>2012-02-23T14:28:21Z</time>
      </trkpt>
      <trkpt lat="42.85909" lon="0.25728">
        <ele>1678</ele>
        <time>2012-02-23T14:28:33Z</time>
      </trkpt>
      <trkpt lat="42.85909" lon="0.25733">
        <ele>1678</ele>
        <time>2012-02-23T14:28:57Z</time>
      </trkpt>
      <trkpt lat="42.85908" lon="0.25735">
        <ele>1680</ele>
        <time>2012-02-23T14:29:01Z</time>
      </trkpt>
      <trkpt lat="42.85908" lon="0.25734">
        <ele>1683</ele>
        <time>2012-02-23T14:29:05Z</time>
      </trkpt>
      <trkpt lat="42.85908" lon="0.2573">
        <ele>1683</ele>
        <time>2012-02-23T14:29:10Z</time>
      </trkpt>
      <trkpt lat="42.85908" lon="0.25728">
        <ele>1680</ele>
        <time>2012-02-23T14:29:13Z</time>
      </trkpt>
      <trkpt lat="42.85908" lon="0.25727">
        <ele>1676</ele>
        <time>2012-02-23T14:29:23Z</time>
      </trkpt>
      <trkpt lat="42.85909" lon="0.25725">
        <ele>1675</ele>
        <time>2012-02-23T14:29:27Z</time>
      </trkpt>
      <trkpt lat="42.8591" lon="0.25723">
        <ele>1674</ele>
        <time>2012-02-23T14:29:30Z</time>
      </trkpt>
      <trkpt lat="42.8591" lon="0.25721">
        <ele>1672</ele>
        <time>2012-02-23T14:29:34Z</time>
      </trkpt>
      <trkpt lat="42.85911" lon="0.2572">
        <ele>1671</ele>
        <time>2012-02-23T14:29:38Z</time>
      </trkpt>
      <trkpt lat="42.85911" lon="0.25718">
        <ele>1669</ele>
        <time>2012-02-23T14:29:43Z</time>
      </trkpt>
      <trkpt lat="42.85911" lon="0.2572">
        <ele>1668</ele>
        <time>2012-02-23T14:29:55Z</time>
      </trkpt>
      <trkpt lat="42.85911" lon="0.25722">
        <ele>1668</ele>
        <time>2012-02-23T14:30:00Z</time>
      </trkpt>
      <trkpt lat="42.85911" lon="0.25723">
        <ele>1668</ele>
        <time>2012-02-23T14:30:03Z</time>
      </trkpt>
      <trkpt lat="42.85911" lon="0.25725">
        <ele>1668</ele>
        <time>2012-02-23T14:30:06Z</time>
      </trkpt>
      <trkpt lat="42.85912" lon="0.25726">
        <ele>1668</ele>
        <time>2012-02-23T14:30:39Z</time>
      </trkpt>
      <trkpt lat="42.85912" lon="0.25728">
        <ele>1669</ele>
        <time>2012-02-23T14:30:44Z</time>
      </trkpt>
      <trkpt lat="42.85912" lon="0.25726">
        <ele>1670</ele>
        <time>2012-02-23T14:31:00Z</time>
      </trkpt>
      <trkpt lat="42.85913" lon="0.25725">
        <ele>1670</ele>
        <time>2012-02-23T14:31:18Z</time>
      </trkpt>
      <trkpt lat="42.85913" lon="0.25723">
        <ele>1670</ele>
        <time>2012-02-23T14:31:22Z</time>
      </trkpt>
      <trkpt lat="42.85913" lon="0.25722">
        <ele>1670</ele>
        <time>2012-02-23T14:31:26Z</time>
      </trkpt>
      <trkpt lat="42.85912" lon="0.25723">
        <ele>1670</ele>
        <time>2012-02-23T14:31:35Z</time>
      </trkpt>
      <trkpt lat="42.85913" lon="0.25725">
        <ele>1670</ele>
        <time>2012-02-23T14:32:01Z</time>
      </trkpt>
      <trkpt lat="42.85912" lon="0.25726">
        <ele>1670</ele>
        <time>2012-02-23T14:32:19Z</time>
      </trkpt>
      <trkpt lat="42.85912" lon="0.25724">
        <ele>1670</ele>
        <time>2012-02-23T14:32:35Z</time>
      </trkpt>
      <trkpt lat="42.85912" lon="0.25723">
        <ele>1670</ele>
        <time>2012-02-23T14:32:38Z</time>
      </trkpt>
      <trkpt lat="42.85912" lon="0.25721">
        <ele>1670</ele>
        <time>2012-02-23T14:32:43Z</time>
      </trkpt>
      <trkpt lat="42.85912" lon="0.2572">
        <ele>1668</ele>
        <time>2012-02-23T14:32:54Z</time>
      </trkpt>
      <trkpt lat="42.85914" lon="0.25721">
        <ele>1666</ele>
        <time>2012-02-23T14:33:05Z</time>
      </trkpt>
      <trkpt lat="42.85916" lon="0.2573">
        <ele>1665</ele>
        <time>2012-02-23T14:33:08Z</time>
      </trkpt>
      <trkpt lat="42.85917" lon="0.25741">
        <ele>1665</ele>
        <time>2012-02-23T14:33:11Z</time>
      </trkpt>
      <trkpt lat="42.85918" lon="0.25749">
        <ele>1664</ele>
        <time>2012-02-23T14:33:14Z</time>
      </trkpt>
      <trkpt lat="42.8592" lon="0.25755">
        <ele>1664</ele>
        <time>2012-02-23T14:33:17Z</time>
      </trkpt>
      <trkpt lat="42.85921" lon="0.2576">
        <ele>1663</ele>
        <time>2012-02-23T14:33:20Z</time>
      </trkpt>
      <trkpt lat="42.85923" lon="0.25766">
        <ele>1663</ele>
        <time>2012-02-23T14:33:23Z</time>
      </trkpt>
      <trkpt lat="42.85926" lon="0.25773">
        <ele>1662</ele>
        <time>2012-02-23T14:33:26Z</time>
      </trkpt>
      <trkpt lat="42.8593" lon="0.25785">
        <ele>1661</ele>
        <time>2012-02-23T14:33:29Z</time>
      </trkpt>
      <trkpt lat="42.85935" lon="0.25796">
        <ele>1660</ele>
        <time>2012-02-23T14:33:32Z</time>
      </trkpt>
      <trkpt lat="42.85939" lon="0.25805">
        <ele>1660</ele>
        <time>2012-02-23T14:33:35Z</time>
      </trkpt>
      <trkpt lat="42.85943" lon="0.25816">
        <ele>1659</ele>
        <time>2012-02-23T14:33:38Z</time>
      </trkpt>
      <trkpt lat="42.85947" lon="0.25827">
        <ele>1657</ele>
        <time>2012-02-23T14:33:41Z</time>
      </trkpt>
      <trkpt lat="42.85954" lon="0.25848">
        <ele>1655</ele>
        <time>2012-02-23T14:33:44Z</time>
      </trkpt>
      <trkpt lat="42.8596" lon="0.25873">
        <ele>1652</ele>
        <time>2012-02-23T14:33:47Z</time>
      </trkpt>
      <trkpt lat="42.85963" lon="0.25891">
        <ele>1649</ele>
        <time>2012-02-23T14:33:50Z</time>
      </trkpt>
      <trkpt lat="42.85964" lon="0.25904">
        <ele>1648</ele>
        <time>2012-02-23T14:33:53Z</time>
      </trkpt>
      <trkpt lat="42.85965" lon="0.25918">
        <ele>1646</ele>
        <time>2012-02-23T14:33:56Z</time>
      </trkpt>
      <trkpt lat="42.85965" lon="0.25932">
        <ele>1644</ele>
        <time>2012-02-23T14:33:59Z</time>
      </trkpt>
      <trkpt lat="42.85966" lon="0.25943">
        <ele>1643</ele>
        <time>2012-02-23T14:34:02Z</time>
      </trkpt>
      <trkpt lat="42.85968" lon="0.25957">
        <ele>1642</ele>
        <time>2012-02-23T14:34:05Z</time>
      </trkpt>
      <trkpt lat="42.85959" lon="0.25965">
        <ele>1641</ele>
        <time>2012-02-23T14:34:08Z</time>
      </trkpt>
      <trkpt lat="42.8595" lon="0.25955">
        <ele>1640</ele>
        <time>2012-02-23T14:34:11Z</time>
      </trkpt>
      <trkpt lat="42.85941" lon="0.25953">
        <ele>1639</ele>
        <time>2012-02-23T14:34:14Z</time>
      </trkpt>
      <trkpt lat="42.8594" lon="0.25964">
        <ele>1638</ele>
        <time>2012-02-23T14:34:17Z</time>
      </trkpt>
      <trkpt lat="42.85934" lon="0.25974">
        <ele>1636</ele>
        <time>2012-02-23T14:34:20Z</time>
      </trkpt>
      <trkpt lat="42.85925" lon="0.25965">
        <ele>1634</ele>
        <time>2012-02-23T14:34:23Z</time>
      </trkpt>
      <trkpt lat="42.85914" lon="0.2596">
        <ele>1631</ele>
        <time>2012-02-23T14:34:26Z</time>
      </trkpt>
      <trkpt lat="42.85913" lon="0.25975">
        <ele>1629</ele>
        <time>2012-02-23T14:34:29Z</time>
      </trkpt>
      <trkpt lat="42.85914" lon="0.25989">
        <ele>1627</ele>
        <time>2012-02-23T14:34:32Z</time>
      </trkpt>
      <trkpt lat="42.85913" lon="0.25999">
        <ele>1625</ele>
        <time>2012-02-23T14:34:35Z</time>
      </trkpt>
      <trkpt lat="42.85912" lon="0.26005">
        <ele>1625</ele>
        <time>2012-02-23T14:34:38Z</time>
      </trkpt>
      <trkpt lat="42.8591" lon="0.26011">
        <ele>1625</ele>
        <time>2012-02-23T14:34:41Z</time>
      </trkpt>
      <trkpt lat="42.85909" lon="0.26016">
        <ele>1625</ele>
        <time>2012-02-23T14:34:45Z</time>
      </trkpt>
      <trkpt lat="42.85907" lon="0.26022">
        <ele>1625</ele>
        <time>2012-02-23T14:34:48Z</time>
      </trkpt>
      <trkpt lat="42.85904" lon="0.26031">
        <ele>1625</ele>
        <time>2012-02-23T14:34:51Z</time>
      </trkpt>
      <trkpt lat="42.85904" lon="0.26041">
        <ele>1624</ele>
        <time>2012-02-23T14:34:54Z</time>
      </trkpt>
      <trkpt lat="42.85902" lon="0.26051">
        <ele>1624</ele>
        <time>2012-02-23T14:34:57Z</time>
      </trkpt>
      <trkpt lat="42.85899" lon="0.26055">
        <ele>1624</ele>
        <time>2012-02-23T14:35:00Z</time>
      </trkpt>
      <trkpt lat="42.85896" lon="0.26052">
        <ele>1624</ele>
        <time>2012-02-23T14:35:03Z</time>
      </trkpt>
      <trkpt lat="42.85896" lon="0.26045">
        <ele>1624</ele>
        <time>2012-02-23T14:35:07Z</time>
      </trkpt>
      <trkpt lat="42.85895" lon="0.26042">
        <ele>1624</ele>
        <time>2012-02-23T14:35:10Z</time>
      </trkpt>
      <trkpt lat="42.85891" lon="0.26039">
        <ele>1623</ele>
        <time>2012-02-23T14:35:14Z</time>
      </trkpt>
      <trkpt lat="42.85886" lon="0.26036">
        <ele>1622</ele>
        <time>2012-02-23T14:35:17Z</time>
      </trkpt>
      <trkpt lat="42.85882" lon="0.26042">
        <ele>1620</ele>
        <time>2012-02-23T14:35:21Z</time>
      </trkpt>
      <trkpt lat="42.8588" lon="0.26048">
        <ele>1619</ele>
        <time>2012-02-23T14:35:24Z</time>
      </trkpt>
      <trkpt lat="42.85879" lon="0.26053">
        <ele>1616</ele>
        <time>2012-02-23T14:35:31Z</time>
      </trkpt>
      <trkpt lat="42.85879" lon="0.26054">
        <ele>1613</ele>
        <time>2012-02-23T14:35:56Z</time>
      </trkpt>
      <trkpt lat="42.85878" lon="0.26057">
        <ele>1613</ele>
        <time>2012-02-23T14:36:02Z</time>
      </trkpt>
      <trkpt lat="42.85876" lon="0.26057">
        <ele>1613</ele>
        <time>2012-02-23T14:36:05Z</time>
      </trkpt>
      <trkpt lat="42.85875" lon="0.26059">
        <ele>1610</ele>
        <time>2012-02-23T14:36:19Z</time>
      </trkpt>
      <trkpt lat="42.85877" lon="0.26059">
        <ele>1610</ele>
        <time>2012-02-23T14:36:24Z</time>
      </trkpt>
      <trkpt lat="42.85878" lon="0.26061">
        <ele>1610</ele>
        <time>2012-02-23T14:36:27Z</time>
      </trkpt>
      <trkpt lat="42.85878" lon="0.26063">
        <ele>1610</ele>
        <time>2012-02-23T14:36:34Z</time>
      </trkpt>
      <trkpt lat="42.85878" lon="0.26064">
        <ele>1610</ele>
        <time>2012-02-23T14:36:40Z</time>
      </trkpt>
      <trkpt lat="42.85879" lon="0.26066">
        <ele>1610</ele>
        <time>2012-02-23T14:36:43Z</time>
      </trkpt>
      <trkpt lat="42.8588" lon="0.26069">
        <ele>1610</ele>
        <time>2012-02-23T14:36:47Z</time>
      </trkpt>
      <trkpt lat="42.85879" lon="0.26072">
        <ele>1610</ele>
        <time>2012-02-23T14:36:51Z</time>
      </trkpt>
      <trkpt lat="42.85877" lon="0.26074">
        <ele>1610</ele>
        <time>2012-02-23T14:37:06Z</time>
      </trkpt>
      <trkpt lat="42.85874" lon="0.26075">
        <ele>1612</ele>
        <time>2012-02-23T14:37:11Z</time>
      </trkpt>
      <trkpt lat="42.85873" lon="0.26075">
        <ele>1613</ele>
        <time>2012-02-23T14:37:16Z</time>
      </trkpt>
      <trkpt lat="42.8587" lon="0.26077">
        <ele>1614</ele>
        <time>2012-02-23T14:37:20Z</time>
      </trkpt>
      <trkpt lat="42.85868" lon="0.26079">
        <ele>1615</ele>
        <time>2012-02-23T14:37:24Z</time>
      </trkpt>
      <trkpt lat="42.85866" lon="0.26083">
        <ele>1615</ele>
        <time>2012-02-23T14:37:29Z</time>
      </trkpt>
      <trkpt lat="42.85865" lon="0.26085">
        <ele>1615</ele>
        <time>2012-02-23T14:37:32Z</time>
      </trkpt>
      <trkpt lat="42.85864" lon="0.26087">
        <ele>1615</ele>
        <time>2012-02-23T14:37:35Z</time>
      </trkpt>
      <trkpt lat="42.85862" lon="0.2609">
        <ele>1615</ele>
        <time>2012-02-23T14:37:40Z</time>
      </trkpt>
      <trkpt lat="42.8586" lon="0.26093">
        <ele>1615</ele>
        <time>2012-02-23T14:37:48Z</time>
      </trkpt>
      <trkpt lat="42.8586" lon="0.26095">
        <ele>1615</ele>
        <time>2012-02-23T14:38:05Z</time>
      </trkpt>
      <trkpt lat="42.8586" lon="0.26096">
        <ele>1615</ele>
        <time>2012-02-23T14:38:12Z</time>
      </trkpt>
      <trkpt lat="42.85857" lon="0.26101">
        <ele>1615</ele>
        <time>2012-02-23T14:38:16Z</time>
      </trkpt>
      <trkpt lat="42.85855" lon="0.26104">
        <ele>1616</ele>
        <time>2012-02-23T14:38:21Z</time>
      </trkpt>
      <trkpt lat="42.85855" lon="0.26106">
        <ele>1617</ele>
        <time>2012-02-23T14:38:25Z</time>
      </trkpt>
      <trkpt lat="42.85852" lon="0.26109">
        <ele>1617</ele>
        <time>2012-02-23T14:38:30Z</time>
      </trkpt>
      <trkpt lat="42.85851" lon="0.26111">
        <ele>1617</ele>
        <time>2012-02-23T14:38:33Z</time>
      </trkpt>
      <trkpt lat="42.8585" lon="0.26113">
        <ele>1617</ele>
        <time>2012-02-23T14:38:36Z</time>
      </trkpt>
      <trkpt lat="42.85849" lon="0.26116">
        <ele>1617</ele>
        <time>2012-02-23T14:38:40Z</time>
      </trkpt>
      <trkpt lat="42.85847" lon="0.26119">
        <ele>1617</ele>
        <time>2012-02-23T14:38:45Z</time>
      </trkpt>
      <trkpt lat="42.85846" lon="0.26122">
        <ele>1617</ele>
        <time>2012-02-23T14:38:51Z</time>
      </trkpt>
      <trkpt lat="42.85845" lon="0.26125">
        <ele>1617</ele>
        <time>2012-02-23T14:38:55Z</time>
      </trkpt>
      <trkpt lat="42.85843" lon="0.26129">
        <ele>1617</ele>
        <time>2012-02-23T14:38:59Z</time>
      </trkpt>
      <trkpt lat="42.85842" lon="0.26133">
        <ele>1617</ele>
        <time>2012-02-23T14:39:04Z</time>
      </trkpt>
      <trkpt lat="42.85841" lon="0.26136">
        <ele>1616</ele>
        <time>2012-02-23T14:39:09Z</time>
      </trkpt>
      <trkpt lat="42.85841" lon="0.26139">
        <ele>1615</ele>
        <time>2012-02-23T14:39:13Z</time>
      </trkpt>
      <trkpt lat="42.85841" lon="0.26142">
        <ele>1615</ele>
        <time>2012-02-23T14:39:18Z</time>
      </trkpt>
      <trkpt lat="42.8584" lon="0.26144">
        <ele>1615</ele>
        <time>2012-02-23T14:39:21Z</time>
      </trkpt>
      <trkpt lat="42.85839" lon="0.26146">
        <ele>1615</ele>
        <time>2012-02-23T14:39:32Z</time>
      </trkpt>
      <trkpt lat="42.85839" lon="0.26144">
        <ele>1615</ele>
        <time>2012-02-23T14:39:39Z</time>
      </trkpt>
      <trkpt lat="42.8584" lon="0.26142">
        <ele>1615</ele>
        <time>2012-02-23T14:39:42Z</time>
      </trkpt>
      <trkpt lat="42.85841" lon="0.26143">
        <ele>1614</ele>
        <time>2012-02-23T14:39:56Z</time>
      </trkpt>
      <trkpt lat="42.85842" lon="0.26144">
        <ele>1614</ele>
        <time>2012-02-23T14:40:01Z</time>
      </trkpt>
      <trkpt lat="42.85842" lon="0.26146">
        <ele>1614</ele>
        <time>2012-02-23T14:40:11Z</time>
      </trkpt>
      <trkpt lat="42.8584" lon="0.26149">
        <ele>1614</ele>
        <time>2012-02-23T14:40:15Z</time>
      </trkpt>
      <trkpt lat="42.85839" lon="0.26152">
        <ele>1614</ele>
        <time>2012-02-23T14:40:20Z</time>
      </trkpt>
      <trkpt lat="42.85838" lon="0.26156">
        <ele>1614</ele>
        <time>2012-02-23T14:40:24Z</time>
      </trkpt>
      <trkpt lat="42.85838" lon="0.2616">
        <ele>1613</ele>
        <time>2012-02-23T14:40:28Z</time>
      </trkpt>
      <trkpt lat="42.85838" lon="0.26163">
        <ele>1612</ele>
        <time>2012-02-23T14:40:34Z</time>
      </trkpt>
      <trkpt lat="42.85836" lon="0.26166">
        <ele>1611</ele>
        <time>2012-02-23T14:40:39Z</time>
      </trkpt>
      <trkpt lat="42.85835" lon="0.26169">
        <ele>1609</ele>
        <time>2012-02-23T14:40:48Z</time>
      </trkpt>
      <trkpt lat="42.85833" lon="0.26173">
        <ele>1609</ele>
        <time>2012-02-23T14:40:52Z</time>
      </trkpt>
      <trkpt lat="42.85833" lon="0.26176">
        <ele>1608</ele>
        <time>2012-02-23T14:40:58Z</time>
      </trkpt>
      <trkpt lat="42.85832" lon="0.26178">
        <ele>1608</ele>
        <time>2012-02-23T14:41:01Z</time>
      </trkpt>
      <trkpt lat="42.85831" lon="0.26179">
        <ele>1608</ele>
        <time>2012-02-23T14:41:04Z</time>
      </trkpt>
      <trkpt lat="42.85829" lon="0.26181">
        <ele>1608</ele>
        <time>2012-02-23T14:41:09Z</time>
      </trkpt>
      <trkpt lat="42.85826" lon="0.26183">
        <ele>1608</ele>
        <time>2012-02-23T14:41:16Z</time>
      </trkpt>
      <trkpt lat="42.85826" lon="0.26185">
        <ele>1608</ele>
        <time>2012-02-23T14:41:19Z</time>
      </trkpt>
      <trkpt lat="42.85827" lon="0.2619">
        <ele>1608</ele>
        <time>2012-02-23T14:41:25Z</time>
      </trkpt>
      <trkpt lat="42.85825" lon="0.26194">
        <ele>1608</ele>
        <time>2012-02-23T14:41:29Z</time>
      </trkpt>
      <trkpt lat="42.85823" lon="0.26198">
        <ele>1608</ele>
        <time>2012-02-23T14:41:33Z</time>
      </trkpt>
      <trkpt lat="42.85824" lon="0.26199">
        <ele>1608</ele>
        <time>2012-02-23T14:41:38Z</time>
      </trkpt>
      <trkpt lat="42.85822" lon="0.26204">
        <ele>1608</ele>
        <time>2012-02-23T14:41:42Z</time>
      </trkpt>
      <trkpt lat="42.8582" lon="0.26209">
        <ele>1608</ele>
        <time>2012-02-23T14:41:45Z</time>
      </trkpt>
      <trkpt lat="42.85817" lon="0.26212">
        <ele>1608</ele>
        <time>2012-02-23T14:41:48Z</time>
      </trkpt>
      <trkpt lat="42.85817" lon="0.26217">
        <ele>1608</ele>
        <time>2012-02-23T14:41:52Z</time>
      </trkpt>
      <trkpt lat="42.85816" lon="0.2622">
        <ele>1608</ele>
        <time>2012-02-23T14:41:55Z</time>
      </trkpt>
      <trkpt lat="42.85815" lon="0.26222">
        <ele>1606</ele>
        <time>2012-02-23T14:41:58Z</time>
      </trkpt>
      <trkpt lat="42.85815" lon="0.26226">
        <ele>1605</ele>
        <time>2012-02-23T14:42:02Z</time>
      </trkpt>
      <trkpt lat="42.85815" lon="0.26229">
        <ele>1604</ele>
        <time>2012-02-23T14:42:06Z</time>
      </trkpt>
      <trkpt lat="42.85814" lon="0.26233">
        <ele>1603</ele>
        <time>2012-02-23T14:42:10Z</time>
      </trkpt>
      <trkpt lat="42.85814" lon="0.26236">
        <ele>1602</ele>
        <time>2012-02-23T14:42:14Z</time>
      </trkpt>
      <trkpt lat="42.85814" lon="0.26239">
        <ele>1600</ele>
        <time>2012-02-23T14:42:18Z</time>
      </trkpt>
      <trkpt lat="42.85813" lon="0.26243">
        <ele>1598</ele>
        <time>2012-02-23T14:42:22Z</time>
      </trkpt>
      <trkpt lat="42.85812" lon="0.26244">
        <ele>1597</ele>
        <time>2012-02-23T14:42:25Z</time>
      </trkpt>
      <trkpt lat="42.85813" lon="0.26248">
        <ele>1597</ele>
        <time>2012-02-23T14:42:31Z</time>
      </trkpt>
      <trkpt lat="42.85813" lon="0.26251">
        <ele>1597</ele>
        <time>2012-02-23T14:42:36Z</time>
      </trkpt>
      <trkpt lat="42.85814" lon="0.26253">
        <ele>1597</ele>
        <time>2012-02-23T14:42:41Z</time>
      </trkpt>
      <trkpt lat="42.85816" lon="0.26257">
        <ele>1596</ele>
        <time>2012-02-23T14:42:46Z</time>
      </trkpt>
      <trkpt lat="42.85816" lon="0.2626">
        <ele>1596</ele>
        <time>2012-02-23T14:42:50Z</time>
      </trkpt>
      <trkpt lat="42.85817" lon="0.26263">
        <ele>1596</ele>
        <time>2012-02-23T14:42:55Z</time>
      </trkpt>
      <trkpt lat="42.85816" lon="0.26267">
        <ele>1596</ele>
        <time>2012-02-23T14:42:58Z</time>
      </trkpt>
      <trkpt lat="42.85814" lon="0.26273">
        <ele>1596</ele>
        <time>2012-02-23T14:43:01Z</time>
      </trkpt>
      <trkpt lat="42.85814" lon="0.26276">
        <ele>1599</ele>
        <time>2012-02-23T14:43:06Z</time>
      </trkpt>
      <trkpt lat="42.85814" lon="0.26278">
        <ele>1601</ele>
        <time>2012-02-23T14:43:10Z</time>
      </trkpt>
      <trkpt lat="42.85814" lon="0.2628">
        <ele>1602</ele>
        <time>2012-02-23T14:43:13Z</time>
      </trkpt>
      <trkpt lat="42.85814" lon="0.26281">
        <ele>1602</ele>
        <time>2012-02-23T14:43:16Z</time>
      </trkpt>
      <trkpt lat="42.85813" lon="0.26285">
        <ele>1602</ele>
        <time>2012-02-23T14:43:19Z</time>
      </trkpt>
      <trkpt lat="42.85814" lon="0.26289">
        <ele>1602</ele>
        <time>2012-02-23T14:43:23Z</time>
      </trkpt>
      <trkpt lat="42.85814" lon="0.26291">
        <ele>1602</ele>
        <time>2012-02-23T14:43:27Z</time>
      </trkpt>
      <trkpt lat="42.85814" lon="0.26294">
        <ele>1602</ele>
        <time>2012-02-23T14:43:31Z</time>
      </trkpt>
      <trkpt lat="42.85814" lon="0.26296">
        <ele>1602</ele>
        <time>2012-02-23T14:43:34Z</time>
      </trkpt>
      <trkpt lat="42.85813" lon="0.26297">
        <ele>1602</ele>
        <time>2012-02-23T14:43:38Z</time>
      </trkpt>
      <trkpt lat="42.85813" lon="0.263">
        <ele>1602</ele>
        <time>2012-02-23T14:43:41Z</time>
      </trkpt>
      <trkpt lat="42.85812" lon="0.26302">
        <ele>1602</ele>
        <time>2012-02-23T14:43:44Z</time>
      </trkpt>
      <trkpt lat="42.85809" lon="0.26307">
        <ele>1602</ele>
        <time>2012-02-23T14:43:48Z</time>
      </trkpt>
      <trkpt lat="42.85808" lon="0.26308">
        <ele>1602</ele>
        <time>2012-02-23T14:43:52Z</time>
      </trkpt>
      <trkpt lat="42.85807" lon="0.26309">
        <ele>1602</ele>
        <time>2012-02-23T14:43:55Z</time>
      </trkpt>
      <trkpt lat="42.85806" lon="0.26311">
        <ele>1602</ele>
        <time>2012-02-23T14:44:00Z</time>
      </trkpt>
      <trkpt lat="42.85805" lon="0.26314">
        <ele>1602</ele>
        <time>2012-02-23T14:44:03Z</time>
      </trkpt>
      <trkpt lat="42.85804" lon="0.26318">
        <ele>1602</ele>
        <time>2012-02-23T14:44:08Z</time>
      </trkpt>
      <trkpt lat="42.85804" lon="0.26319">
        <ele>1602</ele>
        <time>2012-02-23T14:44:12Z</time>
      </trkpt>
      <trkpt lat="42.85802" lon="0.26321">
        <ele>1602</ele>
        <time>2012-02-23T14:44:20Z</time>
      </trkpt>
      <trkpt lat="42.85802" lon="0.26319">
        <ele>1602</ele>
        <time>2012-02-23T14:44:40Z</time>
      </trkpt>
      <trkpt lat="42.85803" lon="0.26319">
        <ele>1602</ele>
        <time>2012-02-23T14:44:48Z</time>
      </trkpt>
      <trkpt lat="42.85802" lon="0.26319">
        <ele>1602</ele>
        <time>2012-02-23T14:45:01Z</time>
      </trkpt>
      <trkpt lat="42.85801" lon="0.26318">
        <ele>1602</ele>
        <time>2012-02-23T14:45:04Z</time>
      </trkpt>
      <trkpt lat="42.85802" lon="0.26318">
        <ele>1602</ele>
        <time>2012-02-23T14:45:11Z</time>
      </trkpt>
      <trkpt lat="42.85806" lon="0.26317">
        <ele>1602</ele>
        <time>2012-02-23T14:45:15Z</time>
      </trkpt>
      <trkpt lat="42.85807" lon="0.26318">
        <ele>1602</ele>
        <time>2012-02-23T14:45:18Z</time>
      </trkpt>
      <trkpt lat="42.85806" lon="0.2632">
        <ele>1607</ele>
        <time>2012-02-23T14:45:55Z</time>
      </trkpt>
      <trkpt lat="42.85807" lon="0.26322">
        <ele>1607</ele>
        <time>2012-02-23T14:45:59Z</time>
      </trkpt>
      <trkpt lat="42.85806" lon="0.26322">
        <ele>1607</ele>
        <time>2012-02-23T14:46:11Z</time>
      </trkpt>
      <trkpt lat="42.85805" lon="0.2632">
        <ele>1607</ele>
        <time>2012-02-23T14:46:17Z</time>
      </trkpt>
      <trkpt lat="42.85804" lon="0.26322">
        <ele>1608</ele>
        <time>2012-02-23T14:46:32Z</time>
      </trkpt>
      <trkpt lat="42.85803" lon="0.26323">
        <ele>1608</ele>
        <time>2012-02-23T14:46:35Z</time>
      </trkpt>
      <trkpt lat="42.85805" lon="0.26323">
        <ele>1608</ele>
        <time>2012-02-23T14:46:44Z</time>
      </trkpt>
      <trkpt lat="42.85803" lon="0.26322">
        <ele>1608</ele>
        <time>2012-02-23T14:46:50Z</time>
      </trkpt>
      <trkpt lat="42.85802" lon="0.26321">
        <ele>1609</ele>
        <time>2012-02-23T14:46:57Z</time>
      </trkpt>
      <trkpt lat="42.85803" lon="0.26319">
        <ele>1609</ele>
        <time>2012-02-23T14:47:01Z</time>
      </trkpt>
      <trkpt lat="42.85802" lon="0.26319">
        <ele>1609</ele>
        <time>2012-02-23T14:47:05Z</time>
      </trkpt>
      <trkpt lat="42.85803" lon="0.2632">
        <ele>1610</ele>
        <time>2012-02-23T14:47:11Z</time>
      </trkpt>
      <trkpt lat="42.85804" lon="0.26319">
        <ele>1611</ele>
        <time>2012-02-23T14:47:27Z</time>
      </trkpt>
      <trkpt lat="42.85805" lon="0.26318">
        <ele>1611</ele>
        <time>2012-02-23T14:47:38Z</time>
      </trkpt>
      <trkpt lat="42.85806" lon="0.26317">
        <ele>1606</ele>
        <time>2012-02-23T14:48:00Z</time>
      </trkpt>
      <trkpt lat="42.85806" lon="0.26315">
        <ele>1606</ele>
        <time>2012-02-23T14:48:04Z</time>
      </trkpt>
      <trkpt lat="42.85806" lon="0.26317">
        <ele>1606</ele>
        <time>2012-02-23T14:48:07Z</time>
      </trkpt>
      <trkpt lat="42.85807" lon="0.26316">
        <ele>1606</ele>
        <time>2012-02-23T14:48:12Z</time>
      </trkpt>
      <trkpt lat="42.85806" lon="0.2632">
        <ele>1606</ele>
        <time>2012-02-23T14:48:17Z</time>
      </trkpt>
      <trkpt lat="42.85805" lon="0.2632">
        <ele>1609</ele>
        <time>2012-02-23T14:48:37Z</time>
      </trkpt>
      <trkpt lat="42.85805" lon="0.26318">
        <ele>1613</ele>
        <time>2012-02-23T14:48:56Z</time>
      </trkpt>
      <trkpt lat="42.85804" lon="0.26318">
        <ele>1615</ele>
        <time>2012-02-23T14:49:07Z</time>
      </trkpt>
      <trkpt lat="42.85803" lon="0.2632">
        <ele>1616</ele>
        <time>2012-02-23T14:49:12Z</time>
      </trkpt>
      <trkpt lat="42.85802" lon="0.26318">
        <ele>1617</ele>
        <time>2012-02-23T14:49:30Z</time>
      </trkpt>
      <trkpt lat="42.85803" lon="0.2632">
        <ele>1617</ele>
        <time>2012-02-23T14:49:57Z</time>
      </trkpt>
      <trkpt lat="42.85802" lon="0.26323">
        <ele>1615</ele>
        <time>2012-02-23T14:50:00Z</time>
      </trkpt>
      <trkpt lat="42.858" lon="0.26327">
        <ele>1612</ele>
        <time>2012-02-23T14:50:09Z</time>
      </trkpt>
      <trkpt lat="42.85796" lon="0.26337">
        <ele>1611</ele>
        <time>2012-02-23T14:50:12Z</time>
      </trkpt>
      <trkpt lat="42.85793" lon="0.26349">
        <ele>1609</ele>
        <time>2012-02-23T14:50:15Z</time>
      </trkpt>
      <trkpt lat="42.85792" lon="0.26355">
        <ele>1606</ele>
        <time>2012-02-23T14:50:22Z</time>
      </trkpt>
      <trkpt lat="42.85788" lon="0.26365">
        <ele>1605</ele>
        <time>2012-02-23T14:50:25Z</time>
      </trkpt>
      <trkpt lat="42.85787" lon="0.26371">
        <ele>1602</ele>
        <time>2012-02-23T14:50:33Z</time>
      </trkpt>
      <trkpt lat="42.85786" lon="0.26379">
        <ele>1602</ele>
        <time>2012-02-23T14:50:36Z</time>
      </trkpt>
      <trkpt lat="42.85785" lon="0.26383">
        <ele>1601</ele>
        <time>2012-02-23T14:50:39Z</time>
      </trkpt>
      <trkpt lat="42.85785" lon="0.26391">
        <ele>1600</ele>
        <time>2012-02-23T14:50:43Z</time>
      </trkpt>
      <trkpt lat="42.85783" lon="0.2639">
        <ele>1600</ele>
        <time>2012-02-23T14:50:48Z</time>
      </trkpt>
      <trkpt lat="42.85783" lon="0.26388">
        <ele>1600</ele>
        <time>2012-02-23T14:50:53Z</time>
      </trkpt>
      <trkpt lat="42.85784" lon="0.26387">
        <ele>1599</ele>
        <time>2012-02-23T14:50:58Z</time>
      </trkpt>
      <trkpt lat="42.85784" lon="0.26385">
        <ele>1598</ele>
        <time>2012-02-23T14:51:03Z</time>
      </trkpt>
      <trkpt lat="42.85783" lon="0.26387">
        <ele>1597</ele>
        <time>2012-02-23T14:51:07Z</time>
      </trkpt>
      <trkpt lat="42.85782" lon="0.26389">
        <ele>1596</ele>
        <time>2012-02-23T14:51:10Z</time>
      </trkpt>
      <trkpt lat="42.8578" lon="0.26397">
        <ele>1596</ele>
        <time>2012-02-23T14:51:13Z</time>
      </trkpt>
      <trkpt lat="42.85776" lon="0.26415">
        <ele>1594</ele>
        <time>2012-02-23T14:51:17Z</time>
      </trkpt>
      <trkpt lat="42.85774" lon="0.26428">
        <ele>1593</ele>
        <time>2012-02-23T14:51:20Z</time>
      </trkpt>
      <trkpt lat="42.85772" lon="0.26443">
        <ele>1592</ele>
        <time>2012-02-23T14:51:24Z</time>
      </trkpt>
      <trkpt lat="42.85773" lon="0.26449">
        <ele>1592</ele>
        <time>2012-02-23T14:51:27Z</time>
      </trkpt>
      <trkpt lat="42.85772" lon="0.26456">
        <ele>1590</ele>
        <time>2012-02-23T14:51:30Z</time>
      </trkpt>
      <trkpt lat="42.85769" lon="0.26467">
        <ele>1586</ele>
        <time>2012-02-23T14:51:34Z</time>
      </trkpt>
      <trkpt lat="42.85768" lon="0.26478">
        <ele>1586</ele>
        <time>2012-02-23T14:51:37Z</time>
      </trkpt>
      <trkpt lat="42.85767" lon="0.26489">
        <ele>1586</ele>
        <time>2012-02-23T14:51:40Z</time>
      </trkpt>
      <trkpt lat="42.85766" lon="0.26509">
        <ele>1584</ele>
        <time>2012-02-23T14:51:44Z</time>
      </trkpt>
      <trkpt lat="42.85765" lon="0.26511">
        <ele>1584</ele>
        <time>2012-02-23T14:51:50Z</time>
      </trkpt>
      <trkpt lat="42.85764" lon="0.26512">
        <ele>1584</ele>
        <time>2012-02-23T14:51:55Z</time>
      </trkpt>
      <trkpt lat="42.85762" lon="0.26522">
        <ele>1583</ele>
        <time>2012-02-23T14:51:59Z</time>
      </trkpt>
      <trkpt lat="42.85758" lon="0.26531">
        <ele>1581</ele>
        <time>2012-02-23T14:52:02Z</time>
      </trkpt>
      <trkpt lat="42.85757" lon="0.26538">
        <ele>1579</ele>
        <time>2012-02-23T14:52:06Z</time>
      </trkpt>
      <trkpt lat="42.85757" lon="0.26541">
        <ele>1576</ele>
        <time>2012-02-23T14:52:12Z</time>
      </trkpt>
      <trkpt lat="42.85756" lon="0.26544">
        <ele>1576</ele>
        <time>2012-02-23T14:52:16Z</time>
      </trkpt>
      <trkpt lat="42.85757" lon="0.26545">
        <ele>1576</ele>
        <time>2012-02-23T14:52:22Z</time>
      </trkpt>
      <trkpt lat="42.85756" lon="0.26548">
        <ele>1576</ele>
        <time>2012-02-23T14:52:26Z</time>
      </trkpt>
      <trkpt lat="42.85757" lon="0.26551">
        <ele>1576</ele>
        <time>2012-02-23T14:52:34Z</time>
      </trkpt>
      <trkpt lat="42.85756" lon="0.26556">
        <ele>1576</ele>
        <time>2012-02-23T14:52:39Z</time>
      </trkpt>
      <trkpt lat="42.85756" lon="0.26559">
        <ele>1576</ele>
        <time>2012-02-23T14:52:43Z</time>
      </trkpt>
      <trkpt lat="42.85757" lon="0.26563">
        <ele>1575</ele>
        <time>2012-02-23T14:52:46Z</time>
      </trkpt>
      <trkpt lat="42.85757" lon="0.26566">
        <ele>1574</ele>
        <time>2012-02-23T14:52:51Z</time>
      </trkpt>
      <trkpt lat="42.85756" lon="0.2657">
        <ele>1574</ele>
        <time>2012-02-23T14:52:54Z</time>
      </trkpt>
      <trkpt lat="42.85753" lon="0.26577">
        <ele>1573</ele>
        <time>2012-02-23T14:52:57Z</time>
      </trkpt>
      <trkpt lat="42.85749" lon="0.26593">
        <ele>1570</ele>
        <time>2012-02-23T14:53:00Z</time>
      </trkpt>
      <trkpt lat="42.85747" lon="0.26608">
        <ele>1567</ele>
        <time>2012-02-23T14:53:03Z</time>
      </trkpt>
      <trkpt lat="42.85746" lon="0.26625">
        <ele>1565</ele>
        <time>2012-02-23T14:53:06Z</time>
      </trkpt>
      <trkpt lat="42.85744" lon="0.26651">
        <ele>1563</ele>
        <time>2012-02-23T14:53:10Z</time>
      </trkpt>
      <trkpt lat="42.85742" lon="0.26661">
        <ele>1563</ele>
        <time>2012-02-23T14:53:13Z</time>
      </trkpt>
      <trkpt lat="42.85737" lon="0.26664">
        <ele>1563</ele>
        <time>2012-02-23T14:53:16Z</time>
      </trkpt>
      <trkpt lat="42.85732" lon="0.26665">
        <ele>1563</ele>
        <time>2012-02-23T14:53:20Z</time>
      </trkpt>
      <trkpt lat="42.85733" lon="0.26663">
        <ele>1560</ele>
        <time>2012-02-23T14:53:35Z</time>
      </trkpt>
      <trkpt lat="42.85733" lon="0.26665">
        <ele>1558</ele>
        <time>2012-02-23T14:53:53Z</time>
      </trkpt>
      <trkpt lat="42.85732" lon="0.26674">
        <ele>1558</ele>
        <time>2012-02-23T14:53:57Z</time>
      </trkpt>
      <trkpt lat="42.8573" lon="0.26682">
        <ele>1558</ele>
        <time>2012-02-23T14:54:01Z</time>
      </trkpt>
      <trkpt lat="42.85727" lon="0.26688">
        <ele>1558</ele>
        <time>2012-02-23T14:54:04Z</time>
      </trkpt>
      <trkpt lat="42.85725" lon="0.26696">
        <ele>1558</ele>
        <time>2012-02-23T14:54:07Z</time>
      </trkpt>
      <trkpt lat="42.85722" lon="0.26704">
        <ele>1558</ele>
        <time>2012-02-23T14:54:10Z</time>
      </trkpt>
      <trkpt lat="42.85717" lon="0.26711">
        <ele>1558</ele>
        <time>2012-02-23T14:54:13Z</time>
      </trkpt>
      <trkpt lat="42.85712" lon="0.26723">
        <ele>1558</ele>
        <time>2012-02-23T14:54:17Z</time>
      </trkpt>
      <trkpt lat="42.85711" lon="0.26729">
        <ele>1558</ele>
        <time>2012-02-23T14:54:20Z</time>
      </trkpt>
      <trkpt lat="42.85711" lon="0.26737">
        <ele>1558</ele>
        <time>2012-02-23T14:54:23Z</time>
      </trkpt>
      <trkpt lat="42.85712" lon="0.26752">
        <ele>1557</ele>
        <time>2012-02-23T14:54:27Z</time>
      </trkpt>
      <trkpt lat="42.85704" lon="0.26754">
        <ele>1556</ele>
        <time>2012-02-23T14:54:30Z</time>
      </trkpt>
      <trkpt lat="42.85696" lon="0.26754">
        <ele>1555</ele>
        <time>2012-02-23T14:54:33Z</time>
      </trkpt>
      <trkpt lat="42.85695" lon="0.26772">
        <ele>1553</ele>
        <time>2012-02-23T14:54:36Z</time>
      </trkpt>
      <trkpt lat="42.85693" lon="0.26783">
        <ele>1551</ele>
        <time>2012-02-23T14:54:39Z</time>
      </trkpt>
      <trkpt lat="42.85685" lon="0.2679">
        <ele>1549</ele>
        <time>2012-02-23T14:54:42Z</time>
      </trkpt>
      <trkpt lat="42.85684" lon="0.26796">
        <ele>1546</ele>
        <time>2012-02-23T14:54:45Z</time>
      </trkpt>
      <trkpt lat="42.85682" lon="0.26802">
        <ele>1543</ele>
        <time>2012-02-23T14:54:48Z</time>
      </trkpt>
      <trkpt lat="42.85677" lon="0.26805">
        <ele>1539</ele>
        <time>2012-02-23T14:54:52Z</time>
      </trkpt>
      <trkpt lat="42.8567" lon="0.26807">
        <ele>1536</ele>
        <time>2012-02-23T14:54:55Z</time>
      </trkpt>
      <trkpt lat="42.85667" lon="0.26816">
        <ele>1533</ele>
        <time>2012-02-23T14:54:58Z</time>
      </trkpt>
      <trkpt lat="42.85659" lon="0.26813">
        <ele>1531</ele>
        <time>2012-02-23T14:55:02Z</time>
      </trkpt>
      <trkpt lat="42.8566" lon="0.26811">
        <ele>1531</ele>
        <time>2012-02-23T14:55:05Z</time>
      </trkpt>
      <trkpt lat="42.85657" lon="0.26813">
        <ele>1530</ele>
        <time>2012-02-23T14:55:10Z</time>
      </trkpt>
      <trkpt lat="42.85655" lon="0.26826">
        <ele>1529</ele>
        <time>2012-02-23T14:55:13Z</time>
      </trkpt>
      <trkpt lat="42.8565" lon="0.26832">
        <ele>1528</ele>
        <time>2012-02-23T14:55:16Z</time>
      </trkpt>
      <trkpt lat="42.85643" lon="0.26828">
        <ele>1527</ele>
        <time>2012-02-23T14:55:19Z</time>
      </trkpt>
      <trkpt lat="42.85636" lon="0.26834">
        <ele>1525</ele>
        <time>2012-02-23T14:55:22Z</time>
      </trkpt>
      <trkpt lat="42.85636" lon="0.26847">
        <ele>1522</ele>
        <time>2012-02-23T14:55:25Z</time>
      </trkpt>
      <trkpt lat="42.85635" lon="0.26855">
        <ele>1521</ele>
        <time>2012-02-23T14:55:28Z</time>
      </trkpt>
      <trkpt lat="42.85632" lon="0.26862">
        <ele>1520</ele>
        <time>2012-02-23T14:55:31Z</time>
      </trkpt>
      <trkpt lat="42.85627" lon="0.26871">
        <ele>1520</ele>
        <time>2012-02-23T14:55:34Z</time>
      </trkpt>
      <trkpt lat="42.85624" lon="0.26875">
        <ele>1520</ele>
        <time>2012-02-23T14:55:37Z</time>
      </trkpt>
      <trkpt lat="42.85618" lon="0.26869">
        <ele>1520</ele>
        <time>2012-02-23T14:55:40Z</time>
      </trkpt>
      <trkpt lat="42.85611" lon="0.26861">
        <ele>1517</ele>
        <time>2012-02-23T14:55:43Z</time>
      </trkpt>
      <trkpt lat="42.85609" lon="0.26866">
        <ele>1515</ele>
        <time>2012-02-23T14:55:46Z</time>
      </trkpt>
      <trkpt lat="42.85606" lon="0.26873">
        <ele>1514</ele>
        <time>2012-02-23T14:55:49Z</time>
      </trkpt>
      <trkpt lat="42.85605" lon="0.26877">
        <ele>1513</ele>
        <time>2012-02-23T14:55:53Z</time>
      </trkpt>
      <trkpt lat="42.85605" lon="0.26879">
        <ele>1513</ele>
        <time>2012-02-23T14:56:00Z</time>
      </trkpt>
      <trkpt lat="42.85604" lon="0.2688">
        <ele>1513</ele>
        <time>2012-02-23T14:56:09Z</time>
      </trkpt>
      <trkpt lat="42.85598" lon="0.26886">
        <ele>1512</ele>
        <time>2012-02-23T14:56:12Z</time>
      </trkpt>
      <trkpt lat="42.85596" lon="0.26895">
        <ele>1512</ele>
        <time>2012-02-23T14:56:15Z</time>
      </trkpt>
      <trkpt lat="42.85595" lon="0.26904">
        <ele>1511</ele>
        <time>2012-02-23T14:56:18Z</time>
      </trkpt>
      <trkpt lat="42.85594" lon="0.26911">
        <ele>1509</ele>
        <time>2012-02-23T14:56:21Z</time>
      </trkpt>
      <trkpt lat="42.85591" lon="0.26918">
        <ele>1508</ele>
        <time>2012-02-23T14:56:24Z</time>
      </trkpt>
      <trkpt lat="42.85587" lon="0.26925">
        <ele>1507</ele>
        <time>2012-02-23T14:56:27Z</time>
      </trkpt>
      <trkpt lat="42.85582" lon="0.26929">
        <ele>1506</ele>
        <time>2012-02-23T14:56:30Z</time>
      </trkpt>
      <trkpt lat="42.85577" lon="0.26935">
        <ele>1504</ele>
        <time>2012-02-23T14:56:33Z</time>
      </trkpt>
      <trkpt lat="42.8557" lon="0.26942">
        <ele>1503</ele>
        <time>2012-02-23T14:56:36Z</time>
      </trkpt>
      <trkpt lat="42.85555" lon="0.26961">
        <ele>1502</ele>
        <time>2012-02-23T14:56:43Z</time>
      </trkpt>
      <trkpt lat="42.85548" lon="0.26972">
        <ele>1500</ele>
        <time>2012-02-23T14:56:46Z</time>
      </trkpt>
      <trkpt lat="42.85542" lon="0.2698">
        <ele>1499</ele>
        <time>2012-02-23T14:56:49Z</time>
      </trkpt>
      <trkpt lat="42.85536" lon="0.26988">
        <ele>1498</ele>
        <time>2012-02-23T14:56:52Z</time>
      </trkpt>
      <trkpt lat="42.85534" lon="0.26993">
        <ele>1497</ele>
        <time>2012-02-23T14:56:55Z</time>
      </trkpt>
      <trkpt lat="42.85532" lon="0.26998">
        <ele>1494</ele>
        <time>2012-02-23T14:56:58Z</time>
      </trkpt>
      <trkpt lat="42.8553" lon="0.27004">
        <ele>1493</ele>
        <time>2012-02-23T14:57:01Z</time>
      </trkpt>
      <trkpt lat="42.85529" lon="0.2701">
        <ele>1492</ele>
        <time>2012-02-23T14:57:04Z</time>
      </trkpt>
      <trkpt lat="42.85525" lon="0.27018">
        <ele>1491</ele>
        <time>2012-02-23T14:57:07Z</time>
      </trkpt>
      <trkpt lat="42.85521" lon="0.27027">
        <ele>1489</ele>
        <time>2012-02-23T14:57:10Z</time>
      </trkpt>
      <trkpt lat="42.85518" lon="0.27037">
        <ele>1487</ele>
        <time>2012-02-23T14:57:13Z</time>
      </trkpt>
      <trkpt lat="42.85514" lon="0.27045">
        <ele>1486</ele>
        <time>2012-02-23T14:57:16Z</time>
      </trkpt>
      <trkpt lat="42.85509" lon="0.27052">
        <ele>1486</ele>
        <time>2012-02-23T14:57:19Z</time>
      </trkpt>
      <trkpt lat="42.85503" lon="0.27061">
        <ele>1486</ele>
        <time>2012-02-23T14:57:22Z</time>
      </trkpt>
      <trkpt lat="42.85498" lon="0.27069">
        <ele>1486</ele>
        <time>2012-02-23T14:57:25Z</time>
      </trkpt>
      <trkpt lat="42.85491" lon="0.27076">
        <ele>1486</ele>
        <time>2012-02-23T14:57:28Z</time>
      </trkpt>
      <trkpt lat="42.85482" lon="0.27083">
        <ele>1486</ele>
        <time>2012-02-23T14:57:31Z</time>
      </trkpt>
      <trkpt lat="42.85475" lon="0.2709">
        <ele>1486</ele>
        <time>2012-02-23T14:57:34Z</time>
      </trkpt>
      <trkpt lat="42.85468" lon="0.27097">
        <ele>1486</ele>
        <time>2012-02-23T14:57:37Z</time>
      </trkpt>
      <trkpt lat="42.85462" lon="0.27104">
        <ele>1485</ele>
        <time>2012-02-23T14:57:40Z</time>
      </trkpt>
      <trkpt lat="42.85457" lon="0.27112">
        <ele>1484</ele>
        <time>2012-02-23T14:57:43Z</time>
      </trkpt>
      <trkpt lat="42.85452" lon="0.27118">
        <ele>1483</ele>
        <time>2012-02-23T14:57:46Z</time>
      </trkpt>
      <trkpt lat="42.85447" lon="0.27124">
        <ele>1482</ele>
        <time>2012-02-23T14:57:49Z</time>
      </trkpt>
      <trkpt lat="42.85443" lon="0.27131">
        <ele>1481</ele>
        <time>2012-02-23T14:57:52Z</time>
      </trkpt>
      <trkpt lat="42.8544" lon="0.27138">
        <ele>1480</ele>
        <time>2012-02-23T14:57:55Z</time>
      </trkpt>
      <trkpt lat="42.85434" lon="0.27148">
        <ele>1479</ele>
        <time>2012-02-23T14:57:58Z</time>
      </trkpt>
      <trkpt lat="42.85429" lon="0.27163">
        <ele>1477</ele>
        <time>2012-02-23T14:58:01Z</time>
      </trkpt>
      <trkpt lat="42.85423" lon="0.27178">
        <ele>1475</ele>
        <time>2012-02-23T14:58:04Z</time>
      </trkpt>
      <trkpt lat="42.85418" lon="0.27191">
        <ele>1473</ele>
        <time>2012-02-23T14:58:07Z</time>
      </trkpt>
      <trkpt lat="42.85412" lon="0.272">
        <ele>1472</ele>
        <time>2012-02-23T14:58:10Z</time>
      </trkpt>
      <trkpt lat="42.85408" lon="0.27206">
        <ele>1470</ele>
        <time>2012-02-23T14:58:13Z</time>
      </trkpt>
      <trkpt lat="42.85406" lon="0.27209">
        <ele>1469</ele>
        <time>2012-02-23T14:58:16Z</time>
      </trkpt>
      <trkpt lat="42.85402" lon="0.27213">
        <ele>1468</ele>
        <time>2012-02-23T14:58:20Z</time>
      </trkpt>
      <trkpt lat="42.85398" lon="0.27217">
        <ele>1466</ele>
        <time>2012-02-23T14:58:24Z</time>
      </trkpt>
      <trkpt lat="42.85397" lon="0.27221">
        <ele>1463</ele>
        <time>2012-02-23T14:58:28Z</time>
      </trkpt>
      <trkpt lat="42.85395" lon="0.27225">
        <ele>1461</ele>
        <time>2012-02-23T14:58:31Z</time>
      </trkpt>
      <trkpt lat="42.85392" lon="0.2723">
        <ele>1460</ele>
        <time>2012-02-23T14:58:34Z</time>
      </trkpt>
      <trkpt lat="42.85387" lon="0.27237">
        <ele>1459</ele>
        <time>2012-02-23T14:58:37Z</time>
      </trkpt>
      <trkpt lat="42.85383" lon="0.27241">
        <ele>1459</ele>
        <time>2012-02-23T14:58:40Z</time>
      </trkpt>
      <trkpt lat="42.85379" lon="0.27246">
        <ele>1459</ele>
        <time>2012-02-23T14:58:43Z</time>
      </trkpt>
      <trkpt lat="42.85374" lon="0.27251">
        <ele>1459</ele>
        <time>2012-02-23T14:58:46Z</time>
      </trkpt>
      <trkpt lat="42.85369" lon="0.27254">
        <ele>1459</ele>
        <time>2012-02-23T14:58:49Z</time>
      </trkpt>
      <trkpt lat="42.85364" lon="0.27258">
        <ele>1459</ele>
        <time>2012-02-23T14:58:52Z</time>
      </trkpt>
      <trkpt lat="42.85361" lon="0.27261">
        <ele>1459</ele>
        <time>2012-02-23T14:58:55Z</time>
      </trkpt>
      <trkpt lat="42.85358" lon="0.27264">
        <ele>1459</ele>
        <time>2012-02-23T14:58:58Z</time>
      </trkpt>
      <trkpt lat="42.85354" lon="0.2727">
        <ele>1458</ele>
        <time>2012-02-23T14:59:01Z</time>
      </trkpt>
      <trkpt lat="42.85349" lon="0.27276">
        <ele>1457</ele>
        <time>2012-02-23T14:59:04Z</time>
      </trkpt>
      <trkpt lat="42.85344" lon="0.27283">
        <ele>1457</ele>
        <time>2012-02-23T14:59:07Z</time>
      </trkpt>
      <trkpt lat="42.85339" lon="0.27292">
        <ele>1457</ele>
        <time>2012-02-23T14:59:10Z</time>
      </trkpt>
      <trkpt lat="42.85334" lon="0.27301">
        <ele>1457</ele>
        <time>2012-02-23T14:59:13Z</time>
      </trkpt>
      <trkpt lat="42.85328" lon="0.27308">
        <ele>1457</ele>
        <time>2012-02-23T14:59:16Z</time>
      </trkpt>
      <trkpt lat="42.85324" lon="0.27313">
        <ele>1457</ele>
        <time>2012-02-23T14:59:19Z</time>
      </trkpt>
      <trkpt lat="42.85321" lon="0.27319">
        <ele>1457</ele>
        <time>2012-02-23T14:59:22Z</time>
      </trkpt>
      <trkpt lat="42.85316" lon="0.27324">
        <ele>1456</ele>
        <time>2012-02-23T14:59:25Z</time>
      </trkpt>
      <trkpt lat="42.85311" lon="0.27331">
        <ele>1455</ele>
        <time>2012-02-23T14:59:28Z</time>
      </trkpt>
      <trkpt lat="42.85307" lon="0.27337">
        <ele>1453</ele>
        <time>2012-02-23T14:59:31Z</time>
      </trkpt>
      <trkpt lat="42.85304" lon="0.27341">
        <ele>1451</ele>
        <time>2012-02-23T14:59:34Z</time>
      </trkpt>
      <trkpt lat="42.85299" lon="0.27348">
        <ele>1449</ele>
        <time>2012-02-23T14:59:38Z</time>
      </trkpt>
      <trkpt lat="42.85294" lon="0.27354">
        <ele>1449</ele>
        <time>2012-02-23T14:59:41Z</time>
      </trkpt>
      <trkpt lat="42.85289" lon="0.27359">
        <ele>1449</ele>
        <time>2012-02-23T14:59:44Z</time>
      </trkpt>
      <trkpt lat="42.85284" lon="0.27365">
        <ele>1449</ele>
        <time>2012-02-23T14:59:47Z</time>
      </trkpt>
      <trkpt lat="42.8528" lon="0.27372">
        <ele>1449</ele>
        <time>2012-02-23T14:59:50Z</time>
      </trkpt>
      <trkpt lat="42.85276" lon="0.2738">
        <ele>1449</ele>
        <time>2012-02-23T14:59:53Z</time>
      </trkpt>
      <trkpt lat="42.8527" lon="0.27388">
        <ele>1449</ele>
        <time>2012-02-23T14:59:56Z</time>
      </trkpt>
      <trkpt lat="42.85266" lon="0.27396">
        <ele>1449</ele>
        <time>2012-02-23T14:59:59Z</time>
      </trkpt>
      <trkpt lat="42.85262" lon="0.27404">
        <ele>1449</ele>
        <time>2012-02-23T15:00:02Z</time>
      </trkpt>
      <trkpt lat="42.85258" lon="0.27411">
        <ele>1449</ele>
        <time>2012-02-23T15:00:05Z</time>
      </trkpt>
      <trkpt lat="42.85253" lon="0.27419">
        <ele>1449</ele>
        <time>2012-02-23T15:00:08Z</time>
      </trkpt>
      <trkpt lat="42.85248" lon="0.27426">
        <ele>1449</ele>
        <time>2012-02-23T15:00:11Z</time>
      </trkpt>
      <trkpt lat="42.85243" lon="0.27433">
        <ele>1449</ele>
        <time>2012-02-23T15:00:14Z</time>
      </trkpt>
      <trkpt lat="42.85238" lon="0.27441">
        <ele>1449</ele>
        <time>2012-02-23T15:00:17Z</time>
      </trkpt>
      <trkpt lat="42.85234" lon="0.27448">
        <ele>1449</ele>
        <time>2012-02-23T15:00:20Z</time>
      </trkpt>
      <trkpt lat="42.85229" lon="0.27456">
        <ele>1448</ele>
        <time>2012-02-23T15:00:23Z</time>
      </trkpt>
      <trkpt lat="42.85224" lon="0.27465">
        <ele>1445</ele>
        <time>2012-02-23T15:00:26Z</time>
      </trkpt>
      <trkpt lat="42.8522" lon="0.27473">
        <ele>1444</ele>
        <time>2012-02-23T15:00:29Z</time>
      </trkpt>
      <trkpt lat="42.85215" lon="0.27482">
        <ele>1442</ele>
        <time>2012-02-23T15:00:32Z</time>
      </trkpt>
      <trkpt lat="42.85211" lon="0.27488">
        <ele>1442</ele>
        <time>2012-02-23T15:00:35Z</time>
      </trkpt>
      <trkpt lat="42.85208" lon="0.27493">
        <ele>1442</ele>
        <time>2012-02-23T15:00:38Z</time>
      </trkpt>
      <trkpt lat="42.85206" lon="0.27498">
        <ele>1442</ele>
        <time>2012-02-23T15:00:41Z</time>
      </trkpt>
      <trkpt lat="42.85204" lon="0.27503">
        <ele>1440</ele>
        <time>2012-02-23T15:00:44Z</time>
      </trkpt>
      <trkpt lat="42.852" lon="0.27509">
        <ele>1439</ele>
        <time>2012-02-23T15:00:47Z</time>
      </trkpt>
      <trkpt lat="42.85196" lon="0.27518">
        <ele>1437</ele>
        <time>2012-02-23T15:00:50Z</time>
      </trkpt>
      <trkpt lat="42.85192" lon="0.27525">
        <ele>1435</ele>
        <time>2012-02-23T15:00:53Z</time>
      </trkpt>
      <trkpt lat="42.85189" lon="0.27532">
        <ele>1434</ele>
        <time>2012-02-23T15:00:56Z</time>
      </trkpt>
      <trkpt lat="42.85186" lon="0.27538">
        <ele>1433</ele>
        <time>2012-02-23T15:00:59Z</time>
      </trkpt>
      <trkpt lat="42.85183" lon="0.27545">
        <ele>1433</ele>
        <time>2012-02-23T15:01:02Z</time>
      </trkpt>
      <trkpt lat="42.85176" lon="0.27555">
        <ele>1433</ele>
        <time>2012-02-23T15:01:05Z</time>
      </trkpt>
      <trkpt lat="42.8517" lon="0.27566">
        <ele>1433</ele>
        <time>2012-02-23T15:01:08Z</time>
      </trkpt>
      <trkpt lat="42.85165" lon="0.27575">
        <ele>1433</ele>
        <time>2012-02-23T15:01:11Z</time>
      </trkpt>
      <trkpt lat="42.85162" lon="0.27583">
        <ele>1431</ele>
        <time>2012-02-23T15:01:14Z</time>
      </trkpt>
      <trkpt lat="42.85158" lon="0.27591">
        <ele>1429</ele>
        <time>2012-02-23T15:01:17Z</time>
      </trkpt>
      <trkpt lat="42.85154" lon="0.27598">
        <ele>1428</ele>
        <time>2012-02-23T15:01:20Z</time>
      </trkpt>
      <trkpt lat="42.8515" lon="0.27605">
        <ele>1428</ele>
        <time>2012-02-23T15:01:23Z</time>
      </trkpt>
      <trkpt lat="42.85146" lon="0.27612">
        <ele>1427</ele>
        <time>2012-02-23T15:01:26Z</time>
      </trkpt>
      <trkpt lat="42.85144" lon="0.27617">
        <ele>1424</ele>
        <time>2012-02-23T15:01:29Z</time>
      </trkpt>
      <trkpt lat="42.85141" lon="0.27621">
        <ele>1421</ele>
        <time>2012-02-23T15:01:32Z</time>
      </trkpt>
      <trkpt lat="42.85139" lon="0.27627">
        <ele>1418</ele>
        <time>2012-02-23T15:01:35Z</time>
      </trkpt>
      <trkpt lat="42.85136" lon="0.27633">
        <ele>1416</ele>
        <time>2012-02-23T15:01:38Z</time>
      </trkpt>
      <trkpt lat="42.85134" lon="0.27639">
        <ele>1415</ele>
        <time>2012-02-23T15:01:41Z</time>
      </trkpt>
      <trkpt lat="42.85135" lon="0.27639">
        <ele>1413</ele>
        <time>2012-02-23T15:01:57Z</time>
      </trkpt>
      <trkpt lat="42.85135" lon="0.27641">
        <ele>1413</ele>
        <time>2012-02-23T15:02:23Z</time>
      </trkpt>
      <trkpt lat="42.85133" lon="0.27642">
        <ele>1413</ele>
        <time>2012-02-23T15:02:29Z</time>
      </trkpt>
      <trkpt lat="42.85132" lon="0.27643">
        <ele>1413</ele>
        <time>2012-02-23T15:02:32Z</time>
      </trkpt>
      <trkpt lat="42.8513" lon="0.27643">
        <ele>1413</ele>
        <time>2012-02-23T15:02:35Z</time>
      </trkpt>
      <trkpt lat="42.8513" lon="0.27645">
        <ele>1413</ele>
        <time>2012-02-23T15:02:57Z</time>
      </trkpt>
      <trkpt lat="42.8513" lon="0.27643">
        <ele>1413</ele>
        <time>2012-02-23T15:03:02Z</time>
      </trkpt>
      <trkpt lat="42.85129" lon="0.27645">
        <ele>1413</ele>
        <time>2012-02-23T15:03:07Z</time>
      </trkpt>
      <trkpt lat="42.85127" lon="0.27651">
        <ele>1412</ele>
        <time>2012-02-23T15:03:11Z</time>
      </trkpt>
      <trkpt lat="42.85125" lon="0.27655">
        <ele>1412</ele>
        <time>2012-02-23T15:03:14Z</time>
      </trkpt>
      <trkpt lat="42.85123" lon="0.2766">
        <ele>1411</ele>
        <time>2012-02-23T15:03:18Z</time>
      </trkpt>
      <trkpt lat="42.85123" lon="0.27663">
        <ele>1409</ele>
        <time>2012-02-23T15:03:22Z</time>
      </trkpt>
      <trkpt lat="42.85122" lon="0.27667">
        <ele>1408</ele>
        <time>2012-02-23T15:03:25Z</time>
      </trkpt>
      <trkpt lat="42.85121" lon="0.27672">
        <ele>1408</ele>
        <time>2012-02-23T15:03:29Z</time>
      </trkpt>
      <trkpt lat="42.8512" lon="0.27674">
        <ele>1408</ele>
        <time>2012-02-23T15:03:32Z</time>
      </trkpt>
      <trkpt lat="42.85119" lon="0.27679">
        <ele>1407</ele>
        <time>2012-02-23T15:03:36Z</time>
      </trkpt>
      <trkpt lat="42.8512" lon="0.27682">
        <ele>1407</ele>
        <time>2012-02-23T15:03:39Z</time>
      </trkpt>
      <trkpt lat="42.85119" lon="0.27688">
        <ele>1407</ele>
        <time>2012-02-23T15:03:43Z</time>
      </trkpt>
      <trkpt lat="42.85118" lon="0.27692">
        <ele>1406</ele>
        <time>2012-02-23T15:03:46Z</time>
      </trkpt>
      <trkpt lat="42.85117" lon="0.27694">
        <ele>1406</ele>
        <time>2012-02-23T15:03:54Z</time>
      </trkpt>
      <trkpt lat="42.85115" lon="0.27697">
        <ele>1409</ele>
        <time>2012-02-23T15:03:58Z</time>
      </trkpt>
      <trkpt lat="42.85116" lon="0.277">
        <ele>1409</ele>
        <time>2012-02-23T15:04:02Z</time>
      </trkpt>
      <trkpt lat="42.85115" lon="0.27704">
        <ele>1409</ele>
        <time>2012-02-23T15:04:05Z</time>
      </trkpt>
      <trkpt lat="42.85115" lon="0.27708">
        <ele>1409</ele>
        <time>2012-02-23T15:04:08Z</time>
      </trkpt>
      <trkpt lat="42.85114" lon="0.27712">
        <ele>1409</ele>
        <time>2012-02-23T15:04:11Z</time>
      </trkpt>
      <trkpt lat="42.85114" lon="0.27716">
        <ele>1408</ele>
        <time>2012-02-23T15:04:15Z</time>
      </trkpt>
      <trkpt lat="42.85114" lon="0.27719">
        <ele>1406</ele>
        <time>2012-02-23T15:04:20Z</time>
      </trkpt>
      <trkpt lat="42.85115" lon="0.2772">
        <ele>1405</ele>
        <time>2012-02-23T15:04:24Z</time>
      </trkpt>
      <trkpt lat="42.85117" lon="0.27718">
        <ele>1404</ele>
        <time>2012-02-23T15:04:27Z</time>
      </trkpt>
      <trkpt lat="42.85117" lon="0.27716">
        <ele>1402</ele>
        <time>2012-02-23T15:04:39Z</time>
      </trkpt>
      <trkpt lat="42.85116" lon="0.27716">
        <ele>1402</ele>
        <time>2012-02-23T15:04:50Z</time>
      </trkpt>
      <trkpt lat="42.85117" lon="0.27716">
        <ele>1402</ele>
        <time>2012-02-23T15:04:57Z</time>
      </trkpt>
      <trkpt lat="42.85118" lon="0.27717">
        <ele>1402</ele>
        <time>2012-02-23T15:05:02Z</time>
      </trkpt>
      <trkpt lat="42.85123" lon="0.27719">
        <ele>1402</ele>
        <time>2012-02-23T15:05:06Z</time>
      </trkpt>
      <trkpt lat="42.85125" lon="0.27723">
        <ele>1402</ele>
        <time>2012-02-23T15:05:09Z</time>
      </trkpt>
      <trkpt lat="42.85129" lon="0.27726">
        <ele>1402</ele>
        <time>2012-02-23T15:05:13Z</time>
      </trkpt>
      <trkpt lat="42.85132" lon="0.27728">
        <ele>1402</ele>
        <time>2012-02-23T15:05:16Z</time>
      </trkpt>
      <trkpt lat="42.85134" lon="0.27732">
        <ele>1402</ele>
        <time>2012-02-23T15:05:19Z</time>
      </trkpt>
      <trkpt lat="42.85136" lon="0.27736">
        <ele>1402</ele>
        <time>2012-02-23T15:05:22Z</time>
      </trkpt>
      <trkpt lat="42.85139" lon="0.2774">
        <ele>1402</ele>
        <time>2012-02-23T15:05:26Z</time>
      </trkpt>
      <trkpt lat="42.85141" lon="0.27743">
        <ele>1402</ele>
        <time>2012-02-23T15:05:30Z</time>
      </trkpt>
      <trkpt lat="42.85144" lon="0.27746">
        <ele>1402</ele>
        <time>2012-02-23T15:05:34Z</time>
      </trkpt>
      <trkpt lat="42.85147" lon="0.27749">
        <ele>1402</ele>
        <time>2012-02-23T15:05:39Z</time>
      </trkpt>
      <trkpt lat="42.85149" lon="0.27752">
        <ele>1402</ele>
        <time>2012-02-23T15:05:42Z</time>
      </trkpt>
      <trkpt lat="42.85152" lon="0.27753">
        <ele>1402</ele>
        <time>2012-02-23T15:05:47Z</time>
      </trkpt>
      <trkpt lat="42.85153" lon="0.27753">
        <ele>1402</ele>
        <time>2012-02-23T15:05:53Z</time>
      </trkpt>
      <trkpt lat="42.85154" lon="0.27755">
        <ele>1401</ele>
        <time>2012-02-23T15:05:56Z</time>
      </trkpt>
      <trkpt lat="42.85155" lon="0.27757">
        <ele>1401</ele>
        <time>2012-02-23T15:05:59Z</time>
      </trkpt>
      <trkpt lat="42.85158" lon="0.2776">
        <ele>1399</ele>
        <time>2012-02-23T15:06:04Z</time>
      </trkpt>
      <trkpt lat="42.8516" lon="0.27764">
        <ele>1399</ele>
        <time>2012-02-23T15:06:08Z</time>
      </trkpt>
      <trkpt lat="42.85162" lon="0.27771">
        <ele>1398</ele>
        <time>2012-02-23T15:06:12Z</time>
      </trkpt>
      <trkpt lat="42.85164" lon="0.27772">
        <ele>1398</ele>
        <time>2012-02-23T15:06:16Z</time>
      </trkpt>
      <trkpt lat="42.85165" lon="0.27776">
        <ele>1398</ele>
        <time>2012-02-23T15:06:20Z</time>
      </trkpt>
      <trkpt lat="42.85166" lon="0.27779">
        <ele>1398</ele>
        <time>2012-02-23T15:06:25Z</time>
      </trkpt>
      <trkpt lat="42.85166" lon="0.27782">
        <ele>1397</ele>
        <time>2012-02-23T15:06:28Z</time>
      </trkpt>
      <trkpt lat="42.85166" lon="0.27786">
        <ele>1396</ele>
        <time>2012-02-23T15:06:32Z</time>
      </trkpt>
      <trkpt lat="42.85166" lon="0.27789">
        <ele>1395</ele>
        <time>2012-02-23T15:06:35Z</time>
      </trkpt>
      <trkpt lat="42.85166" lon="0.27791">
        <ele>1394</ele>
        <time>2012-02-23T15:06:38Z</time>
      </trkpt>
      <trkpt lat="42.85166" lon="0.27793">
        <ele>1394</ele>
        <time>2012-02-23T15:06:41Z</time>
      </trkpt>
      <trkpt lat="42.85167" lon="0.27796">
        <ele>1394</ele>
        <time>2012-02-23T15:06:46Z</time>
      </trkpt>
      <trkpt lat="42.85167" lon="0.27797">
        <ele>1394</ele>
        <time>2012-02-23T15:06:50Z</time>
      </trkpt>
      <trkpt lat="42.85167" lon="0.27799">
        <ele>1394</ele>
        <time>2012-02-23T15:06:57Z</time>
      </trkpt>
      <trkpt lat="42.85167" lon="0.27797">
        <ele>1394</ele>
        <time>2012-02-23T15:07:08Z</time>
      </trkpt>
      <trkpt lat="42.85166" lon="0.27801">
        <ele>1394</ele>
        <time>2012-02-23T15:07:12Z</time>
      </trkpt>
      <trkpt lat="42.85166" lon="0.27806">
        <ele>1393</ele>
        <time>2012-02-23T15:07:16Z</time>
      </trkpt>
      <trkpt lat="42.85166" lon="0.27808">
        <ele>1392</ele>
        <time>2012-02-23T15:07:20Z</time>
      </trkpt>
      <trkpt lat="42.85165" lon="0.27812">
        <ele>1391</ele>
        <time>2012-02-23T15:07:24Z</time>
      </trkpt>
      <trkpt lat="42.85164" lon="0.27816">
        <ele>1390</ele>
        <time>2012-02-23T15:07:28Z</time>
      </trkpt>
      <trkpt lat="42.85163" lon="0.2782">
        <ele>1389</ele>
        <time>2012-02-23T15:07:31Z</time>
      </trkpt>
      <trkpt lat="42.85164" lon="0.27824">
        <ele>1389</ele>
        <time>2012-02-23T15:07:34Z</time>
      </trkpt>
      <trkpt lat="42.85164" lon="0.27826">
        <ele>1389</ele>
        <time>2012-02-23T15:07:38Z</time>
      </trkpt>
      <trkpt lat="42.85165" lon="0.27828">
        <ele>1389</ele>
        <time>2012-02-23T15:07:41Z</time>
      </trkpt>
      <trkpt lat="42.85166" lon="0.27831">
        <ele>1389</ele>
        <time>2012-02-23T15:07:45Z</time>
      </trkpt>
      <trkpt lat="42.85169" lon="0.27828">
        <ele>1389</ele>
        <time>2012-02-23T15:07:48Z</time>
      </trkpt>
      <trkpt lat="42.85174" lon="0.27826">
        <ele>1386</ele>
        <time>2012-02-23T15:07:53Z</time>
      </trkpt>
      <trkpt lat="42.85177" lon="0.27828">
        <ele>1385</ele>
        <time>2012-02-23T15:07:57Z</time>
      </trkpt>
      <trkpt lat="42.8518" lon="0.27829">
        <ele>1385</ele>
        <time>2012-02-23T15:08:00Z</time>
      </trkpt>
      <trkpt lat="42.85183" lon="0.2783">
        <ele>1385</ele>
        <time>2012-02-23T15:08:03Z</time>
      </trkpt>
      <trkpt lat="42.85184" lon="0.27833">
        <ele>1385</ele>
        <time>2012-02-23T15:08:07Z</time>
      </trkpt>
      <trkpt lat="42.85185" lon="0.27833">
        <ele>1385</ele>
        <time>2012-02-23T15:08:10Z</time>
      </trkpt>
      <trkpt lat="42.85186" lon="0.27834">
        <ele>1385</ele>
        <time>2012-02-23T15:08:17Z</time>
      </trkpt>
      <trkpt lat="42.85186" lon="0.27836">
        <ele>1385</ele>
        <time>2012-02-23T15:08:24Z</time>
      </trkpt>
      <trkpt lat="42.85184" lon="0.27841">
        <ele>1385</ele>
        <time>2012-02-23T15:08:28Z</time>
      </trkpt>
      <trkpt lat="42.85186" lon="0.2784">
        <ele>1387</ele>
        <time>2012-02-23T15:08:35Z</time>
      </trkpt>
      <trkpt lat="42.85189" lon="0.27839">
        <ele>1387</ele>
        <time>2012-02-23T15:08:39Z</time>
      </trkpt>
      <trkpt lat="42.85193" lon="0.27839">
        <ele>1387</ele>
        <time>2012-02-23T15:08:42Z</time>
      </trkpt>
      <trkpt lat="42.85196" lon="0.2784">
        <ele>1387</ele>
        <time>2012-02-23T15:08:46Z</time>
      </trkpt>
      <trkpt lat="42.85197" lon="0.27839">
        <ele>1387</ele>
        <time>2012-02-23T15:08:51Z</time>
      </trkpt>
      <trkpt lat="42.85199" lon="0.27839">
        <ele>1387</ele>
        <time>2012-02-23T15:08:54Z</time>
      </trkpt>
      <trkpt lat="42.85202" lon="0.27839">
        <ele>1387</ele>
        <time>2012-02-23T15:08:58Z</time>
      </trkpt>
      <trkpt lat="42.85204" lon="0.27841">
        <ele>1387</ele>
        <time>2012-02-23T15:09:03Z</time>
      </trkpt>
      <trkpt lat="42.85204" lon="0.27843">
        <ele>1387</ele>
        <time>2012-02-23T15:09:15Z</time>
      </trkpt>
      <trkpt lat="42.85203" lon="0.27844">
        <ele>1387</ele>
        <time>2012-02-23T15:09:21Z</time>
      </trkpt>
      <trkpt lat="42.85203" lon="0.27846">
        <ele>1387</ele>
        <time>2012-02-23T15:09:42Z</time>
      </trkpt>
      <trkpt lat="42.85202" lon="0.27848">
        <ele>1387</ele>
        <time>2012-02-23T15:09:55Z</time>
      </trkpt>
      <trkpt lat="42.85201" lon="0.27852">
        <ele>1387</ele>
        <time>2012-02-23T15:09:59Z</time>
      </trkpt>
      <trkpt lat="42.85197" lon="0.27854">
        <ele>1387</ele>
        <time>2012-02-23T15:10:03Z</time>
      </trkpt>
      <trkpt lat="42.85194" lon="0.27854">
        <ele>1387</ele>
        <time>2012-02-23T15:10:07Z</time>
      </trkpt>
      <trkpt lat="42.8519" lon="0.27853">
        <ele>1387</ele>
        <time>2012-02-23T15:10:10Z</time>
      </trkpt>
      <trkpt lat="42.85188" lon="0.27852">
        <ele>1387</ele>
        <time>2012-02-23T15:10:19Z</time>
      </trkpt>
      <trkpt lat="42.85187" lon="0.27851">
        <ele>1387</ele>
        <time>2012-02-23T15:10:27Z</time>
      </trkpt>
      <trkpt lat="42.85188" lon="0.2785">
        <ele>1387</ele>
        <time>2012-02-23T15:10:35Z</time>
      </trkpt>
      <trkpt lat="42.8519" lon="0.27849">
        <ele>1387</ele>
        <time>2012-02-23T15:10:38Z</time>
      </trkpt>
      <trkpt lat="42.85191" lon="0.27849">
        <ele>1386</ele>
        <time>2012-02-23T15:10:43Z</time>
      </trkpt>
      <trkpt lat="42.8519" lon="0.27847">
        <ele>1386</ele>
        <time>2012-02-23T15:10:52Z</time>
      </trkpt>
      <trkpt lat="42.8519" lon="0.27845">
        <ele>1386</ele>
        <time>2012-02-23T15:10:56Z</time>
      </trkpt>
      <trkpt lat="42.8519" lon="0.27846">
        <ele>1386</ele>
        <time>2012-02-23T15:11:06Z</time>
      </trkpt>
      <trkpt lat="42.85189" lon="0.27846">
        <ele>1387</ele>
        <time>2012-02-23T15:11:09Z</time>
      </trkpt>
      <trkpt lat="42.85187" lon="0.27846">
        <ele>1389</ele>
        <time>2012-02-23T15:11:15Z</time>
      </trkpt>
      <trkpt lat="42.85184" lon="0.27846">
        <ele>1394</ele>
        <time>2012-02-23T15:11:20Z</time>
      </trkpt>
      <trkpt lat="42.85183" lon="0.27847">
        <ele>1395</ele>
        <time>2012-02-23T15:11:23Z</time>
      </trkpt>
      <trkpt lat="42.85182" lon="0.27848">
        <ele>1397</ele>
        <time>2012-02-23T15:11:27Z</time>
      </trkpt>
      <trkpt lat="42.85178" lon="0.27852">
        <ele>1397</ele>
        <time>2012-02-23T15:11:37Z</time>
      </trkpt>
      <trkpt lat="42.8518" lon="0.27849">
        <ele>1401</ele>
        <time>2012-02-23T15:11:42Z</time>
      </trkpt>
      <trkpt lat="42.85182" lon="0.27848">
        <ele>1401</ele>
        <time>2012-02-23T15:11:45Z</time>
      </trkpt>
      <trkpt lat="42.85181" lon="0.27847">
        <ele>1401</ele>
        <time>2012-02-23T15:11:52Z</time>
      </trkpt>
      <trkpt lat="42.85181" lon="0.27845">
        <ele>1401</ele>
        <time>2012-02-23T15:11:56Z</time>
      </trkpt>
      <trkpt lat="42.85183" lon="0.27846">
        <ele>1401</ele>
        <time>2012-02-23T15:11:59Z</time>
      </trkpt>
      <trkpt lat="42.85186" lon="0.27847">
        <ele>1401</ele>
        <time>2012-02-23T15:12:02Z</time>
      </trkpt>
      <trkpt lat="42.85186" lon="0.27849">
        <ele>1396</ele>
        <time>2012-02-23T15:12:11Z</time>
      </trkpt>
      <trkpt lat="42.8519" lon="0.27847">
        <ele>1392</ele>
        <time>2012-02-23T15:12:15Z</time>
      </trkpt>
      <trkpt lat="42.85189" lon="0.27847">
        <ele>1389</ele>
        <time>2012-02-23T15:12:20Z</time>
      </trkpt>
      <trkpt lat="42.85187" lon="0.2785">
        <ele>1389</ele>
        <time>2012-02-23T15:12:23Z</time>
      </trkpt>
      <trkpt lat="42.85184" lon="0.27852">
        <ele>1389</ele>
        <time>2012-02-23T15:12:26Z</time>
      </trkpt>
      <trkpt lat="42.85181" lon="0.27851">
        <ele>1390</ele>
        <time>2012-02-23T15:12:29Z</time>
      </trkpt>
      <trkpt lat="42.85181" lon="0.27853">
        <ele>1391</ele>
        <time>2012-02-23T15:12:34Z</time>
      </trkpt>
      <trkpt lat="42.85182" lon="0.27854">
        <ele>1391</ele>
        <time>2012-02-23T15:12:38Z</time>
      </trkpt>
      <trkpt lat="42.85183" lon="0.27855">
        <ele>1391</ele>
        <time>2012-02-23T15:12:42Z</time>
      </trkpt>
      <trkpt lat="42.85185" lon="0.27855">
        <ele>1391</ele>
        <time>2012-02-23T15:12:45Z</time>
      </trkpt>
      <trkpt lat="42.85186" lon="0.27857">
        <ele>1391</ele>
        <time>2012-02-23T15:12:48Z</time>
      </trkpt>
      <trkpt lat="42.85187" lon="0.27859">
        <ele>1391</ele>
        <time>2012-02-23T15:12:55Z</time>
      </trkpt>
      <trkpt lat="42.85186" lon="0.27858">
        <ele>1391</ele>
        <time>2012-02-23T15:12:58Z</time>
      </trkpt>
      <trkpt lat="42.85182" lon="0.2786">
        <ele>1388</ele>
        <time>2012-02-23T15:13:03Z</time>
      </trkpt>
      <trkpt lat="42.8518" lon="0.27861">
        <ele>1388</ele>
        <time>2012-02-23T15:13:06Z</time>
      </trkpt>
      <trkpt lat="42.8518" lon="0.2786">
        <ele>1386</ele>
        <time>2012-02-23T15:13:13Z</time>
      </trkpt>
      <trkpt lat="42.85181" lon="0.27855">
        <ele>1386</ele>
        <time>2012-02-23T15:13:18Z</time>
      </trkpt>
      <trkpt lat="42.85182" lon="0.27852">
        <ele>1386</ele>
        <time>2012-02-23T15:13:22Z</time>
      </trkpt>
      <trkpt lat="42.85183" lon="0.27851">
        <ele>1387</ele>
        <time>2012-02-23T15:13:25Z</time>
      </trkpt>
      <trkpt lat="42.85184" lon="0.27849">
        <ele>1387</ele>
        <time>2012-02-23T15:13:29Z</time>
      </trkpt>
      <trkpt lat="42.85186" lon="0.27846">
        <ele>1387</ele>
        <time>2012-02-23T15:13:32Z</time>
      </trkpt>
      <trkpt lat="42.85188" lon="0.27845">
        <ele>1387</ele>
        <time>2012-02-23T15:13:35Z</time>
      </trkpt>
      <trkpt lat="42.85189" lon="0.27845">
        <ele>1387</ele>
        <time>2012-02-23T15:13:42Z</time>
      </trkpt>
      <trkpt lat="42.8519" lon="0.27846">
        <ele>1386</ele>
        <time>2012-02-23T15:13:51Z</time>
      </trkpt>
      <trkpt lat="42.85189" lon="0.27845">
        <ele>1386</ele>
        <time>2012-02-23T15:13:57Z</time>
      </trkpt>
      <trkpt lat="42.85186" lon="0.27842">
        <ele>1391</ele>
        <time>2012-02-23T15:14:03Z</time>
      </trkpt>
      <trkpt lat="42.85185" lon="0.27842">
        <ele>1394</ele>
        <time>2012-02-23T15:14:06Z</time>
      </trkpt>
      <trkpt lat="42.85185" lon="0.27839">
        <ele>1398</ele>
        <time>2012-02-23T15:14:10Z</time>
      </trkpt>
      <trkpt lat="42.85185" lon="0.27837">
        <ele>1405</ele>
        <time>2012-02-23T15:14:17Z</time>
      </trkpt>
      <trkpt lat="42.85184" lon="0.27841">
        <ele>1409</ele>
        <time>2012-02-23T15:14:23Z</time>
      </trkpt>
      <trkpt lat="42.85186" lon="0.27843">
        <ele>1407</ele>
        <time>2012-02-23T15:14:27Z</time>
      </trkpt>
      <trkpt lat="42.85188" lon="0.27844">
        <ele>1404</ele>
        <time>2012-02-23T15:14:30Z</time>
      </trkpt>
      <trkpt lat="42.85186" lon="0.27845">
        <ele>1401</ele>
        <time>2012-02-23T15:14:33Z</time>
      </trkpt>
      <trkpt lat="42.85187" lon="0.27843">
        <ele>1398</ele>
        <time>2012-02-23T15:14:46Z</time>
      </trkpt>
      <trkpt lat="42.85185" lon="0.27842">
        <ele>1399</ele>
        <time>2012-02-23T15:14:57Z</time>
      </trkpt>
      <trkpt lat="42.85184" lon="0.27839">
        <ele>1401</ele>
        <time>2012-02-23T15:15:00Z</time>
      </trkpt>
      <trkpt lat="42.85183" lon="0.27841">
        <ele>1407</ele>
        <time>2012-02-23T15:15:06Z</time>
      </trkpt>
      <trkpt lat="42.85186" lon="0.27842">
        <ele>1408</ele>
        <time>2012-02-23T15:15:11Z</time>
      </trkpt>
      <trkpt lat="42.85186" lon="0.2784">
        <ele>1407</ele>
        <time>2012-02-23T15:15:16Z</time>
      </trkpt>
      <trkpt lat="42.85185" lon="0.27839">
        <ele>1404</ele>
        <time>2012-02-23T15:15:19Z</time>
      </trkpt>
      <trkpt lat="42.85184" lon="0.27843">
        <ele>1400</ele>
        <time>2012-02-23T15:15:23Z</time>
      </trkpt>
      <trkpt lat="42.85185" lon="0.27845">
        <ele>1399</ele>
        <time>2012-02-23T15:15:29Z</time>
      </trkpt>
      <trkpt lat="42.85186" lon="0.27845">
        <ele>1403</ele>
        <time>2012-02-23T15:15:34Z</time>
      </trkpt>
      <trkpt lat="42.85184" lon="0.27846">
        <ele>1405</ele>
        <time>2012-02-23T15:15:37Z</time>
      </trkpt>
      <trkpt lat="42.8518" lon="0.27851">
        <ele>1408</ele>
        <time>2012-02-23T15:15:41Z</time>
      </trkpt>
      <trkpt lat="42.85181" lon="0.27851">
        <ele>1408</ele>
        <time>2012-02-23T15:15:46Z</time>
      </trkpt>
      <trkpt lat="42.85181" lon="0.27848">
        <ele>1406</ele>
        <time>2012-02-23T15:15:50Z</time>
      </trkpt>
      <trkpt lat="42.8518" lon="0.27846">
        <ele>1400</ele>
        <time>2012-02-23T15:15:56Z</time>
      </trkpt>
      <trkpt lat="42.85181" lon="0.27844">
        <ele>1399</ele>
        <time>2012-02-23T15:15:59Z</time>
      </trkpt>
      <trkpt lat="42.85183" lon="0.27842">
        <ele>1393</ele>
        <time>2012-02-23T15:16:04Z</time>
      </trkpt>
      <trkpt lat="42.85184" lon="0.27843">
        <ele>1385</ele>
        <time>2012-02-23T15:16:11Z</time>
      </trkpt>
      <trkpt lat="42.85185" lon="0.27846">
        <ele>1382</ele>
        <time>2012-02-23T15:16:16Z</time>
      </trkpt>
      <trkpt lat="42.85186" lon="0.27847">
        <ele>1382</ele>
        <time>2012-02-23T15:16:22Z</time>
      </trkpt>
      <trkpt lat="42.85186" lon="0.27845">
        <ele>1382</ele>
        <time>2012-02-23T15:16:29Z</time>
      </trkpt>
      <trkpt lat="42.85185" lon="0.27844">
        <ele>1382</ele>
        <time>2012-02-23T15:16:33Z</time>
      </trkpt>
      <trkpt lat="42.85187" lon="0.27839">
        <ele>1382</ele>
        <time>2012-02-23T15:16:37Z</time>
      </trkpt>
      <trkpt lat="42.8519" lon="0.27839">
        <ele>1381</ele>
        <time>2012-02-23T15:16:44Z</time>
      </trkpt>
      <trkpt lat="42.85191" lon="0.27836">
        <ele>1381</ele>
        <time>2012-02-23T15:16:48Z</time>
      </trkpt>
      <trkpt lat="42.8519" lon="0.27834">
        <ele>1381</ele>
        <time>2012-02-23T15:16:52Z</time>
      </trkpt>
      <trkpt lat="42.85188" lon="0.27834">
        <ele>1381</ele>
        <time>2012-02-23T15:16:57Z</time>
      </trkpt>
      <trkpt lat="42.85187" lon="0.27835">
        <ele>1384</ele>
        <time>2012-02-23T15:17:00Z</time>
      </trkpt>
      <trkpt lat="42.85188" lon="0.27837">
        <ele>1387</ele>
        <time>2012-02-23T15:17:03Z</time>
      </trkpt>
      <trkpt lat="42.85186" lon="0.27835">
        <ele>1390</ele>
        <time>2012-02-23T15:17:06Z</time>
      </trkpt>
      <trkpt lat="42.85185" lon="0.27833">
        <ele>1393</ele>
        <time>2012-02-23T15:17:10Z</time>
      </trkpt>
      <trkpt lat="42.85184" lon="0.27835">
        <ele>1397</ele>
        <time>2012-02-23T15:17:14Z</time>
      </trkpt>
      <trkpt lat="42.85182" lon="0.27836">
        <ele>1394</ele>
        <time>2012-02-23T15:17:30Z</time>
      </trkpt>
      <trkpt lat="42.85182" lon="0.27836">
        <ele>1390</ele>
        <time>2012-02-23T15:17:48Z</time>
      </trkpt>
      <trkpt lat="42.85183" lon="0.27837">
        <ele>1390</ele>
        <time>2012-02-23T15:17:53Z</time>
      </trkpt>
      <trkpt lat="42.85184" lon="0.27839">
        <ele>1390</ele>
        <time>2012-02-23T15:17:59Z</time>
      </trkpt>
      <trkpt lat="42.85183" lon="0.27837">
        <ele>1390</ele>
        <time>2012-02-23T15:18:10Z</time>
      </trkpt>
      <trkpt lat="42.85181" lon="0.27836">
        <ele>1391</ele>
        <time>2012-02-23T15:18:13Z</time>
      </trkpt>
      <trkpt lat="42.8518" lon="0.27835">
        <ele>1391</ele>
        <time>2012-02-23T15:18:22Z</time>
      </trkpt>
      <trkpt lat="42.8518" lon="0.27836">
        <ele>1391</ele>
        <time>2012-02-23T15:18:26Z</time>
      </trkpt>
      <trkpt lat="42.8518" lon="0.27837">
        <ele>1388</ele>
        <time>2012-02-23T15:18:32Z</time>
      </trkpt>
    </trkseg>
  </trk>
</gpx>